# Wetter Temperatur Luftdruck Luftfeuchtigkeit Sichtweite Windgeschwindigkeit Windrichtung Zeit
1 Rain 6 1001 86 0 15.4 300 20:24 02.04.2020
2 Rain 6 1001 86 0 15.4 300 19:56 02.04.2020
3 Rain 6 1001 86 0 15.4 300 19:37 02.04.2020
4 Rain 7 1001 87 0 15.4 270 19:19 02.04.2020
5 Rain 7 1001 87 0 15.4 270 18:42 02.04.2020
6 Rain 7 1002 87 0 16.5 270 18:21 02.04.2020
7 Rain 7 1002 87 0 16.5 270 17:59 02.04.2020
8 Rain 7 1002 87 0 16.5 270 17:59 02.04.2020
9 Rain 8 1002 87 0 16.5 270 17:41 02.04.2020
10 Rain 8 1002 70 0 17.5 270 17:22 02.04.2020
11 Rain 8 1002 70 0 17.5 270 16:58 02.04.2020
12 Rain 9 1002 70 0 17.5 270 16:40 02.04.2020
13 Rain 9 1003 66 0 18 270 16:21 02.04.2020
14 Rain 9 1003 66 0 18 270 15:56 02.04.2020
15 Rain 9 1003 66 0 18 270 15:38 02.04.2020
16 Clouds 10 1004 66 0 17.5 270 15:18 02.04.2020
17 Clouds 10 1004 66 0 17.5 270 14:57 02.04.2020
18 Clouds 10 1004 66 0 17.5 270 14:38 02.04.2020
19 Clouds 9 1004 66 0 17.5 260 14:18 02.04.2020
20 Clouds 9 1004 66 0 17.5 260 13:54 02.04.2020
21 Clouds 9 1004 66 0 17.5 260 13:36 02.04.2020
22 Clouds 9 1005 66 0 14.4 260 13:18 02.04.2020
23 Clouds 9 1005 66 0 14.4 260 12:44 02.04.2020
24 Clouds 9 1006 61 0 12.9 260 12:19 02.04.2020
25 Clouds 9 1006 61 0 12.9 260 11:57 02.04.2020
26 Clouds 9 1006 61 0 12.9 260 11:39 02.04.2020
27 Clouds 9 1006 66 0 10.8 260 11:20 02.04.2020
28 Clouds 9 1006 66 0 10.8 260 10:56 02.04.2020
29 Clouds 9 1006 66 0 10.8 260 10:38 02.04.2020
30 Clouds 8 1007 75 0 11.3 270 10:20 02.04.2020
31 Clouds 8 1007 75 0 11.3 270 10:20 02.04.2020
32 Clouds 8 1007 75 0 11.3 270 09:58 02.04.2020
33 Clouds 8 1007 75 0 11.3 270 09:58 02.04.2020
34 Clouds 7 1007 75 0 11.3 270 09:40 02.04.2020
35 Clouds 7 1008 81 0 9.8 260 09:20 02.04.2020
36 Clouds 6 1008 81 0 9.8 260 08:47 02.04.2020
37 Clouds 6 1008 75 0 8.7 260 08:28 02.04.2020
38 Clouds 6 1008 75 0 8.7 260 07:57 02.04.2020
39 Clouds 5 1008 75 0 8.7 260 07:38 02.04.2020
40 Clouds 5 1008 81 0 9.8 260 07:19 02.04.2020
41 Clouds 6 1009 81 0 9.3 270 06:24 02.04.2020
42 Clouds 5 1009 81 0 9.3 270 05:46 02.04.2020
43 Clouds 6 1009 81 0 9.3 270 04:58 02.04.2020
44 Clouds 6 1011 81 0 10.3 280 02:21 02.04.2020
45 Clouds 6 1012 81 0 10.3 280 01:27 02.04.2020
46 Clouds 6 1012 81 0 10.3 280 00:41 02.04.2020
47 Clouds 6 1012 81 0 9.8 280 00:20 02.04.2020
48 Clouds 6 1012 81 0 9.8 280 23:40 01.04.2020
49 Clouds 6 1012 81 0 9.8 280 23:19 01.04.2020
50 Clouds 6 1012 81 0 9.8 280 22:57 01.04.2020
51 Clouds 6 1012 81 0 9.8 280 22:57 01.04.2020
52 Clouds 6 1012 81 0 9.8 280 22:57 01.04.2020
53 Clouds 6 1012 81 0 9.8 280 22:38 01.04.2020
54 Clouds 6 1013 75 0 8.7 270 22:19 01.04.2020
55 Clouds 6 1013 75 0 8.7 270 21:41 01.04.2020
56 Rain 6 1013 70 0 11.3 290 21:19 01.04.2020
57 Rain 6 1013 70 0 11.3 290 20:57 01.04.2020
58 Rain 6 1013 70 0 11.3 290 20:38 01.04.2020
59 Rain 6 1013 65 0 11.3 300 20:20 01.04.2020
60 Rain 6 1013 65 0 11.3 300 19:59 01.04.2020
61 Rain 7 1013 65 0 11.3 300 19:40 01.04.2020
62 Rain 7 1014 65 0 11.3 300 19:19 01.04.2020
63 Rain 7 1014 65 0 11.3 300 18:44 01.04.2020
64 Rain 8 1014 61 0 11.8 300 18:25 01.04.2020
65 Rain 8 1014 61 0 11.8 300 17:58 01.04.2020
66 Rain 8 1014 61 0 11.8 300 17:38 01.04.2020
67 Rain 8 1014 65 0 12.3 310 17:19 01.04.2020
68 Rain 8 1014 65 0 12.3 310 16:59 01.04.2020
69 Rain 8 1014 65 0 12.3 310 16:39 01.04.2020
70 Rain 8 1015 61 0 12.3 310 16:21 01.04.2020
71 Rain 8 1015 61 0 12.3 310 15:58 01.04.2020
72 Rain 8 1015 61 0 12.3 310 15:38 01.04.2020
73 Rain 8 1015 75 0 10.8 300 15:19 01.04.2020
74 Rain 8 1015 75 0 10.8 300 14:56 01.04.2020
75 Rain 8 1015 75 0 10.8 300 14:38 01.04.2020
76 Rain 8 1016 81 0 10.8 300 14:19 01.04.2020
77 Rain 8 1016 81 0 10.8 300 13:57 01.04.2020
78 Rain 8 1016 81 0 10.8 300 13:37 01.04.2020
79 Rain 8 1016 81 0 12.3 290 13:18 01.04.2020
80 Rain 8 1016 81 0 12.3 290 12:54 01.04.2020
81 Rain 8 1016 81 0 12.3 290 12:36 01.04.2020
82 Rain 7 1017 81 0 12.3 290 12:18 01.04.2020
83 Rain 7 1017 81 0 12.3 290 11:40 01.04.2020
84 Rain 7 1017 81 0 9.8 280 11:21 01.04.2020
85 Rain 7 1017 81 0 9.8 280 10:57 01.04.2020
86 Rain 7 1017 81 0 9.8 280 10:37 01.04.2020
87 Rain 6 1017 81 0 9.3 270 10:18 01.04.2020
88 Rain 6 1017 81 0 9.3 270 09:55 01.04.2020
89 Rain 6 1017 81 0 9.3 270 09:37 01.04.2020
90 Clouds 6 1018 80 0 11.3 290 09:18 01.04.2020
91 Clouds 5 1018 80 0 11.3 290 08:40 01.04.2020
92 Clouds 5 1018 86 0 8.2 270 08:18 01.04.2020
93 Clouds 4 1018 86 0 8.2 270 07:43 01.04.2020
94 Clouds 4 1018 86 0 8.2 270 07:21 01.04.2020
95 Clouds 4 1018 86 0 8.2 270 06:48 01.04.2020
96 Clouds 4 1019 86 0 7.7 270 06:26 01.04.2020
97 Rain 4 1019 86 0 7.7 270 05:56 01.04.2020
98 Rain 5 1020 86 0 9.3 270 04:32 01.04.2020
99 Rain 4 1020 86 0 9.3 270 03:30 01.04.2020
100 Clouds 5 1021 86 0 9.3 280 02:56 01.04.2020
101 Clouds 4 1022 86 0 8.2 270 01:59 01.04.2020
102 Clouds 4 1022 86 0 8.2 270 01:39 01.04.2020
103 Clouds 4 1023 80 0 9.3 270 01:19 01.04.2020
104 Clouds 4 1023 80 0 9.3 270 00:46 01.04.2020
105 Clouds 4 1024 75 0 8.2 260 00:21 01.04.2020
106 Clouds 4 1024 75 0 8.2 260 23:48 31.03.2020
107 Clouds 4 1025 83 0 7.7 260 23:28 31.03.2020
108 Clouds 4 1025 83 0 7.7 260 22:59 31.03.2020
109 Clouds 3 1025 65 0 8.2 270 22:37 31.03.2020
110 Clouds 3 1025 65 0 8.2 270 22:19 31.03.2020
111 Clouds 3 1025 65 0 8.2 270 21:57 31.03.2020
112 Clouds 3 1026 60 0 9.3 270 21:39 31.03.2020
113 Clouds 3 1026 60 0 9.3 270 21:20 31.03.2020
114 Clouds 3 1026 60 0 9.3 270 21:20 31.03.2020
115 Clear 3 1026 60 0 9.3 270 21:20 31.03.2020
116 Clouds 3 1027 69 10000 4.1 270 20:56 31.03.2020
117 Clear 4 1027 60 0 10.8 270 20:37 31.03.2020
118 Clear 4 1027 60 0 10.8 270 20:37 31.03.2020
119 Clear 4 1027 60 0 10.8 270 20:18 31.03.2020
120 Clear 5 1027 60 0 10.8 270 19:42 31.03.2020
121 Clouds 5 1028 41 10000 7.7 280 19:24 31.03.2020
122 Clouds 5 1028 41 10000 7.7 280 18:59 31.03.2020
123 Clouds 6 1028 41 10000 7.7 280 18:41 31.03.2020
124 Clear 6 1028 45 0 7.2 290 18:19 31.03.2020
125 Clear 7 1028 45 0 7.2 290 17:56 31.03.2020
126 Clear 7 1028 45 0 7.2 290 17:37 31.03.2020
127 Clear 8 1028 45 0 8.2 290 17:19 31.03.2020
128 Clear 8 1028 45 0 8.2 290 16:41 31.03.2020
129 Clear 8 1029 33 0 6.7 290 16:20 31.03.2020
130 Clear 8 1029 33 0 6.7 290 15:59 31.03.2020
131 Clear 8 1029 33 0 6.7 290 15:41 31.03.2020
132 Clear 8 1030 31 0 5.1 300 15:23 31.03.2020
133 Clear 8 1030 31 0 5.1 300 14:59 31.03.2020
134 Clear 8 1030 31 0 5.1 300 14:40 31.03.2020
135 Clear 7 1030 33 0 2.1 300 14:21 31.03.2020
136 Clear 7 1030 33 0 2.1 300 13:55 31.03.2020
137 Clear 7 1030 33 0 2.1 300 13:37 31.03.2020
138 Clear 7 1031 35 0 1.5 0 13:18 31.03.2020
139 Clear 6 1031 35 0 1.5 0 12:44 31.03.2020
140 Clear 6 1032 35 0 1 350 12:20 31.03.2020
141 Clear 6 1032 35 0 1 350 11:56 31.03.2020
142 Clear 5 1032 35 0 1 350 11:37 31.03.2020
143 Clear 5 1032 48 0 1.5 330 11:18 31.03.2020
144 Clear 5 1032 48 0 1.5 330 10:55 31.03.2020
145 Clear 5 1032 48 0 1.5 330 10:55 31.03.2020
146 Clear 5 1032 48 0 1.5 330 10:37 31.03.2020
147 Clear 4 1032 59 0 0.5 290 10:18 31.03.2020
148 Clear 3 1032 59 0 0.5 290 09:43 31.03.2020
149 Clear 2 1032 74 0 1 330 09:25 31.03.2020
150 Clear 1 1032 74 0 1 330 08:58 31.03.2020
151 Clear 1 1032 74 0 1 330 08:58 31.03.2020
152 Clear 0 1032 74 0 1 330 08:40 31.03.2020
153 Clear -1 1032 92 0 2.6 20 08:20 31.03.2020
154 Clear -2 1032 92 0 2.6 20 07:57 31.03.2020
155 Clear -2 1032 92 0 2.6 20 07:38 31.03.2020
156 Clear -2 1031 85 0 2.6 30 07:20 31.03.2020
157 Clear -2 1031 85 0 2.6 30 07:20 31.03.2020
158 Clear -2 1031 85 0 2.6 30 06:53 31.03.2020
159 Clear -2 1031 85 0 2.6 30 06:35 31.03.2020
160 Clear -2 1031 86 0 2.1 10 05:41 31.03.2020
161 Clear -1 1031 87 0 2.6 20 04:33 31.03.2020
162 Clear -1 1030 69 0 2.6 10 02:40 31.03.2020
163 Clear 0 1030 69 0 3.1 360 01:47 31.03.2020
164 Clear 0 1030 63 10000 3.6 20 01:19 31.03.2020
165 Clear 0 1030 59 0 6.7 40 00:42 31.03.2020
166 Clear 1 1030 55 0 6.2 40 00:19 31.03.2020
167 Clear 1 1030 55 0 6.2 40 23:39 30.03.2020
168 Clear 1 1029 51 0 4.1 60 23:19 30.03.2020
169 Clear 2 1029 51 0 4.1 60 22:57 30.03.2020
170 Clear 2 1029 51 0 4.1 60 22:38 30.03.2020
171 Clear 2 1028 55 10000 4.6 30 22:18 30.03.2020
172 Clear 2 1028 55 10000 4.6 30 21:57 30.03.2020
173 Clear 2 1028 55 10000 4.6 30 21:37 30.03.2020
174 Clear 3 1028 51 10000 5.1 40 21:19 30.03.2020
175 Clear 3 1028 48 0 7.2 40 20:57 30.03.2020
176 Clear 3 1028 48 0 7.2 40 20:38 30.03.2020
177 Clear 4 1027 41 0 7.2 50 20:19 30.03.2020
178 Clear 5 1027 41 0 7.2 50 19:41 30.03.2020
179 Clear 5 1027 35 0 6.2 50 19:22 30.03.2020
180 Clear 6 1027 35 0 6.2 50 18:59 30.03.2020
181 Clear 6 1027 35 0 6.2 50 18:41 30.03.2020
182 Clear 6 1026 33 0 6.2 50 18:22 30.03.2020
183 Clear 7 1026 33 0 6.2 50 17:57 30.03.2020
184 Clear 7 1026 33 0 6.2 50 17:39 30.03.2020
185 Clear 8 1026 39 0 8.2 50 17:19 30.03.2020
186 Clear 8 1026 39 0 8.2 50 16:57 30.03.2020
187 Clear 8 1026 39 0 8.2 50 16:39 30.03.2020
188 Clear 8 1025 45 0 8.7 40 16:20 30.03.2020
189 Clear 8 1025 45 0 8.7 40 16:20 30.03.2020
190 Clear 8 1025 45 0 8.7 40 15:55 30.03.2020
191 Clear 8 1025 45 0 8.7 40 15:37 30.03.2020
192 Rain 8 1025 45 0 7.7 40 15:19 30.03.2020
193 Rain 8 1025 45 0 7.7 40 14:55 30.03.2020
194 Rain 8 1025 45 0 7.7 40 14:37 30.03.2020
195 Clouds 8 1025 49 0 6.7 40 14:18 30.03.2020
196 Clouds 8 1025 49 0 6.7 40 13:55 30.03.2020
197 Clouds 8 1025 49 0 6.7 40 13:37 30.03.2020
198 Clouds 8 1025 57 0 7.7 40 13:18 30.03.2020
199 Clouds 8 1025 61 10000 5.7 10 12:43 30.03.2020
200 Rain 7 1024 61 0 5.7 10 12:20 30.03.2020
201 Rain 7 1024 61 0 5.7 10 11:57 30.03.2020
202 Rain 7 1024 61 0 5.7 10 11:39 30.03.2020
203 Rain 7 1024 75 0 6.2 360 11:21 30.03.2020
204 Rain 6 1024 75 0 6.2 360 10:41 30.03.2020
205 Rain 5 1024 86 0 5.1 320 10:23 30.03.2020
206 Rain 5 1024 86 0 5.1 320 09:59 30.03.2020
207 Rain 4 1024 86 0 5.1 320 09:40 30.03.2020
208 Rain 4 1025 93 0 7.2 320 09:19 30.03.2020
209 Rain 4 1025 93 0 7.2 320 08:47 30.03.2020
210 Rain 4 1025 86 0 6.7 300 08:28 30.03.2020
211 Rain 3 1025 86 0 6.7 300 07:58 30.03.2020
212 Rain 3 1025 86 0 6.7 300 07:39 30.03.2020
213 Rain 3 1026 86 0 6.2 300 07:20 30.03.2020
214 Rain 3 1026 86 0 6.2 300 06:39 30.03.2020
215 Rain 2 1026 86 0 8.2 300 06:19 30.03.2020
216 Rain 2 1026 86 0 8.2 300 05:39 30.03.2020
217 Rain 1 1028 91 0 7.7 290 04:28 30.03.2020
218 Rain 1 1028 91 0 7.7 290 03:53 30.03.2020
219 Clouds 0 1030 68 10000 3.6 240 02:44 30.03.2020
220 Clouds 0 1030 64 0 5.1 280 01:55 30.03.2020
221 Clouds -1 1032 58 10000 2.6 260 00:57 30.03.2020
222 Clouds -1 1032 54 10000 2.1 310 00:27 30.03.2020
223 Clear -1 1032 55 0 4.6 310 23:55 29.03.2020
224 Clear 0 1032 55 0 4.6 310 23:36 29.03.2020
225 Clear 0 1032 50 0 6.7 330 23:18 29.03.2020
226 Clear 0 1032 50 0 6.7 330 22:40 29.03.2020
227 Clear 0 1032 47 0 6.7 350 22:20 29.03.2020
228 Clear 0 1032 47 0 6.7 350 21:59 29.03.2020
229 Clear 0 1032 47 0 6.7 350 21:38 29.03.2020
230 Clear 1 1033 31 10000 2.1 10 21:20 29.03.2020
231 Clear 2 1032 40 0 4.6 360 20:55 29.03.2020
232 Clear 2 1032 40 0 4.6 360 20:37 29.03.2020
233 Clear 3 1032 29 0 4.6 30 20:19 29.03.2020
234 Clear 3 1032 29 0 4.6 30 19:57 29.03.2020
235 Clear 3 1032 29 0 4.6 30 19:57 29.03.2020
236 Clear 4 1032 29 0 4.6 30 19:39 29.03.2020
237 Clear 4 1033 23 0 9.3 40 19:21 29.03.2020
238 Clear 5 1033 23 0 9.3 40 18:57 29.03.2020
239 Clear 4 1033 27 0 10.3 40 18:38 29.03.2020
240 Clear 5 1033 27 0 10.3 40 18:19 29.03.2020
241 Clear 5 1033 27 0 10.3 40 17:55 29.03.2020
242 Clear 5 1033 27 0 10.3 40 17:37 29.03.2020
243 Clear 5 1033 25 0 11.3 40 17:18 29.03.2020
244 Clear 5 1033 25 0 11.3 40 16:56 29.03.2020
245 Clear 5 1033 25 0 11.3 40 16:38 29.03.2020
246 Clear 5 1033 30 0 12.3 40 16:18 29.03.2020
247 Clear 5 1033 30 0 12.3 40 15:41 29.03.2020
248 Clear 5 1033 32 0 12.9 40 15:23 29.03.2020
249 Clouds 5 1033 32 0 12.9 40 14:58 29.03.2020
250 Clouds 5 1033 32 0 12.9 40 14:40 29.03.2020
251 Clouds 5 1033 38 0 12.9 40 14:20 29.03.2020
252 Clouds 5 1033 38 0 12.9 40 13:58 29.03.2020
253 Clouds 5 1033 38 0 12.9 40 13:40 29.03.2020
254 Clouds 4 1032 41 0 13.9 40 13:20 29.03.2020
255 Clouds 4 1032 41 0 13.9 40 12:56 29.03.2020
256 Clouds 4 1032 48 0 14.4 40 12:37 29.03.2020
257 Clouds 4 1032 48 0 14.4 40 12:37 29.03.2020
258 Snow 4 1032 48 0 14.4 40 12:19 29.03.2020
259 Snow 4 1032 48 0 14.4 40 11:55 29.03.2020
260 Snow 4 1032 48 0 14.4 40 11:37 29.03.2020
261 Snow 4 1031 51 0 14.4 40 11:18 29.03.2020
262 Snow 4 1031 51 0 14.4 40 11:18 29.03.2020
263 Snow 3 1031 51 0 14.4 40 10:38 29.03.2020
264 Snow 3 1030 55 0 13.9 40 10:19 29.03.2020
265 Snow 3 1030 55 0 13.9 40 09:41 29.03.2020
266 Clouds 2 1028 59 0 13.4 40 09:22 29.03.2020
267 Snow 2 1028 59 0 13.4 40 08:57 29.03.2020
268 Snow 2 1028 59 0 13.4 40 08:39 29.03.2020
269 Snow 2 1027 64 0 13.4 40 08:20 29.03.2020
270 Snow 2 1027 64 0 13.4 40 07:44 29.03.2020
271 Snow 2 1026 69 0 16.5 40 07:22 29.03.2020
272 Clouds 2 1025 93 0 18.5 30 05:59 29.03.2020
273 Clouds 3 1025 93 0 17 30 04:56 29.03.2020
274 Clouds 4 1024 69 0 16.5 30 03:37 29.03.2020
275 Clouds 4 1023 60 0 14.4 40 01:57 29.03.2020
276 Clouds 3 1023 60 0 14.4 40 01:39 29.03.2020
277 Clouds 3 1023 52 0 9.3 10 01:19 29.03.2020
278 Clouds 3 1023 59 10000 4.6 340 00:40 29.03.2020
279 Clouds 4 1023 51 0 9.3 360 00:18 29.03.2020
280 Clouds 4 1023 51 0 9.3 360 23:40 28.03.2020
281 Clouds 5 1022 48 0 7.7 360 23:22 28.03.2020
282 Clouds 5 1022 48 0 7.7 360 22:43 28.03.2020
283 Clouds 6 1022 41 0 8.7 10 22:22 28.03.2020
284 Clouds 6 1022 41 0 8.7 10 21:57 28.03.2020
285 Clouds 6 1022 41 0 8.7 10 21:39 28.03.2020
286 Clouds 6 1022 52 0 9.3 10 21:20 28.03.2020
287 Clouds 7 1022 52 0 9.3 10 20:56 28.03.2020
288 Clouds 7 1022 52 0 9.3 10 20:37 28.03.2020
289 Clouds 7 1021 52 0 8.7 10 20:19 28.03.2020
290 Clouds 7 1021 52 0 8.7 10 19:55 28.03.2020
291 Clouds 8 1021 52 0 8.7 10 19:36 28.03.2020
292 Clouds 8 1020 68 0 9.3 10 19:18 28.03.2020
293 Clouds 9 1020 68 0 9.3 10 18:42 28.03.2020
294 -273 0 0 0 0 0 18:20 28.03.2020
295 Clouds 10 1020 68 0 10.3 340 17:43 28.03.2020
296 Clouds 10 1020 46 0 9.3 340 17:24 28.03.2020
297 Clouds 11 1020 46 0 9.3 340 16:59 28.03.2020
298 Clouds 11 1020 46 0 9.3 340 16:59 28.03.2020
299 Clouds 11 1020 46 0 9.3 340 16:40 28.03.2020
300 Clouds 11 1021 37 0 3.1 20 16:20 28.03.2020
301 Clouds 11 1021 37 0 3.1 20 15:55 28.03.2020
302 Clouds 12 1021 37 0 3.1 20 15:37 28.03.2020
303 Clouds 12 1021 53 0 4.1 20 15:18 28.03.2020
304 Clouds 12 1021 53 0 4.1 20 14:41 28.03.2020
305 Clouds 12 1022 53 0 5.7 30 14:21 28.03.2020
306 Clear 12 1022 55 0 5.7 30 13:44 28.03.2020
307 Clear 11 1023 50 0 5.7 30 13:25 28.03.2020
308 Clear 11 1023 50 0 5.7 30 12:57 28.03.2020
309 Clear 11 1023 50 0 5.7 30 12:37 28.03.2020
310 Clear 9 1023 61 0 5.1 360 12:18 28.03.2020
311 Clear 9 1023 61 0 5.1 360 11:42 28.03.2020
312 Clear 8 1023 75 0 5.1 340 11:21 28.03.2020
313 Clear 7 1023 75 0 5.1 340 10:41 28.03.2020
314 Clear 6 1024 93 0 1.5 320 10:22 28.03.2020
315 Clear 5 1024 93 0 1.5 320 09:59 28.03.2020
316 Clear 5 1024 93 0 1.5 320 09:39 28.03.2020
317 Clear 5 1024 67 6000 4.1 340 09:21 28.03.2020
318 Clear 3 1024 67 0 3.1 340 08:42 28.03.2020
319 Clear 3 1024 67 0 3.1 340 08:42 28.03.2020
320 Clear 2 1024 80 0 3.1 300 08:24 28.03.2020
321 Clear 1 1024 80 0 3.1 300 07:53 28.03.2020
322 Clear 1 1024 80 0 3.1 300 07:35 28.03.2020
323 Clear 0 1024 86 0 3.1 300 06:52 28.03.2020
324 Clear -1 1024 100 0 1.5 320 06:23 28.03.2020
325 Clear 0 1024 86 0 2.1 360 05:30 28.03.2020
326 Clear 0 1024 85 0 2.1 360 04:58 28.03.2020
327 Clear 0 1024 85 0 2.1 360 04:39 28.03.2020
328 Clear 1 1025 85 0 1.5 20 02:51 28.03.2020
329 Clear 2 1025 80 0 1.5 30 01:47 28.03.2020
330 Clear 2 1025 80 0 2.6 50 01:23 28.03.2020
331 Clear 2 1025 80 0 2.6 50 00:51 28.03.2020
332 Clear 3 1026 86 0 2.6 70 00:25 28.03.2020
333 Clear 3 1026 86 0 2.6 70 23:44 27.03.2020
334 Clear 3 1026 86 0 4.1 60 23:26 27.03.2020
335 Clear 3 1026 86 0 4.1 60 22:57 27.03.2020
336 Clear 3 1026 86 0 4.1 60 22:39 27.03.2020
337 Clear 4 1026 80 0 3.1 70 22:21 27.03.2020
338 Clear 4 1026 80 0 3.1 70 21:59 27.03.2020
339 Clear 5 1026 80 0 3.1 70 21:40 27.03.2020
340 Clear 5 1025 70 0 4.1 60 21:22 27.03.2020
341 Clear 6 1025 70 0 4.1 60 20:57 27.03.2020
342 Clear 6 1025 70 0 4.1 60 20:39 27.03.2020
343 Clear 6 1025 65 0 4.6 50 20:19 27.03.2020
344 Clear 6 1025 65 0 4.6 50 20:19 27.03.2020
345 Clear 6 1025 65 0 4.6 50 19:56 27.03.2020
346 Clear 6 1025 65 0 4.6 50 19:38 27.03.2020
347 Clear 8 1025 75 0 3.1 50 19:19 27.03.2020
348 Clear 8 1025 75 0 3.1 50 18:43 27.03.2020
349 Clear 10 1025 43 0 4.1 100 18:23 27.03.2020
350 Clear 10 1025 43 0 4.1 100 17:55 27.03.2020
351 Clear 10 1024 57 8000 6.2 50 17:37 27.03.2020
352 Clear 10 1024 57 8000 7.7 50 17:19 27.03.2020
353 Clear 11 1025 34 0 4.1 100 16:44 27.03.2020
354 Clear 11 1025 32 0 4.6 100 16:25 27.03.2020
355 Clear 11 1025 32 0 4.6 100 16:25 27.03.2020
356 Clear 12 1025 32 0 4.6 100 15:45 27.03.2020
357 Clear 11 1026 34 0 4.1 100 15:27 27.03.2020
358 Clear 11 1026 34 0 4.1 100 14:57 27.03.2020
359 Clear 11 1026 34 0 4.1 100 14:39 27.03.2020
360 Clear 11 1026 32 0 4.6 110 14:21 27.03.2020
361 Clear 11 1026 32 0 4.6 110 13:54 27.03.2020
362 Clear 11 1026 32 0 4.6 110 13:36 27.03.2020
363 Clear 10 1027 31 0 2.6 100 13:18 27.03.2020
364 Clear 10 1027 31 0 2.6 100 12:42 27.03.2020
365 Clear 9 1027 45 0 3.6 100 12:19 27.03.2020
366 Clear 9 1027 45 0 3.6 100 11:44 27.03.2020
367 Clear 9 1027 57 0 4.1 50 11:25 27.03.2020
368 Clear 9 1027 57 0 4.1 50 10:59 27.03.2020
369 Clear 9 1027 57 0 4.1 50 10:41 27.03.2020
370 Clear 6 1027 75 0 4.1 80 10:22 27.03.2020
371 Clear 6 1027 75 0 4.1 80 09:58 27.03.2020
372 Clear 6 1027 75 0 4.1 80 09:40 27.03.2020
373 Clear 4 1027 93 0 2.1 90 09:21 27.03.2020
374 Clear 4 1027 93 0 2.1 90 08:58 27.03.2020
375 Clear 4 1027 93 0 2.1 90 08:39 27.03.2020
376 Clear 0 1027 64 0 2.1 90 08:21 27.03.2020
377 Clear 0 1027 88 0 2.1 90 07:55 27.03.2020
378 Clear 0 1027 88 0 2.1 90 07:37 27.03.2020
379 Clear -1 1027 92 0 3.1 70 07:19 27.03.2020
380 Clear -1 1027 92 0 3.1 80 06:38 27.03.2020
381 Clear -1 1027 92 0 3.1 80 05:44 27.03.2020
382 Clear 0 1028 89 0 2.6 80 02:52 27.03.2020
383 Clear 0 1028 88 0 2.6 80 01:55 27.03.2020
384 Clear 1 1028 86 0 2.6 90 00:58 27.03.2020
385 Clear 1 1028 86 0 2.6 90 00:38 27.03.2020
386 Clear 0 1028 88 0 3.1 90 00:19 27.03.2020
387 Clear 1 1028 86 0 2.6 90 23:37 26.03.2020
388 Clear 1 1028 86 0 2.6 90 23:18 26.03.2020
389 Clear 1 1028 86 0 2.6 90 22:56 26.03.2020
390 Clear 1 1028 86 0 2.6 90 22:36 26.03.2020
391 Clear 1 1028 86 0 3.1 90 22:18 26.03.2020
392 Clear 1 1028 86 0 3.1 90 21:40 26.03.2020
393 Clear 3 1028 69 0 2.6 90 21:21 26.03.2020
394 Clear 3 1028 69 0 2.6 90 21:21 26.03.2020
395 Clear 3 1028 69 0 2.6 90 20:59 26.03.2020
396 Clear 3 1028 69 0 2.6 90 20:39 26.03.2020
397 Clear 5 1028 56 0 3.1 110 20:21 26.03.2020
398 Clear 5 1028 56 0 3.1 110 19:58 26.03.2020
399 Clear 5 1028 56 0 3.1 110 19:39 26.03.2020
400 Clear 7 1028 33 0 3.1 110 19:21 26.03.2020
401 Clear 7 1028 33 0 3.1 110 18:58 26.03.2020
402 Clear 7 1028 33 0 3.1 110 18:40 26.03.2020
403 Clear 8 1028 28 0 4.6 130 18:21 26.03.2020
404 Clear 8 1028 28 0 4.6 130 17:44 26.03.2020
405 Clear 8 1028 28 0 4.6 130 17:44 26.03.2020
406 Clear 8 1028 31 0 5.7 110 17:20 26.03.2020
407 Clear 8 1028 31 0 5.7 110 16:57 26.03.2020
408 Clear 8 1028 31 0 5.7 110 16:38 26.03.2020
409 Clear 8 1028 31 0 5.7 110 16:38 26.03.2020
410 Clear 9 1028 34 0 4.6 100 16:19 26.03.2020
411 Clear 9 1028 34 0 4.6 100 15:55 26.03.2020
412 Clear 9 1028 34 0 4.6 100 15:37 26.03.2020
413 Clear 9 1029 39 0 5.1 110 15:18 26.03.2020
414 Clear 9 1029 39 0 5.1 110 14:43 26.03.2020
415 Clear 9 1029 42 0 4.6 110 14:24 26.03.2020
416 Clouds 9 1029 42 0 4.6 110 13:55 26.03.2020
417 Clouds 9 1029 42 0 4.6 110 13:37 26.03.2020
418 Clouds 9 1029 39 0 5.1 90 13:19 26.03.2020
419 Clouds 9 1029 39 0 5.1 90 12:38 26.03.2020
420 -273 0 0 0 0 0 12:20 26.03.2020
421 Clouds 9 1030 45 0 3.6 110 11:46 26.03.2020
422 Clouds 8 1030 42 0 4.1 120 11:23 26.03.2020
423 Clouds 8 1030 42 0 4.1 120 10:59 26.03.2020
424 Clouds 8 1030 42 0 4.1 120 10:41 26.03.2020
425 Clouds 6 1030 60 0 3.6 130 10:20 26.03.2020
426 Clouds 6 1030 60 0 3.6 130 09:45 26.03.2020
427 Clouds 4 1029 61 0 4.1 130 09:24 26.03.2020
428 Clouds 4 1029 61 0 4.1 130 08:58 26.03.2020
429 Clouds 4 1029 61 0 4.1 130 08:39 26.03.2020
430 Clouds -1 1029 92 0 4.6 120 08:20 26.03.2020
431 Clouds -1 1029 92 0 4.6 120 07:46 26.03.2020
432 Clouds -2 1029 92 0 3.6 110 07:24 26.03.2020
433 Clouds -2 1029 92 0 3.6 110 06:59 26.03.2020
434 Clouds -2 1029 92 0 2.6 110 06:33 26.03.2020
435 Clouds -2 1029 92 0 2.6 110 05:47 26.03.2020
436 Clouds -1 1029 92 0 5.7 140 03:46 26.03.2020
437 Clouds -1 1029 92 0 4.6 140 02:58 26.03.2020
438 Clouds -1 1029 92 0 3.6 130 01:51 26.03.2020
439 Clouds -1 1030 92 0 2.6 110 01:18 26.03.2020
440 Clouds 0 1030 85 0 3.1 130 00:32 26.03.2020
441 Clouds 0 1030 85 0 3.1 130 23:44 25.03.2020
442 Clouds 1 1030 80 0 4.1 130 23:24 25.03.2020
443 Clouds 1 1030 80 0 4.1 130 22:54 25.03.2020
444 Clouds 1 1030 80 0 4.1 130 22:36 25.03.2020
445 Clouds 3 1030 69 0 4.6 130 22:18 25.03.2020
446 Clouds 3 1030 69 0 4.6 130 21:42 25.03.2020
447 Clouds 3 1029 69 0 4.6 140 21:24 25.03.2020
448 Clouds 3 1029 69 0 4.6 140 20:58 25.03.2020
449 Clouds 3 1029 69 0 4.6 140 20:38 25.03.2020
450 Clouds 4 1029 64 0 4.6 130 20:19 25.03.2020
451 Clouds 4 1029 64 0 4.6 130 19:55 25.03.2020
452 Clouds 4 1029 64 0 4.6 130 19:37 25.03.2020
453 Clouds 6 1029 52 0 3.6 120 19:18 25.03.2020
454 Clouds 6 1029 52 0 3.6 120 18:43 25.03.2020
455 Clouds 6 1029 52 0 3.6 120 18:43 25.03.2020
456 Clouds 8 1030 39 0 4.6 130 18:25 25.03.2020
457 Clouds 8 1030 39 0 4.6 130 17:59 25.03.2020
458 Clouds 8 1030 39 0 4.6 130 17:40 25.03.2020
459 Clouds 9 1030 34 0 4.1 130 17:22 25.03.2020
460 Clouds 9 1030 34 0 4.1 130 16:58 25.03.2020
461 Clouds 9 1030 34 0 4.1 130 16:39 25.03.2020
462 Clouds 9 1030 39 0 3.6 100 16:20 25.03.2020
463 Clouds 9 1030 39 0 3.6 100 15:43 25.03.2020
464 Clouds 10 1031 25 0 3.1 140 15:21 25.03.2020
465 Clouds 10 1031 25 0 3.1 140 14:58 25.03.2020
466 Clouds 10 1031 25 0 3.1 140 14:40 25.03.2020
467 Clouds 9 1031 26 0 3.6 160 14:20 25.03.2020
468 Clouds 9 1031 26 0 3.6 160 13:44 25.03.2020
469 Clouds 9 1032 24 0 4.6 180 13:24 25.03.2020
470 Clouds 9 1032 24 0 4.6 180 12:40 25.03.2020
471 Clouds 8 1032 24 0 5.1 170 12:21 25.03.2020
472 Clouds 8 1032 24 0 5.1 170 11:59 25.03.2020
473 Clouds 8 1032 24 0 5.1 170 11:41 25.03.2020
474 Clouds 7 1032 28 0 5.7 190 11:21 25.03.2020
475 Clouds 7 1032 28 0 5.7 190 11:21 25.03.2020
476 Clear 7 1032 28 0 5.7 190 10:58 25.03.2020
477 Clear 7 1032 28 0 5.7 190 10:40 25.03.2020
478 Clear 7 1032 28 0 5.7 190 10:40 25.03.2020
479 Clear 5 1032 32 0 4.6 180 10:19 25.03.2020
480 Clear 5 1032 32 0 4.6 180 09:58 25.03.2020
481 Clear 5 1032 32 0 4.6 180 09:39 25.03.2020
482 Clear 3 1032 37 0 4.1 190 09:21 25.03.2020
483 Clear 3 1032 37 0 4.1 190 08:43 25.03.2020
484 Clear 1 1032 47 0 3.1 170 08:25 25.03.2020
485 Clouds 1 1032 47 0 3.1 170 07:58 25.03.2020
486 Clouds 1 1032 47 0 3.1 170 07:38 25.03.2020
487 Clouds 0 1032 87 0 4.6 170 07:18 25.03.2020
488 Clouds 0 1032 87 0 4.6 170 06:43 25.03.2020
489 Clouds 2 1032 40 0 4.6 180 06:25 25.03.2020
490 Clouds 2 1032 40 0 4.6 180 05:47 25.03.2020
491 Clouds 2 1031 40 0 4.6 190 04:46 25.03.2020
492 Clouds 3 1031 37 0 6.2 190 03:58 25.03.2020
493 Clouds 3 1031 37 0 6.2 190 03:34 25.03.2020
494 Clouds 3 1032 40 0 6.2 180 01:41 25.03.2020
495 Clouds 3 1032 40 0 6.2 180 01:41 25.03.2020
496 Clouds 3 1032 40 0 6.2 180 01:41 25.03.2020
497 Clouds 3 1032 40 0 7.2 180 00:58 25.03.2020
498 Clouds 3 1032 40 0 7.2 180 00:40 25.03.2020
499 Clouds 4 1032 38 0 6.7 170 00:18 25.03.2020
500 Clouds 4 1032 38 0 6.7 170 23:40 24.03.2020
501 Clouds 4 1032 41 0 6.2 170 23:22 24.03.2020
502 Clouds 4 1032 41 0 6.2 170 22:55 24.03.2020
503 Clouds 4 1032 41 0 6.2 170 22:37 24.03.2020
504 Clouds 4 1032 41 0 6.2 170 22:37 24.03.2020
505 Clouds 4 1032 44 0 5.7 160 22:19 24.03.2020
506 Clouds 4 1032 44 0 5.7 160 21:54 24.03.2020
507 Clouds 4 1032 44 0 5.7 160 21:36 24.03.2020
508 Clouds 4 1032 48 0 4.1 150 21:18 24.03.2020
509 -273 0 0 0 0 0 20:42 24.03.2020
510 Clouds 5 1032 38 0 3.1 150 20:23 24.03.2020
511 Clouds 5 1032 38 0 3.1 150 19:56 24.03.2020
512 Clouds 5 1032 38 0 3.1 150 19:56 24.03.2020
513 Clouds 5 1032 38 0 3.1 150 19:38 24.03.2020
514 Clouds 7 1032 30 0 4.1 170 19:18 24.03.2020
515 Clouds 7 1032 30 0 4.1 170 18:55 24.03.2020
516 Clouds 8 1032 28 0 5.1 170 18:36 24.03.2020
517 Clouds 8 1032 28 0 5.1 170 18:18 24.03.2020
518 Clouds 8 1032 28 0 5.1 170 17:42 24.03.2020
519 Clouds 8 1032 28 0 5.1 170 17:22 24.03.2020
520 Clouds 8 1032 28 0 5.1 170 16:58 24.03.2020
521 Clouds 8 1032 28 0 5.1 170 16:39 24.03.2020
522 Clouds 9 1032 36 10000 5.7 140 16:21 24.03.2020
523 Clouds 9 1032 36 10000 5.7 140 15:58 24.03.2020
524 Clouds 9 1033 26 0 4.6 160 15:37 24.03.2020
525 Clouds 9 1033 29 10000 5.1 170 15:19 24.03.2020
526 Clouds 9 1033 31 0 4.6 170 14:43 24.03.2020
527 Clouds 9 1034 26 0 4.6 170 14:19 24.03.2020
528 Clouds 9 1034 26 0 4.6 170 13:44 24.03.2020
529 Clouds 8 1034 26 0 5.7 180 13:24 24.03.2020
530 Clouds 8 1034 26 0 5.7 180 12:57 24.03.2020
531 Clouds 8 1034 26 0 5.7 180 12:37 24.03.2020
532 Clouds 7 1035 30 0 5.1 170 12:19 24.03.2020
533 Clouds 7 1035 30 0 5.1 170 11:40 24.03.2020
534 Clouds 6 1035 38 0 5.1 160 11:20 24.03.2020
535 Clouds 6 1035 32 0 7.2 180 10:54 24.03.2020
536 Clouds 6 1035 38 0 5.1 190 10:36 24.03.2020
537 Clouds 5 1035 44 0 4.6 160 10:18 24.03.2020
538 Clouds 5 1035 35 0 5.1 190 09:42 24.03.2020
539 Clouds 4 1036 38 10000 4.6 170 09:24 24.03.2020
540 Clouds 2 1035 40 0 6.2 180 08:40 24.03.2020
541 Clouds 1 1036 43 10000 4.1 180 08:21 24.03.2020
542 Clouds 1 1036 43 10000 4.1 180 08:21 24.03.2020
543 Clouds 1 1035 47 0 5.1 180 07:51 24.03.2020
544 Clouds 0 1035 55 0 3.1 160 07:25 24.03.2020
545 Clouds -1 1035 59 0 4.6 180 06:59 24.03.2020
546 Clouds -1 1035 54 10000 3.6 150 06:33 24.03.2020
547 Clouds -1 1035 58 10000 2.6 150 05:30 24.03.2020
548 Clouds -1 1035 47 0 5.1 170 04:49 24.03.2020
549 Clouds 0 1035 62 10000 3.6 170 03:19 24.03.2020
550 Clouds 0 1035 55 10000 4.1 160 02:25 24.03.2020
551 Clouds 0 1035 59 0 4.1 160 00:53 24.03.2020
552 Clouds 1 1035 56 10000 3.1 150 00:26 24.03.2020
553 Clouds 1 1035 64 0 4.6 160 23:55 23.03.2020
554 Clouds 1 1035 47 10000 2.6 150 23:37 23.03.2020
555 Clouds 1 1035 58 10000 3.6 140 23:19 23.03.2020
556 Clouds 1 1035 58 0 4.1 150 22:43 23.03.2020
557 Clouds 1 1036 69 0 4.6 140 22:22 23.03.2020
558 Clouds 1 1036 69 0 4.1 140 21:55 23.03.2020
559 Clouds 1 1036 69 0 4.1 140 21:37 23.03.2020
560 Clouds 2 1036 47 10000 3.1 120 21:18 23.03.2020
561 Clouds 2 1036 69 0 4.6 140 20:42 23.03.2020
562 Clouds 2 1037 59 0 5.1 140 20:24 23.03.2020
563 Clear 2 1037 59 0 5.1 140 19:59 23.03.2020
564 Clear 3 1036 59 0 4.1 140 19:41 23.03.2020
565 Clear 4 1036 59 0 5.1 140 19:22 23.03.2020
566 Clear 4 1036 48 0 4.6 130 18:56 23.03.2020
567 Clouds 5 1036 35 10000 2.6 130 18:38 23.03.2020
568 Clear 5 1036 60 0 6.7 130 18:18 23.03.2020
569 Clouds 6 1036 28 10000 4.1 140 17:41 23.03.2020
570 Clear 7 1037 48 0 6.7 130 17:20 23.03.2020
571 Clear 7 1036 28 0 6.7 150 16:56 23.03.2020
572 Clear 7 1036 28 0 6.7 150 16:37 23.03.2020
573 Clear 7 1036 45 10000 5.1 120 16:18 23.03.2020
574 Clear 7 1037 28 0 4.6 150 15:41 23.03.2020
575 Clear 7 1038 41 0 6.7 130 15:19 23.03.2020
576 Clear 7 1037 28 0 4.6 150 14:38 23.03.2020
577 Clear 7 1038 35 0 5.7 140 14:20 23.03.2020
578 Clear 6 1038 30 0 5.1 170 13:57 23.03.2020
579 Clear 6 1038 30 0 5.1 170 13:39 23.03.2020
580 Clear 6 1038 38 0 5.1 150 13:20 23.03.2020
581 Clear 6 1039 35 0 4.6 170 12:44 23.03.2020
582 Clear 6 1039 38 0 3.6 170 12:25 23.03.2020
583 Clear 5 1038 30 0 5.7 180 11:58 23.03.2020
584 Clouds 5 1038 30 10000 6.7 170 11:39 23.03.2020
585 Clear 5 1039 35 0 4.6 160 11:19 23.03.2020
586 Clear 5 1039 29 0 5.7 190 10:57 23.03.2020
587 Clear 4 1039 29 0 5.7 190 10:38 23.03.2020
588 Clear 4 1039 41 0 3.6 180 10:20 23.03.2020
589 Clear 3 1039 40 0 4.1 190 09:44 23.03.2020
590 Clear 2 1039 47 0 4.1 170 09:21 23.03.2020
591 Clear 2 1039 55 0 4.6 180 08:57 23.03.2020
592 Clear 1 1039 55 0 4.6 180 08:36 23.03.2020
593 Clear 0 1039 59 0 3.1 170 08:18 23.03.2020
594 Clear -1 1038 63 0 5.7 170 07:42 23.03.2020
595 Clear -1 1039 79 10000 3.1 150 07:23 23.03.2020
596 Clear -2 1039 63 0 4.6 160 06:49 23.03.2020
597 Clear -2 1038 68 0 5.1 160 05:54 23.03.2020
598 Clear -2 1039 74 10000 2.6 140 05:29 23.03.2020
599 Clear -1 1038 79 10000 3.1 140 03:29 23.03.2020
600 Clear -1 1038 68 0 5.7 150 01:51 23.03.2020
601 Clear 0 1039 68 10000 3.6 140 01:33 23.03.2020
602 Clear 0 1038 69 0 4.1 140 00:39 23.03.2020
603 Clear 0 1038 59 0 4.1 140 23:48 22.03.2020
604 Clear 1 1038 55 0 3.6 140 23:26 22.03.2020
605 Clear 1 1038 55 0 3.6 140 23:26 22.03.2020
606 Clear 1 1038 55 0 3.6 140 22:47 22.03.2020
607 Clouds 1 1039 69 10000 4.1 120 22:26 22.03.2020
608 Clear 2 1038 59 0 4.6 130 21:57 22.03.2020
609 Clear 2 1038 59 0 4.6 130 21:57 22.03.2020
610 Clear 2 1038 59 0 4.6 130 21:39 22.03.2020
611 Clouds 2 1039 69 10000 4.1 120 21:20 22.03.2020
612 Clear 2 1038 59 0 5.1 130 20:56 22.03.2020
613 Clear 2 1038 59 0 5.1 130 20:38 22.03.2020
614 Clear 3 1039 59 0 6.7 120 20:20 22.03.2020
615 Clear 3 1038 59 0 5.1 120 19:55 22.03.2020
616 Clear 3 1038 59 0 5.1 120 19:36 22.03.2020
617 Clear 3 1038 60 0 7.2 110 19:18 22.03.2020
618 Clear 4 1038 51 0 6.2 130 18:55 22.03.2020
619 Clear 4 1038 51 0 6.2 130 18:37 22.03.2020
620 Clear 4 1038 55 0 7.2 110 18:18 22.03.2020
621 Clear 5 1037 52 0 6.2 130 17:55 22.03.2020
622 Clear 5 1037 52 0 6.2 130 17:36 22.03.2020
623 Clear 5 1038 56 0 7.2 120 17:18 22.03.2020
624 Clear 6 1037 52 0 6.2 140 16:41 22.03.2020
625 Clouds 6 1037 48 10000 5.7 100 16:22 22.03.2020
626 Clear 5 1038 60 0 7.7 100 15:59 22.03.2020
627 Clear 6 1037 44 0 8.2 120 15:39 22.03.2020
628 Clear 6 1038 44 0 6.7 140 14:47 22.03.2020
629 Clouds 6 1039 48 10000 5.7 110 14:20 22.03.2020
630 Clouds 6 1038 41 0 7.7 130 13:58 22.03.2020
631 Clouds 6 1039 48 10000 5.7 110 13:58 22.03.2020
632 Clouds 6 1038 41 0 7.7 130 13:40 22.03.2020
633 Clouds 5 1039 51 10000 6.7 120 13:19 22.03.2020
634 Clouds 5 1038 48 0 7.2 140 12:47 22.03.2020
635 Clouds 5 1039 52 10000 6.2 120 12:23 22.03.2020
636 Clouds 5 1038 52 0 5.1 120 11:59 22.03.2020
637 Clouds 5 1038 52 0 5.1 120 11:41 22.03.2020
638 Clouds 5 1039 56 10000 7.2 120 11:23 22.03.2020
639 Clouds 5 1038 51 0 5.1 120 10:56 22.03.2020
640 Clouds 5 1038 51 0 5.1 120 10:38 22.03.2020
641 Clouds 4 1039 52 0 6.7 110 10:20 22.03.2020
642 Clouds 4 1038 64 0 3.1 150 09:42 22.03.2020
643 Clouds 3 1038 55 0 6.7 120 09:22 22.03.2020
644 Clouds 2 1038 74 0 3.1 160 08:44 22.03.2020
645 Clouds 1 1038 69 0 6.2 110 08:24 22.03.2020
646 Clear -1 1037 92 0 4.1 170 07:52 22.03.2020
647 Clear -1 1038 74 0 3.1 140 07:28 22.03.2020
648 Clear -1 1037 92 0 5.1 160 06:40 22.03.2020
649 Clear -2 1037 69 0 3.1 170 05:37 22.03.2020
650 Clear -2 1035 92 0 2.1 60 03:47 22.03.2020
651 Clear -2 1035 86 0 2.6 80 01:35 22.03.2020
652 Clear -1 1035 86 0 2.6 80 00:49 22.03.2020
653 Clear -1 1036 72 10000 1.5 50 00:29 22.03.2020
654 Clear 0 1035 72 0 2.6 80 23:45 21.03.2020
655 Clear 0 1035 69 0 3.1 70 23:21 21.03.2020
656 Clear 0 1035 64 0 3.6 80 22:58 21.03.2020
657 Clear 1 1035 64 0 3.6 80 22:37 21.03.2020
658 Clear 1 1036 64 10000 1.5 70 22:19 21.03.2020
659 Clear 1 1035 55 0 4.1 70 21:57 21.03.2020
660 Clear 1 1035 55 0 4.1 70 21:38 21.03.2020
661 Clear 1 1036 64 10000 2.1 60 21:19 21.03.2020
662 Clear 1 1035 69 0 3.6 80 20:42 21.03.2020
663 Clear 2 1035 64 10000 1 70 20:22 21.03.2020
664 Clear 3 1035 59 0 2.1 100 19:55 21.03.2020
665 Clear 3 1035 59 0 2.1 100 19:36 21.03.2020
666 Clear 4 1035 48 0 5.7 50 19:18 21.03.2020
667 Clear 4 1035 48 0 5.7 50 19:18 21.03.2020
668 Clear 4 1034 44 0 3.1 120 18:41 21.03.2020
669 Clear 5 1034 56 0 2.6 80 18:20 21.03.2020
670 Clear 5 1034 38 0 4.1 120 17:58 21.03.2020
671 Clear 6 1034 45 0 3.6 80 17:40 21.03.2020
672 Clear 6 1035 45 0 3.1 90 17:22 21.03.2020
673 Clear 6 1035 45 0 3.1 90 17:22 21.03.2020
674 Clear 6 1034 38 0 4.6 100 16:42 21.03.2020
675 Clear 6 1035 41 0 3.6 90 16:24 21.03.2020
676 Clear 6 1035 41 0 3.6 90 15:59 21.03.2020
677 Clear 6 1035 38 0 5.7 110 15:40 21.03.2020
678 Clear 7 1035 45 0 5.1 100 15:22 21.03.2020
679 Clear 7 1035 38 0 6.7 110 14:57 21.03.2020
680 Clear 7 1035 38 0 6.7 110 14:38 21.03.2020
681 Clear 7 1035 41 0 7.2 90 14:19 21.03.2020
682 Clear 7 1035 41 0 7.2 90 13:58 21.03.2020
683 Clear 6 1035 41 0 6.7 110 13:39 21.03.2020
684 Clear 6 1036 38 0 6.2 90 13:21 21.03.2020
685 Clear 6 1035 35 0 7.2 110 12:57 21.03.2020
686 Clear 6 1035 35 0 7.2 110 12:37 21.03.2020
687 Clear 6 1036 38 0 7.2 80 12:19 21.03.2020
688 Clear 6 1035 41 0 7.2 100 11:55 21.03.2020
689 Clear 5 1036 44 0 7.7 90 11:37 21.03.2020
690 Clear 5 1036 44 0 7.7 80 11:18 21.03.2020
691 Clear 5 1035 48 0 5.1 90 10:56 21.03.2020
692 Clear 5 1035 48 0 5.1 90 10:38 21.03.2020
693 Clear 4 1036 60 0 5.7 80 10:19 21.03.2020
694 Clear 4 1035 60 0 5.7 90 09:41 21.03.2020
695 Clouds 4 1035 69 10000 8.7 70 09:23 21.03.2020
696 Clear 3 1035 64 0 4.1 80 08:59 21.03.2020
697 Clear 3 1035 64 0 4.1 80 08:41 21.03.2020
698 Clear 2 1035 69 0 5.7 60 08:22 21.03.2020
699 Clear 2 1034 74 0 3.6 70 07:42 21.03.2020
700 Clear 1 1035 74 0 5.1 60 07:23 21.03.2020
701 Clear 1 1034 69 0 4.6 70 06:46 21.03.2020
702 Clear 1 1034 69 0 5.1 60 06:27 21.03.2020
703 Clear 1 1034 64 0 4.1 80 05:46 21.03.2020
704 Clear 1 1033 59 0 5.1 70 04:42 21.03.2020
705 Clear 2 1033 55 0 4.6 70 02:48 21.03.2020
706 Clear 2 1033 59 0 5.7 50 02:30 21.03.2020
707 Clear 2 1033 59 0 4.6 70 01:32 21.03.2020
708 Clear 2 1033 69 0 4.1 50 00:48 21.03.2020
709 Clear 2 1033 74 0 5.1 30 00:25 21.03.2020
710 Clear 2 1032 64 0 4.6 50 23:49 20.03.2020
711 Clear 2 1033 69 0 4.6 20 23:26 20.03.2020
712 Clear 3 1032 59 0 4.6 50 22:57 20.03.2020
713 Clear 3 1032 59 0 4.6 50 22:39 20.03.2020
714 Clear 3 1032 64 0 5.7 20 22:20 20.03.2020
715 Clear 3 1032 51 0 6.7 50 21:55 20.03.2020
716 Clear 3 1032 51 0 6.7 50 21:37 20.03.2020
717 Clear 4 1032 60 0 6.7 20 21:18 20.03.2020
718 Clear 4 1031 51 0 5.7 50 20:56 20.03.2020
719 Clear 4 1031 51 0 5.7 50 20:38 20.03.2020
720 Clear 4 1031 52 0 6.2 20 20:18 20.03.2020
721 Clear 5 1031 56 0 7.2 40 19:44 20.03.2020
722 Clear 5 1030 65 0 5.7 10 19:19 20.03.2020
723 Clear 6 1030 52 0 8.2 40 18:55 20.03.2020
724 Clear 6 1030 52 0 8.2 40 18:37 20.03.2020
725 Clear 7 1030 56 0 6.2 20 18:19 20.03.2020
726 Clear 7 1030 56 0 6.2 20 18:19 20.03.2020
727 Clear 7 1030 52 0 5.1 20 17:39 20.03.2020
728 Clear 8 1029 52 0 6.2 20 17:21 20.03.2020
729 Clear 8 1029 52 0 6.2 20 17:21 20.03.2020
730 Clear 8 1029 61 0 7.2 40 16:59 20.03.2020
731 Clear 8 1029 61 0 7.2 40 16:41 20.03.2020
732 Clear 9 1029 61 0 6.2 20 16:19 20.03.2020
733 Clear 9 1029 61 0 7.7 40 15:43 20.03.2020
734 Clouds 10 1028 65 10000 5.1 10 15:22 20.03.2020
735 Clear 10 1028 56 0 8.7 40 14:57 20.03.2020
736 Clear 10 1028 56 0 8.7 40 14:38 20.03.2020
737 Clouds 10 1028 66 0 6.2 20 14:19 20.03.2020
738 Clouds 9 1028 43 0 7.2 30 13:46 20.03.2020
739 Clouds 9 1028 57 0 6.7 360 13:20 20.03.2020
740 Clouds 8 1028 61 0 2.1 10 12:54 20.03.2020
741 Clouds 8 1028 61 0 2.1 10 12:36 20.03.2020
742 Clouds 8 1028 70 10000 4.6 350 12:18 20.03.2020
743 Clouds 7 1028 81 0 3.6 320 11:39 20.03.2020
744 Clouds 7 1028 81 0 4.6 320 11:20 20.03.2020
745 Clouds 6 1028 75 0 5.1 350 10:54 20.03.2020
746 Clouds 6 1028 75 0 5.1 350 10:36 20.03.2020
747 Clouds 6 1028 80 0 4.6 330 10:18 20.03.2020
748 Clouds 6 1027 80 0 4.6 340 09:43 20.03.2020
749 Clouds 5 1027 80 0 5.1 320 09:20 20.03.2020
750 Clouds 5 1027 80 0 4.1 340 08:43 20.03.2020
751 Clouds 5 1027 93 10000 2.1 300 08:23 20.03.2020
752 Clouds 4 1027 80 0 5.1 330 07:57 20.03.2020
753 Clouds 4 1027 93 0 3.1 360 07:38 20.03.2020
754 Clouds 4 1027 93 10000 2.1 310 07:19 20.03.2020
755 Clouds 4 1027 93 0 2.1 320 06:42 20.03.2020
756 Clouds 4 1027 86 0 3.1 310 05:57 20.03.2020
757 Clouds 4 1026 93 0 2.1 260 04:27 20.03.2020
758 Clouds 4 1026 93 0 3.1 270 02:50 20.03.2020
759 Clouds 4 1026 86 0 3.1 280 01:50 20.03.2020
760 Clouds 4 1026 86 0 2.6 250 00:38 20.03.2020
761 Clouds 4 1027 86 0 3.1 320 23:59 19.03.2020
762 Clouds 4 1026 86 0 2.1 280 23:40 19.03.2020
763 Clouds 4 1027 80 0 2.6 280 23:22 19.03.2020
764 Clouds 5 1027 86 0 3.1 300 22:41 19.03.2020
765 Clouds 5 1026 80 0 2.6 280 22:22 19.03.2020
766 Clouds 5 1027 80 0 3.6 300 21:58 19.03.2020
767 Clouds 5 1027 80 0 3.6 300 21:38 19.03.2020
768 Clouds 5 1026 86 0 2.1 280 21:20 19.03.2020
769 Clouds 5 1026 81 0 3.6 310 20:54 19.03.2020
770 Clouds 6 1026 81 0 3.6 310 20:36 19.03.2020
771 Clouds 6 1026 75 0 2.6 290 20:18 19.03.2020
772 Clouds 6 1026 75 0 4.1 320 19:39 19.03.2020
773 Clouds 7 1026 70 0 3.1 290 19:21 19.03.2020
774 Clouds 7 1026 70 0 5.7 310 18:59 19.03.2020
775 Clouds 7 1026 70 0 5.7 310 18:41 19.03.2020
776 Clouds 8 1026 61 0 3.6 280 18:22 19.03.2020
777 Clouds 8 1026 61 0 6.2 330 17:56 19.03.2020
778 Clouds 9 1026 61 10000 5.1 330 17:37 19.03.2020
779 Clouds 9 1025 57 0 4.1 300 17:18 19.03.2020
780 Clouds 9 1026 53 0 5.1 320 16:43 19.03.2020
781 Clouds 9 1026 57 0 4.1 290 16:22 19.03.2020
782 Clouds 10 1026 61 0 6.2 320 15:44 19.03.2020
783 Clouds 10 1026 57 10000 3.6 270 15:25 19.03.2020
784 Clouds 10 1026 57 0 6.2 290 14:55 19.03.2020
785 Clouds 10 1026 57 0 6.2 290 14:37 19.03.2020
786 Clouds 10 1026 62 0 4.1 290 14:18 19.03.2020
787 Clouds 10 1026 57 0 7.2 280 13:39 19.03.2020
788 Clouds 9 1026 66 0 4.1 320 13:19 19.03.2020
789 Clouds 9 1026 61 0 4.6 300 12:44 19.03.2020
790 Clouds 9 1026 66 0 3.1 310 12:24 19.03.2020
791 Clouds 9 1026 66 0 4.1 270 11:59 19.03.2020
792 Clouds 9 1026 66 0 3.1 320 11:41 19.03.2020
793 Clouds 8 1026 75 0 3.1 330 11:23 19.03.2020
794 Clouds 8 1026 70 0 3.1 280 10:56 19.03.2020
795 Clouds 8 1025 81 0 3.6 330 10:36 19.03.2020
796 Clouds 7 1025 81 0 3.1 320 10:18 19.03.2020
797 Clouds 7 1025 87 0 3.6 270 09:42 19.03.2020
798 Clouds 7 1025 71 10000 2.6 270 09:24 19.03.2020
799 Clouds 6 1024 87 0 3.6 270 08:48 19.03.2020
800 Clouds 6 1025 73 10000 3.1 280 08:23 19.03.2020
801 Clouds 6 1024 87 0 2.6 250 07:59 19.03.2020
802 Clouds 5 1024 87 0 4.1 270 07:38 19.03.2020
803 Clouds 5 1024 93 0 2.6 240 07:19 19.03.2020
804 Clouds 5 1023 93 10000 2.1 260 06:27 19.03.2020
805 Clouds 5 1023 93 10000 2.6 250 05:25 19.03.2020
806 Clouds 5 1023 86 0 4.1 260 04:51 19.03.2020
807 Clouds 5 1023 93 10000 2.6 240 04:21 19.03.2020
808 Clouds 5 1023 93 0 5.1 280 02:33 19.03.2020
809 Clouds 6 1022 87 0 5.7 310 00:53 19.03.2020
810 Clouds 6 1022 87 0 3.1 260 00:20 19.03.2020
811 Clouds 6 1022 87 0 4.6 280 23:45 18.03.2020
812 Clouds 6 1022 87 0 3.1 250 23:26 18.03.2020
813 Clouds 6 1022 87 0 4.6 260 22:43 18.03.2020
814 Clouds 6 1022 87 0 3.6 250 22:24 18.03.2020
815 Clouds 6 1022 87 0 3.6 250 21:59 18.03.2020
816 Clouds 6 1022 87 0 4.6 260 21:40 18.03.2020
817 Clouds 7 1022 87 0 3.6 250 21:21 18.03.2020
818 Clouds 7 1022 87 0 3.6 250 21:21 18.03.2020
819 Clouds 7 1022 87 0 4.1 280 20:57 18.03.2020
820 Clouds 7 1022 87 0 4.1 280 20:38 18.03.2020
821 Rain 7 1022 87 0 3.1 260 20:19 18.03.2020
822 Rain 7 1022 93 0 5.1 280 19:55 18.03.2020
823 Rain 7 1022 93 0 5.1 280 19:36 18.03.2020
824 Rain 7 1021 87 0 3.1 260 19:18 18.03.2020
825 Rain 8 1021 93 0 4.6 280 18:41 18.03.2020
826 Rain 8 1021 93 0 3.1 260 18:20 18.03.2020
827 Rain 8 1021 93 0 7.2 300 17:57 18.03.2020
828 Rain 8 1021 93 0 3.1 270 17:39 18.03.2020
829 Rain 8 1020 87 0 3.6 280 17:20 18.03.2020
830 Rain 9 1020 93 0 7.7 290 16:54 18.03.2020
831 Rain 9 1020 93 0 7.7 290 16:36 18.03.2020
832 Drizzle 9 1021 93 2800 7.7 250 16:18 18.03.2020
833 Rain 9 1020 87 0 7.7 270 15:44 18.03.2020
834 Drizzle 9 1020 93 0 4.6 250 15:20 18.03.2020
835 Rain 9 1020 93 0 9.3 270 14:45 18.03.2020
836 Drizzle 9 1021 93 2800 9.3 250 14:22 18.03.2020
837 Rain 9 1020 93 0 10.3 270 13:58 18.03.2020
838 Rain 9 1020 93 0 10.3 270 13:36 18.03.2020
839 Rain 9 1020 87 0 5.7 250 13:18 18.03.2020
840 Mist 9 1021 93 4000 9.8 250 12:41 18.03.2020
841 Drizzle 9 1021 100 2000 9.3 250 12:19 18.03.2020
842 Drizzle 9 1019 93 0 6.2 250 11:40 18.03.2020
843 Drizzle 9 1021 93 3000 9.8 240 11:21 18.03.2020
844 Rain 9 1019 87 0 11.8 260 10:58 18.03.2020
845 Rain 9 1019 87 0 11.8 260 10:39 18.03.2020
846 Drizzle 9 1019 93 0 5.7 240 10:20 18.03.2020
847 Rain 9 1019 93 0 11.8 260 09:56 18.03.2020
848 Rain 8 1019 93 0 11.8 260 09:38 18.03.2020
849 Drizzle 8 1020 81 6000 10.8 240 09:20 18.03.2020
850 Rain 9 1019 87 0 10.3 250 08:39 18.03.2020
851 Rain 8 1018 93 0 5.1 230 08:21 18.03.2020
852 Clouds 8 1018 76 0 10.8 250 07:49 18.03.2020
853 Clouds 8 1020 89 10000 6.2 230 07:31 18.03.2020
854 Clouds 8 1018 75 0 8.7 250 06:50 18.03.2020
855 Clouds 7 1018 81 0 5.1 230 06:31 18.03.2020
856 Clouds 7 1018 75 0 6.2 210 05:37 18.03.2020
857 Clouds 8 1019 81 0 6.7 220 04:29 18.03.2020
858 Clouds 8 1020 70 0 8.2 240 03:21 18.03.2020
859 Clouds 8 1021 66 0 9.3 240 02:35 18.03.2020
860 Clouds 9 1022 81 0 4.1 230 01:32 18.03.2020
861 Clouds 9 1022 76 0 7.7 240 00:42 18.03.2020
862 Clouds 9 1022 76 0 7.7 240 00:21 18.03.2020
863 Clouds 8 1023 81 0 7.2 240 23:42 17.03.2020
864 Clouds 8 1023 87 0 3.6 220 23:20 17.03.2020
865 Clouds 8 1023 87 0 4.1 230 22:45 17.03.2020
866 Clouds 8 1023 87 0 4.1 230 22:26 17.03.2020
867 Clouds 8 1024 87 0 6.7 240 21:43 17.03.2020
868 Clouds 8 1024 87 0 4.1 230 21:23 17.03.2020
869 Clouds 8 1024 87 0 6.2 250 20:58 17.03.2020
870 Clouds 8 1024 87 0 6.2 250 20:38 17.03.2020
871 Rain 8 1024 87 0 4.1 230 20:19 17.03.2020
872 Rain 8 1024 87 0 7.2 250 19:42 17.03.2020
873 Rain 8 1024 87 0 4.1 230 19:20 17.03.2020
874 Rain 8 1024 87 0 7.2 250 18:58 17.03.2020
875 Rain 8 1024 87 0 7.2 250 18:39 17.03.2020
876 Mist 8 1023 93 0 4.6 240 18:21 17.03.2020
877 Rain 8 1024 87 0 7.7 250 17:56 17.03.2020
878 Mist 8 1023 93 0 5.1 230 17:38 17.03.2020
879 Clouds 8 1025 87 7000 8.7 250 17:19 17.03.2020
880 Clouds 8 1024 87 0 7.7 250 16:42 17.03.2020
881 Clouds 8 1023 81 0 6.7 240 16:19 17.03.2020
882 Clouds 8 1024 87 0 8.2 250 15:47 17.03.2020
883 Drizzle 9 1025 76 7000 10.3 250 15:23 17.03.2020
884 Clouds 9 1024 81 0 10.3 260 14:49 17.03.2020
885 Clouds 9 1025 87 10000 8.7 250 14:30 17.03.2020
886 Clouds 9 1024 81 0 6.2 240 13:59 17.03.2020
887 Clouds 9 1024 76 0 10.8 260 13:41 17.03.2020
888 Clouds 9 1024 76 0 5.1 230 13:22 17.03.2020
889 Clouds 9 1024 76 0 10.3 260 12:47 17.03.2020
890 Clouds 9 1023 76 0 5.1 230 12:25 17.03.2020
891 Clouds 9 1024 70 0 10.8 250 11:59 17.03.2020
892 Clouds 9 1023 81 10000 9.3 240 11:39 17.03.2020
893 Clouds 9 1023 70 0 6.2 230 11:21 17.03.2020
894 Clouds 9 1023 70 0 7.7 250 10:55 17.03.2020
895 Clouds 8 1023 70 0 4.6 220 10:36 17.03.2020
896 Clouds 8 1023 81 0 4.1 210 10:18 17.03.2020
897 Clouds 7 1023 75 0 4.6 230 09:45 17.03.2020
898 Clouds 7 1023 81 0 5.1 210 09:20 17.03.2020
899 Clouds 6 1023 87 0 5.7 210 08:58 17.03.2020
900 Clouds 6 1023 87 0 5.7 210 08:58 17.03.2020
901 Clouds 6 1023 87 0 5.7 210 08:40 17.03.2020
902 Clouds 5 1023 87 0 3.6 200 08:18 17.03.2020
903 Clouds 4 1023 86 0 5.7 210 07:49 17.03.2020
904 Clouds 4 1023 86 0 2.6 200 07:21 17.03.2020
905 Clouds 4 1023 86 0 5.1 220 06:49 17.03.2020
906 Clouds 4 1023 81 0 2.1 190 06:25 17.03.2020
907 Clouds 5 1023 75 0 3.1 240 05:26 17.03.2020
908 Clouds 5 1023 70 0 5.7 250 03:34 17.03.2020
909 Clouds 5 1023 75 0 4.1 240 02:31 17.03.2020
910 Clear 5 1023 75 0 3.1 230 01:39 17.03.2020
911 Clear 5 1023 75 0 3.6 270 00:54 17.03.2020
912 Clear 5 1023 75 0 1.5 270 00:19 17.03.2020
913 Clear 5 1023 75 0 4.1 260 23:43 16.03.2020
914 Clear 6 1023 70 0 2.6 270 23:22 16.03.2020
915 Clear 6 1022 70 0 6.2 270 22:38 16.03.2020
916 Clear 6 1022 75 0 2.6 250 22:20 16.03.2020
917 Clear 7 1022 70 0 5.7 250 21:45 16.03.2020
918 Clear 7 1022 75 0 3.1 250 21:27 16.03.2020
919 Clear 7 1022 70 0 5.1 270 20:59 16.03.2020
920 Clear 7 1022 70 0 5.1 270 20:40 16.03.2020
921 Clear 7 1021 75 0 6.7 290 20:21 16.03.2020
922 Clear 7 1021 75 0 6.7 290 19:46 16.03.2020
923 Clear 7 1021 70 0 3.1 240 19:25 16.03.2020
924 Clear 7 1021 70 0 3.1 240 19:25 16.03.2020
925 Clear 7 1021 75 0 5.1 300 18:59 16.03.2020
926 Clear 7 1021 70 0 3.1 280 18:40 16.03.2020
927 Clear 8 1020 75 0 3.1 260 18:20 16.03.2020
928 Clear 8 1020 70 0 5.1 280 17:46 16.03.2020
929 Clouds 8 1021 75 10000 5.1 270 17:26 16.03.2020
930 Clear 8 1020 75 0 7.2 280 16:58 16.03.2020
931 Clear 8 1020 75 0 7.2 280 16:40 16.03.2020
932 Clear 8 1019 70 0 4.1 270 16:22 16.03.2020
933 Clear 8 1019 75 0 8.7 280 15:43 16.03.2020
934 Clouds 9 1019 68 10000 6.2 270 15:24 16.03.2020
935 Clear 9 1018 70 0 8.2 300 14:48 16.03.2020
936 Clear 9 1018 76 0 3.6 270 14:24 16.03.2020
937 Clear 9 1017 75 0 7.7 280 13:53 16.03.2020
938 Clouds 9 1018 70 10000 7.2 270 13:30 16.03.2020
939 Clear 9 1017 75 0 9.3 290 12:58 16.03.2020
940 Clear 9 1017 75 0 9.3 290 12:40 16.03.2020
941 Clouds 9 1016 81 10000 5.1 280 12:20 16.03.2020
942 Clear 9 1016 75 0 9.8 290 11:45 16.03.2020
943 Clouds 9 1015 87 10000 8.2 270 11:26 16.03.2020
944 Clear 9 1015 75 0 10.3 270 10:47 16.03.2020
945 Clouds 8 1015 77 10000 8.2 270 10:25 16.03.2020
946 Clear 8 1014 75 0 5.7 250 09:59 16.03.2020
947 Clear 9 1014 81 0 5.1 260 09:40 16.03.2020
948 Clear 8 1013 81 0 5.7 260 09:20 16.03.2020
949 Clear 8 1013 87 0 6.2 260 08:47 16.03.2020
950 Rain 8 1013 77 10000 5.1 260 08:24 16.03.2020
951 Rain 8 1012 87 0 5.1 260 07:45 16.03.2020
952 Clouds 8 1013 87 10000 3.6 240 07:21 16.03.2020
953 Rain 8 1011 87 0 6.2 260 06:51 16.03.2020
954 Clouds 8 1012 81 10000 4.6 240 06:23 16.03.2020
955 Rain 9 1009 76 0 9.8 260 04:54 16.03.2020
956 Rain 10 1009 71 0 7.7 250 02:40 16.03.2020
957 Clouds 9 1009 76 0 7.2 230 00:52 16.03.2020
958 Rain 9 1009 81 0 4.6 210 00:32 16.03.2020
959 Clouds 9 1010 76 0 7.2 240 23:46 15.03.2020
960 Rain 9 1009 81 0 5.1 230 23:20 15.03.2020
961 Clouds 10 1009 76 0 10.3 240 22:42 15.03.2020
962 Clouds 9 1009 81 0 1.5 220 22:22 15.03.2020
963 Clouds 10 1009 76 0 4.1 220 21:56 15.03.2020
964 Clouds 10 1009 76 0 4.1 220 21:37 15.03.2020
965 Clouds 10 1009 81 0 2.6 230 21:18 15.03.2020
966 Clouds 10 1009 76 0 5.1 250 20:42 15.03.2020
967 Clouds 10 1009 71 10000 4.6 220 20:20 15.03.2020
968 Clouds 11 1010 66 0 6.7 240 19:58 15.03.2020
969 Clouds 11 1010 66 0 6.7 240 19:38 15.03.2020
970 Clouds 11 1009 71 10000 3.6 200 19:19 15.03.2020
971 Clouds 11 1009 66 0 6.7 220 18:55 15.03.2020
972 Clouds 11 1009 66 0 6.7 220 18:37 15.03.2020
973 Clouds 11 1009 71 10000 3.6 200 18:19 15.03.2020
974 Clouds 12 1009 62 0 6.2 220 17:41 15.03.2020
975 Clouds 12 1009 62 10000 4.1 200 17:21 15.03.2020
976 Clouds 12 1009 58 0 6.7 220 16:58 15.03.2020
977 Clouds 12 1009 58 0 6.7 220 16:39 15.03.2020
978 Clouds 12 1009 66 10000 5.1 200 16:21 15.03.2020
979 Clouds 12 1009 62 0 7.7 220 15:46 15.03.2020
980 Clouds 12 1009 66 10000 5.1 190 15:28 15.03.2020
981 Clouds 12 1009 62 0 8.2 210 14:58 15.03.2020
982 Clouds 12 1009 62 0 8.2 210 14:38 15.03.2020
983 Rain 11 1010 71 0 5.1 190 14:19 15.03.2020
984 Rain 11 1010 71 0 6.2 210 13:55 15.03.2020
985 Rain 10 1010 71 0 6.2 210 13:37 15.03.2020
986 Rain 10 1010 71 0 6.7 200 13:18 15.03.2020
987 Rain 10 1010 71 0 6.7 200 13:18 15.03.2020
988 Rain 9 1011 81 0 7.7 210 12:40 15.03.2020
989 Rain 8 1011 76 0 6.7 200 12:22 15.03.2020
990 Rain 8 1011 75 0 8.2 210 11:44 15.03.2020
991 Rain 8 1011 75 0 6.2 200 11:25 15.03.2020
992 Clouds 8 1011 75 0 8.2 210 10:59 15.03.2020
993 Clouds 8 1011 75 0 8.2 210 10:40 15.03.2020
994 Clouds 8 1013 82 10000 6.7 200 10:22 15.03.2020
995 Clouds 7 1012 70 0 6.2 190 09:59 15.03.2020
996 Clouds 7 1012 70 0 7.7 200 09:38 15.03.2020
997 Clouds 7 1012 70 0 5.7 180 09:20 15.03.2020
998 Clouds 6 1012 70 0 7.7 200 08:41 15.03.2020
999 Clouds 6 1012 75 0 5.7 180 08:20 15.03.2020
1000 Clouds 6 1012 70 0 7.7 200 07:50 15.03.2020
1001 Clouds 5 1012 75 0 4.6 180 07:23 15.03.2020
1002 Clouds 5 1012 70 0 8.7 190 06:44 15.03.2020
1003 Clouds 5 1013 80 0 8.2 180 05:49 15.03.2020
1004 Clouds 5 1013 65 0 9.3 180 04:58 15.03.2020
1005 Clouds 5 1013 65 0 9.3 180 04:40 15.03.2020
1006 Clouds 5 1014 75 0 5.1 170 04:20 15.03.2020
1007 Clouds 4 1015 75 0 6.2 160 03:25 15.03.2020
1008 Clouds 4 1015 65 0 9.3 180 02:36 15.03.2020
1009 Clouds 4 1017 72 0 6.2 160 01:20 15.03.2020
1010 Clouds 4 1017 64 0 8.2 170 00:42 15.03.2020
1011 Clouds 4 1018 72 0 5.7 160 00:21 15.03.2020
1012 Clouds 4 1017 64 0 7.7 170 23:41 14.03.2020
1013 Clouds 4 1018 72 0 5.7 160 23:21 14.03.2020
1014 Clear 4 1018 64 0 7.2 170 22:58 14.03.2020
1015 Clear 4 1018 64 0 7.2 170 22:40 14.03.2020
1016 Clear 4 1019 77 0 5.1 160 22:22 14.03.2020
1017 Clear 4 1019 60 0 7.7 170 21:56 14.03.2020
1018 Clear 4 1019 60 0 7.7 170 21:36 14.03.2020
1019 Clear 4 1020 77 0 4.6 160 21:18 14.03.2020
1020 Clear 4 1019 64 0 5.1 160 20:58 14.03.2020
1021 Clear 4 1019 64 0 5.1 160 20:40 14.03.2020
1022 Clouds 4 1020 78 0 5.7 150 20:19 14.03.2020
1023 Clouds 5 1020 60 0 5.1 160 19:43 14.03.2020
1024 Clouds 5 1020 76 0 5.7 150 19:25 14.03.2020
1025 Clouds 6 1020 56 0 5.1 170 18:42 14.03.2020
1026 Clouds 6 1020 75 0 5.7 140 18:24 14.03.2020
1027 Clouds 7 1020 48 0 7.2 170 17:58 14.03.2020
1028 Clouds 7 1020 49 10000 6.2 160 17:38 14.03.2020
1029 Clouds 7 1020 49 10000 6.2 160 17:38 14.03.2020
1030 Clear 7 1021 70 0 6.7 140 17:20 14.03.2020
1031 Clear 7 1021 70 0 6.7 140 17:20 14.03.2020
1032 Clear 8 1020 45 0 7.2 170 16:41 14.03.2020
1033 Clear 8 1022 61 10000 4.6 160 16:23 14.03.2020
1034 Clear 8 1021 70 0 6.7 130 15:58 14.03.2020
1035 Clear 8 1022 61 10000 5.1 170 15:27 14.03.2020
1036 Clear 8 1021 48 0 6.2 170 14:58 14.03.2020
1037 Clear 7 1021 48 0 6.2 170 14:37 14.03.2020
1038 Clouds 7 1022 56 10000 5.1 160 14:18 14.03.2020
1039 Clear 7 1022 48 0 5.1 180 13:42 14.03.2020
1040 Clear 7 1023 60 10000 5.1 140 13:23 14.03.2020
1041 Clear 6 1023 48 0 5.1 190 12:57 14.03.2020
1042 Clear 7 1023 56 10000 4.1 180 12:38 14.03.2020
1043 Clear 6 1023 56 10000 4.1 160 12:19 14.03.2020
1044 Clear 6 1023 60 10000 4.6 160 11:42 14.03.2020
1045 Clear 5 1023 56 10000 4.6 160 11:24 14.03.2020
1046 Clear 5 1023 52 0 5.1 170 10:46 14.03.2020
1047 Clear 4 1023 60 10000 3.6 170 10:27 14.03.2020
1048 Clear 4 1023 64 0 4.1 170 09:58 14.03.2020
1049 Clear 3 1023 64 0 4.1 170 09:40 14.03.2020
1050 Clear 2 1022 64 10000 2.1 170 09:20 14.03.2020
1051 Clear 0 1022 64 0 3.6 180 08:46 14.03.2020
1052 Clear 0 1023 61 10000 2.1 160 08:26 14.03.2020
1053 Clear -2 1022 92 0 2.1 190 07:40 14.03.2020
1054 Clear -3 1022 92 10000 2.68 173 07:21 14.03.2020
1055 Clear -3 1021 92 0 2.1 170 06:45 14.03.2020
1056 Clear -3 1021 92 0 2.1 170 06:45 14.03.2020
1057 Clear -3 1021 86 0 2.68 173 06:26 14.03.2020
1058 Clear -3 1021 92 0 0.5 0 04:55 14.03.2020
1059 Clear -2 1021 100 0 1.53 169 03:34 14.03.2020
1060 Clear -2 1020 92 0 1 280 02:48 14.03.2020
1061 Clear -1 1020 92 0 1.5 310 01:46 14.03.2020
1062 Clear 0 1020 78 6000 1.5 260 00:34 14.03.2020
1063 Clear 0 1019 86 0 2.6 350 23:42 13.03.2020
1064 Clear 1 1019 80 0 3.6 320 23:23 13.03.2020
1065 Clear 1 1018 75 0 3.1 320 22:45 13.03.2020
1066 Clouds 2 1018 74 10000 4.6 320 22:22 13.03.2020
1067 Clear 2 1017 74 0 3.1 310 21:41 13.03.2020
1068 Clear 3 1016 75 10000 3.1 310 21:19 13.03.2020
1069 Clear 3 1016 74 0 3.6 340 20:56 13.03.2020
1070 Clear 3 1016 74 0 3.6 340 20:37 13.03.2020
1071 Clear 4 1015 73 10000 5.7 320 20:18 13.03.2020
1072 Clear 4 1014 69 0 6.7 350 19:42 13.03.2020
1073 Clear 4 1013 65 10000 7.7 330 19:23 13.03.2020
1074 Clear 5 1013 73 0 7.7 340 18:44 13.03.2020
1075 Clouds 5 1012 75 10000 7.7 330 18:25 13.03.2020
1076 Clear 5 1011 80 0 12.9 310 17:55 13.03.2020
1077 Clouds 5 1011 70 10000 7.7 320 17:37 13.03.2020
1078 Clouds 6 1010 81 10000 7.2 290 17:18 13.03.2020
1079 Clear 7 1010 65 0 11.8 300 16:40 13.03.2020
1080 Clouds 7 1008 70 10000 9.3 290 16:22 13.03.2020
1081 Clear 7 1008 59 0 13.9 300 15:55 13.03.2020
1082 Clear 7 1008 59 0 13.9 300 15:37 13.03.2020
1083 Clouds 7 1007 65 10000 8.7 290 15:18 13.03.2020
1084 Clear 7 1007 59 0 17 310 14:40 13.03.2020
1085 Clouds 7 1006 61 10000 8.7 290 14:22 13.03.2020
1086 Clouds 7 1005 55 0 18.5 310 13:56 13.03.2020
1087 Clouds 7 1005 55 0 18.5 310 13:37 13.03.2020
1088 Rain 7 1004 70 10000 9.3 300 13:18 13.03.2020
1089 Clouds 7 1006 65 10000 13.4 300 12:40 13.03.2020
1090 Rain 7 1005 81 6000 9.3 290 12:21 13.03.2020
1091 Clouds 7 1002 75 0 13.9 310 11:57 13.03.2020
1092 Clouds 7 1004 75 10000 10.8 310 11:39 13.03.2020
1093 Clouds 7 1003 70 10000 12.3 310 11:21 13.03.2020
1094 Rain 6 1001 87 0 13.4 330 10:47 13.03.2020
1095 Drizzle 6 1000 79 9000 8.2 270 10:27 13.03.2020
1096 Rain 6 998 87 0 8.7 280 09:57 13.03.2020
1097 Rain 6 998 87 0 8.7 280 09:39 13.03.2020
1098 Rain 5 999 93 8000 7.2 220 09:20 13.03.2020
1099 Rain 5 998 86 0 8.2 240 08:45 13.03.2020
1100 Rain 5 998 86 10000 4.6 240 08:22 13.03.2020
1101 Rain 5 998 80 0 12.3 250 07:49 13.03.2020
1102 Rain 5 1000 88 10000 6.2 230 07:28 13.03.2020
1103 Rain 5 998 70 0 12.3 250 06:47 13.03.2020
1104 Rain 5 1001 88 8000 8.2 230 06:28 13.03.2020
1105 Rain 5 999 75 0 9.8 250 05:53 13.03.2020
1106 Rain 5 998 81 10000 6.2 240 05:20 13.03.2020
1107 Rain 6 999 81 0 8.2 250 04:37 13.03.2020
1108 Rain 6 999 81 0 8.7 250 03:37 13.03.2020
1109 Clouds 5 1000 80 0 9.3 230 01:46 13.03.2020
1110 Clouds 4 1000 86 0 5.7 210 01:19 13.03.2020
1111 Clouds 4 1001 80 0 8.7 230 00:53 13.03.2020
1112 Clouds 4 1001 80 0 4.1 220 00:24 13.03.2020
1113 Clouds 4 1001 75 0 7.7 240 23:50 12.03.2020
1114 Clouds 5 1001 81 0 4.1 240 23:27 12.03.2020
1115 Clouds 5 1002 75 0 8.2 250 22:56 12.03.2020
1116 Clouds 5 1002 75 0 8.2 250 22:38 12.03.2020
1117 Clouds 5 1002 75 10000 4.1 240 22:20 12.03.2020
1118 Clouds 6 1002 75 0 8.7 260 21:44 12.03.2020
1119 Clouds 6 1002 75 10000 5.1 240 21:26 12.03.2020
1120 Clouds 5 1002 75 0 11.3 260 20:57 12.03.2020
1121 Clouds 5 1002 75 0 11.3 260 20:38 12.03.2020
1122 Clouds 6 1002 70 10000 6.7 250 20:19 12.03.2020
1123 Rain 6 1002 70 0 11.3 270 19:41 12.03.2020
1124 Clouds 6 1002 70 10000 6.7 250 19:20 12.03.2020
1125 Rain 6 1002 70 0 14.9 270 18:44 12.03.2020
1126 Clouds 6 1002 70 10000 8.7 260 18:24 12.03.2020
1127 Rain 6 1002 60 0 15.4 280 17:57 12.03.2020
1128 Rain 6 1003 70 8000 11.8 260 17:38 12.03.2020
1129 Clouds 6 1003 61 10000 13.4 260 17:20 12.03.2020
1130 Rain 6 1002 61 0 16.5 270 16:55 12.03.2020
1131 Rain 6 1002 61 0 16.5 270 16:37 12.03.2020
1132 Clouds 7 1001 61 10000 9.8 260 16:18 12.03.2020
1133 Rain 7 1001 60 0 19.5 280 15:45 12.03.2020
1134 Clouds 7 1002 61 10000 12.3 260 15:26 12.03.2020
1135 Rain 7 1000 61 0 20.1 280 14:41 12.03.2020
1136 Clouds 6 1002 61 10000 13.9 260 14:23 12.03.2020
1137 Rain 6 999 65 0 20.1 280 13:57 12.03.2020
1138 Rain 7 999 65 0 20.1 280 13:36 12.03.2020
1139 Rain 6 998 65 10000 10.3 270 13:18 12.03.2020
1140 Rain 6 998 65 0 22.6 290 12:41 12.03.2020
1141 Rain 6 998 65 0 22.6 290 12:41 12.03.2020
1142 Clouds 6 1000 75 10000 16.5 270 12:22 12.03.2020
1143 Rain 6 997 75 0 21.6 280 11:57 12.03.2020
1144 Rain 6 996 59 10000 11.8 270 11:38 12.03.2020
1145 Clouds 6 999 80 10000 13.4 270 11:20 12.03.2020
1146 Rain 5 995 75 0 19.5 280 10:59 12.03.2020
1147 Rain 5 995 75 0 19.5 280 10:40 12.03.2020
1148 Rain 5 995 75 0 19.5 280 10:40 12.03.2020
1149 Rain 6 997 67 10000 13.9 260 10:22 12.03.2020
1150 Rain 6 994 75 0 20.1 290 09:47 12.03.2020
1151 Rain 6 995 67 10000 14.4 260 09:28 12.03.2020
1152 Rain 7 992 70 0 19.5 270 08:54 12.03.2020
1153 Rain 7 992 70 0 19.5 270 08:36 12.03.2020
1154 Clouds 7 991 65 10000 11.3 250 08:18 12.03.2020
1155 Rain 7 991 75 0 15.9 270 07:45 12.03.2020
1156 Rain 7 990 81 10000 9.3 240 07:21 12.03.2020
1157 Rain 9 992 81 0 12.3 250 05:57 12.03.2020
1158 Rain 9 990 87 5000 12.3 230 05:27 12.03.2020
1159 Rain 9 996 81 0 10.8 240 02:47 12.03.2020
1160 Clouds 9 997 81 0 7.7 240 01:39 12.03.2020
1161 Clouds 9 998 87 0 4.6 220 01:20 12.03.2020
1162 Clouds 9 999 81 0 8.2 240 00:41 12.03.2020
1163 Clouds 8 1000 76 0 7.7 240 23:57 11.03.2020
1164 Clouds 8 1001 81 0 3.6 220 23:28 11.03.2020
1165 Clouds 8 1001 81 0 8.2 240 22:58 11.03.2020
1166 Clouds 8 1001 81 0 8.2 240 22:39 11.03.2020
1167 Clouds 8 1002 81 10000 4.1 220 22:21 11.03.2020
1168 Clouds 8 1002 75 0 9.3 250 21:56 11.03.2020
1169 Clouds 8 1002 75 0 9.3 250 21:37 11.03.2020
1170 Clouds 7 1002 87 10000 7.7 220 21:19 11.03.2020
1171 Clouds 8 1003 70 10000 4.1 240 20:56 11.03.2020
1172 Clouds 8 1003 70 10000 4.1 240 20:37 11.03.2020
1173 Clouds 8 1003 70 10000 4.6 230 20:19 11.03.2020
1174 Clouds 8 1004 70 0 7.7 250 19:42 11.03.2020
1175 Clouds 8 1004 75 10000 4.1 240 19:24 11.03.2020
1176 Clouds 8 1005 70 0 10.3 260 18:57 11.03.2020
1177 Clouds 8 1005 70 0 10.3 260 18:37 11.03.2020
1178 Clouds 8 1005 75 10000 5.1 240 18:18 11.03.2020
1179 Clouds 8 1005 70 0 9.8 260 17:55 11.03.2020
1180 Clouds 9 1006 70 10000 5.1 250 17:37 11.03.2020
1181 Clouds 9 1005 66 10000 6.2 250 17:18 11.03.2020
1182 Clouds 9 1005 57 10000 6.7 250 16:43 11.03.2020
1183 Clouds 10 1005 57 10000 6.2 250 16:19 11.03.2020
1184 Clouds 10 1005 53 10000 8.2 260 15:43 11.03.2020
1185 Clouds 10 1005 53 10000 7.7 260 15:23 11.03.2020
1186 Clouds 10 1007 66 10000 8.2 260 14:56 11.03.2020
1187 Clouds 10 1005 57 10000 8.2 260 14:37 11.03.2020
1188 Clouds 10 1005 61 10000 7.7 260 14:18 11.03.2020
1189 Clouds 10 1005 70 10000 10.8 250 13:42 11.03.2020
1190 Clouds 10 1006 62 10000 9.3 270 13:24 11.03.2020
1191 Clouds 9 1006 61 10000 8.7 290 12:57 11.03.2020
1192 Clouds 9 1005 66 10000 7.7 260 12:39 11.03.2020
1193 Clouds 9 1004 66 10000 7.7 270 12:19 11.03.2020
1194 Clouds 9 1004 65 10000 7.7 280 11:41 11.03.2020
1195 Clouds 9 1006 66 10000 10.8 270 11:22 11.03.2020
1196 Clear 8 1004 75 0 14.9 290 10:56 11.03.2020
1197 Clear 8 1004 75 0 14.9 290 10:37 11.03.2020
1198 Clouds 8 1004 75 10000 7.2 270 10:18 11.03.2020
1199 Clear 7 1003 81 0 12.9 280 09:41 11.03.2020
1200 Clouds 7 1002 81 10000 7.2 260 09:23 11.03.2020
1201 Clear 7 1002 81 0 12.3 280 08:45 11.03.2020
1202 Clouds 6 1003 72 10000 6.7 260 08:26 11.03.2020
1203 Clouds 6 1001 87 0 11.3 280 07:48 11.03.2020
1204 Clouds 6 1001 87 10000 7.7 260 07:22 11.03.2020
1205 Clouds 6 1001 87 0 11.3 280 06:53 11.03.2020
1206 Clouds 6 1001 87 0 11.3 280 06:35 11.03.2020
1207 Clouds 6 1001 88 10000 6.2 260 05:33 11.03.2020
1208 Rain 7 999 81 0 13.4 300 03:39 11.03.2020
1209 Rain 8 995 87 0 15.4 290 01:57 11.03.2020
1210 Rain 8 994 93 0 7.2 260 01:25 11.03.2020
1211 Rain 8 995 87 0 13.9 280 00:45 11.03.2020
1212 Rain 8 994 87 0 11.3 280 23:56 10.03.2020
1213 Rain 8 994 87 0 11.3 280 23:55 10.03.2020
1214 Rain 8 994 87 0 11.3 280 23:55 10.03.2020
1215 Rain 8 994 87 0 11.3 280 23:55 10.03.2020
1216 Rain 8 994 93 0 6.2 260 23:37 10.03.2020
1217 Rain 8 993 93 0 6.7 260 23:18 10.03.2020
1218 Rain 8 994 87 0 11.8 280 22:38 10.03.2020
1219 Clouds 8 993 81 10000 6.7 260 22:19 10.03.2020
1220 Rain 8 993 87 0 12.9 280 21:56 10.03.2020
1221 Rain 8 993 87 0 12.9 280 21:38 10.03.2020
1222 Clouds 8 992 81 10000 6.7 270 21:19 10.03.2020
1223 Rain 8 993 87 0 12.9 280 20:57 10.03.2020
1224 Rain 8 993 87 0 12.9 280 20:38 10.03.2020
1225 Clouds 9 992 87 10000 5.7 250 20:18 10.03.2020
1226 Rain 9 992 93 0 10.8 270 19:56 10.03.2020
1227 Rain 9 992 93 0 10.8 270 19:36 10.03.2020
1228 Drizzle 9 993 93 5000 12.9 250 19:18 10.03.2020
1229 Rain 9 992 93 0 12.3 280 18:43 10.03.2020
1230 Rain 9 992 93 6000 5.7 260 18:25 10.03.2020
1231 Rain 9 992 93 0 11.8 260 17:57 10.03.2020
1232 Drizzle 9 993 93 5000 8.2 250 17:38 10.03.2020
1233 Rain 9 992 93 10000 5.1 240 17:20 10.03.2020
1234 Rain 9 992 93 0 11.8 260 16:38 10.03.2020
1235 Rain 9 992 93 10000 5.1 230 16:18 10.03.2020
1236 Rain 9 993 93 0 9.3 260 15:55 10.03.2020
1237 Drizzle 9 994 93 3700 6.2 240 15:37 10.03.2020
1238 Drizzle 9 995 93 2800 7.2 240 15:18 10.03.2020
1239 Rain 9 994 93 0 10.3 260 14:40 10.03.2020
1240 Clouds 9 995 93 10000 9.3 250 14:19 10.03.2020
1241 Rain 9 994 87 0 7.7 240 13:57 10.03.2020
1242 Rain 9 994 87 0 7.7 240 13:37 10.03.2020
1243 Mist 8 994 93 3000 5.7 210 13:19 10.03.2020
1244 Rain 8 995 93 0 7.2 240 12:39 10.03.2020
1245 Drizzle 7 996 93 5000 4.1 220 12:19 10.03.2020
1246 Rain 7 995 93 0 7.7 210 11:43 10.03.2020
1247 Drizzle 6 996 100 2800 5.7 200 11:25 10.03.2020
1248 Rain 6 995 87 0 8.7 190 10:59 10.03.2020
1249 Rain 6 995 87 0 8.7 190 10:41 10.03.2020
1250 Rain 6 995 87 0 8.7 190 10:41 10.03.2020
1251 Rain 5 996 93 8000 5.1 180 10:22 10.03.2020
1252 Rain 5 996 93 0 8.7 190 09:57 10.03.2020
1253 Rain 5 996 93 0 8.7 190 09:39 10.03.2020
1254 Rain 5 997 93 10000 6.2 170 09:18 10.03.2020
1255 Rain 5 997 86 0 9.8 190 08:46 10.03.2020
1256 Rain 5 998 86 10000 6.2 170 08:28 10.03.2020
1257 Rain 5 998 86 0 9.3 190 07:50 10.03.2020
1258 Rain 5 998 93 10000 6.2 170 07:31 10.03.2020
1259 Rain 5 999 86 0 7.2 190 06:45 10.03.2020
1260 Drizzle 5 1001 93 8000 5.1 190 06:27 10.03.2020
1261 Rain 5 1001 93 3700 6.2 170 05:41 10.03.2020
1262 Clouds 5 1002 93 0 6.7 190 04:48 10.03.2020
1263 Clouds 6 1003 81 0 6.7 200 03:41 10.03.2020
1264 Rain 6 1005 87 0 3.6 180 02:26 10.03.2020
1265 Clouds 5 1006 87 0 3.1 190 01:25 10.03.2020
1266 Clouds 5 1006 93 0 5.1 200 00:42 10.03.2020
1267 Clouds 5 1007 87 0 3.6 190 00:23 10.03.2020
1268 Clouds 5 1007 87 0 5.1 210 23:41 09.03.2020
1269 Clouds 5 1008 87 0 2.6 180 23:21 09.03.2020
1270 Clear 5 1008 93 0 4.6 210 22:43 09.03.2020
1271 Clouds 5 1008 93 10000 2.6 200 22:22 09.03.2020
1272 Clouds 5 1008 93 10000 2.6 200 22:22 09.03.2020
1273 Clouds 5 1008 93 10000 2.6 200 21:59 09.03.2020
1274 Clear 5 1009 86 0 4.6 220 21:40 09.03.2020
1275 Rain 5 1010 87 7000 2.6 220 21:21 09.03.2020
1276 Clear 5 1009 81 0 3.6 220 20:56 09.03.2020
1277 Clear 5 1009 81 0 3.6 220 20:38 09.03.2020
1278 Clouds 5 1009 87 10000 2.1 220 20:20 09.03.2020
1279 Clear 6 1009 81 0 5.1 250 19:45 09.03.2020
1280 Clouds 6 1009 87 10000 3.1 240 19:25 09.03.2020
1281 Clear 6 1009 87 0 4.1 270 18:58 09.03.2020
1282 Clear 6 1009 87 0 4.1 270 18:58 09.03.2020
1283 Clear 6 1009 87 0 4.1 270 18:38 09.03.2020
1284 Clouds 7 1009 81 10000 4.6 260 18:20 09.03.2020
1285 Clear 7 1009 81 0 7.7 270 17:58 09.03.2020
1286 Clear 7 1009 81 0 7.7 270 17:38 09.03.2020
1287 Clear 7 1009 81 0 7.7 270 17:38 09.03.2020
1288 Clouds 8 1009 81 10000 5.7 280 17:20 09.03.2020
1289 Rain 8 1008 75 0 7.2 280 16:58 09.03.2020
1290 Rain 8 1008 75 0 7.2 280 16:40 09.03.2020
1291 Rain 8 1008 76 0 6.7 260 16:22 09.03.2020
1292 Rain 8 1008 76 0 6.7 260 15:58 09.03.2020
1293 Clouds 8 1008 81 10000 4.6 230 15:39 09.03.2020
1294 Clouds 9 1009 81 10000 6.7 280 15:21 09.03.2020
1295 Rain 9 1008 76 0 9.3 260 14:57 09.03.2020
1296 Clouds 9 1008 87 10000 6.7 260 14:37 09.03.2020
1297 Clouds 9 1007 81 10000 6.7 240 14:18 09.03.2020
1298 Rain 9 1007 76 0 8.2 260 13:55 09.03.2020
1299 Clouds 9 1008 87 10000 6.7 260 13:37 09.03.2020
1300 Rain 9 1008 87 10000 5.7 250 13:18 09.03.2020
1301 Clouds 9 1008 87 10000 6.7 260 12:43 09.03.2020
1302 Clouds 8 1007 87 10000 3.1 240 12:22 09.03.2020
1303 Rain 8 1007 81 0 4.1 250 11:55 09.03.2020
1304 Clouds 8 1008 87 9000 6.2 250 11:37 09.03.2020
1305 Clouds 8 1007 93 10000 4.1 230 11:19 09.03.2020
1306 Rain 8 1006 87 0 6.7 260 10:55 09.03.2020
1307 Clouds 8 1007 87 9000 4.6 250 10:36 09.03.2020
1308 Clouds 7 1006 87 10000 3.6 230 10:18 09.03.2020
1309 Rain 7 1006 87 0 3.6 240 09:40 09.03.2020
1310 Clouds 7 1006 93 10000 4.1 220 09:21 09.03.2020
1311 Rain 7 1005 93 0 3.6 240 08:44 09.03.2020
1312 Rain 7 1006 93 4000 4.1 230 08:26 09.03.2020
1313 Rain 7 1005 93 0 4.1 240 07:42 09.03.2020
1314 Clouds 7 1005 93 7000 1.5 200 07:22 09.03.2020
1315 Clouds 7 1005 93 7000 1.5 200 07:22 09.03.2020
1316 Rain 7 1005 93 0 2.6 240 06:46 09.03.2020
1317 Rain 7 1005 93 0 1.5 170 06:28 09.03.2020
1318 Rain 7 1004 93 0 1.5 230 05:58 09.03.2020
1319 Rain 7 1004 93 0 1.5 230 05:40 09.03.2020
1320 Rain 7 1004 93 0 2.6 250 04:48 09.03.2020
1321 Rain 7 1004 100 0 2.6 160 04:24 09.03.2020
1322 Rain 7 1004 93 0 5.1 180 03:46 09.03.2020
1323 Rain 8 1004 87 0 4.6 190 02:50 09.03.2020
1324 Clouds 8 1005 93 0 4.1 200 00:42 09.03.2020
1325 Clouds 8 1005 93 0 3.1 200 00:24 09.03.2020
1326 Clouds 8 1005 87 0 4.6 210 23:55 08.03.2020
1327 Rain 8 1006 93 0 1.5 200 23:29 08.03.2020
1328 Rain 8 1005 87 0 4.6 230 22:59 08.03.2020
1329 Rain 8 1006 93 0 2.6 210 22:40 08.03.2020
1330 Rain 8 1006 93 0 3.6 200 22:22 08.03.2020
1331 Rain 8 1006 93 0 6.2 220 21:59 08.03.2020
1332 Rain 8 1006 93 0 6.2 220 21:40 08.03.2020
1333 Rain 8 1006 93 0 3.6 200 21:20 08.03.2020
1334 Rain 8 1006 93 0 6.2 230 20:56 08.03.2020
1335 Rain 8 1006 87 5000 5.7 210 20:37 08.03.2020
1336 Rain 8 1006 93 10000 3.6 200 20:19 08.03.2020
1337 Rain 8 1006 93 10000 3.6 200 20:19 08.03.2020
1338 Rain 8 1006 87 0 7.2 220 19:40 08.03.2020
1339 Rain 8 1006 93 8000 4.6 210 19:19 08.03.2020
1340 Rain 8 1006 93 8000 4.6 210 18:55 08.03.2020
1341 Rain 8 1006 93 0 7.7 230 18:37 08.03.2020
1342 Rain 8 1005 87 8000 5.1 210 18:18 08.03.2020
1343 Rain 8 1006 93 4700 6.2 200 17:39 08.03.2020
1344 Rain 8 1004 87 8000 8.7 210 17:21 08.03.2020
1345 Rain 8 1004 87 8000 8.7 210 16:58 08.03.2020
1346 Rain 8 1005 87 0 7.2 220 16:40 08.03.2020
1347 Drizzle 8 1005 93 2500 5.7 200 16:21 08.03.2020
1348 Rain 8 1005 87 0 7.7 210 15:41 08.03.2020
1349 Rain 8 1005 87 0 7.7 210 15:41 08.03.2020
1350 Rain 8 1005 87 0 7.7 210 15:22 08.03.2020
1351 Drizzle 8 1005 93 5000 6.7 200 14:59 08.03.2020
1352 Rain 8 1005 87 0 8.2 210 14:38 08.03.2020
1353 Rain 9 1005 81 6000 6.7 210 14:19 08.03.2020
1354 Clouds 10 1005 70 0 9.8 210 13:42 08.03.2020
1355 Clouds 10 1005 70 0 9.8 210 13:42 08.03.2020
1356 Clouds 10 1007 62 10000 9.3 210 13:21 08.03.2020
1357 Clouds 10 1006 66 0 9.8 220 12:57 08.03.2020
1358 Clouds 10 1006 66 0 9.8 220 12:37 08.03.2020
1359 Clouds 10 1007 76 0 7.2 210 12:18 08.03.2020
1360 Clouds 10 1007 70 0 8.2 220 11:41 08.03.2020
1361 Clouds 9 1007 70 0 8.2 210 11:23 08.03.2020
1362 Clouds 9 1007 70 0 8.2 210 10:57 08.03.2020
1363 Clouds 9 1007 70 0 8.2 210 10:57 08.03.2020
1364 Clouds 9 1007 70 0 8.2 210 10:39 08.03.2020
1365 -273 0 0 0 0 0 10:21 08.03.2020
1366 Clouds 8 1007 75 0 8.2 200 09:39 08.03.2020
1367 Clouds 8 1009 70 10000 5.7 190 09:21 08.03.2020
1368 Clouds 7 1008 75 0 7.2 190 08:48 08.03.2020
1369 Clouds 7 1008 81 0 4.6 180 08:22 08.03.2020
1370 Clouds 7 1008 75 0 7.2 200 07:49 08.03.2020
1371 Clouds 7 1008 75 0 7.2 200 07:28 08.03.2020
1372 Clouds 6 1009 75 0 7.7 190 06:46 08.03.2020
1373 Clouds 6 1009 81 0 4.1 180 06:27 08.03.2020
1374 Clouds 6 1009 81 0 6.7 190 05:49 08.03.2020
1375 Clouds 6 1009 75 0 6.2 190 04:24 08.03.2020
1376 Clouds 6 1011 75 0 3.6 180 03:19 08.03.2020
1377 Clouds 6 1012 70 0 5.7 190 01:55 08.03.2020
1378 Clouds 5 1013 75 0 3.6 180 01:20 08.03.2020
1379 Clouds 5 1013 75 0 5.7 200 00:41 08.03.2020
1380 Clouds 5 1013 82 0 6.7 190 00:22 08.03.2020
1381 Clouds 5 1013 82 0 6.7 190 23:43 07.03.2020
1382 Clouds 4 1014 75 0 3.6 170 23:21 07.03.2020
1383 Clouds 4 1014 80 8000 5.1 180 22:38 07.03.2020
1384 Clouds 4 1014 80 0 3.6 170 22:20 07.03.2020
1385 Clouds 4 1014 80 0 6.7 190 21:47 07.03.2020
1386 Clouds 4 1015 75 0 3.1 170 21:24 07.03.2020
1387 Clouds 3 1015 80 7000 3.1 170 20:42 07.03.2020
1388 Clouds 4 1015 75 0 2.6 180 20:23 07.03.2020
1389 Clouds 4 1015 75 0 2.6 180 20:23 07.03.2020
1390 Clouds 4 1015 84 0 4.1 200 19:58 07.03.2020
1391 Clouds 4 1015 84 0 4.1 200 19:40 07.03.2020
1392 Clouds 4 1015 75 0 2.6 220 19:20 07.03.2020
1393 Clouds 4 1015 65 0 3.6 240 18:41 07.03.2020
1394 Clouds 5 1014 70 0 3.6 250 18:22 07.03.2020
1395 Clouds 6 1014 70 0 7.2 270 17:56 07.03.2020
1396 Clouds 6 1015 84 10000 4.6 270 17:38 07.03.2020
1397 Clouds 6 1014 70 0 3.6 260 17:18 07.03.2020
1398 Clouds 7 1014 70 0 6.2 290 16:42 07.03.2020
1399 Clouds 7 1014 70 0 3.1 270 16:23 07.03.2020
1400 Clouds 7 1014 70 0 3.6 280 15:58 07.03.2020
1401 Clouds 7 1014 65 0 4.1 250 15:39 07.03.2020
1402 Clouds 7 1013 65 0 2.6 280 15:21 07.03.2020
1403 Clouds 7 1013 70 0 6.7 280 14:57 07.03.2020
1404 Clouds 7 1013 61 0 3.6 270 14:38 07.03.2020
1405 Clouds 7 1013 70 10000 4.1 260 14:19 07.03.2020
1406 Clear 7 1013 65 0 4.6 280 13:40 07.03.2020
1407 Clouds 7 1013 75 10000 3.6 320 13:21 07.03.2020
1408 Clear 6 1013 75 0 3.6 290 12:44 07.03.2020
1409 Clear 6 1013 75 0 3.6 290 12:44 07.03.2020
1410 Clouds 6 1013 81 10000 3.1 320 12:22 07.03.2020
1411 Clear 5 1012 86 0 3.1 300 11:59 07.03.2020
1412 Clear 5 1012 86 0 3.1 300 11:40 07.03.2020
1413 Clouds 4 1012 93 8000 3.1 290 11:22 07.03.2020
1414 Clear 4 1012 93 0 4.1 270 10:44 07.03.2020
1415 Clouds 3 1011 93 6000 3.1 280 10:22 07.03.2020
1416 Clear 2 1011 77 0 3.1 280 09:59 07.03.2020
1417 Mist 2 1011 93 4500 2.6 280 09:40 07.03.2020
1418 Mist 1 1011 77 3500 2.6 260 09:19 07.03.2020
1419 Clear 1 1010 77 0 2.1 290 08:56 07.03.2020
1420 Clear 1 1011 77 200 3.1 300 08:38 07.03.2020
1421 Clouds 0 1010 92 6000 2.6 240 08:19 07.03.2020
1422 Clouds 0 1010 92 0 3.1 290 07:44 07.03.2020
1423 Clouds 0 1009 93 5000 2.6 290 07:21 07.03.2020
1424 Clouds -1 1008 92 2900 3.1 320 06:39 07.03.2020
1425 Clouds 0 1008 92 2900 3.1 320 05:59 07.03.2020
1426 Clouds 0 1008 92 2900 3.1 320 05:38 07.03.2020
1427 Clouds 1 1006 100 0 4.6 320 03:36 07.03.2020
1428 Clouds 1 1006 100 0 3.1 310 02:43 07.03.2020
1429 Clouds 2 1005 93 0 2.1 290 01:51 07.03.2020
1430 Clouds 2 1005 93 0 3.6 360 00:43 07.03.2020
1431 Clouds 3 1004 100 0 4.1 340 00:23 07.03.2020
1432 Clouds 3 1004 100 0 4.1 340 00:23 07.03.2020
1433 Clouds 3 1004 100 0 4.1 340 00:23 07.03.2020
1434 Clouds 3 1004 100 0 4.1 340 00:23 07.03.2020
1435 Clouds 3 1004 93 0 5.1 20 23:58 06.03.2020
1436 Clouds 3 1004 93 3700 4.1 350 23:39 06.03.2020
1437 Clouds 3 1004 93 0 5.1 350 23:21 06.03.2020
1438 Clouds 4 1004 86 0 7.2 20 22:44 06.03.2020
1439 Clouds 4 1003 86 10000 4.6 10 22:19 06.03.2020
1440 Clouds 4 1003 86 0 7.2 30 21:47 06.03.2020
1441 Clouds 4 1003 86 10000 5.7 10 21:20 06.03.2020
1442 Clouds 4 1002 80 0 9.3 30 20:44 06.03.2020
1443 Clouds 4 1002 86 10000 6.7 10 20:23 06.03.2020
1444 Rain 4 1001 86 0 9.8 30 19:58 06.03.2020
1445 Rain 5 1001 86 2500 7.7 30 19:40 06.03.2020
1446 Clouds 5 1001 86 8000 6.2 10 19:21 06.03.2020
1447 Rain 5 1000 86 0 9.3 30 18:42 06.03.2020
1448 Rain 5 999 80 9000 6.2 30 18:20 06.03.2020
1449 Rain 5 999 86 0 9.8 30 17:56 06.03.2020
1450 Rain 5 999 86 0 9.8 30 17:38 06.03.2020
1451 Clouds 5 1001 80 8000 5.7 30 17:20 06.03.2020
1452 Clouds 5 998 86 3600 9.8 40 16:54 06.03.2020
1453 Clouds 5 1000 80 8000 5.1 30 16:36 06.03.2020
1454 Clouds 5 1000 80 8000 5.1 30 16:18 06.03.2020
1455 Clouds 5 997 86 4000 8.7 40 15:41 06.03.2020
1456 Clouds 5 999 80 8000 6.2 40 15:22 06.03.2020
1457 Clouds 5 997 75 0 9.8 40 14:40 06.03.2020
1458 Clouds 5 997 75 10000 7.2 30 14:22 06.03.2020
1459 Clouds 5 997 75 0 4.6 50 13:55 06.03.2020
1460 Clouds 5 996 86 3100 9.3 50 13:36 06.03.2020
1461 Clouds 5 997 81 10000 6.7 40 13:18 06.03.2020
1462 Clouds 5 997 75 0 4.6 60 12:40 06.03.2020
1463 Rain 5 995 86 8000 10.3 50 12:21 06.03.2020
1464 Clouds 5 996 80 0 4.1 60 11:59 06.03.2020
1465 Clouds 5 996 80 0 4.1 60 11:41 06.03.2020
1466 Clouds 5 997 80 10000 7.2 40 11:20 06.03.2020
1467 Clouds 5 996 86 0 5.1 60 10:56 06.03.2020
1468 Rain 5 995 86 7000 9.3 50 10:36 06.03.2020
1469 Clouds 5 996 86 7000 7.2 40 10:18 06.03.2020
1470 Rain 4 994 86 6000 8.7 60 09:41 06.03.2020
1471 Clouds 4 996 93 6000 6.7 50 09:23 06.03.2020
1472 Clouds 4 995 86 0 5.1 70 08:56 06.03.2020
1473 Clouds 4 994 86 7000 9.3 50 08:37 06.03.2020
1474 Clouds 4 996 86 6000 7.7 50 08:18 06.03.2020
1475 Clouds 4 995 86 0 4.6 70 07:41 06.03.2020
1476 Mist 4 995 86 4500 7.7 50 07:22 06.03.2020
1477 Clouds 4 994 86 0 5.1 70 06:42 06.03.2020
1478 Clouds 4 995 93 0 7.2 50 06:18 06.03.2020
1479 Clouds 4 993 93 6000 8.2 60 05:38 06.03.2020
1480 Clouds 4 995 93 0 7.7 60 05:19 06.03.2020
1481 Clouds 4 993 93 5000 7.7 60 04:35 06.03.2020
1482 Clouds 4 996 86 0 5.7 90 01:44 06.03.2020
1483 Clouds 4 996 93 0 8.2 70 01:25 06.03.2020
1484 Clouds 4 996 93 0 5.7 90 00:57 06.03.2020
1485 Clouds 4 996 93 0 7.7 70 00:31 06.03.2020
1486 Clouds 4 996 86 0 5.1 90 23:44 05.03.2020
1487 Clouds 4 997 93 0 8.7 80 23:25 05.03.2020
1488 Clouds 4 997 86 0 4.6 110 22:56 05.03.2020
1489 Clouds 4 995 86 5000 7.2 70 22:37 05.03.2020
1490 Clouds 4 998 93 8000 7.7 80 22:18 05.03.2020
1491 Clouds 4 997 93 0 4.1 100 21:56 05.03.2020
1492 Clouds 4 996 86 5000 7.7 70 21:37 05.03.2020
1493 Clouds 4 998 93 10000 5.7 80 21:19 05.03.2020
1494 Clouds 4 998 93 0 3.6 100 20:54 05.03.2020
1495 Clouds 4 997 93 5000 7.2 70 20:36 05.03.2020
1496 Clouds 4 999 93 10000 5.1 80 20:18 05.03.2020
1497 Clouds 4 999 93 10000 5.7 70 19:40 05.03.2020
1498 Clouds 4 999 93 10000 5.1 80 19:22 05.03.2020
1499 Clear 4 998 86 0 4.1 110 19:00 05.03.2020
1500 Mist 4 998 93 5000 6.2 70 18:38 05.03.2020
1501 Clouds 4 999 93 10000 5.1 90 18:19 05.03.2020
1502 Clear 4 998 86 0 4.6 120 17:59 05.03.2020
1503 Clouds 4 997 93 6000 6.2 60 17:40 05.03.2020
1504 Clouds 5 999 93 10000 5.1 100 17:21 05.03.2020
1505 Clear 5 999 86 0 4.6 110 16:43 05.03.2020
1506 Clouds 5 1000 93 8000 4.1 110 16:25 05.03.2020
1507 Clear 6 999 86 0 3.6 100 15:59 05.03.2020
1508 Clouds 6 999 86 10000 5.7 70 15:40 05.03.2020
1509 Clouds 6 1000 93 8000 3.6 90 15:21 05.03.2020
1510 Clear 6 1000 80 0 3.6 90 14:56 05.03.2020
1511 Clouds 6 1000 87 10000 5.1 60 14:37 05.03.2020
1512 Mist 6 1001 93 2000 4.1 120 14:18 05.03.2020
1513 Clouds 6 1001 93 0 3.6 110 13:43 05.03.2020
1514 Mist 5 1002 93 4000 1.5 110 13:21 05.03.2020
1515 Mist 5 1002 93 4000 1.5 110 13:21 05.03.2020
1516 Clouds 5 1002 80 0 1.5 110 12:58 05.03.2020
1517 Clouds 4 1002 86 10000 0.5 150 12:38 05.03.2020
1518 Mist 4 1003 100 2000 3.1 120 12:19 05.03.2020
1519 Clouds 4 1002 93 0 2.6 140 11:56 05.03.2020
1520 Clouds 3 1002 100 7000 2.1 90 11:37 05.03.2020
1521 Mist 3 1002 93 2000 2.6 110 11:18 05.03.2020
1522 Clouds 3 1003 93 0 1 0 10:57 05.03.2020
1523 Fog 2 1003 93 800 3.1 180 10:38 05.03.2020
1524 Fog 2 1003 100 400 2.1 100 10:20 05.03.2020
1525 Fog 1 1003 100 100 2.1 140 09:45 05.03.2020
1526 Fog 2 1003 100 150 1.5 190 09:26 05.03.2020
1527 Clouds 1 1003 100 0 1.5 190 08:47 05.03.2020
1528 Fog 1 1003 100 150 1.5 200 08:29 05.03.2020
1529 Clouds 0 1003 100 0 2.1 200 07:49 05.03.2020
1530 Fog 1 1004 100 100 2.6 190 07:23 05.03.2020
1531 Clouds 1 1004 96 0 2.1 150 06:59 05.03.2020
1532 Clouds 1 1004 96 0 2.1 150 06:41 05.03.2020
1533 Clouds 1 1004 93 0 2.1 200 06:19 05.03.2020
1534 Fog 1 1004 100 200 2.1 140 05:32 05.03.2020
1535 Mist 2 1004 93 0 2.1 210 04:23 05.03.2020
1536 Clouds 2 1005 93 0 4.1 220 03:58 05.03.2020
1537 Clouds 3 1006 93 0 1.5 210 02:31 05.03.2020
1538 Clouds 3 1006 100 0 1.5 240 01:26 05.03.2020
1539 Clouds 4 1006 93 0 4.1 230 00:44 05.03.2020
1540 Clouds 3 1006 93 0 5.1 240 23:57 04.03.2020
1541 Clouds 3 1006 93 0 3.1 210 23:39 04.03.2020
1542 Fog 3 1006 100 200 2.6 200 23:20 04.03.2020
1543 Clear 3 1006 93 0 5.1 220 22:55 04.03.2020
1544 Clear 3 1007 93 4200 2.6 190 22:36 04.03.2020
1545 Clouds 3 1006 93 10000 2.6 220 22:18 04.03.2020
1546 Clear 3 1006 86 0 5.7 240 21:42 04.03.2020
1547 Clouds 3 1006 86 10000 2.6 210 21:22 04.03.2020
1548 Clear 3 1006 86 0 5.7 240 20:59 04.03.2020
1549 Clear 3 1007 93 8000 2.6 220 20:40 04.03.2020
1550 Clouds 4 1006 86 10000 2.6 230 20:21 04.03.2020
1551 Clouds 4 1006 80 0 5.1 260 19:56 04.03.2020
1552 Clouds 4 1007 93 10000 2.6 240 19:38 04.03.2020
1553 Clouds 5 1006 81 10000 2.6 240 19:20 04.03.2020
1554 Clouds 5 1006 86 0 5.7 260 18:42 04.03.2020
1555 Clouds 5 1006 75 10000 3.1 260 18:23 04.03.2020
1556 Clouds 6 1006 75 0 8.2 270 17:59 04.03.2020
1557 Clouds 6 1006 81 10000 4.6 260 17:39 04.03.2020
1558 Clouds 7 1006 75 10000 6.2 260 17:20 04.03.2020
1559 Rain 7 1006 81 0 4.6 270 16:56 04.03.2020
1560 Clouds 7 1006 87 10000 4.6 250 16:37 04.03.2020
1561 Clouds 7 1006 81 10000 3.1 230 16:19 04.03.2020
1562 Rain 7 1006 87 0 4.1 260 15:44 04.03.2020
1563 Clouds 7 1006 75 10000 3.1 230 15:26 04.03.2020
1564 Rain 7 1006 81 0 4.6 250 14:59 04.03.2020
1565 Rain 7 1006 81 0 4.6 250 14:40 04.03.2020
1566 Clouds 7 1006 81 10000 4.6 250 14:20 04.03.2020
1567 Rain 7 1006 70 0 8.7 290 13:58 04.03.2020
1568 Rain 7 1006 75 10000 4.1 250 13:39 04.03.2020
1569 Clouds 7 1006 70 10000 3.1 230 13:20 04.03.2020
1570 Rain 7 1006 70 0 5.7 270 12:56 04.03.2020
1571 Clouds 7 1006 75 10000 6.2 250 12:37 04.03.2020
1572 Clouds 7 1006 75 10000 6.7 250 12:19 04.03.2020
1573 Rain 6 1006 70 0 5.7 260 11:42 04.03.2020
1574 Clouds 6 1006 81 10000 2.6 230 11:23 04.03.2020
1575 Clear 6 1006 75 0 2.6 240 10:59 04.03.2020
1576 Clear 5 1006 75 0 2.6 240 10:41 04.03.2020
1577 Clouds 5 1006 86 10000 3.1 210 10:22 04.03.2020
1578 Clear 4 1006 86 0 3.6 230 09:44 04.03.2020
1579 Clouds 3 1006 93 10000 2.6 210 09:22 04.03.2020
1580 Clear 3 1006 93 0 3.6 220 08:58 04.03.2020
1581 Clouds 2 1006 93 10000 3.6 210 08:40 04.03.2020
1582 Clouds 2 1006 100 9000 3.1 210 08:21 04.03.2020
1583 Clear 1 1005 100 0 1.5 220 07:41 04.03.2020
1584 Mist 1 1006 95 3000 2.6 210 07:23 04.03.2020
1585 Clear 1 1005 95 0 2.6 240 06:49 04.03.2020
1586 Clouds 1 1005 95 10000 1.5 210 06:26 04.03.2020
1587 Clear 1 1005 93 0 2.6 250 05:55 04.03.2020
1588 Clear 1 1005 93 0 3.6 250 04:59 04.03.2020
1589 Clear 1 1005 93 0 3.1 250 03:52 04.03.2020
1590 Clear 1 1004 93 0 2.1 230 03:33 04.03.2020
1591 Clear 1 1004 100 0 4.1 250 02:58 04.03.2020
1592 Clear 1 1004 93 0 2.1 230 02:26 04.03.2020
1593 Clouds 1 1004 93 0 2.6 260 01:56 04.03.2020
1594 Clear 1 1004 93 0 2.6 230 01:31 04.03.2020
1595 Clear 1 1004 93 0 3.1 260 00:41 04.03.2020
1596 Clear 1 1004 86 0 2.1 240 00:21 04.03.2020
1597 Clear 1 1004 93 6000 1.5 230 23:42 03.03.2020
1598 Clear 1 1003 86 0 2.6 240 23:23 03.03.2020
1599 Clouds 2 1003 89 0 4.6 260 22:56 03.03.2020
1600 Clouds 2 1004 89 5000 2.1 240 22:37 03.03.2020
1601 Clouds 2 1003 86 10000 2.1 240 22:18 03.03.2020
1602 Clouds 2 1003 93 8000 2.6 240 21:43 03.03.2020
1603 Clouds 2 1003 80 10000 2.1 260 21:22 03.03.2020
1604 Clouds 2 1002 100 0 3.6 260 20:59 03.03.2020
1605 Clouds 2 1002 100 0 3.6 260 20:39 03.03.2020
1606 Clouds 3 1002 80 10000 2.6 260 20:19 03.03.2020
1607 Clouds 3 1002 93 0 3.6 280 19:56 03.03.2020
1608 Clouds 3 1002 84 10000 2.6 260 19:37 03.03.2020
1609 Clouds 3 1002 84 10000 2.6 260 19:37 03.03.2020
1610 Clouds 3 1002 84 10000 2.6 260 19:37 03.03.2020
1611 Clouds 4 1002 75 10000 1.5 250 19:19 03.03.2020
1612 Clouds 4 1001 86 0 3.6 290 18:57 03.03.2020
1613 Clouds 4 1001 86 0 3.6 290 18:39 03.03.2020
1614 Clouds 5 1001 70 10000 2.6 270 18:19 03.03.2020
1615 Clouds 6 1000 70 0 5.7 300 17:55 03.03.2020
1616 Clouds 6 1001 70 10000 3.6 300 17:37 03.03.2020
1617 Clouds 7 1000 70 10000 3.1 270 17:18 03.03.2020
1618 Clouds 7 1000 70 10000 4.1 290 16:55 03.03.2020
1619 Clouds 7 1000 72 10000 6.2 300 16:36 03.03.2020
1620 Clouds 7 999 70 10000 2.6 290 16:18 03.03.2020
1621 Clouds 7 999 70 10000 2.6 290 16:18 03.03.2020
1622 Clouds 7 999 70 0 8.2 310 15:43 03.03.2020
1623 -273 0 0 0 0 0 15:21 03.03.2020
1624 Clouds 8 998 75 0 7.2 300 14:55 03.03.2020
1625 Rain 7 999 65 10000 7.2 290 14:37 03.03.2020
1626 Clouds 7 998 81 10000 2.1 300 14:18 03.03.2020
1627 Clouds 7 998 70 10000 5.7 290 13:42 03.03.2020
1628 Clouds 7 998 75 10000 5.1 270 13:24 03.03.2020
1629 Rain 7 998 81 0 6.2 290 12:55 03.03.2020
1630 Clouds 7 998 75 10000 5.7 290 12:37 03.03.2020
1631 Clouds 7 998 75 10000 5.7 290 12:37 03.03.2020
1632 Rain 6 998 87 10000 1 250 12:18 03.03.2020
1633 Rain 6 997 93 0 5.1 290 11:55 03.03.2020
1634 Clouds 6 998 81 10000 6.2 290 11:36 03.03.2020
1635 Rain 5 997 93 10000 1.5 190 11:18 03.03.2020
1636 Rain 5 997 93 0 3.1 270 10:54 03.03.2020
1637 Rain 5 997 93 8000 3.6 270 10:36 03.03.2020
1638 Rain 5 997 93 8000 3.6 270 10:36 03.03.2020
1639 Rain 5 997 93 8000 4.1 280 10:18 03.03.2020
1640 Rain 5 996 93 6000 2.6 270 09:41 03.03.2020
1641 Rain 5 996 93 4000 2.1 220 09:21 03.03.2020
1642 Rain 5 996 93 0 2.1 210 08:42 03.03.2020
1643 Rain 5 996 93 4000 1 190 08:22 03.03.2020
1644 Rain 5 995 93 0 3.1 200 07:56 03.03.2020
1645 Rain 5 995 93 0 3.1 200 07:56 03.03.2020
1646 Rain 5 995 100 4500 3.1 190 07:38 03.03.2020
1647 Rain 5 995 93 8000 3.6 150 07:19 03.03.2020
1648 Rain 5 995 93 0 3.6 180 06:40 03.03.2020
1649 Rain 5 994 93 0 5.1 140 06:21 03.03.2020
1650 Rain 5 994 93 0 3.1 170 05:43 03.03.2020
1651 Clouds 5 993 93 0 4.1 170 04:56 03.03.2020
1652 Rain 5 993 93 7000 3.1 120 03:21 03.03.2020
1653 Clouds 5 993 86 8000 2.1 120 01:35 03.03.2020
1654 Clouds 6 993 81 0 4.1 140 00:46 03.03.2020
1655 Clouds 6 993 87 0 3.6 130 00:24 03.03.2020
1656 Clouds 6 993 81 0 4.6 130 23:51 02.03.2020
1657 Clouds 6 993 87 0 3.1 130 23:23 02.03.2020
1658 Rain 6 993 81 0 4.1 130 22:58 02.03.2020
1659 Rain 6 993 75 10000 3.1 120 22:39 02.03.2020
1660 Clouds 6 993 87 10000 4.1 140 22:20 02.03.2020
1661 Rain 6 993 81 0 3.1 130 21:58 02.03.2020
1662 Rain 6 993 87 10000 4.1 140 21:39 02.03.2020
1663 Rain 6 993 87 10000 4.1 130 21:21 02.03.2020
1664 Rain 6 993 81 0 3.6 130 20:58 02.03.2020
1665 Rain 6 992 70 10000 2.6 130 20:38 02.03.2020
1666 Rain 6 993 93 10000 3.1 120 20:20 02.03.2020
1667 Rain 6 992 81 0 3.1 130 19:55 02.03.2020
1668 Rain 6 992 81 0 3.1 130 19:55 02.03.2020
1669 Rain 6 992 75 10000 2.6 120 19:37 02.03.2020
1670 Rain 7 992 93 10000 3.6 110 19:18 02.03.2020
1671 Rain 7 991 75 0 3.1 110 18:44 02.03.2020
1672 Clouds 7 991 75 10000 3.1 90 18:20 02.03.2020
1673 Rain 7 991 75 0 2.6 130 17:59 02.03.2020
1674 Rain 7 991 75 0 2.6 130 17:40 02.03.2020
1675 Clouds 8 991 81 10000 3.1 120 17:21 02.03.2020
1676 Rain 8 991 70 0 1.5 170 16:55 02.03.2020
1677 Clouds 8 990 70 10000 3.1 150 16:37 02.03.2020
1678 Clouds 8 991 75 10000 2.6 170 16:19 02.03.2020
1679 Rain 8 991 70 0 4.1 170 15:44 02.03.2020
1680 Clouds 8 991 75 10000 3.6 160 15:20 02.03.2020
1681 Rain 8 990 70 0 3.1 190 14:56 02.03.2020
1682 Clouds 8 990 66 10000 2.6 170 14:36 02.03.2020
1683 Clouds 8 991 81 10000 3.6 190 14:18 02.03.2020
1684 Clouds 8 991 75 0 4.1 190 13:40 02.03.2020
1685 Clouds 7 991 81 10000 3.6 190 13:19 02.03.2020
1686 Clouds 7 991 81 0 5.1 230 12:55 02.03.2020
1687 Clouds 7 991 81 10000 3.6 200 12:36 02.03.2020
1688 Clouds 6 991 81 10000 4.1 210 12:18 02.03.2020
1689 Clouds 6 991 81 10000 4.1 200 11:38 02.03.2020
1690 Clouds 6 991 75 10000 3.6 210 11:19 02.03.2020
1691 Clear 6 991 81 0 4.6 220 10:55 02.03.2020
1692 Clouds 6 991 86 10000 5.7 210 10:36 02.03.2020
1693 Clear 5 991 81 10000 3.6 200 10:18 02.03.2020
1694 Clear 5 990 86 0 4.6 200 09:45 02.03.2020
1695 Clouds 4 990 86 10000 4.1 200 09:26 02.03.2020
1696 Clear 3 990 86 0 5.7 190 08:48 02.03.2020
1697 Clouds 3 990 93 10000 3.1 180 08:22 02.03.2020
1698 Clouds 2 990 93 0 6.2 190 07:50 02.03.2020
1699 Clouds 2 990 86 10000 2.1 180 07:31 02.03.2020
1700 Clouds 2 990 86 0 5.7 190 06:50 02.03.2020
1701 Clouds 2 989 86 0 2.1 180 06:25 02.03.2020
1702 Clouds 2 989 86 0 2.1 180 05:24 02.03.2020
1703 Clouds 2 989 86 0 2.6 180 03:27 02.03.2020
1704 Clouds 3 989 86 0 6.7 190 02:55 02.03.2020
1705 Clouds 2 989 93 10000 4.1 190 02:30 02.03.2020
1706 Clear 3 990 86 9000 2.6 150 01:36 02.03.2020
1707 Clouds 3 990 80 0 2.6 180 01:18 02.03.2020
1708 Clouds 4 990 86 0 3.1 190 00:22 02.03.2020
1709 Clouds 4 990 80 10000 3.1 180 23:42 01.03.2020
1710 Clouds 4 990 80 0 3.6 190 23:23 01.03.2020
1711 Clear 4 990 80 0 6.7 200 22:45 01.03.2020
1712 Clear 4 989 80 0 2.1 180 22:21 01.03.2020
1713 Clear 4 989 80 0 2.1 180 22:21 01.03.2020
1714 Clear 4 989 75 0 5.1 210 21:59 01.03.2020
1715 Clear 4 989 75 0 5.1 210 21:59 01.03.2020
1716 Clear 4 989 75 0 5.1 210 21:40 01.03.2020
1717 Clear 4 989 75 0 4.1 210 21:22 01.03.2020
1718 Clear 5 989 75 0 7.2 230 20:56 01.03.2020
1719 Clear 5 990 80 9000 4.1 190 20:37 01.03.2020
1720 Clouds 5 989 75 10000 4.6 210 20:19 01.03.2020
1721 Clouds 5 989 75 0 7.7 240 19:42 01.03.2020
1722 Clouds 6 989 75 10000 6.2 230 19:22 01.03.2020
1723 Clouds 6 989 80 0 13.4 250 18:58 01.03.2020
1724 Clouds 6 989 80 0 13.4 250 18:39 01.03.2020
1725 Clouds 6 988 65 10000 6.7 220 18:19 01.03.2020
1726 Clouds 7 988 65 0 10.3 240 17:57 01.03.2020
1727 Clouds 7 988 70 10000 6.2 230 17:38 01.03.2020
1728 Clouds 7 987 75 7000 11.3 230 17:19 01.03.2020
1729 Rain 8 988 61 0 10.3 240 16:55 01.03.2020
1730 Rain 8 989 65 10000 9.8 230 16:36 01.03.2020
1731 Rain 8 989 65 10000 9.8 230 16:36 01.03.2020
1732 Clouds 8 987 61 10000 9.8 230 16:18 01.03.2020
1733 Rain 7 988 65 0 14.4 250 15:56 01.03.2020
1734 Rain 7 989 75 9000 9.3 230 15:37 01.03.2020
1735 Rain 7 989 75 9000 9.3 230 15:37 01.03.2020
1736 Clouds 7 987 65 10000 7.2 230 15:18 01.03.2020
1737 Rain 7 987 65 0 11.3 240 14:55 01.03.2020
1738 Rain 7 988 70 9000 10.8 230 14:37 01.03.2020
1739 Rain 8 987 65 0 7.2 220 14:18 01.03.2020
1740 Rain 7 987 70 0 11.3 240 13:44 01.03.2020
1741 Rain 7 987 75 0 6.7 210 13:22 01.03.2020
1742 Rain 7 987 75 0 10.3 230 12:59 01.03.2020
1743 Rain 7 987 75 0 10.3 230 12:41 01.03.2020
1744 Drizzle 7 986 75 0 9.3 210 12:21 01.03.2020
1745 Rain 7 987 70 0 10.8 230 11:42 01.03.2020
1746 Rain 6 986 75 0 8.2 210 11:24 01.03.2020
1747 Rain 6 986 70 0 10.3 230 10:57 01.03.2020
1748 Rain 6 987 70 10000 11.3 220 10:38 01.03.2020
1749 Rain 6 986 75 0 9.3 210 10:20 01.03.2020
1750 Rain 6 986 70 0 10.8 230 09:57 01.03.2020
1751 Rain 6 986 75 0 9.3 210 09:39 01.03.2020
1752 Rain 6 985 75 0 8.2 210 09:21 01.03.2020
1753 Rain 5 986 70 0 12.9 230 08:41 01.03.2020
1754 Rain 5 984 86 10000 12.9 210 08:21 01.03.2020
1755 Rain 5 985 70 0 12.9 230 07:43 01.03.2020
1756 Drizzle 5 984 86 8000 9.8 210 07:24 01.03.2020
1757 Rain 5 985 80 0 11.8 230 06:57 01.03.2020
1758 Rain 5 987 75 10000 10.8 220 06:37 01.03.2020
1759 Rain 5 985 75 0 7.2 200 04:27 01.03.2020
1760 Rain 5 986 75 0 9.3 220 02:55 01.03.2020
1761 Rain 5 986 75 0 8.7 220 01:54 01.03.2020
1762 Rain 5 986 80 0 7.2 210 01:31 01.03.2020
1763 Rain 5 986 80 0 9.3 220 00:45 01.03.2020
1764 Rain 5 986 80 0 5.7 210 00:22 01.03.2020
1765 Rain 5 986 75 0 6.7 220 23:54 29.02.2020
1766 Rain 5 987 80 8000 7.2 220 23:33 29.02.2020
1767 Rain 5 986 80 0 8.2 240 22:45 29.02.2020
1768 Rain 5 985 81 0 6.2 240 22:26 29.02.2020
1769 Rain 5 985 81 0 11.8 260 21:47 29.02.2020
1770 Rain 6 984 87 0 7.7 250 21:26 29.02.2020
1771 Rain 6 984 87 0 14.9 260 20:58 29.02.2020
1772 Rain 6 984 87 0 14.9 260 20:40 29.02.2020
1773 Rain 6 982 81 0 9.8 240 20:19 29.02.2020
1774 Rain 7 982 87 0 12.3 240 19:41 29.02.2020
1775 Rain 9 980 87 7000 8.7 180 19:22 29.02.2020
1776 Rain 10 980 81 0 6.7 160 18:59 29.02.2020
1777 Rain 10 981 76 0 7.2 150 18:39 29.02.2020
1778 Rain 10 981 81 0 5.1 140 18:19 29.02.2020
1779 Rain 10 981 76 0 6.7 170 17:55 29.02.2020
1780 Rain 11 982 71 9000 6.7 160 17:37 29.02.2020
1781 Clouds 11 982 81 10000 5.7 140 17:18 29.02.2020
1782 Clouds 11 983 76 0 6.7 170 16:43 29.02.2020
1783 Clouds 11 984 81 0 4.6 150 16:19 29.02.2020
1784 Clouds 11 984 76 0 6.7 170 15:56 29.02.2020
1785 Clouds 11 984 71 9000 6.2 160 15:36 29.02.2020
1786 Clouds 11 985 87 0 4.6 150 15:18 29.02.2020
1787 Clouds 11 985 76 10000 6.2 160 14:39 29.02.2020
1788 Clouds 10 986 87 10000 4.1 180 14:21 29.02.2020
1789 Rain 10 986 81 0 6.2 210 13:45 29.02.2020
1790 Clouds 10 987 93 10000 3.1 180 13:26 29.02.2020
1791 Rain 9 988 93 0 5.7 210 12:57 29.02.2020
1792 Clouds 9 988 93 8000 5.7 190 12:38 29.02.2020
1793 Rain 8 988 93 4000 4.1 180 12:20 29.02.2020
1794 Rain 8 988 93 0 7.7 210 11:45 29.02.2020
1795 Rain 8 988 93 3000 3.6 180 11:26 29.02.2020
1796 -273 0 0 0 0 0 10:51 29.02.2020
1797 Rain 7 989 100 8000 3.6 160 10:31 29.02.2020
1798 Rain 7 989 100 8000 3.6 160 10:31 29.02.2020
1799 Rain 6 989 93 0 9.3 190 09:56 29.02.2020
1800 Rain 5 990 100 5000 5.7 190 09:38 29.02.2020
1801 Rain 5 990 100 5000 4.1 160 09:18 29.02.2020
1802 Rain 4 990 93 7000 4.1 150 08:40 29.02.2020
1803 Rain 4 991 100 10000 4.6 150 08:21 29.02.2020
1804 Rain 3 991 93 0 5.7 170 07:52 29.02.2020
1805 Drizzle 3 992 93 4000 5.1 150 07:25 29.02.2020
1806 Rain 3 992 93 0 5.7 170 06:55 29.02.2020
1807 Drizzle 2 993 93 0 5.7 150 06:29 29.02.2020
1808 Rain 2 993 93 0 6.2 170 05:52 29.02.2020
1809 Rain 2 993 93 3900 6.7 160 05:32 29.02.2020
1810 Rain 2 995 93 7000 5.1 150 04:18 29.02.2020
1811 Rain 2 996 93 3500 7.2 160 03:37 29.02.2020
1812 Rain 2 997 93 0 8.2 170 03:18 29.02.2020
1813 Rain 2 998 93 2300 7.7 160 02:32 29.02.2020
1814 Snow 2 1000 86 0 7.7 180 00:54 29.02.2020
1815 Snow 2 1001 93 4700 6.7 150 00:36 29.02.2020
1816 Snow 3 1003 80 0 8.7 200 23:42 28.02.2020
1817 Clouds 4 1003 75 10000 4.1 170 23:24 28.02.2020
1818 Clouds 4 1004 81 0 6.2 190 22:54 28.02.2020
1819 Clouds 4 1004 81 10000 5.7 180 22:36 28.02.2020
1820 Clouds 4 1004 80 10000 4.6 170 22:18 28.02.2020
1821 Clouds 4 1005 81 0 5.7 190 21:41 28.02.2020
1822 Clouds 4 1005 80 10000 3.1 170 21:20 28.02.2020
1823 Clouds 4 1006 80 0 4.6 190 20:40 28.02.2020
1824 Clouds 4 1006 80 10000 2.6 180 20:22 28.02.2020
1825 Clouds 4 1007 75 0 3.6 200 19:57 28.02.2020
1826 Clouds 4 1007 80 10000 2.6 200 19:39 28.02.2020
1827 Clouds 4 1007 80 10000 3.6 200 19:21 28.02.2020
1828 Clouds 4 1007 80 0 4.6 230 18:57 28.02.2020
1829 Clouds 5 1008 80 10000 2.6 190 18:38 28.02.2020
1830 Clouds 5 1008 80 10000 3.1 220 18:20 28.02.2020
1831 Clouds 5 1008 70 0 5.7 250 17:40 28.02.2020
1832 Clouds 6 1008 70 10000 4.1 240 17:22 28.02.2020
1833 Clouds 6 1009 70 0 8.2 260 16:46 28.02.2020
1834 Clouds 6 1009 70 10000 5.7 260 16:20 28.02.2020
1835 Clouds 7 1009 70 0 10.3 280 15:59 28.02.2020
1836 Clouds 7 1009 70 10000 5.1 250 15:40 28.02.2020
1837 Clouds 7 1009 65 10000 6.7 250 15:20 28.02.2020
1838 Clouds 7 1009 65 0 11.8 270 14:57 28.02.2020
1839 Clouds 7 1010 76 10000 9.8 280 14:39 28.02.2020
1840 Clouds 7 1009 61 10000 6.2 270 14:18 28.02.2020
1841 Clouds 7 1009 70 0 12.9 280 13:54 28.02.2020
1842 Clouds 7 1010 72 10000 11.3 260 13:36 28.02.2020
1843 Rain 7 1009 65 10000 7.2 270 13:18 28.02.2020
1844 Clear 7 1009 70 0 11.3 300 12:41 28.02.2020
1845 Clouds 7 1008 75 10000 10.3 270 12:22 28.02.2020
1846 Clear 7 1009 75 0 13.9 280 11:42 28.02.2020
1847 Clouds 7 1008 70 10000 7.2 280 11:24 28.02.2020
1848 Clear 6 1008 75 0 10.8 290 10:58 28.02.2020
1849 Clouds 6 1009 75 10000 10.3 270 10:39 28.02.2020
1850 Clouds 6 1009 75 10000 10.3 270 10:39 28.02.2020
1851 Clouds 6 1007 75 10000 5.7 270 10:20 28.02.2020
1852 Clear 5 1007 80 0 11.8 280 09:46 28.02.2020
1853 Rain 4 1006 86 10000 5.1 250 09:21 28.02.2020
1854 Clear 4 1006 80 0 9.8 270 08:57 28.02.2020
1855 Clouds 3 1008 75 10000 5.7 260 08:37 28.02.2020
1856 Clouds 3 1006 86 10000 5.1 290 08:18 28.02.2020
1857 Clouds 2 1006 93 0 9.8 290 07:40 28.02.2020
1858 Clouds 2 1005 86 10000 4.6 270 07:20 28.02.2020
1859 Clouds 2 1005 93 0 8.7 280 06:45 28.02.2020
1860 Clouds 2 1004 93 0 4.1 250 06:19 28.02.2020
1861 Clouds 2 1005 94 5000 5.1 270 04:35 28.02.2020
1862 Clouds 1 1003 93 0 6.7 270 03:51 28.02.2020
1863 Clouds 1 1002 100 0 4.6 260 02:46 28.02.2020
1864 Clouds 1 1002 94 10000 3.1 260 02:25 28.02.2020
1865 Clouds 2 1001 93 0 4.1 220 00:59 28.02.2020
1866 Rain 2 1000 96 6000 4.1 200 00:28 28.02.2020
1867 Clouds 2 1000 93 0 4.1 250 23:42 27.02.2020
1868 Clouds 2 1000 86 0 4.1 250 23:20 27.02.2020
1869 Clouds 2 1000 93 0 3.6 260 22:46 27.02.2020
1870 Clouds 2 999 93 10000 2.1 210 22:26 27.02.2020
1871 Clouds 2 999 93 0 3.1 240 21:59 27.02.2020
1872 Clouds 2 999 93 10000 2.1 220 21:39 27.02.2020
1873 Clouds 2 998 93 10000 2.1 220 21:19 27.02.2020
1874 Clouds 2 998 93 0 2.6 260 20:56 27.02.2020
1875 Clouds 2 999 86 7000 2.1 210 20:38 27.02.2020
1876 Clouds 2 998 93 10000 0.5 160 20:20 27.02.2020
1877 Clouds 2 998 86 0 4.1 240 19:55 27.02.2020
1878 Clouds 2 998 90 8000 2.6 230 19:37 27.02.2020
1879 Clouds 3 997 90 10000 0.5 210 19:18 27.02.2020
1880 Clouds 3 997 90 0 4.1 240 18:40 27.02.2020
1881 Clouds 3 997 86 10000 1 80 18:22 27.02.2020
1882 Clouds 3 996 90 0 5.7 260 17:58 27.02.2020
1883 Clouds 4 997 86 10000 2.36 243 17:40 27.02.2020
1884 Clouds 4 996 80 10000 3.6 240 17:19 27.02.2020
1885 Rain 5 996 75 0 5.7 270 16:57 27.02.2020
1886 Clouds 5 996 75 10000 4.1 240 16:38 27.02.2020
1887 Clouds 5 996 86 10000 4.6 320 16:18 27.02.2020
1888 Rain 5 996 75 0 4.1 240 15:56 27.02.2020
1889 Clouds 5 996 75 10000 4.6 230 15:37 27.02.2020
1890 Clouds 5 996 80 10000 3.6 130 15:18 27.02.2020
1891 Rain 5 996 70 0 6.2 240 14:55 27.02.2020
1892 Clouds 5 997 75 10000 5.7 230 14:36 27.02.2020
1893 Clouds 5 996 75 10000 2.6 220 14:18 27.02.2020
1894 Snow 5 997 61 0 5.1 250 13:41 27.02.2020
1895 Clouds 5 997 75 10000 3.6 230 13:21 27.02.2020
1896 Snow 5 997 75 0 4.1 240 12:47 27.02.2020
1897 Clouds 4 998 86 10000 6.2 230 12:25 27.02.2020
1898 Snow 4 998 86 0 3.1 220 11:59 27.02.2020
1899 Snow 4 998 86 0 3.1 220 11:41 27.02.2020
1900 Clouds 3 998 93 10000 2.6 230 11:21 27.02.2020
1901 Clouds 2 998 70 0 2.1 220 10:43 27.02.2020
1902 Clouds 2 998 93 10000 2.6 230 10:23 27.02.2020
1903 Clouds 2 998 93 0 4.1 210 09:48 27.02.2020
1904 Clouds 2 998 70 10000 2.6 200 09:29 27.02.2020
1905 Clouds 1 998 70 0 3.6 230 08:57 27.02.2020
1906 Clouds 1 998 70 10000 3.1 220 08:39 27.02.2020
1907 Snow 1 999 72 4500 2.1 260 08:21 27.02.2020
1908 Clouds 1 997 95 7000 2.6 200 07:44 27.02.2020
1909 Clouds 1 998 95 10000 2.6 210 07:25 27.02.2020
1910 Clouds 1 998 95 0 4.6 220 06:46 27.02.2020
1911 Clouds 1 999 95 10000 3.1 200 05:35 27.02.2020
1912 Clear 0 999 86 0 4.1 210 03:40 27.02.2020
1913 Clear -1 999 86 0 3.1 220 02:21 27.02.2020
1914 Clouds -1 999 87 0 2.6 250 00:45 27.02.2020
1915 Clouds -1 999 87 0 1.5 250 00:26 27.02.2020
1916 Clouds 0 999 87 0 2.6 260 23:40 26.02.2020
1917 Clouds 0 999 87 0 2.6 260 23:40 26.02.2020
1918 Clouds 0 999 74 0 2.1 250 23:19 26.02.2020
1919 Clouds 0 999 86 0 2.1 330 22:57 26.02.2020
1920 Clouds 0 999 86 10000 1 250 22:39 26.02.2020
1921 Clouds 0 999 86 10000 1.5 250 22:19 26.02.2020
1922 Clouds 1 999 74 0 3.6 10 21:56 26.02.2020
1923 Clouds 1 999 86 10000 2.1 270 21:36 26.02.2020
1924 Clouds 1 998 74 10000 3.1 320 21:18 26.02.2020
1925 Clouds 1 998 86 0 4.1 350 20:54 26.02.2020
1926 Clouds 2 998 86 10000 1.5 290 20:36 26.02.2020
1927 Clouds 2 998 74 10000 1 330 20:18 26.02.2020
1928 Snow 2 998 93 0 3.6 330 19:45 26.02.2020
1929 Clouds 2 997 74 10000 3.1 350 19:20 26.02.2020
1930 Snow 2 997 93 0 3.6 330 18:58 26.02.2020
1931 Snow 2 997 93 0 3.6 330 18:58 26.02.2020
1932 Snow 2 997 93 0 3.6 330 18:58 26.02.2020
1933 Snow 3 997 93 0 3.6 330 18:40 26.02.2020
1934 Clouds 3 996 74 10000 4.6 360 18:22 26.02.2020
1935 Clouds 3 996 74 10000 4.6 360 18:22 26.02.2020
1936 Snow 3 996 93 0 3.1 340 17:42 26.02.2020
1937 Snow 3 996 93 0 3.1 340 17:42 26.02.2020
1938 Clouds 3 995 86 10000 2.1 340 17:24 26.02.2020
1939 Snow 4 995 94 0 5.1 30 16:59 26.02.2020
1940 Snow 4 995 94 0 5.1 30 16:41 26.02.2020
1941 Clouds 4 995 94 10000 2.6 350 16:22 26.02.2020
1942 Snow 4 994 94 0 6.2 30 15:54 26.02.2020
1943 Clouds 4 994 94 10000 6.2 350 15:36 26.02.2020
1944 Clouds 4 993 86 10000 6.7 350 15:18 26.02.2020
1945 Snow 5 993 94 0 6.2 360 14:42 26.02.2020
1946 Clouds 5 992 86 10000 6.2 340 14:22 26.02.2020
1947 Snow 5 992 94 0 7.2 340 13:43 26.02.2020
1948 Clouds 5 991 86 10000 6.7 320 13:22 26.02.2020
1949 Snow 5 991 75 0 8.2 330 12:42 26.02.2020
1950 Clouds 5 991 80 10000 7.7 310 12:23 26.02.2020
1951 Snow 5 990 75 0 9.8 300 11:59 26.02.2020
1952 Snow 5 990 75 0 9.8 300 11:41 26.02.2020
1953 Clouds 5 990 93 10000 5.7 280 11:22 26.02.2020
1954 Clouds 5 990 93 10000 5.7 280 11:22 26.02.2020
1955 Clear 4 990 75 0 8.2 300 10:56 26.02.2020
1956 Clouds 4 990 86 10000 5.1 270 10:38 26.02.2020
1957 Clouds 4 990 93 10000 4.1 300 10:20 26.02.2020
1958 Clouds 4 990 93 10000 4.1 300 10:20 26.02.2020
1959 Clear 3 989 86 0 6.7 300 09:41 26.02.2020
1960 Clouds 2 989 93 10000 3.1 270 09:21 26.02.2020
1961 Clear 2 989 93 0 5.1 280 08:55 26.02.2020
1962 Clouds 2 988 77 10000 3.1 260 08:36 26.02.2020
1963 Clouds 2 988 91 10000 3.1 260 08:18 26.02.2020
1964 Clouds 1 988 93 0 5.1 290 07:41 26.02.2020
1965 Clouds 1 989 91 10000 2.6 240 07:23 26.02.2020
1966 Clouds 1 988 91 0 5.7 240 06:49 26.02.2020
1967 Clouds 1 988 91 0 3.1 250 06:31 26.02.2020
1968 Clouds 1 988 93 0 4.6 260 05:48 26.02.2020
1969 Clouds 1 987 91 0 3.6 250 05:20 26.02.2020
1970 Clouds 2 988 86 0 5.1 270 03:57 26.02.2020
1971 Clouds 2 988 89 0 3.1 250 02:20 26.02.2020
1972 Clouds 2 988 89 0 3.1 250 01:39 26.02.2020
1973 Clouds 2 988 86 0 6.7 290 00:48 26.02.2020
1974 Clouds 3 988 88 0 3.6 260 00:21 26.02.2020
1975 Clouds 3 988 86 0 5.7 260 23:45 25.02.2020
1976 Clouds 3 988 86 10000 4.6 250 23:26 25.02.2020
1977 Clouds 3 988 80 0 7.2 280 22:59 25.02.2020
1978 Clouds 3 988 80 0 7.2 280 22:41 25.02.2020
1979 Clouds 3 987 86 10000 5.1 260 22:19 25.02.2020
1980 Clouds 3 987 86 10000 5.1 260 22:19 25.02.2020
1981 Clouds 3 988 86 10000 5.1 260 21:39 25.02.2020
1982 Clouds 3 987 86 10000 5.7 260 21:21 25.02.2020
1983 Clouds 3 987 86 10000 5.7 260 21:21 25.02.2020
1984 Clouds 3 988 86 0 10.8 280 20:58 25.02.2020
1985 Clouds 4 987 80 10000 6.7 260 20:39 25.02.2020
1986 Clouds 4 987 80 10000 6.7 260 20:21 25.02.2020
1987 Clouds 4 988 80 0 14.4 280 19:59 25.02.2020
1988 Clouds 4 988 80 0 14.4 280 19:40 25.02.2020
1989 Clouds 4 987 80 10000 7.7 260 19:19 25.02.2020
1990 Clouds 4 989 86 6000 9.8 260 18:42 25.02.2020
1991 Clouds 4 986 75 10000 9.8 260 18:21 25.02.2020
1992 Clouds 4 986 75 10000 9.8 260 18:21 25.02.2020
1993 Clouds 5 987 75 0 18 280 17:58 25.02.2020
1994 Clouds 5 989 80 10000 12.3 260 17:38 25.02.2020
1995 Rain 5 985 70 10000 12.3 260 17:19 25.02.2020
1996 Snow 5 986 75 0 18 280 16:58 25.02.2020
1997 Snow 5 986 75 0 18 280 16:40 25.02.2020
1998 Rain 5 984 75 10000 13.4 260 16:22 25.02.2020
1999 Snow 6 985 75 0 21.6 280 15:57 25.02.2020
2000 Rain 6 984 70 10000 13.4 250 15:38 25.02.2020
2001 Rain 6 984 70 10000 13.4 250 15:18 25.02.2020
2002 Snow 6 985 75 0 21.6 270 14:57 25.02.2020
2003 Clouds 6 988 75 10000 17 250 14:37 25.02.2020
2004 Rain 6 983 75 10000 10.8 250 14:18 25.02.2020
2005 Rain 6 983 75 10000 10.8 250 14:18 25.02.2020
2006 Rain 6 985 75 0 20.1 260 13:55 25.02.2020
2007 Rain 6 988 75 10000 16.5 250 13:37 25.02.2020
2008 Rain 6 984 75 10000 9.8 240 13:19 25.02.2020
2009 Rain 6 985 75 0 17 260 12:42 25.02.2020
2010 Rain 6 985 75 10000 10.8 240 12:22 25.02.2020
2011 Rain 5 986 70 0 14.4 250 11:57 25.02.2020
2012 Rain 6 983 80 10000 14.4 240 11:39 25.02.2020
2013 Clouds 6 985 70 10000 8.7 240 11:19 25.02.2020
2014 Clouds 6 987 75 0 13.4 250 10:59 25.02.2020
2015 Clouds 5 987 75 0 13.4 250 10:40 25.02.2020
2016 Clouds 5 986 70 10000 9.3 240 10:21 25.02.2020
2017 Clouds 6 988 80 0 11.8 260 09:42 25.02.2020
2018 Clouds 5 987 75 10000 8.7 240 09:22 25.02.2020
2019 Clouds 5 987 75 10000 8.7 240 08:55 25.02.2020
2020 Rain 5 990 80 10000 11.8 250 08:37 25.02.2020
2021 Clouds 5 988 70 10000 7.7 240 08:19 25.02.2020
2022 Clouds 5 991 80 10000 10.8 250 07:40 25.02.2020
2023 Drizzle 5 988 80 10000 7.2 240 07:20 25.02.2020
2024 Clouds 5 989 80 0 14.9 260 06:41 25.02.2020
2025 Clouds 5 991 80 10000 13.9 260 05:37 25.02.2020
2026 Rain 6 991 81 6000 10.3 250 03:35 25.02.2020
2027 Rain 7 990 87 0 13.9 260 02:00 25.02.2020
2028 Rain 8 991 93 0 14.4 260 00:48 25.02.2020
2029 Rain 8 991 93 0 14.4 260 00:48 25.02.2020
2030 Rain 7 991 93 0 3.6 160 00:29 25.02.2020
2031 Rain 6 991 100 0 4.6 190 23:44 24.02.2020
2032 Rain 3 992 100 3500 6.7 140 23:22 24.02.2020
2033 Rain 3 993 93 0 5.1 150 22:43 24.02.2020
2034 Snow 2 993 93 3000 7.2 130 22:21 24.02.2020
2035 Rain 2 995 93 0 5.7 140 21:58 24.02.2020
2036 Rain 2 995 93 2100 6.7 160 21:39 24.02.2020
2037 Snow 2 995 93 3000 8.2 120 21:20 24.02.2020
2038 Rain 2 997 93 0 9.3 150 20:58 24.02.2020
2039 Rain 2 997 93 0 9.3 150 20:40 24.02.2020
2040 Drizzle 1 998 93 8000 7.2 120 20:19 24.02.2020
2041 Snow 1 999 93 0 6.7 140 19:58 24.02.2020
2042 Snow 1 999 96 2700 6.2 120 19:40 24.02.2020
2043 Drizzle 1 1000 93 8000 5.7 120 19:21 24.02.2020
2044 Snow 1 1001 93 0 5.7 140 18:55 24.02.2020
2045 Snow 2 1001 96 1700 5.7 120 18:37 24.02.2020
2046 Rain 2 1003 93 8000 7.7 140 18:19 24.02.2020
2047 Snow 2 1003 93 0 7.2 160 17:42 24.02.2020
2048 Rain 3 1005 80 10000 4.1 160 17:21 24.02.2020
2049 Rain 3 1006 80 0 5.1 170 16:58 24.02.2020
2050 Rain 4 1006 80 10000 4.6 190 16:39 24.02.2020
2051 Rain 5 1007 87 10000 3.6 180 16:20 24.02.2020
2052 Rain 5 1007 81 0 5.1 190 15:58 24.02.2020
2053 Drizzle 5 1008 80 8000 6.7 190 15:40 24.02.2020
2054 Drizzle 5 1008 80 8000 6.7 190 15:40 24.02.2020
2055 Rain 6 1008 93 10000 3.6 170 15:21 24.02.2020
2056 Rain 6 1009 87 0 4.1 200 14:58 24.02.2020
2057 Clouds 6 1009 87 10000 3.1 170 14:39 24.02.2020
2058 Clouds 6 1010 87 10000 3.1 180 14:19 24.02.2020
2059 Clouds 6 1011 87 10000 2.6 180 13:56 24.02.2020
2060 Clouds 6 1012 87 10000 4.6 200 13:37 24.02.2020
2061 Clouds 6 1012 87 10000 2.6 190 13:19 24.02.2020
2062 Clouds 6 1013 87 0 3.1 200 12:55 24.02.2020
2063 Clouds 6 1013 87 10000 4.1 210 12:37 24.02.2020
2064 Clouds 6 1013 87 10000 2.6 200 12:18 24.02.2020
2065 Clouds 6 1014 87 10000 2.6 200 11:42 24.02.2020
2066 Clouds 6 1013 81 0 2.6 220 11:42 24.02.2020
2067 Clouds 6 1014 87 10000 2.1 210 11:23 24.02.2020
2068 Clouds 5 1014 81 0 3.6 240 10:44 24.02.2020
2069 Clouds 5 1015 86 10000 2.6 240 10:25 24.02.2020
2070 Clouds 5 1015 86 0 4.1 260 09:41 24.02.2020
2071 Clouds 4 1015 93 10000 3.1 260 09:19 24.02.2020
2072 Clouds 4 1016 86 0 4.1 270 08:57 24.02.2020
2073 Clouds 4 1016 93 10000 3.1 230 08:37 24.02.2020
2074 Clouds 4 1015 93 10000 3.1 260 08:19 24.02.2020
2075 Clouds 4 1016 93 10000 3.1 270 07:41 24.02.2020
2076 Clouds 4 1015 86 10000 3.6 280 07:23 24.02.2020
2077 Clouds 4 1016 93 10000 4.1 270 06:36 24.02.2020
2078 Clouds 4 1014 86 0 4.6 280 06:18 24.02.2020
2079 Clouds 5 1014 86 0 4.6 270 05:28 24.02.2020
2080 Clear 6 1013 87 0 10.8 300 03:45 24.02.2020
2081 Clear 6 1012 81 0 12.3 300 02:52 24.02.2020
2082 Clouds 6 1011 81 0 14.4 300 01:43 24.02.2020
2083 Clouds 6 1010 81 0 15.9 300 00:57 24.02.2020
2084 Clouds 6 1008 81 0 8.2 270 00:27 24.02.2020
2085 Clouds 5 1009 81 0 15.9 290 23:59 23.02.2020
2086 Clouds 5 1009 81 0 15.9 290 23:40 23.02.2020
2087 Clouds 5 1008 75 0 6.7 270 23:18 23.02.2020
2088 Clouds 5 1008 80 0 14.4 290 22:56 23.02.2020
2089 Clouds 5 1009 80 7000 9.8 280 22:37 23.02.2020
2090 Clouds 4 1006 80 0 6.2 270 22:18 23.02.2020
2091 Clouds 4 1007 80 0 12.9 290 21:44 23.02.2020
2092 Clouds 4 1005 80 0 6.2 270 21:20 23.02.2020
2093 Clouds 3 1005 86 0 10.8 290 20:57 23.02.2020
2094 Clouds 3 1005 86 0 6.2 280 20:38 23.02.2020
2095 Rain 3 1004 86 10000 6.2 270 20:20 23.02.2020
2096 Rain 3 1004 86 0 10.8 300 19:57 23.02.2020
2097 Rain 3 1005 93 7000 11.8 310 19:38 23.02.2020
2098 Clouds 4 1003 80 10000 6.2 280 19:18 23.02.2020
2099 Rain 4 1002 86 0 16.5 310 18:56 23.02.2020
2100 Rain 4 1003 93 8000 8.2 280 18:37 23.02.2020
2101 Rain 4 1001 80 10000 7.2 280 18:18 23.02.2020
2102 Rain 4 1001 93 0 8.7 290 17:56 23.02.2020
2103 Rain 4 1002 86 6000 8.7 300 17:37 23.02.2020
2104 Drizzle 4 1000 80 10000 7.2 280 17:19 23.02.2020
2105 Rain 4 1000 93 0 11.8 290 16:46 23.02.2020
2106 Clouds 5 999 86 10000 6.2 290 16:27 23.02.2020
2107 Clouds 5 999 86 10000 6.2 290 16:27 23.02.2020
2108 Rain 5 999 93 0 9.3 290 15:59 23.02.2020
2109 Rain 5 999 86 9000 6.2 300 15:39 23.02.2020
2110 Rain 5 999 87 10000 5.1 280 15:20 23.02.2020
2111 Rain 5 999 87 0 10.3 290 14:58 23.02.2020
2112 Rain 5 999 87 0 10.3 290 14:40 23.02.2020
2113 Rain 6 999 93 0 5.1 260 14:21 23.02.2020
2114 Rain 6 999 93 0 10.8 280 13:57 23.02.2020
2115 Rain 5 999 93 8000 6.2 290 13:38 23.02.2020
2116 Rain 5 999 93 5000 6.7 280 13:20 23.02.2020
2117 Rain 5 999 93 5000 6.7 280 13:20 23.02.2020
2118 Rain 5 1000 93 0 7.7 240 12:42 23.02.2020
2119 Rain 5 1001 93 0 4.1 220 12:22 23.02.2020
2120 Rain 5 1002 93 0 6.7 250 11:57 23.02.2020
2121 Rain 5 1003 93 4200 6.2 240 11:37 23.02.2020
2122 Rain 5 1002 86 7000 7.7 240 11:18 23.02.2020
2123 Rain 5 1003 93 0 7.2 240 10:54 23.02.2020
2124 Rain 5 1004 93 4800 6.7 230 10:36 23.02.2020
2125 Rain 5 1004 86 0 6.7 250 10:18 23.02.2020
2126 Rain 5 1004 81 0 6.7 250 09:40 23.02.2020
2127 Clouds 5 1004 81 10000 8.2 250 09:21 23.02.2020
2128 Rain 5 1005 81 0 10.3 260 08:56 23.02.2020
2129 Rain 6 1007 70 10000 11.8 250 08:38 23.02.2020
2130 Rain 6 1005 75 0 7.2 250 08:18 23.02.2020
2131 Rain 6 1006 81 0 13.4 270 07:40 23.02.2020
2132 Rain 6 1006 81 0 14.4 270 06:52 23.02.2020
2133 Rain 6 1007 75 0 14.9 280 05:54 23.02.2020
2134 Rain 6 1007 70 0 19 280 04:44 23.02.2020
2135 Rain 6 1007 70 0 7.7 260 03:25 23.02.2020
2136 Rain 6 1009 75 8000 12.3 260 02:35 23.02.2020
2137 Rain 6 1006 70 0 9.3 260 01:25 23.02.2020
2138 Rain 6 1007 75 0 16.5 280 00:49 23.02.2020
2139 Rain 6 1006 70 0 9.3 260 00:27 23.02.2020
2140 Rain 6 1006 70 0 9.3 260 00:27 23.02.2020
2141 Rain 6 1007 70 0 15.9 280 23:59 22.02.2020
2142 Rain 6 1007 70 0 15.9 280 23:40 22.02.2020
2143 Clouds 6 1006 65 0 8.2 260 23:19 22.02.2020
2144 Clouds 6 1006 75 0 16.5 280 22:41 22.02.2020
2145 Clouds 7 1006 65 0 10.3 260 22:19 22.02.2020
2146 Clouds 7 1006 65 0 19 280 21:43 22.02.2020
2147 Clouds 7 1005 65 0 11.8 260 21:24 22.02.2020
2148 Clouds 7 1005 65 0 11.8 260 21:24 22.02.2020
2149 Clouds 7 1006 70 0 18.5 280 20:54 22.02.2020
2150 Clouds 7 1008 70 9000 14.9 260 20:36 22.02.2020
2151 Rain 7 1005 70 0 9.3 260 20:18 22.02.2020
2152 Rain 7 1006 75 0 16.5 270 19:42 22.02.2020
2153 Rain 7 1005 70 0 10.8 250 19:22 22.02.2020
2154 Rain 7 1005 75 0 15.9 280 18:54 22.02.2020
2155 Rain 7 1007 75 8000 12.9 260 18:36 22.02.2020
2156 Rain 7 1004 65 0 10.3 250 18:18 22.02.2020
2157 Rain 7 1004 75 0 17 280 17:43 22.02.2020
2158 Rain 7 1003 81 0 8.7 260 17:25 22.02.2020
2159 Rain 7 1003 81 0 7.2 260 16:58 22.02.2020
2160 Rain 7 1004 86 0 13.4 290 16:39 22.02.2020
2161 Rain 8 1003 75 0 9.8 270 16:20 22.02.2020
2162 Rain 8 1003 70 0 18 280 15:46 22.02.2020
2163 Clouds 8 1001 81 10000 13.9 260 15:27 22.02.2020
2164 Rain 9 1002 76 0 19 270 14:58 22.02.2020
2165 Rain 9 1002 76 0 19 270 14:39 22.02.2020
2166 Rain 8 1001 81 0 9.3 260 14:20 22.02.2020
2167 Rain 9 1001 81 0 20.6 270 13:42 22.02.2020
2168 Rain 8 1001 93 0 19.5 260 13:20 22.02.2020
2169 Rain 8 1001 93 0 19.5 260 12:58 22.02.2020
2170 Rain 8 1003 93 650 17.5 250 12:39 22.02.2020
2171 Rain 8 1000 93 4000 10.3 250 12:20 22.02.2020
2172 Rain 7 1001 93 0 15.9 250 11:42 22.02.2020
2173 Rain 7 999 93 4500 14.4 240 11:23 22.02.2020
2174 Rain 7 1002 93 0 14.4 250 10:42 22.02.2020
2175 Rain 7 1001 87 3000 9.8 230 10:21 22.02.2020
2176 Rain 7 1003 87 0 14.9 240 09:59 22.02.2020
2177 Rain 7 1003 87 0 14.9 240 09:41 22.02.2020
2178 Rain 7 1002 87 3000 9.3 230 09:22 22.02.2020
2179 Rain 7 1004 93 0 12.9 240 08:55 22.02.2020
2180 Rain 7 1002 93 4500 14.4 220 08:28 22.02.2020
2181 Rain 7 1005 93 0 13.9 240 07:59 22.02.2020
2182 Rain 7 1007 93 4000 8.7 210 07:39 22.02.2020
2183 Rain 7 1007 93 3500 7.7 220 07:18 22.02.2020
2184 Rain 7 1007 93 750 12.9 230 06:43 22.02.2020
2185 Rain 8 1007 87 0 12.9 240 04:45 22.02.2020
2186 Rain 7 1007 87 0 8.7 230 04:25 22.02.2020
2187 Rain 7 1009 93 0 12.3 240 02:42 22.02.2020
2188 Rain 7 1011 93 0 12.3 250 01:49 22.02.2020
2189 Drizzle 7 1011 93 0 8.2 230 01:29 22.02.2020
2190 Rain 7 1011 93 0 13.4 250 00:49 22.02.2020
2191 Drizzle 7 1011 93 0 7.2 230 00:31 22.02.2020
2192 Rain 7 1012 93 0 10.8 240 23:56 21.02.2020
2193 Rain 7 1013 87 2100 11.8 230 23:37 21.02.2020
2194 Drizzle 7 1012 93 0 6.2 230 23:18 21.02.2020
2195 Rain 7 1013 87 0 11.3 250 22:42 21.02.2020
2196 Rain 7 1013 93 3500 6.7 230 22:24 21.02.2020
2197 Rain 7 1014 87 0 13.4 250 21:56 21.02.2020
2198 Rain 7 1014 87 0 13.4 250 21:56 21.02.2020
2199 Rain 7 1015 87 5000 10.8 230 21:37 21.02.2020
2200 Rain 6 1013 87 2500 6.7 240 21:19 21.02.2020
2201 Rain 6 1013 87 3000 6.7 240 20:43 21.02.2020
2202 Rain 6 1012 93 8000 10.3 230 20:25 21.02.2020
2203 Rain 6 1014 93 0 10.3 240 19:40 21.02.2020
2204 Rain 6 1013 93 8000 10.8 230 19:21 21.02.2020
2205 Rain 6 1014 87 0 12.3 240 18:44 21.02.2020
2206 Rain 6 1014 81 8000 7.2 230 18:24 21.02.2020
2207 Rain 6 1014 81 0 11.3 240 17:58 21.02.2020
2208 Rain 6 1016 87 3600 9.8 230 17:38 21.02.2020
2209 Rain 6 1016 87 3600 9.8 230 17:38 21.02.2020
2210 Clouds 6 1014 81 10000 6.2 230 17:20 21.02.2020
2211 Rain 6 1015 87 0 11.3 240 16:56 21.02.2020
2212 Rain 6 1016 87 3700 9.3 230 16:38 21.02.2020
2213 Rain 6 1015 87 9000 7.2 250 16:20 21.02.2020
2214 Rain 6 1015 87 0 12.3 260 15:44 21.02.2020
2215 Rain 7 1014 87 9000 10.3 240 15:19 21.02.2020
2216 Rain 7 1015 75 0 10.8 260 14:54 21.02.2020
2217 Rain 7 1017 75 7000 12.9 250 14:36 21.02.2020
2218 Clouds 7 1014 70 10000 7.7 240 14:18 21.02.2020
2219 Rain 7 1015 75 0 15.4 260 13:42 21.02.2020
2220 Clouds 7 1014 81 10000 10.8 240 13:21 21.02.2020
2221 Rain 7 1015 75 0 13.9 270 12:47 21.02.2020
2222 Clouds 7 1016 75 10000 10.8 260 12:27 21.02.2020
2223 Rain 7 1015 75 0 14.4 280 11:59 21.02.2020
2224 Rain 7 1015 75 0 14.4 280 11:40 21.02.2020
2225 Clouds 7 1014 75 10000 7.2 260 11:21 21.02.2020
2226 Clouds 7 1014 75 10000 7.2 260 11:21 21.02.2020
2227 Clear 7 1014 75 0 10.8 270 10:55 21.02.2020
2228 Clouds 7 1016 75 10000 9.8 270 10:36 21.02.2020
2229 Clouds 6 1014 75 10000 6.7 260 10:18 21.02.2020
2230 Clear 6 1014 81 0 9.3 270 09:43 21.02.2020
2231 Clouds 5 1013 75 10000 6.2 260 09:25 21.02.2020
2232 Clear 5 1012 80 0 9.8 280 08:58 21.02.2020
2233 Clear 5 1012 80 0 9.8 280 08:40 21.02.2020
2234 Rain 5 1014 80 7000 7.2 270 08:21 21.02.2020
2235 Clouds 5 1011 81 0 11.3 280 07:58 21.02.2020
2236 Clouds 5 1011 80 10000 3.6 280 07:40 21.02.2020
2237 Clouds 5 1010 80 10000 5.1 260 07:18 21.02.2020
2238 Clouds 4 1010 80 0 10.3 280 06:43 21.02.2020
2239 Clouds 5 1009 80 0 4.6 250 06:24 21.02.2020
2240 Clouds 4 1009 80 0 11.8 280 05:42 21.02.2020
2241 Clouds 4 1010 80 7000 7.7 270 04:32 21.02.2020
2242 Clouds 4 1007 80 0 10.3 290 03:57 21.02.2020
2243 Rain 4 1006 75 0 4.6 270 03:24 21.02.2020
2244 Rain 4 1005 86 0 13.9 290 01:51 21.02.2020
2245 Rain 4 1003 80 0 5.7 280 01:23 21.02.2020
2246 Rain 5 1003 86 0 12.9 300 00:45 21.02.2020
2247 Clouds 5 1002 80 8000 6.2 290 00:23 21.02.2020
2248 Rain 5 1001 93 0 11.3 300 23:44 20.02.2020
2249 Rain 5 1000 86 0 8.7 280 23:23 20.02.2020
2250 Rain 5 999 86 0 14.4 310 22:56 20.02.2020
2251 Rain 5 1001 93 4100 11.3 290 22:37 20.02.2020
2252 Rain 6 997 87 8000 8.7 210 22:19 20.02.2020
2253 Rain 7 998 93 0 9.8 220 21:55 20.02.2020
2254 Rain 7 999 93 3500 10.3 200 21:37 20.02.2020
2255 Drizzle 7 997 93 5000 10.3 210 21:19 20.02.2020
2256 Rain 7 999 93 0 8.2 210 20:54 20.02.2020
2257 Rain 7 999 93 7000 5.7 180 20:36 20.02.2020
2258 Rain 7 999 93 7000 5.7 180 20:18 20.02.2020
2259 Rain 7 1000 93 0 8.2 200 19:56 20.02.2020
2260 Rain 7 1002 81 4300 8.2 190 19:38 20.02.2020
2261 Drizzle 7 999 93 4000 10.8 190 19:20 20.02.2020
2262 Rain 8 1003 81 6000 7.7 190 18:39 20.02.2020
2263 Rain 8 1002 87 10000 5.7 190 18:20 20.02.2020
2264 Rain 8 1003 87 0 8.2 210 17:54 20.02.2020
2265 Rain 8 1003 87 0 8.2 210 17:36 20.02.2020
2266 Rain 8 1003 87 10000 5.7 190 17:18 20.02.2020
2267 Drizzle 8 1002 93 7000 9.3 200 16:54 20.02.2020
2268 Drizzle 8 1005 87 8000 6.7 200 16:36 20.02.2020
2269 Drizzle 8 1004 87 10000 5.7 200 16:18 20.02.2020
2270 Clouds 8 1005 87 0 8.2 220 15:41 20.02.2020
2271 Clouds 8 1006 87 10000 6.7 200 15:20 20.02.2020
2272 Clouds 8 1006 87 0 9.3 220 14:56 20.02.2020
2273 Clouds 8 1007 87 8000 7.7 220 14:38 20.02.2020
2274 Drizzle 8 1006 93 4000 6.2 200 14:20 20.02.2020
2275 Rain 8 1007 93 0 7.7 230 13:44 20.02.2020
2276 Clouds 7 1008 93 8000 7.2 210 13:20 20.02.2020
2277 Rain 7 1007 93 0 8.7 220 12:58 20.02.2020
2278 Rain 7 1007 93 0 8.7 220 12:39 20.02.2020
2279 Drizzle 7 1009 93 2800 7.2 200 12:19 20.02.2020
2280 Rain 6 1008 93 0 7.2 200 11:56 20.02.2020
2281 Drizzle 6 1009 100 2800 6.2 200 11:37 20.02.2020
2282 Drizzle 6 1010 100 3000 5.7 200 11:19 20.02.2020
2283 Rain 6 1009 93 0 7.2 200 10:42 20.02.2020
2284 Rain 5 1008 100 3000 6.2 180 10:22 20.02.2020
2285 Rain 5 1008 100 3000 6.2 180 10:22 20.02.2020
2286 Rain 5 1009 93 0 7.7 190 09:55 20.02.2020
2287 Rain 5 1009 93 0 7.7 190 09:55 20.02.2020
2288 Drizzle 5 1010 93 3500 6.7 190 09:37 20.02.2020
2289 Drizzle 5 1010 93 5000 4.6 180 09:19 20.02.2020
2290 Drizzle 4 1011 100 3800 6.2 180 08:41 20.02.2020
2291 Drizzle 4 1011 93 3500 6.7 180 08:23 20.02.2020
2292 Rain 4 1010 93 0 8.2 190 07:47 20.02.2020
2293 Drizzle 4 1011 93 6000 4.1 170 07:27 20.02.2020
2294 Rain 4 1011 93 0 7.2 190 06:57 20.02.2020
2295 Drizzle 3 1012 93 6000 5.7 180 06:37 20.02.2020
2296 Rain 3 1011 93 0 6.7 190 05:47 20.02.2020
2297 Clouds 3 1012 86 0 4.1 180 05:20 20.02.2020
2298 Clouds 3 1013 86 8000 4.1 190 04:37 20.02.2020
2299 Clouds 3 1013 93 0 4.6 190 03:46 20.02.2020
2300 Clouds 3 1013 93 0 4.6 190 03:46 20.02.2020
2301 Clouds 3 1013 86 0 5.1 220 02:45 20.02.2020
2302 Clear 4 1014 86 0 3.1 220 01:24 20.02.2020
2303 Clear 4 1014 80 0 5.7 240 00:42 20.02.2020
2304 Clear 4 1014 80 0 2.6 240 00:19 20.02.2020
2305 Clear 4 1014 80 0 6.2 260 23:42 19.02.2020
2306 Clear 5 1013 80 0 4.1 250 23:18 19.02.2020
2307 Clouds 5 1013 80 10000 4.1 250 22:41 19.02.2020
2308 Clouds 5 1013 80 10000 4.6 250 22:22 19.02.2020
2309 Clear 5 1013 80 0 8.2 270 21:57 19.02.2020
2310 Clear 5 1014 75 9000 7.7 260 21:39 19.02.2020
2311 Rain 5 1013 81 10000 5.7 250 21:19 19.02.2020
2312 Clear 5 1013 86 0 10.8 270 20:57 19.02.2020
2313 Clear 5 1014 86 8000 8.2 250 20:37 19.02.2020
2314 Clouds 5 1012 81 10000 6.7 260 20:19 19.02.2020
2315 Rain 5 1012 81 0 10.3 280 19:57 19.02.2020
2316 Rain 6 1014 86 6000 8.7 270 19:37 19.02.2020
2317 Rain 6 1012 81 10000 5.1 260 19:19 19.02.2020
2318 Rain 6 1012 81 0 10.3 300 18:57 19.02.2020
2319 Clouds 6 1011 87 10000 4.1 250 18:39 19.02.2020
2320 Rain 6 1011 81 8000 6.2 270 18:20 19.02.2020
2321 Rain 6 1011 87 0 10.3 280 17:44 19.02.2020
2322 Rain 6 1012 87 10000 6.7 280 17:20 19.02.2020
2323 Rain 6 1010 81 0 9.3 290 16:57 19.02.2020
2324 Rain 6 1011 81 10000 6.7 280 16:38 19.02.2020
2325 Rain 6 1009 75 10000 5.1 270 16:18 19.02.2020
2326 Rain 7 1010 75 0 11.3 300 15:43 19.02.2020
2327 Clouds 7 1009 65 10000 6.7 280 15:25 19.02.2020
2328 Rain 7 1009 75 0 10.3 300 14:59 19.02.2020
2329 Rain 7 1009 75 0 10.3 300 14:40 19.02.2020
2330 Clouds 7 1008 75 10000 4.6 280 14:21 19.02.2020
2331 Rain 7 1008 70 0 12.9 290 13:42 19.02.2020
2332 Rain 6 1007 81 10000 6.2 300 13:23 19.02.2020
2333 Rain 6 1007 81 0 10.8 310 12:58 19.02.2020
2334 Clouds 5 1009 80 10000 6.7 260 12:37 19.02.2020
2335 Clouds 5 1007 81 10000 4.1 280 12:18 19.02.2020
2336 Clouds 6 1008 86 9000 8.7 280 11:39 19.02.2020
2337 Rain 6 1007 81 8000 5.7 280 11:20 19.02.2020
2338 Clouds 6 1006 75 0 9.8 280 10:59 19.02.2020
2339 Clouds 5 1006 81 10000 5.1 260 10:38 19.02.2020
2340 Clouds 5 1005 80 10000 4.6 250 10:20 19.02.2020
2341 Clouds 5 1006 80 0 8.7 280 09:59 19.02.2020
2342 Clouds 5 1005 80 10000 4.1 250 09:39 19.02.2020
2343 Clouds 4 1005 86 0 7.2 280 09:20 19.02.2020
2344 Clouds 4 1005 86 0 7.2 280 08:48 19.02.2020
2345 Clouds 4 1004 86 10000 5.7 270 08:24 19.02.2020
2346 Rain 4 1004 86 0 8.2 280 07:59 19.02.2020
2347 Clouds 4 1004 86 10000 5.7 260 07:39 19.02.2020
2348 Clouds 4 1003 86 10000 5.1 260 07:18 19.02.2020
2349 Rain 5 1004 86 0 9.8 280 06:45 19.02.2020
2350 Rain 5 1002 93 0 4.1 240 05:26 19.02.2020
2351 Rain 5 1003 86 0 11.3 270 03:52 19.02.2020
2352 Rain 5 1004 87 6000 8.2 200 02:36 19.02.2020
2353 Rain 6 1004 93 0 9.8 250 01:44 19.02.2020
2354 Rain 6 1005 87 0 8.2 210 01:23 19.02.2020
2355 Rain 6 1005 87 0 8.2 220 00:41 19.02.2020
2356 Rain 6 1005 87 0 8.2 220 00:41 19.02.2020
2357 Rain 6 1005 93 5000 9.3 220 00:22 19.02.2020
2358 Rain 6 1007 81 0 9.8 240 23:40 18.02.2020
2359 Clouds 5 1006 87 10000 8.2 220 23:20 18.02.2020
2360 Rain 6 1008 87 0 9.3 250 22:55 18.02.2020
2361 Rain 5 1009 86 6000 6.2 220 22:37 18.02.2020
2362 Clouds 5 1008 87 10000 3.6 220 22:19 18.02.2020
2363 Clouds 5 1008 87 10000 3.6 220 22:19 18.02.2020
2364 Rain 5 1008 87 0 8.7 240 21:55 18.02.2020
2365 Rain 5 1010 86 7000 8.2 220 21:36 18.02.2020
2366 Rain 5 1008 86 10000 6.7 240 21:18 18.02.2020
2367 Rain 5 1009 86 0 7.7 240 20:54 18.02.2020
2368 Rain 5 1011 86 3200 11.8 240 20:36 18.02.2020
2369 Clouds 6 1009 81 10000 6.2 240 20:18 18.02.2020
2370 Rain 6 1010 81 0 10.3 250 19:42 18.02.2020
2371 Clouds 6 1009 81 10000 5.7 240 19:19 18.02.2020
2372 Rain 6 1010 80 0 11.8 260 18:57 18.02.2020
2373 Clouds 6 1010 75 10000 6.7 240 18:39 18.02.2020
2374 Clouds 6 1009 75 10000 6.7 240 18:19 18.02.2020
2375 Rain 6 1012 75 7000 11.3 250 17:42 18.02.2020
2376 Clouds 6 1010 75 10000 6.7 240 17:20 18.02.2020
2377 Rain 6 1010 86 0 13.4 270 16:41 18.02.2020
2378 Clouds 6 1010 75 10000 7.7 250 16:22 18.02.2020
2379 Rain 6 1011 75 0 17.5 260 15:58 18.02.2020
2380 Rain 6 1010 81 3500 7.7 240 15:39 18.02.2020
2381 Clouds 6 1012 86 8000 13.4 260 15:19 18.02.2020
2382 Rain 6 1010 70 0 13.9 260 14:56 18.02.2020
2383 Clouds 7 1012 86 10000 12.9 250 14:38 18.02.2020
2384 Clouds 7 1010 70 10000 8.7 250 14:19 18.02.2020
2385 Rain 7 1010 75 0 12.9 270 13:41 18.02.2020
2386 Clouds 7 1010 75 10000 7.2 250 13:22 18.02.2020
2387 Clouds 7 1010 75 10000 7.2 250 13:22 18.02.2020
2388 Rain 7 1010 75 0 13.9 270 12:56 18.02.2020
2389 Clouds 7 1012 70 10000 12.9 260 12:38 18.02.2020
2390 Clouds 7 1009 75 10000 8.2 260 12:19 18.02.2020
2391 Rain 6 1010 81 0 12.9 270 11:43 18.02.2020
2392 Rain 6 1010 81 0 12.9 270 11:43 18.02.2020
2393 Rain 6 1009 87 8000 7.7 260 11:25 18.02.2020
2394 Rain 5 1009 93 0 14.4 270 10:57 18.02.2020
2395 Clouds 5 1011 93 9000 9.8 270 10:38 18.02.2020
2396 Rain 5 1008 86 9000 5.1 240 10:18 18.02.2020
2397 Rain 5 1008 80 0 9.8 260 09:56 18.02.2020
2398 Rain 5 1010 80 10000 10.3 250 09:37 18.02.2020
2399 Rain 5 1007 86 8000 7.7 230 09:18 18.02.2020
2400 Rain 5 1008 80 0 13.9 260 08:43 18.02.2020
2401 Clouds 5 1008 75 10000 5.7 250 08:21 18.02.2020
2402 Clear 5 1008 75 0 12.3 260 07:56 18.02.2020
2403 Clouds 5 1007 75 10000 5.1 240 07:33 18.02.2020
2404 Clear 5 1007 75 0 10.8 260 06:57 18.02.2020
2405 Clouds 5 1009 80 10000 8.2 250 06:39 18.02.2020
2406 Clouds 6 1007 75 10000 5.7 250 06:20 18.02.2020
2407 Clouds 6 1009 81 10000 8.7 250 05:34 18.02.2020
2408 Clear 6 1006 81 0 6.7 250 04:28 18.02.2020
2409 Clear 6 1008 93 6000 9.8 250 03:36 18.02.2020
2410 Clear 6 1008 87 6000 8.7 240 02:38 18.02.2020
2411 Clouds 7 1005 87 8000 8.2 240 01:21 18.02.2020
2412 Clouds 7 1004 87 8000 8.7 240 00:22 18.02.2020
2413 Rain 7 1005 87 0 12.3 260 23:57 17.02.2020
2414 Rain 7 1006 87 6000 8.7 250 23:38 17.02.2020
2415 Rain 7 1005 87 0 5.7 240 23:19 17.02.2020
2416 Rain 7 1005 87 0 11.8 260 22:56 17.02.2020
2417 Rain 7 1006 81 7000 8.7 240 22:38 17.02.2020
2418 Clouds 7 1004 81 8000 9.3 250 22:18 17.02.2020
2419 Clouds 6 1004 81 10000 5.7 230 21:39 17.02.2020
2420 Clouds 7 1004 81 10000 6.2 230 21:18 17.02.2020
2421 Rain 6 1005 81 0 9.8 250 20:55 17.02.2020
2422 Rain 6 1006 87 3300 10.3 240 20:36 17.02.2020
2423 Clouds 7 1004 81 10000 6.2 240 20:18 17.02.2020
2424 Clouds 7 1005 81 0 11.8 250 19:42 17.02.2020
2425 Clouds 7 1004 81 10000 6.2 240 19:20 17.02.2020
2426 Clouds 7 1006 75 10000 9.8 240 18:39 17.02.2020
2427 Clouds 7 1006 75 10000 9.8 240 18:39 17.02.2020
2428 Clouds 7 1003 70 10000 7.7 230 18:20 17.02.2020
2429 Clouds 7 1004 75 0 13.4 250 18:00 17.02.2020
2430 Rain 7 1005 75 10000 11.8 230 17:38 17.02.2020
2431 Clouds 8 1003 75 10000 8.2 230 17:19 17.02.2020
2432 Rain 8 1003 75 0 13.4 250 16:58 17.02.2020
2433 Rain 8 1004 87 9000 13.4 240 16:40 17.02.2020
2434 Clouds 8 1003 70 10000 9.8 240 16:21 17.02.2020
2435 Clouds 8 1003 70 10000 8.7 240 15:46 17.02.2020
2436 Clouds 9 1002 70 10000 9.8 230 15:27 17.02.2020
2437 Clouds 9 1002 70 10000 10.3 230 14:58 17.02.2020
2438 Clouds 9 1004 66 10000 12.9 230 14:39 17.02.2020
2439 Clouds 9 1002 70 10000 10.3 230 14:20 17.02.2020
2440 Rain 9 1003 70 0 15.9 250 13:55 17.02.2020
2441 Clouds 9 1005 66 10000 10.3 230 13:36 17.02.2020
2442 Clouds 9 1005 66 10000 10.3 230 13:36 17.02.2020
2443 Clouds 9 1002 66 10000 10.8 240 13:18 17.02.2020
2444 Rain 9 1003 70 0 15.9 250 12:42 17.02.2020
2445 Clouds 8 1002 70 10000 10.8 230 12:23 17.02.2020
2446 Rain 8 1002 65 0 16.5 240 11:50 17.02.2020
2447 -273 0 0 0 0 0 11:29 17.02.2020
2448 Clouds 8 1000 75 10000 12.9 230 11:29 17.02.2020
2449 Rain 8 1001 70 0 13.9 240 10:59 17.02.2020
2450 Rain 8 1001 70 0 13.9 240 10:41 17.02.2020
2451 Clouds 7 1004 65 10000 14.9 230 10:41 17.02.2020
2452 Clouds 7 1001 75 10000 9.3 230 10:22 17.02.2020
2453 Clouds 7 1001 75 10000 9.3 230 10:22 17.02.2020
2454 Rain 7 1001 75 0 13.4 240 09:59 17.02.2020
2455 Rain 7 1001 75 0 13.4 240 09:41 17.02.2020
2456 Clouds 7 1000 75 10000 8.7 230 09:21 17.02.2020
2457 Rain 7 1001 75 0 11.8 250 08:56 17.02.2020
2458 Clouds 7 1003 70 10000 9.3 230 08:38 17.02.2020
2459 Clouds 7 1000 70 10000 7.7 240 08:19 17.02.2020
2460 Rain 7 1000 70 0 13.4 250 07:43 17.02.2020
2461 Clouds 7 999 70 10000 9.3 240 07:23 17.02.2020
2462 Rain 7 1000 75 0 14.9 260 06:51 17.02.2020
2463 Clouds 7 1001 75 10000 13.9 250 06:32 17.02.2020
2464 Rain 7 999 81 0 17.5 260 05:56 17.02.2020
2465 Clouds 7 1000 75 10000 14.4 250 05:37 17.02.2020
2466 Rain 7 996 75 0 8.7 230 03:21 17.02.2020
2467 Rain 7 996 81 0 10.8 250 01:49 17.02.2020
2468 Rain 8 995 81 0 12.9 260 00:44 17.02.2020
2469 Rain 7 993 81 0 8.7 240 00:21 17.02.2020
2470 Rain 7 993 81 0 8.7 240 00:21 17.02.2020
2471 Rain 7 994 81 0 14.4 260 23:53 16.02.2020
2472 Rain 7 992 87 0 9.3 230 23:32 16.02.2020
2473 Rain 7 992 87 0 13.4 250 22:58 16.02.2020
2474 Clouds 7 992 93 10000 6.7 230 22:39 16.02.2020
2475 Rain 7 990 93 7000 11.3 230 22:21 16.02.2020
2476 Rain 7 991 93 0 7.7 210 21:58 16.02.2020
2477 Rain 6 991 93 0 7.7 210 21:40 16.02.2020
2478 Rain 6 993 93 4000 3.6 210 21:21 16.02.2020
2479 Rain 6 991 93 0 6.2 250 20:57 16.02.2020
2480 Rain 6 991 93 8000 4.1 240 20:39 16.02.2020
2481 Rain 6 993 100 5000 6.2 280 20:21 16.02.2020
2482 Rain 6 991 100 0 6.2 280 19:58 16.02.2020
2483 Rain 7 992 100 4000 6.7 300 19:38 16.02.2020
2484 Rain 7 991 93 6000 4.6 260 19:19 16.02.2020
2485 Rain 7 991 93 6000 4.6 260 19:19 16.02.2020
2486 Rain 8 990 87 7000 5.7 260 18:44 16.02.2020
2487 Rain 8 991 93 3500 5.7 250 18:25 16.02.2020
2488 Rain 9 991 93 0 10.8 260 17:57 16.02.2020
2489 Rain 9 990 93 6000 5.7 240 17:39 16.02.2020
2490 Rain 9 991 93 6000 5.7 240 17:19 16.02.2020
2491 Rain 10 992 87 0 11.8 260 16:56 16.02.2020
2492 Rain 10 993 87 1500 10.8 240 16:37 16.02.2020
2493 Rain 10 992 93 6000 5.7 230 16:19 16.02.2020
2494 Rain 11 993 93 1100 11.3 250 15:41 16.02.2020
2495 Clouds 11 992 93 10000 5.7 230 15:22 16.02.2020
2496 Rain 12 993 93 0 12.9 260 14:55 16.02.2020
2497 Rain 12 993 82 1600 13.4 220 14:36 16.02.2020
2498 Drizzle 12 991 93 0 9.3 220 14:18 16.02.2020
2499 Rain 12 992 93 0 14.9 230 13:42 16.02.2020
2500 Rain 12 991 93 0 11.3 210 13:23 16.02.2020
2501 Rain 12 992 87 0 15.4 230 12:41 16.02.2020
2502 Rain 12 991 87 0 12.3 210 12:20 16.02.2020
2503 Rain 12 992 87 0 13.9 220 11:59 16.02.2020
2504 Rain 12 994 87 1900 12.3 210 11:37 16.02.2020
2505 Rain 12 992 87 0 10.3 210 11:18 16.02.2020
2506 Rain 12 992 81 0 13.9 220 10:56 16.02.2020
2507 Rain 12 994 81 5000 13.4 200 10:37 16.02.2020
2508 Rain 12 992 76 0 11.3 210 10:19 16.02.2020
2509 Rain 12 993 71 0 13.9 220 09:54 16.02.2020
2510 Rain 12 995 71 9000 12.9 200 09:36 16.02.2020
2511 Rain 12 993 71 0 9.8 200 09:18 16.02.2020
2512 Rain 12 993 71 0 13.4 210 08:41 16.02.2020
2513 Rain 12 994 76 0 8.2 190 08:21 16.02.2020
2514 Rain 12 994 76 0 12.3 210 07:51 16.02.2020
2515 Rain 12 996 71 9000 10.8 190 07:33 16.02.2020
2516 Rain 12 997 76 0 6.7 200 06:33 16.02.2020
2517 Rain 11 998 76 0 11.3 220 04:43 16.02.2020
2518 Rain 11 998 66 0 11.3 210 03:29 16.02.2020
2519 Rain 11 999 71 0 10.3 210 02:32 16.02.2020
2520 Rain 10 999 76 0 11.8 220 01:43 16.02.2020
2521 Rain 10 1000 76 0 9.8 200 01:23 16.02.2020
2522 Rain 10 1000 71 0 11.3 200 00:53 16.02.2020
2523 Rain 10 1001 66 10000 10.8 200 00:33 16.02.2020
2524 Rain 10 1000 71 0 11.8 200 23:58 15.02.2020
2525 Rain 10 1000 71 0 11.8 200 23:40 15.02.2020
2526 Rain 10 1000 71 0 11.8 200 23:40 15.02.2020
2527 Rain 10 1000 81 10000 10.8 190 23:21 15.02.2020
2528 Rain 10 1003 71 0 10.3 200 22:56 15.02.2020
2529 Rain 10 1004 71 9000 9.3 190 22:37 15.02.2020
2530 Rain 10 1004 76 0 6.7 180 22:18 15.02.2020
2531 Rain 10 1004 76 0 9.3 200 21:42 15.02.2020
2532 Rain 10 1005 76 0 6.2 180 21:23 15.02.2020
2533 Rain 10 1005 76 0 9.8 190 20:42 15.02.2020
2534 Rain 10 1005 76 0 9.8 190 20:42 15.02.2020
2535 Rain 10 1006 81 0 5.7 180 20:21 15.02.2020
2536 Rain 10 1006 81 0 5.7 180 20:21 15.02.2020
2537 Clouds 10 1007 76 0 9.8 190 19:59 15.02.2020
2538 Clouds 9 1007 76 0 9.8 190 19:40 15.02.2020
2539 Clouds 9 1008 87 0 4.1 180 19:21 15.02.2020
2540 Clouds 9 1008 87 0 9.3 190 18:40 15.02.2020
2541 Clouds 9 1009 87 0 4.6 180 18:20 15.02.2020
2542 Clouds 9 1009 93 0 7.7 190 17:55 15.02.2020
2543 Clouds 9 1010 81 7000 6.7 180 17:37 15.02.2020
2544 Clouds 9 1009 87 0 4.6 200 17:18 15.02.2020
2545 Clouds 9 1011 81 7000 5.7 170 16:40 15.02.2020
2546 Rain 9 1011 93 0 4.6 200 16:21 15.02.2020
2547 Clouds 9 1011 93 0 7.2 210 15:50 15.02.2020
2548 Rain 8 1011 93 0 2.6 190 15:31 15.02.2020
2549 Clouds 8 1011 100 0 7.7 190 14:57 15.02.2020
2550 Drizzle 8 1011 100 0 4.1 180 14:39 15.02.2020
2551 Mist 8 1012 100 3000 3.6 190 14:18 15.02.2020
2552 Clouds 8 1012 100 0 5.7 210 13:42 15.02.2020
2553 Mist 7 1012 93 2500 3.6 190 13:23 15.02.2020
2554 Rain 7 1013 93 0 5.1 210 12:57 15.02.2020
2555 Rain 7 1014 93 1900 5.1 200 12:38 15.02.2020
2556 Mist 7 1013 93 2000 4.1 200 12:19 15.02.2020
2557 Rain 7 1013 93 0 6.7 210 11:46 15.02.2020
2558 Drizzle 7 1014 93 2500 3.6 190 11:27 15.02.2020
2559 Rain 6 1014 100 0 5.7 220 10:49 15.02.2020
2560 Rain 6 1014 93 2500 2.6 190 10:30 15.02.2020
2561 Mist 6 1015 100 4500 2.6 200 09:57 15.02.2020
2562 Mist 6 1015 100 4500 2.6 200 09:39 15.02.2020
2563 Clouds 6 1015 100 8000 3.6 200 09:21 15.02.2020
2564 Rain 6 1014 93 0 6.2 220 08:43 15.02.2020
2565 Rain 6 1015 100 6000 3.6 200 08:24 15.02.2020
2566 Rain 6 1014 93 0 6.7 230 07:51 15.02.2020
2567 Rain 6 1015 93 4000 4.1 210 07:31 15.02.2020
2568 Rain 6 1015 93 0 7.2 220 06:51 15.02.2020
2569 Drizzle 6 1015 93 0 4.6 200 06:31 15.02.2020
2570 Rain 6 1015 93 0 6.2 210 05:41 15.02.2020
2571 Clouds 6 1015 87 0 6.2 200 04:46 15.02.2020
2572 Drizzle 6 1014 93 2500 7.7 200 03:39 15.02.2020
2573 Clouds 6 1016 86 0 7.7 200 02:51 15.02.2020
2574 Clouds 5 1017 81 0 4.6 190 02:23 15.02.2020
2575 Clouds 5 1017 80 0 7.2 200 01:40 15.02.2020
2576 Clouds 5 1017 80 0 7.7 190 00:42 15.02.2020
2577 Clouds 4 1018 80 0 3.6 180 00:21 15.02.2020
2578 Clouds 4 1018 80 0 8.2 190 23:42 14.02.2020
2579 Clouds 4 1019 80 0 4.1 180 23:20 14.02.2020
2580 Clouds 4 1019 80 0 5.7 200 22:44 14.02.2020
2581 Clouds 4 1019 75 0 4.6 190 22:24 14.02.2020
2582 Clouds 4 1019 80 0 5.7 200 21:54 14.02.2020
2583 Clouds 4 1020 80 10000 5.1 190 21:36 14.02.2020
2584 Clouds 4 1019 75 0 5.7 200 21:18 14.02.2020
2585 Clouds 4 1020 80 0 4.6 210 20:42 14.02.2020
2586 Clouds 5 1020 80 0 3.6 200 20:19 14.02.2020
2587 Clouds 5 1020 75 0 4.1 210 19:56 14.02.2020
2588 Clouds 5 1020 80 10000 4.1 220 19:38 14.02.2020
2589 Clouds 5 1019 80 0 3.1 180 19:18 14.02.2020
2590 Clouds 5 1019 75 0 4.1 230 18:55 14.02.2020
2591 Clouds 5 1020 80 10000 3.1 230 18:37 14.02.2020
2592 Clouds 5 1019 80 10000 2.1 180 18:18 14.02.2020
2593 Clouds 5 1019 80 0 2.6 200 17:42 14.02.2020
2594 Clouds 5 1019 80 10000 2.6 200 17:20 14.02.2020
2595 Clouds 5 1018 80 0 2.6 190 16:57 14.02.2020
2596 Clouds 5 1018 80 10000 1.5 200 16:39 14.02.2020
2597 Clouds 5 1018 80 10000 2.1 200 16:20 14.02.2020
2598 Clouds 5 1018 80 0 2.1 190 15:56 14.02.2020
2599 Clouds 5 1018 75 10000 1 0 15:37 14.02.2020
2600 Clouds 5 1018 75 10000 1 0 15:37 14.02.2020
2601 Clouds 5 1018 80 10000 1.5 250 15:19 14.02.2020
2602 Clouds 5 1018 80 10000 1.5 250 15:19 14.02.2020
2603 Clouds 5 1018 80 0 1.5 300 14:56 14.02.2020
2604 Clouds 5 1018 75 10000 3.1 270 14:38 14.02.2020
2605 -273 0 0 0 0 0 14:19 14.02.2020
2606 Clouds 5 1017 80 0 1 0 13:40 14.02.2020
2607 Clouds 5 1017 80 10000 1.68 136 13:21 14.02.2020
2608 Clouds 5 1017 80 0 1 10 12:58 14.02.2020
2609 Clouds 5 1017 75 10000 2.1 340 12:39 14.02.2020
2610 Clouds 5 1016 80 10000 1 200 12:21 14.02.2020
2611 Clouds 5 1016 80 0 1.5 0 11:58 14.02.2020
2612 Clouds 5 1016 86 10000 2.1 310 11:40 14.02.2020
2613 Clouds 5 1015 86 10000 0.5 0 11:20 14.02.2020
2614 Clouds 5 1015 86 10000 0.5 0 11:20 14.02.2020
2615 Clouds 4 1015 93 0 1 60 10:55 14.02.2020
2616 Clouds 4 1015 93 9000 1.5 10 10:37 14.02.2020
2617 Clouds 4 1014 86 10000 2.1 70 10:19 14.02.2020
2618 Clouds 4 1013 93 0 1.5 60 09:40 14.02.2020
2619 Clouds 4 1013 93 10000 3.1 40 09:20 14.02.2020
2620 Clouds 3 1012 100 7000 2.1 360 08:44 14.02.2020
2621 Clouds 3 1012 93 10000 2.1 20 08:25 14.02.2020
2622 Rain 3 1011 100 0 4.1 40 07:57 14.02.2020
2623 Clouds 3 1011 93 6000 2.6 40 07:38 14.02.2020
2624 Clouds 3 1010 93 6000 1 320 07:19 14.02.2020
2625 Rain 3 1009 93 0 3.1 10 06:30 14.02.2020
2626 Rain 3 1008 93 0 3.1 60 05:47 14.02.2020
2627 Clouds 3 1007 93 0 2.6 80 04:47 14.02.2020
2628 Clouds 3 1007 93 7000 2.6 50 03:29 14.02.2020
2629 Clouds 3 1005 93 5000 3.6 70 02:32 14.02.2020
2630 Drizzle 2 1003 93 5000 1 100 01:28 14.02.2020
2631 Rain 2 1003 93 0 2.1 150 00:43 14.02.2020
2632 Rain 2 1003 93 0 2.1 150 00:43 14.02.2020
2633 Clouds 2 1002 93 8000 1.5 100 00:23 14.02.2020
2634 Rain 2 1002 93 0 3.6 130 23:46 13.02.2020
2635 Drizzle 2 1002 93 8000 4.1 100 23:22 13.02.2020
2636 Rain 2 1001 93 0 4.1 130 22:56 13.02.2020
2637 Clouds 2 1001 93 10000 3.1 130 22:37 13.02.2020
2638 Drizzle 2 1001 93 8000 5.1 110 22:18 13.02.2020
2639 Rain 3 1001 93 0 4.6 140 21:41 13.02.2020
2640 Rain 2 1001 93 8000 4.6 110 21:23 13.02.2020
2641 Rain 2 1000 93 0 5.1 140 20:58 13.02.2020
2642 Rain 2 1000 93 9000 3.6 120 20:40 13.02.2020
2643 Rain 2 1000 93 8000 4.6 120 20:22 13.02.2020
2644 Rain 3 1000 93 0 5.1 130 19:56 13.02.2020
2645 Clouds 3 999 93 7000 5.7 120 19:37 13.02.2020
2646 Clouds 3 999 93 7000 5.7 120 19:37 13.02.2020
2647 Rain 3 1000 93 8000 4.6 120 19:19 13.02.2020
2648 Rain 3 1000 93 0 5.1 130 18:55 13.02.2020
2649 Rain 3 999 93 8000 6.2 120 18:37 13.02.2020
2650 Rain 3 1000 93 8000 5.1 120 18:19 13.02.2020
2651 Rain 3 1000 93 0 5.7 140 17:54 13.02.2020
2652 Rain 3 999 93 10000 5.1 110 17:36 13.02.2020
2653 Rain 3 1001 93 10000 6.7 140 17:18 13.02.2020
2654 Rain 4 1000 86 0 4.1 140 16:40 13.02.2020
2655 Rain 4 1001 93 10000 6.7 130 16:20 13.02.2020
2656 Rain 4 1001 86 0 4.6 140 15:57 13.02.2020
2657 Rain 4 1001 86 8000 6.2 130 15:39 13.02.2020
2658 Rain 4 1002 93 10000 5.7 130 15:19 13.02.2020
2659 Rain 4 1002 80 0 5.1 160 14:58 13.02.2020
2660 Rain 4 1002 93 10000 4.6 140 14:39 13.02.2020
2661 Clouds 4 1003 86 10000 4.6 130 14:21 13.02.2020
2662 Clouds 4 1003 86 0 4.6 150 13:48 13.02.2020
2663 Clouds 4 1004 86 10000 5.1 150 13:19 13.02.2020
2664 Clouds 4 1004 80 0 5.1 170 12:57 13.02.2020
2665 Clouds 4 1004 80 10000 5.1 160 12:38 13.02.2020
2666 Clouds 3 1005 80 10000 3.1 170 12:20 13.02.2020
2667 Clouds 3 1005 86 0 5.1 190 11:55 13.02.2020
2668 Clouds 3 1005 86 10000 5.1 170 11:37 13.02.2020
2669 Clouds 3 1005 93 10000 4.1 180 11:18 13.02.2020
2670 Clouds 3 1005 86 0 5.1 190 10:41 13.02.2020
2671 Clouds 2 1006 86 10000 2.6 200 10:22 13.02.2020
2672 Clouds 2 1006 93 0 6.2 200 09:44 13.02.2020
2673 Clouds 2 1006 86 10000 3.6 200 09:23 13.02.2020
2674 Clouds 2 1007 86 0 5.7 210 08:47 13.02.2020
2675 Clouds 2 1007 86 10000 4.1 210 08:20 13.02.2020
2676 Clear 2 1007 93 0 5.7 210 07:44 13.02.2020
2677 Clear 2 1007 93 0 5.7 210 07:44 13.02.2020
2678 Clouds 2 1007 86 10000 3.6 220 07:24 13.02.2020
2679 Clouds 2 1007 86 10000 3.6 220 07:24 13.02.2020
2680 Clear 2 1007 90 0 5.1 240 06:56 13.02.2020
2681 Clouds 2 1008 93 10000 5.1 220 06:38 13.02.2020
2682 Clear 3 1007 86 0 6.2 250 05:56 13.02.2020
2683 Clear 3 1007 86 0 4.1 240 05:20 13.02.2020
2684 Clear 3 1006 82 0 3.1 240 04:24 13.02.2020
2685 Clear 3 1007 82 0 10.3 260 03:45 13.02.2020
2686 Clear 3 1006 80 0 8.7 270 02:59 13.02.2020
2687 Clear 3 1006 80 0 8.7 270 02:59 13.02.2020
2688 Clear 3 1006 80 0 8.7 270 02:41 13.02.2020
2689 Rain 4 1006 80 0 7.2 280 02:18 13.02.2020
2690 Clouds 4 1008 77 10000 10.3 260 01:27 13.02.2020
2691 Clouds 4 1007 77 10000 8.7 270 00:32 13.02.2020
2692 Clouds 4 1005 80 0 15.9 280 23:58 12.02.2020
2693 Clouds 4 1006 80 9000 9.8 270 23:37 12.02.2020
2694 Rain 4 1004 86 0 6.2 280 23:18 12.02.2020
2695 Rain 4 1004 100 0 13.4 290 22:44 12.02.2020
2696 Rain 4 1004 86 0 7.2 260 22:24 12.02.2020
2697 Rain 3 1004 93 0 13.9 300 21:58 12.02.2020
2698 Rain 3 1003 86 0 9.3 250 21:39 12.02.2020
2699 Rain 4 1003 93 0 9.3 250 21:19 12.02.2020
2700 Rain 4 1003 93 0 13.9 280 20:56 12.02.2020
2701 Rain 3 1005 78 10000 9.8 260 20:37 12.02.2020
2702 Rain 4 1002 80 0 8.2 260 20:18 12.02.2020
2703 Rain 4 1002 80 0 8.2 260 20:18 12.02.2020
2704 Clouds 4 1003 93 0 17 290 19:44 12.02.2020
2705 Rain 4 1002 86 5000 6.7 270 19:23 12.02.2020
2706 Clouds 4 1002 80 0 12.3 270 18:55 12.02.2020
2707 Clouds 5 1004 79 10000 10.3 260 18:37 12.02.2020
2708 Rain 5 1001 80 10000 7.7 260 18:18 12.02.2020
2709 Clouds 5 1001 75 0 15.9 270 17:42 12.02.2020
2710 Clouds 5 1003 80 10000 13.4 270 17:20 12.02.2020
2711 Clouds 5 1003 80 10000 13.4 270 17:20 12.02.2020
2712 Rain 5 1000 75 0 18 280 16:59 12.02.2020
2713 Clouds 5 1002 70 10000 13.9 270 16:39 12.02.2020
2714 Rain 6 999 75 10000 8.7 270 16:19 12.02.2020
2715 Rain 6 1000 86 0 17.5 290 15:41 12.02.2020
2716 Rain 6 999 86 10000 7.2 270 15:23 12.02.2020
2717 Rain 5 999 81 0 15.9 290 14:57 12.02.2020
2718 Rain 5 998 80 10000 9.8 270 14:39 12.02.2020
2719 Rain 5 998 86 8000 11.3 280 14:19 12.02.2020
2720 Rain 5 998 93 0 13.9 280 13:56 12.02.2020
2721 Clouds 5 1000 80 8000 16.5 280 13:38 12.02.2020
2722 Rain 5 997 93 10000 7.2 290 13:19 12.02.2020
2723 Rain 5 997 81 0 18.5 280 12:57 12.02.2020
2724 Clouds 5 999 80 10000 13.9 270 12:38 12.02.2020
2725 Rain 5 996 86 6000 9.3 280 12:18 12.02.2020
2726 Rain 5 997 93 0 18 290 11:56 12.02.2020
2727 Clouds 4 998 80 10000 14.4 260 11:38 12.02.2020
2728 Rain 4 995 86 8000 8.2 260 11:20 12.02.2020
2729 Rain 4 995 80 10000 8.2 270 10:55 12.02.2020
2730 Rain 4 998 86 6000 14.9 270 10:36 12.02.2020
2731 Clouds 4 997 86 10000 12.9 270 10:18 12.02.2020
2732 Clouds 4 997 86 10000 12.9 270 10:18 12.02.2020
2733 Snow 4 997 93 7000 14.9 270 09:42 12.02.2020
2734 Rain 4 995 80 0 17 280 09:42 12.02.2020
2735 Snow 4 997 93 6000 12.9 270 09:22 12.02.2020
2736 Rain 4 994 86 0 14.4 270 08:58 12.02.2020
2737 Snow 4 996 86 6000 14.9 270 08:38 12.02.2020
2738 Snow 4 996 86 6000 14.9 270 08:38 12.02.2020
2739 Clouds 4 992 80 10000 10.8 250 08:19 12.02.2020
2740 Clouds 4 992 80 10000 10.8 250 08:19 12.02.2020
2741 Clouds 4 994 93 0 16.5 270 07:44 12.02.2020
2742 Rain 4 993 80 0 10.3 260 07:24 12.02.2020
2743 Clouds 4 993 86 0 13.9 290 06:57 12.02.2020
2744 Clouds 4 993 86 0 13.9 290 06:57 12.02.2020
2745 Rain 4 992 80 10000 11.3 260 06:24 12.02.2020
2746 Clouds 4 993 80 0 15.9 270 05:44 12.02.2020
2747 Snow 4 993 86 0 16.5 290 04:59 12.02.2020
2748 Snow 4 995 79 10000 12.3 260 04:40 12.02.2020
2749 Snow 4 993 75 0 17.5 280 03:42 12.02.2020
2750 Snow 4 992 80 0 10.3 250 03:23 12.02.2020
2751 Snow 4 992 80 0 7.2 250 02:31 12.02.2020
2752 Rain 4 993 80 0 14.4 280 01:59 12.02.2020
2753 Snow 3 993 86 0 9.3 270 00:58 12.02.2020
2754 Clouds 3 991 80 10000 9.8 260 00:39 12.02.2020
2755 Clouds 3 994 79 10000 9.8 260 00:21 12.02.2020
2756 Snow 3 992 86 0 9.3 260 23:45 11.02.2020
2757 Snow 3 992 79 0 6.2 250 23:27 11.02.2020
2758 Snow 3 992 80 0 12.3 280 22:56 11.02.2020
2759 Snow 3 994 77 5000 12.3 260 22:38 11.02.2020
2760 Clouds 3 991 86 6000 9.3 250 22:20 11.02.2020
2761 Snow 4 992 80 0 11.8 260 21:56 11.02.2020
2762 Snow 4 994 77 10000 10.3 250 21:38 11.02.2020
2763 Rain 4 991 80 10000 9.8 260 21:18 11.02.2020
2764 Rain 4 991 80 10000 9.8 260 21:18 11.02.2020
2765 Snow 4 992 80 0 13.9 280 20:57 11.02.2020
2766 Snow 4 994 77 10000 14.4 260 20:38 11.02.2020
2767 Rain 4 990 77 8000 10.8 260 20:19 11.02.2020
2768 Rain 4 991 75 0 14.9 280 19:54 11.02.2020
2769 -273 0 0 0 0 0 19:36 11.02.2020
2770 Clouds 4 990 77 10000 9.8 260 19:18 11.02.2020
2771 Rain 4 990 75 0 19 280 18:43 11.02.2020
2772 Rain 4 990 86 5000 8.2 280 18:25 11.02.2020
2773 Rain 4 990 86 0 17.5 290 17:56 11.02.2020
2774 Rain 4 990 86 0 17.5 290 17:56 11.02.2020
2775 Rain 4 991 80 2800 11.8 280 17:38 11.02.2020
2776 Rain 4 991 86 4000 13.9 270 17:18 11.02.2020
2777 Rain 4 989 86 0 17.5 290 16:58 11.02.2020
2778 Clouds 4 991 86 4000 14.9 280 16:38 11.02.2020
2779 Rain 4 991 93 4500 14.4 270 16:20 11.02.2020
2780 Rain 4 988 86 0 13.9 280 15:57 11.02.2020
2781 Clouds 5 990 80 5000 12.3 260 15:38 11.02.2020
2782 Rain 5 990 86 5000 12.3 250 15:18 11.02.2020
2783 Rain 5 986 81 10000 8.7 260 14:41 11.02.2020
2784 Clouds 5 986 75 10000 10.3 260 14:19 11.02.2020
2785 Rain 5 987 86 0 17 280 13:55 11.02.2020
2786 Clouds 5 988 86 10000 12.9 260 13:37 11.02.2020
2787 Clouds 5 989 80 9000 11.3 250 13:18 11.02.2020
2788 Rain 5 986 86 0 15.9 280 12:41 11.02.2020
2789 Rain 5 985 75 10000 9.3 260 12:22 11.02.2020
2790 Rain 5 985 75 10000 9.3 260 12:22 11.02.2020
2791 Rain 5 986 75 0 15.4 280 11:59 11.02.2020
2792 Rain 5 988 86 2500 10.8 260 11:40 11.02.2020
2793 Clouds 5 987 80 10000 13.9 270 11:19 11.02.2020
2794 Clouds 5 987 80 10000 13.9 270 11:19 11.02.2020
2795 Rain 5 985 81 0 14.9 280 10:54 11.02.2020
2796 Clouds 5 987 80 10000 11.3 260 10:36 11.02.2020
2797 Rain 5 986 75 8000 14.4 260 10:18 11.02.2020
2798 Rain 5 984 80 0 15.9 290 09:43 11.02.2020
2799 Rain 5 986 80 5000 10.3 260 09:22 11.02.2020
2800 Rain 4 983 86 0 14.9 280 08:56 11.02.2020
2801 Clouds 4 985 86 8000 10.8 270 08:38 11.02.2020
2802 Rain 4 985 86 8000 13.4 280 08:19 11.02.2020
2803 Clouds 4 984 86 10000 12.3 260 07:45 11.02.2020
2804 Rain 4 984 86 10000 15.4 270 07:19 11.02.2020
2805 Rain 4 983 93 0 8.7 260 06:42 11.02.2020
2806 Rain 3 981 93 10000 6.7 240 06:20 11.02.2020
2807 Rain 3 983 80 0 9.3 260 05:47 11.02.2020
2808 Rain 3 983 86 0 4.1 230 05:21 11.02.2020
2809 Snow 3 985 80 10000 10.3 260 04:36 11.02.2020
2810 Snow 4 983 86 0 13.9 280 02:41 11.02.2020
2811 Snow 4 983 86 0 4.6 250 02:23 11.02.2020
2812 Snow 4 984 86 10000 8.2 240 01:35 11.02.2020
2813 Snow 4 984 80 10000 9.3 230 00:38 11.02.2020
2814 Snow 5 982 86 0 12.3 250 23:53 10.02.2020
2815 Snow 5 984 80 10000 9.3 230 23:33 10.02.2020
2816 Rain 5 982 81 0 9.3 240 22:58 10.02.2020
2817 Rain 6 984 80 10000 8.7 220 22:40 10.02.2020
2818 Rain 5 983 75 0 5.1 220 22:20 10.02.2020
2819 Rain 5 984 70 0 8.2 240 21:45 10.02.2020
2820 Rain 5 983 70 0 6.2 240 21:25 10.02.2020
2821 Rain 5 984 70 0 12.3 260 20:58 10.02.2020
2822 Rain 5 984 70 0 12.3 260 20:58 10.02.2020
2823 Rain 5 984 70 0 6.7 240 20:39 10.02.2020
2824 Rain 5 985 80 0 6.2 240 20:21 10.02.2020
2825 Rain 5 986 80 0 11.8 260 19:59 10.02.2020
2826 Rain 5 987 75 10000 9.8 250 19:39 10.02.2020
2827 Rain 5 985 75 0 6.2 240 19:19 10.02.2020
2828 Rain 5 986 86 0 20.1 270 18:59 10.02.2020
2829 Rain 5 986 86 0 20.1 270 18:40 10.02.2020
2830 Rain 5 986 80 10000 7.2 260 18:21 10.02.2020
2831 Rain 5 986 80 0 14.9 270 17:58 10.02.2020
2832 Rain 5 988 70 10000 12.3 260 17:39 10.02.2020
2833 Rain 5 988 70 10000 12.3 260 17:39 10.02.2020
2834 Rain 5 985 75 10000 8.2 260 17:20 10.02.2020
2835 Rain 5 986 75 0 14.9 270 16:59 10.02.2020
2836 Rain 5 987 80 10000 11.8 260 16:40 10.02.2020
2837 Clouds 6 984 70 10000 10.8 260 16:20 10.02.2020
2838 Rain 6 985 75 0 17.5 280 15:58 10.02.2020
2839 Rain 6 984 70 10000 10.8 250 15:39 10.02.2020
2840 Rain 6 984 70 10000 9.8 260 15:20 10.02.2020
2841 Rain 6 984 75 0 18 280 14:56 10.02.2020
2842 Rain 6 986 75 6000 14.4 260 14:38 10.02.2020
2843 Rain 6 983 81 10000 9.3 270 14:19 10.02.2020
2844 Rain 6 983 75 0 19.5 280 13:44 10.02.2020
2845 Rain 5 985 80 8000 17.5 270 13:25 10.02.2020
2846 Rain 6 982 87 0 17 280 12:57 10.02.2020
2847 Clouds 6 984 75 10000 13.4 280 12:38 10.02.2020
2848 Rain 6 981 75 10000 9.3 260 12:20 10.02.2020
2849 Rain 6 981 87 0 15.9 290 11:45 10.02.2020
2850 Clouds 6 982 87 10000 12.3 270 11:21 10.02.2020
2851 Rain 6 979 87 0 18.5 280 10:49 10.02.2020
2852 Rain 6 978 87 8000 9.3 270 10:31 10.02.2020
2853 Rain 6 978 87 0 14.4 270 09:56 10.02.2020
2854 Clouds 6 980 81 10000 11.8 270 09:37 10.02.2020
2855 Rain 7 980 81 4000 10.8 250 09:18 10.02.2020
2856 Clouds 6 979 81 10000 12.3 260 08:40 10.02.2020
2857 Clouds 6 976 75 10000 9.3 250 08:21 10.02.2020
2858 Rain 7 976 87 0 17.5 280 07:55 10.02.2020
2859 Clouds 7 978 87 8000 12.9 260 07:35 10.02.2020
2860 Rain 7 976 81 0 14.4 270 06:50 10.02.2020
2861 Clouds 8 977 81 8000 11.8 260 05:35 10.02.2020
2862 Rain 7 974 87 0 14.9 260 03:55 10.02.2020
2863 Clouds 7 973 87 10000 10.3 250 03:22 10.02.2020
2864 Rain 7 974 87 0 13.4 260 02:44 10.02.2020
2865 Rain 9 974 81 0 7.2 230 01:25 10.02.2020
2866 Rain 9 975 81 0 9.8 250 00:45 10.02.2020
2867 Rain 9 974 81 0 7.7 230 00:27 10.02.2020
2868 Rain 9 975 87 0 7.2 230 23:43 09.02.2020
2869 Rain 8 976 81 0 7.7 240 23:24 09.02.2020
2870 Rain 8 977 81 0 13.4 250 22:57 09.02.2020
2871 Rain 8 978 87 2000 9.8 230 22:37 09.02.2020
2872 Rain 7 977 87 0 8.2 220 22:19 09.02.2020
2873 Rain 7 980 87 150 12.9 250 21:41 09.02.2020
2874 Rain 8 978 81 0 10.8 250 21:22 09.02.2020
2875 Rain 10 977 87 0 17.5 220 20:46 09.02.2020
2876 Rain 10 977 81 4000 11.8 200 20:23 09.02.2020
2877 Rain 10 978 87 0 16.5 210 19:57 09.02.2020
2878 Rain 10 978 87 0 16.5 210 19:57 09.02.2020
2879 Rain 10 980 87 1900 15.4 210 19:38 09.02.2020
2880 Rain 10 979 87 7000 10.8 190 19:20 09.02.2020
2881 Rain 9 980 93 0 13.9 210 18:42 09.02.2020
2882 Rain 9 981 87 5000 9.8 200 18:24 09.02.2020
2883 Rain 10 982 87 0 12.9 210 17:59 09.02.2020
2884 Rain 10 982 87 8000 10.8 200 17:39 09.02.2020
2885 Rain 10 982 87 8000 10.8 200 17:39 09.02.2020
2886 Rain 10 983 76 6000 11.8 210 17:21 09.02.2020
2887 Rain 10 984 76 0 14.4 220 16:44 09.02.2020
2888 Rain 11 984 62 10000 13.9 200 16:24 09.02.2020
2889 Rain 10 985 62 0 15.9 210 15:59 09.02.2020
2890 Rain 10 985 62 0 15.9 210 15:41 09.02.2020
2891 Clouds 10 986 71 10000 9.8 190 15:22 09.02.2020
2892 Rain 10 988 76 0 13.4 210 14:57 09.02.2020
2893 Rain 9 988 76 10000 9.3 190 14:39 09.02.2020
2894 Rain 9 989 76 0 8.7 190 14:21 09.02.2020
2895 Rain 8 991 81 0 10.8 200 13:44 09.02.2020
2896 Rain 8 992 81 0 9.3 180 13:26 09.02.2020
2897 Rain 8 993 81 0 12.9 200 12:56 09.02.2020
2898 Rain 8 996 81 9000 11.8 190 12:38 09.02.2020
2899 Rain 8 995 81 0 10.3 180 12:19 09.02.2020
2900 Rain 7 997 87 0 12.3 190 11:41 09.02.2020
2901 Rain 8 999 81 0 9.3 200 11:22 09.02.2020
2902 Rain 8 1000 87 0 10.3 200 10:59 09.02.2020
2903 Rain 8 1000 87 0 10.3 200 10:41 09.02.2020
2904 Rain 7 1001 81 0 7.2 190 10:21 09.02.2020
2905 Rain 8 1002 87 0 9.3 200 09:46 09.02.2020
2906 Rain 8 1001 87 8000 12.3 200 09:27 09.02.2020
2907 Rain 8 1004 81 0 8.7 210 08:54 09.02.2020
2908 Rain 7 1006 87 10000 8.7 200 08:36 09.02.2020
2909 Clouds 7 1005 81 0 5.7 180 08:18 09.02.2020
2910 Clouds 7 1006 87 0 7.7 200 07:44 09.02.2020
2911 Clouds 7 1007 87 0 7.7 200 06:54 09.02.2020
2912 Clouds 7 1009 87 8000 7.7 190 06:36 09.02.2020
2913 Clouds 7 1009 87 0 6.7 210 05:45 09.02.2020
2914 Clouds 7 1010 87 0 5.1 200 05:20 09.02.2020
2915 Clouds 7 1012 87 0 8.2 230 03:58 09.02.2020
2916 Clouds 7 1012 87 0 7.2 230 02:47 09.02.2020
2917 Clouds 6 1013 87 0 3.1 200 02:27 09.02.2020
2918 Rain 6 1014 93 7000 5.1 210 01:35 09.02.2020
2919 Clouds 6 1013 93 0 5.7 210 00:55 09.02.2020
2920 Clouds 6 1014 93 0 3.1 200 00:29 09.02.2020
2921 Clouds 7 1014 93 0 4.6 220 23:48 08.02.2020
2922 Mist 7 1015 93 0 3.1 220 23:24 08.02.2020
2923 Rain 7 1015 93 0 5.7 240 22:58 08.02.2020
2924 Rain 7 1015 93 0 3.1 230 22:39 08.02.2020
2925 Drizzle 7 1015 93 0 3.6 220 22:20 08.02.2020
2926 Rain 7 1015 93 0 6.2 240 21:45 08.02.2020
2927 Clouds 6 1015 87 8000 4.1 200 21:26 08.02.2020
2928 Rain 6 1015 93 0 6.2 210 20:59 08.02.2020
2929 Drizzle 6 1015 93 0 4.6 200 20:40 08.02.2020
2930 Rain 7 1015 93 0 4.1 200 20:19 08.02.2020
2931 Rain 6 1015 87 0 6.2 210 19:56 08.02.2020
2932 Rain 7 1016 75 6000 5.1 200 19:38 08.02.2020
2933 Rain 6 1015 75 0 2.6 180 19:19 08.02.2020
2934 Rain 6 1015 75 0 2.6 180 19:19 08.02.2020
2935 Rain 7 1015 81 0 6.2 190 18:55 08.02.2020
2936 Rain 7 1016 75 10000 5.7 190 18:37 08.02.2020
2937 Rain 6 1015 75 0 3.6 190 18:19 08.02.2020
2938 Rain 6 1015 81 0 4.1 180 17:41 08.02.2020
2939 Clouds 6 1015 81 0 2.6 170 17:19 08.02.2020
2940 Clouds 6 1016 81 0 4.1 200 16:41 08.02.2020
2941 Clouds 6 1016 75 0 3.1 190 16:23 08.02.2020
2942 Clouds 6 1016 75 0 3.1 190 16:23 08.02.2020
2943 Clouds 6 1016 75 0 3.6 200 15:58 08.02.2020
2944 Clouds 6 1016 75 0 3.6 200 15:39 08.02.2020
2945 Clouds 6 1016 75 0 3.6 200 15:18 08.02.2020
2946 Clouds 6 1016 75 0 3.6 200 15:18 08.02.2020
2947 Clouds 6 1016 75 0 4.6 200 14:44 08.02.2020
2948 Clouds 6 1017 75 10000 3.6 200 14:22 08.02.2020
2949 Clouds 6 1017 75 0 4.6 210 13:58 08.02.2020
2950 Clouds 6 1017 75 0 4.6 210 13:40 08.02.2020
2951 Clouds 5 1017 75 10000 2.6 180 13:21 08.02.2020
2952 Clouds 5 1017 77 0 4.6 210 12:41 08.02.2020
2953 Clouds 4 1017 75 10000 3.1 190 12:23 08.02.2020
2954 Clouds 4 1018 77 0 4.6 190 11:56 08.02.2020
2955 Clouds 4 1018 77 10000 4.1 180 11:38 08.02.2020
2956 Clouds 4 1018 82 10000 3.1 190 11:20 08.02.2020
2957 Clouds 3 1018 82 0 5.7 200 10:42 08.02.2020
2958 Clouds 3 1018 82 9000 3.6 180 10:22 08.02.2020
2959 Clouds 3 1018 82 9000 3.6 180 10:22 08.02.2020
2960 Clouds 3 1018 82 0 6.2 190 09:53 08.02.2020
2961 Clouds 2 1018 82 8000 4.6 170 09:28 08.02.2020
2962 Clouds 2 1018 82 0 5.7 180 08:55 08.02.2020
2963 Clouds 1 1018 86 10000 4.6 160 08:37 08.02.2020
2964 Clear 1 1017 92 10000 4.1 150 08:19 08.02.2020
2965 Clear 1 1018 92 0 5.7 180 07:45 08.02.2020
2966 Clear 1 1018 92 0 5.7 180 07:45 08.02.2020
2967 Clouds 1 1018 92 9000 3.6 150 07:23 08.02.2020
2968 Clouds 2 1019 92 9000 3.1 150 06:30 08.02.2020
2969 Clear 2 1019 93 0 4.6 170 05:48 08.02.2020
2970 Clear 2 1020 86 0 5.1 150 05:30 08.02.2020
2971 Clear 3 1019 86 0 3.6 170 04:50 08.02.2020
2972 Clear 3 1020 86 0 4.1 160 03:53 08.02.2020
2973 Clear 3 1021 80 0 4.6 170 02:57 08.02.2020
2974 Clear 4 1022 80 0 5.1 170 02:20 08.02.2020
2975 Clear 4 1022 86 0 6.2 160 01:26 08.02.2020
2976 Clear 4 1022 80 0 4.6 170 00:45 08.02.2020
2977 Clear 5 1023 86 0 4.6 160 00:23 08.02.2020
2978 Clear 5 1023 86 0 4.6 160 23:56 07.02.2020
2979 Clear 5 1023 80 10000 5.1 160 23:37 07.02.2020
2980 Clear 5 1024 86 0 4.1 170 23:19 07.02.2020
2981 Clear 5 1023 86 0 5.1 170 22:41 07.02.2020
2982 Clouds 5 1024 86 10000 4.6 170 22:41 07.02.2020
2983 Clouds 5 1024 86 10000 4.6 170 22:19 07.02.2020
2984 Clear 5 1024 86 0 4.1 180 21:44 07.02.2020
2985 Clouds 5 1024 86 10000 4.6 160 21:23 07.02.2020
2986 Clear 5 1025 86 0 4.1 180 20:59 07.02.2020
2987 Clear 5 1025 80 10000 5.7 170 20:39 07.02.2020
2988 Clouds 5 1025 81 10000 4.1 150 20:18 07.02.2020
2989 Clouds 5 1025 81 0 5.7 170 19:43 07.02.2020
2990 Clouds 5 1025 81 10000 3.6 160 19:22 07.02.2020
2991 Clouds 6 1025 81 0 3.6 160 18:59 07.02.2020
2992 Clouds 6 1025 81 0 3.6 160 18:41 07.02.2020
2993 Clouds 6 1026 81 10000 3.6 150 18:23 07.02.2020
2994 Clouds 6 1026 81 0 3.6 170 17:44 07.02.2020
2995 Clouds 6 1026 81 0 3.6 170 17:44 07.02.2020
2996 Clouds 6 1026 81 10000 3.1 160 17:22 07.02.2020
2997 Clouds 6 1026 81 10000 3.1 160 17:22 07.02.2020
2998 Clouds 6 1026 81 0 3.1 160 16:59 07.02.2020
2999 Clouds 6 1026 81 0 3.1 160 16:41 07.02.2020
3000 Clouds 6 1027 87 10000 2.6 150 16:22 07.02.2020
3001 Clouds 6 1027 87 0 3.6 160 15:53 07.02.2020
3002 Clouds 6 1027 87 10000 1.5 160 15:28 07.02.2020
3003 Clouds 6 1027 87 0 2.1 220 14:55 07.02.2020
3004 Clouds 6 1027 81 10000 3.1 180 14:37 07.02.2020
3005 Clouds 6 1028 87 10000 1 170 14:19 07.02.2020
3006 Clouds 6 1028 87 0 2.1 200 13:56 07.02.2020
3007 Clouds 6 1028 81 10000 1.5 200 13:38 07.02.2020
3008 Clouds 6 1028 87 10000 1 190 13:18 07.02.2020
3009 Clouds 6 1028 87 0 2.1 200 12:41 07.02.2020
3010 Clouds 6 1029 87 10000 2.1 210 12:23 07.02.2020
3011 Clouds 6 1029 93 0 1.5 0 11:45 07.02.2020
3012 Clouds 6 1029 93 10000 1.5 210 11:23 07.02.2020
3013 Clouds 5 1029 100 0 1 210 10:58 07.02.2020
3014 Drizzle 5 1029 93 10000 2.1 200 10:38 07.02.2020
3015 Clouds 5 1029 100 8000 1 170 10:19 07.02.2020
3016 Clouds 5 1029 100 0 0.5 0 09:41 07.02.2020
3017 Mist 5 1029 93 2800 1 170 09:23 07.02.2020
3018 Clouds 5 1029 93 0 1 300 08:50 07.02.2020
3019 Mist 5 1029 93 2800 0.5 150 08:24 07.02.2020
3020 Clouds 5 1028 100 0 2.1 300 07:55 07.02.2020
3021 Drizzle 5 1029 93 2800 0.5 250 07:37 07.02.2020
3022 Fog 5 1028 100 800 0.5 330 07:18 07.02.2020
3023 Clouds 5 1028 100 0 4.1 290 06:42 07.02.2020
3024 Rain 5 1028 100 0 2.1 270 06:21 07.02.2020
3025 Clouds 5 1028 93 10000 3.1 300 05:39 07.02.2020
3026 Clouds 5 1028 100 0 4.6 340 03:55 07.02.2020
3027 Rain 6 1028 93 0 2.6 280 02:24 07.02.2020
3028 Clouds 6 1028 93 0 2.1 290 01:22 07.02.2020
3029 Clouds 6 1028 93 10000 3.1 280 00:37 07.02.2020
3030 Clouds 6 1028 93 10000 3.1 290 23:39 06.02.2020
3031 Clouds 6 1028 93 10000 3.1 290 23:39 06.02.2020
3032 Mist 6 1027 93 4000 3.1 290 23:20 06.02.2020
3033 Clouds 6 1028 93 0 5.1 310 22:58 06.02.2020
3034 Clouds 6 1028 93 8000 4.1 270 22:40 06.02.2020
3035 Clouds 6 1028 93 10000 3.6 270 22:21 06.02.2020
3036 Clouds 6 1028 93 9000 4.1 310 21:37 06.02.2020
3037 Clouds 6 1027 93 10000 4.6 290 21:19 06.02.2020
3038 Clouds 6 1027 93 0 6.7 300 20:56 06.02.2020
3039 Clouds 6 1027 93 9000 4.6 280 20:37 06.02.2020
3040 Clouds 6 1027 93 10000 5.1 280 20:18 06.02.2020
3041 Clear 6 1027 93 0 7.2 310 19:58 06.02.2020
3042 Clouds 6 1027 93 9000 5.1 290 19:39 06.02.2020
3043 Clouds 6 1026 87 10000 4.6 280 19:20 06.02.2020
3044 Clear 6 1026 93 0 7.7 290 18:57 06.02.2020
3045 Drizzle 6 1027 93 8000 5.1 290 18:38 06.02.2020
3046 Clouds 6 1027 87 10000 6.2 290 18:19 06.02.2020
3047 Clear 7 1027 87 0 7.7 310 17:42 06.02.2020
3048 Clouds 7 1026 87 10000 5.7 280 17:21 06.02.2020
3049 Clear 7 1026 87 0 8.2 310 16:57 06.02.2020
3050 Clouds 7 1027 81 10000 7.2 290 16:39 06.02.2020
3051 Clouds 7 1025 81 10000 6.2 300 16:20 06.02.2020
3052 Clouds 7 1025 81 10000 6.2 290 15:42 06.02.2020
3053 Clouds 7 1025 81 10000 5.7 290 15:21 06.02.2020
3054 Clear 8 1025 81 0 10.3 310 14:47 06.02.2020
3055 Clouds 8 1025 81 10000 5.7 280 14:26 06.02.2020
3056 Clear 8 1026 81 0 8.7 300 13:55 06.02.2020
3057 Clouds 8 1026 70 10000 7.2 280 13:36 06.02.2020
3058 Clouds 8 1025 81 10000 6.2 290 13:18 06.02.2020
3059 Clear 8 1026 87 0 8.7 310 12:43 06.02.2020
3060 Clear 8 1026 87 0 8.7 310 12:43 06.02.2020
3061 Clouds 7 1026 81 10000 5.1 290 12:18 06.02.2020
3062 Clear 7 1026 87 0 8.2 300 11:56 06.02.2020
3063 Clouds 7 1027 81 10000 6.7 280 11:37 06.02.2020
3064 Clouds 7 1026 87 10000 5.7 290 11:18 06.02.2020
3065 Clouds 7 1026 87 10000 5.7 290 11:18 06.02.2020
3066 Clear 7 1026 87 0 9.8 290 10:56 06.02.2020
3067 Clouds 7 1027 87 10000 5.7 270 10:37 06.02.2020
3068 Clouds 6 1025 87 10000 5.1 280 10:18 06.02.2020
3069 Clear 6 1026 93 0 7.7 300 09:43 06.02.2020
3070 Clear 6 1026 93 0 7.7 300 09:43 06.02.2020
3071 Drizzle 6 1026 93 8000 5.1 280 09:20 06.02.2020
3072 Clear 6 1026 93 0 8.7 290 08:47 06.02.2020
3073 Drizzle 6 1025 87 7000 3.6 270 08:25 06.02.2020
3074 Clouds 6 1026 93 0 10.3 300 07:59 06.02.2020
3075 Clouds 6 1025 87 10000 4.1 270 07:39 06.02.2020
3076 Clouds 6 1025 87 10000 4.6 270 07:21 06.02.2020
3077 Clouds 5 1025 93 0 5.1 280 06:21 06.02.2020
3078 Clouds 5 1026 87 0 7.7 300 05:48 06.02.2020
3079 Clear 5 1026 86 0 4.1 260 04:20 06.02.2020
3080 Clear 5 1026 86 0 4.1 260 03:19 06.02.2020
3081 Clear 5 1027 86 0 3.6 270 02:27 06.02.2020
3082 Clouds 5 1026 86 0 4.6 260 01:25 06.02.2020
3083 Clouds 5 1027 93 0 8.7 270 00:57 06.02.2020
3084 Clouds 5 1027 86 0 4.6 260 00:25 06.02.2020
3085 Clouds 5 1027 86 0 5.1 270 23:44 05.02.2020
3086 Clouds 5 1027 86 0 5.1 270 23:25 05.02.2020
3087 Clouds 5 1028 87 0 10.3 280 22:57 05.02.2020
3088 Clouds 5 1029 86 10000 5.7 270 22:39 05.02.2020
3089 Clouds 5 1028 86 10000 6.2 260 22:21 05.02.2020
3090 Clouds 5 1029 86 10000 6.2 270 21:42 05.02.2020
3091 Clouds 5 1030 75 10000 5.7 260 21:24 05.02.2020
3092 Clouds 5 1029 86 0 10.3 280 20:59 05.02.2020
3093 Clouds 5 1030 80 10000 6.2 260 20:38 05.02.2020
3094 Clouds 5 1028 80 10000 6.2 260 20:19 05.02.2020
3095 Clouds 5 1029 80 0 8.2 270 19:56 05.02.2020
3096 Clouds 5 1030 75 10000 6.2 260 19:38 05.02.2020
3097 Clouds 5 1029 75 10000 5.1 260 19:18 05.02.2020
3098 Clouds 5 1029 75 10000 4.6 260 18:45 05.02.2020
3099 Clouds 5 1029 80 10000 4.1 260 18:21 05.02.2020
3100 Clouds 5 1029 80 10000 4.1 260 18:21 05.02.2020
3101 Clouds 5 1029 80 10000 4.1 260 18:21 05.02.2020
3102 Clouds 5 1030 75 0 9.8 280 17:58 05.02.2020
3103 Clouds 5 1031 75 10000 5.1 250 17:37 05.02.2020
3104 Clouds 5 1030 75 10000 6.2 270 17:18 05.02.2020
3105 Clouds 6 1030 75 0 9.3 270 16:55 05.02.2020
3106 Clouds 6 1031 70 10000 7.2 270 16:37 05.02.2020
3107 Clouds 6 1030 75 10000 7.2 270 16:18 05.02.2020
3108 Clouds 6 1030 65 10000 4.6 260 15:41 05.02.2020
3109 Clouds 6 1030 65 10000 4.1 270 15:19 05.02.2020
3110 Clouds 6 1031 65 0 8.7 290 14:55 05.02.2020
3111 Clouds 6 1032 81 10000 6.2 290 14:37 05.02.2020
3112 Clouds 6 1030 70 10000 4.6 260 14:19 05.02.2020
3113 Clear 6 1031 70 0 6.7 280 13:41 05.02.2020
3114 Clear 6 1031 70 10000 3.1 270 13:22 05.02.2020
3115 Clear 6 1032 75 0 4.1 270 12:44 05.02.2020
3116 Clear 5 1031 75 10000 3.6 260 12:25 05.02.2020
3117 Clear 5 1032 75 0 5.7 280 11:59 05.02.2020
3118 Clear 5 1032 75 0 5.7 280 11:59 05.02.2020
3119 Clouds 4 1033 69 10000 2.6 230 11:40 05.02.2020
3120 Clear 3 1032 69 10000 3.6 260 11:21 05.02.2020
3121 Clear 2 1032 69 0 4.1 270 10:43 05.02.2020
3122 Clear 0 1031 69 10000 3.1 250 10:25 05.02.2020
3123 Clear 0 1031 92 0 4.1 260 09:59 05.02.2020
3124 Clear -1 1032 80 10000 1 220 09:38 05.02.2020
3125 Clear -2 1031 80 10000 4.1 250 09:20 05.02.2020
3126 Clear -2 1031 92 0 4.1 280 08:46 05.02.2020
3127 Clouds -2 1030 92 10000 1.5 200 08:24 05.02.2020
3128 Clear -2 1030 86 0 3.6 290 07:57 05.02.2020
3129 Clouds -2 1030 86 10000 1.5 300 07:36 05.02.2020
3130 Clear -2 1030 92 0 3.1 320 06:58 05.02.2020
3131 Clear -2 1029 71 10000 3.1 280 06:39 05.02.2020
3132 Clear -2 1029 71 10000 3.1 280 06:19 05.02.2020
3133 Clear -1 1028 80 0 2.6 310 05:20 05.02.2020
3134 Clear -1 1028 78 0 2.6 340 04:54 05.02.2020
3135 Clear 0 1027 78 0 2.6 350 03:58 05.02.2020
3136 Clear 0 1026 86 10000 4.1 350 02:39 05.02.2020
3137 Clear 0 1025 74 0 5.1 350 02:19 05.02.2020
3138 Clear 1 1024 74 0 7.7 360 01:25 05.02.2020
3139 Clear 1 1024 76 10000 2.6 360 00:21 05.02.2020
3140 Clear 2 1022 74 0 8.2 360 23:40 04.02.2020
3141 Clear 2 1021 81 0 8.2 350 23:19 04.02.2020
3142 Clear 2 1021 81 0 8.2 350 23:19 04.02.2020
3143 Clear 2 1021 74 0 8.2 360 22:57 04.02.2020
3144 Clear 2 1021 80 10000 6.7 340 22:39 04.02.2020
3145 Clear 3 1020 80 10000 7.7 350 22:20 04.02.2020
3146 Clear 3 1019 81 0 8.7 360 21:55 04.02.2020
3147 Clear 3 1019 74 10000 6.7 340 21:37 04.02.2020
3148 Clouds 3 1018 81 10000 9.3 340 21:18 04.02.2020
3149 Clear 4 1017 81 0 8.2 350 20:44 04.02.2020
3150 Clouds 4 1016 79 10000 9.8 330 20:22 04.02.2020
3151 Clouds 4 1016 80 0 11.8 360 19:59 04.02.2020
3152 Clouds 4 1016 80 0 11.8 360 19:41 04.02.2020
3153 Clouds 5 1015 80 10000 5.1 330 19:22 04.02.2020
3154 Clouds 5 1014 80 0 8.7 350 18:59 04.02.2020
3155 Clouds 5 1014 80 0 8.7 350 18:59 04.02.2020
3156 Clouds 5 1014 80 10000 5.7 330 18:39 04.02.2020
3157 Clouds 5 1012 75 10000 10.3 330 18:20 04.02.2020
3158 Clouds 5 1011 75 0 7.7 340 17:54 04.02.2020
3159 Clouds 5 1011 75 10000 9.3 330 17:36 04.02.2020
3160 Clouds 6 1011 75 10000 9.3 330 17:18 04.02.2020
3161 Clouds 6 1010 75 10000 7.2 310 16:38 04.02.2020
3162 Clouds 6 1008 75 10000 7.2 310 16:20 04.02.2020
3163 Clouds 6 1008 70 0 9.8 330 15:56 04.02.2020
3164 Clouds 6 1008 70 0 9.8 330 15:56 04.02.2020
3165 Clouds 6 1008 70 0 9.8 330 15:56 04.02.2020
3166 Clouds 6 1009 75 10000 9.3 320 15:38 04.02.2020
3167 Clouds 7 1007 75 10000 7.7 300 15:20 04.02.2020
3168 Clouds 6 1007 75 0 11.8 320 14:45 04.02.2020
3169 Clouds 6 1006 75 10000 5.1 290 14:26 04.02.2020
3170 Clouds 7 1006 75 0 11.3 320 13:59 04.02.2020
3171 Clouds 7 1005 75 10000 5.7 290 13:40 04.02.2020
3172 Clouds 6 1005 75 10000 6.2 290 13:22 04.02.2020
3173 Clouds 6 1005 81 0 8.7 310 12:55 04.02.2020
3174 Clouds 6 1006 75 10000 6.2 290 12:37 04.02.2020
3175 Clouds 5 1004 80 10000 4.6 280 12:18 04.02.2020
3176 Clouds 5 1004 75 0 7.2 320 11:54 04.02.2020
3177 Clouds 5 1005 80 10000 5.7 290 11:36 04.02.2020
3178 Clouds 4 1003 86 10000 2.6 270 11:18 04.02.2020
3179 Clouds 4 1003 86 10000 2.6 270 11:18 04.02.2020
3180 Clouds 4 1003 86 0 5.1 320 10:42 04.02.2020
3181 Clouds 4 1002 86 10000 3.1 290 10:22 04.02.2020
3182 Clouds 4 1002 86 0 5.7 300 09:55 04.02.2020
3183 Clouds 4 1002 86 10000 4.1 270 09:37 04.02.2020
3184 Clouds 3 1001 93 7000 3.6 320 09:18 04.02.2020
3185 Clouds 3 1001 86 0 6.2 270 08:42 04.02.2020
3186 Clouds 3 1000 93 10000 3.1 230 08:24 04.02.2020
3187 Clouds 3 1000 86 0 6.7 270 07:49 04.02.2020
3188 Clouds 3 999 80 10000 3.6 270 07:24 04.02.2020
3189 Clouds 3 999 86 0 7.7 270 06:44 04.02.2020
3190 Clouds 3 998 86 0 4.1 250 06:21 04.02.2020
3191 Clouds 3 998 86 0 4.6 260 05:29 04.02.2020
3192 Clouds 4 998 86 0 4.1 250 03:54 04.02.2020
3193 Clouds 4 999 86 9000 4.1 260 03:34 04.02.2020
3194 Clouds 4 998 86 0 8.7 280 02:59 04.02.2020
3195 Clouds 4 998 80 0 4.1 250 02:34 04.02.2020
3196 Clear 4 999 80 0 7.7 270 01:55 04.02.2020
3197 Clear 4 999 80 0 4.1 240 01:36 04.02.2020
3198 Clear 4 999 80 0 3.6 250 00:49 04.02.2020
3199 Clear 5 999 80 0 5.1 250 00:22 04.02.2020
3200 Clear 5 999 80 0 5.1 250 00:22 04.02.2020
3201 Clear 5 1000 86 0 8.2 260 23:42 03.02.2020
3202 Clear 5 1000 86 0 8.2 260 23:42 03.02.2020
3203 Clear 5 1000 80 0 4.1 250 23:23 03.02.2020
3204 Clear 5 1001 81 0 9.8 270 22:40 03.02.2020
3205 Clouds 5 1000 86 10000 6.7 250 22:22 03.02.2020
3206 Clear 6 1001 81 0 10.3 270 21:59 03.02.2020
3207 Clouds 6 1001 75 10000 6.7 250 21:40 03.02.2020
3208 Clouds 6 1001 81 10000 5.7 260 21:19 03.02.2020
3209 Clear 6 1002 87 0 11.3 270 20:42 03.02.2020
3210 Clouds 6 1002 81 10000 5.7 250 20:20 03.02.2020
3211 Clouds 6 1002 87 0 11.8 280 19:59 03.02.2020
3212 Clouds 6 1002 87 0 11.8 280 19:40 03.02.2020
3213 Clouds 6 1002 81 10000 7.7 250 19:21 03.02.2020
3214 Clouds 6 1002 87 0 13.9 280 18:57 03.02.2020
3215 Clouds 6 1004 87 8000 8.2 260 18:38 03.02.2020
3216 Clouds 6 1002 81 10000 6.2 270 18:20 03.02.2020
3217 Clouds 7 1003 87 0 13.9 280 17:55 03.02.2020
3218 Clouds 7 1004 87 7000 9.3 270 17:36 03.02.2020
3219 Clouds 7 1004 87 10000 9.3 270 17:18 03.02.2020
3220 Clouds 7 1002 87 10000 6.2 270 16:40 03.02.2020
3221 Clouds 8 1002 87 10000 5.7 270 16:21 03.02.2020
3222 Rain 8 1003 93 0 13.4 280 15:56 03.02.2020
3223 Rain 8 1004 93 6000 10.8 280 15:38 03.02.2020
3224 Clouds 8 1002 87 10000 5.7 260 15:19 03.02.2020
3225 Rain 8 1002 87 0 10.3 280 14:56 03.02.2020
3226 Rain 8 1004 93 6000 9.3 270 14:37 03.02.2020
3227 Clouds 8 1002 87 8000 5.1 260 14:19 03.02.2020
3228 Rain 8 1002 93 0 9.8 280 13:42 03.02.2020
3229 Clouds 8 1002 87 10000 5.7 260 13:21 03.02.2020
3230 Rain 8 1003 93 0 9.3 280 12:58 03.02.2020
3231 Rain 8 1004 93 3000 8.7 260 12:39 03.02.2020
3232 Clouds 8 1002 93 10000 4.6 260 12:21 03.02.2020
3233 Rain 8 1003 93 0 9.8 280 11:55 03.02.2020
3234 Rain 8 1002 100 6000 3.1 240 11:36 03.02.2020
3235 Rain 8 1002 100 6000 3.1 240 11:36 03.02.2020
3236 Rain 8 1002 100 6000 3.1 240 11:18 03.02.2020
3237 Rain 7 1002 100 0 6.7 270 10:40 03.02.2020
3238 Drizzle 7 1002 100 2000 1.5 170 10:21 03.02.2020
3239 Rain 7 1002 100 0 6.2 270 09:46 03.02.2020
3240 Drizzle 7 1002 93 2200 1.5 150 09:23 03.02.2020
3241 Rain 6 1002 93 0 8.2 260 08:55 03.02.2020
3242 Clouds 6 1003 93 8000 6.2 240 08:37 03.02.2020
3243 Drizzle 6 1002 93 2000 2.6 160 08:18 03.02.2020
3244 Rain 6 1002 100 0 4.1 220 07:40 03.02.2020
3245 Rain 6 1002 100 4000 2.1 160 07:21 03.02.2020
3246 Rain 5 1002 100 0 2.6 220 06:50 03.02.2020
3247 Rain 6 1002 93 0 1.5 160 06:28 03.02.2020
3248 Rain 6 1002 93 0 1.5 160 06:28 03.02.2020
3249 Clouds 5 1002 93 6000 3.1 230 05:37 03.02.2020
3250 Rain 5 1002 93 0 1.5 160 05:18 03.02.2020
3251 Rain 5 1002 100 0 3.1 210 03:42 03.02.2020
3252 Rain 5 1003 93 0 3.1 230 02:35 03.02.2020
3253 Clouds 5 1003 80 0 3.6 230 01:42 03.02.2020
3254 Clouds 5 1003 80 0 4.1 250 00:47 03.02.2020
3255 Clouds 5 1003 86 0 1.5 240 00:25 03.02.2020
3256 Mist 5 1004 93 5000 2.1 230 23:39 02.02.2020
3257 Clouds 4 1003 93 0 2.1 230 23:21 02.02.2020
3258 Clouds 4 1003 93 0 3.6 260 22:58 02.02.2020
3259 Clouds 4 1004 86 0 3.1 230 22:39 02.02.2020
3260 Clouds 4 1003 93 0 2.1 240 22:20 02.02.2020
3261 Clouds 4 1003 86 0 2.6 250 21:56 02.02.2020
3262 Clouds 5 1004 80 0 3.6 250 21:38 02.02.2020
3263 Clouds 5 1003 86 0 2.1 250 21:20 02.02.2020
3264 Clouds 5 1003 86 0 3.6 270 20:56 02.02.2020
3265 Clouds 5 1004 86 0 3.1 250 20:37 02.02.2020
3266 Clouds 5 1003 86 10000 2.6 260 20:19 02.02.2020
3267 Clouds 5 1003 80 0 4.1 280 19:56 02.02.2020
3268 Clouds 5 1004 86 0 2.6 260 19:38 02.02.2020
3269 Clouds 5 1003 86 10000 2.1 260 19:19 02.02.2020
3270 Clouds 5 1003 81 0 4.1 290 18:54 02.02.2020
3271 Clouds 5 1003 86 0 2.6 250 18:36 02.02.2020
3272 Clouds 5 1002 81 10000 2.6 270 18:18 02.02.2020
3273 Clouds 5 1002 81 0 5.1 290 17:54 02.02.2020
3274 Clouds 5 1003 86 0 2.6 270 17:36 02.02.2020
3275 Clouds 6 1002 81 10000 3.1 280 17:18 02.02.2020
3276 Clouds 6 1002 81 0 6.7 300 16:54 02.02.2020
3277 Clouds 6 1002 81 0 3.1 280 16:36 02.02.2020
3278 Clouds 6 1002 75 10000 3.6 260 16:18 02.02.2020
3279 Clouds 6 1002 75 10000 3.6 260 16:18 02.02.2020
3280 Clouds 6 1003 75 0 4.1 280 15:40 02.02.2020
3281 Clouds 6 1002 70 10000 3.6 270 15:20 02.02.2020
3282 Clouds 6 1002 70 10000 3.6 270 15:20 02.02.2020
3283 Clouds 7 1002 81 0 7.2 300 14:59 02.02.2020
3284 Clouds 7 1002 81 0 7.2 300 14:41 02.02.2020
3285 Clouds 7 1002 75 10000 6.7 270 14:18 02.02.2020
3286 Clouds 7 1002 75 0 7.7 300 13:58 02.02.2020
3287 Clouds 7 1003 70 0 4.6 270 13:38 02.02.2020
3288 Clouds 7 1002 87 10000 6.2 270 13:19 02.02.2020
3289 Clouds 7 1003 81 0 7.2 280 12:55 02.02.2020
3290 Clouds 6 1004 81 0 5.1 260 12:36 02.02.2020
3291 Clouds 6 1003 87 10000 5.7 270 12:18 02.02.2020
3292 Clouds 6 1003 81 0 7.2 280 11:41 02.02.2020
3293 Clouds 6 1002 86 10000 6.2 270 11:19 02.02.2020
3294 Clouds 5 1003 81 0 7.7 270 10:56 02.02.2020
3295 Clouds 5 1004 86 0 3.6 250 10:37 02.02.2020
3296 Clouds 5 1002 86 0 6.7 280 10:19 02.02.2020
3297 Clouds 5 1002 86 0 6.7 280 09:56 02.02.2020
3298 Clouds 5 1003 80 0 5.1 260 09:38 02.02.2020
3299 Clouds 5 1002 86 10000 5.1 260 09:19 02.02.2020
3300 Clouds 5 1002 86 0 9.3 290 08:44 02.02.2020
3301 Rain 5 1001 86 10000 7.2 270 08:24 02.02.2020
3302 Clouds 5 1002 86 0 10.3 280 07:47 02.02.2020
3303 Clouds 5 1001 86 10000 7.2 270 07:28 02.02.2020
3304 Clouds 5 1002 75 0 7.2 280 06:45 02.02.2020
3305 Clouds 5 1000 80 10000 7.2 280 06:27 02.02.2020
3306 Clouds 5 1000 75 0 13.4 290 05:48 02.02.2020
3307 Clouds 6 1000 75 0 13.9 290 04:52 02.02.2020
3308 Clouds 6 998 75 10000 8.7 280 03:30 02.02.2020
3309 Clouds 6 999 87 0 8.7 280 02:35 02.02.2020
3310 Rain 7 997 81 0 15.9 300 01:56 02.02.2020
3311 Rain 7 995 93 0 18 290 01:26 02.02.2020
3312 Rain 7 995 93 0 18 290 00:44 02.02.2020
3313 Mist 7 994 93 4000 12.3 270 00:23 02.02.2020
3314 Rain 7 994 93 0 19 270 23:54 01.02.2020
3315 Rain 7 996 87 0 13.9 260 23:36 01.02.2020
3316 Rain 7 993 93 2000 13.4 260 23:18 01.02.2020
3317 Rain 7 994 93 0 16.5 270 22:42 01.02.2020
3318 Clouds 7 996 81 9000 10.3 250 22:18 01.02.2020
3319 Rain 7 996 87 0 12.9 250 21:40 01.02.2020
3320 Rain 7 992 93 2000 11.8 240 21:19 01.02.2020
3321 Rain 8 994 81 0 16.5 260 20:43 01.02.2020
3322 Rain 8 992 87 5000 11.8 240 20:21 01.02.2020
3323 Rain 8 994 81 0 14.9 260 19:58 01.02.2020
3324 Rain 8 996 81 0 10.8 250 19:40 01.02.2020
3325 Rain 8 992 87 7000 10.8 240 19:20 01.02.2020
3326 Rain 8 994 81 0 13.9 260 18:59 01.02.2020
3327 Rain 8 994 81 0 13.9 260 18:59 01.02.2020
3328 Rain 8 994 81 0 13.9 260 18:41 01.02.2020
3329 Rain 8 993 76 0 7.7 250 18:23 01.02.2020
3330 Rain 8 994 81 0 13.9 260 17:59 01.02.2020
3331 Rain 8 993 81 0 7.2 250 17:40 01.02.2020
3332 Rain 9 993 81 0 8.2 250 17:20 01.02.2020
3333 Rain 9 994 81 0 14.4 260 16:58 01.02.2020
3334 Rain 9 995 81 0 10.8 260 16:38 01.02.2020
3335 Rain 9 993 81 0 6.7 250 16:20 01.02.2020
3336 Rain 9 993 81 0 12.9 260 15:43 01.02.2020
3337 Rain 9 993 76 0 7.2 250 15:25 01.02.2020
3338 Rain 9 994 87 0 14.9 260 14:58 01.02.2020
3339 Rain 10 995 81 0 10.3 250 14:39 01.02.2020
3340 Clouds 10 993 81 10000 7.7 250 14:20 01.02.2020
3341 Clouds 10 994 81 0 12.9 260 13:45 01.02.2020
3342 Clouds 10 993 87 10000 6.7 250 13:21 01.02.2020
3343 Clouds 10 994 87 0 10.3 250 12:44 01.02.2020
3344 Clouds 10 993 87 10000 6.7 250 12:26 01.02.2020
3345 Clouds 10 994 93 0 11.3 260 11:57 01.02.2020
3346 Clouds 10 995 87 0 9.3 250 11:38 01.02.2020
3347 Clouds 10 994 87 0 6.2 250 11:19 01.02.2020
3348 Clouds 9 995 93 0 10.8 250 10:56 01.02.2020
3349 Clouds 9 996 87 0 10.8 250 10:38 01.02.2020
3350 Clouds 9 994 93 8000 8.2 240 10:20 01.02.2020
3351 Clouds 9 995 93 0 10.8 250 09:54 01.02.2020
3352 Clouds 9 996 93 9000 9.8 240 09:36 01.02.2020
3353 Drizzle 9 994 93 6000 6.2 230 09:18 01.02.2020
3354 Clouds 9 996 93 9000 11.8 240 08:40 01.02.2020
3355 Clouds 9 996 93 0 11.3 260 07:48 01.02.2020
3356 Drizzle 9 997 93 3000 6.7 240 07:26 01.02.2020
3357 Clouds 9 996 93 0 12.9 260 06:54 01.02.2020
3358 Drizzle 9 995 93 3500 9.3 240 06:32 01.02.2020
3359 Clouds 9 996 100 0 13.9 260 05:51 01.02.2020
3360 Rain 9 996 93 0 12.9 250 03:48 01.02.2020
3361 Drizzle 9 995 100 3000 10.3 230 03:21 01.02.2020
3362 Rain 9 997 93 0 12.9 250 02:45 01.02.2020
3363 Drizzle 9 996 100 2500 9.3 230 02:26 01.02.2020
3364 Rain 9 997 93 0 12.9 250 01:52 01.02.2020
3365 Drizzle 9 996 100 2000 9.8 240 01:31 01.02.2020
3366 Drizzle 9 997 100 2000 9.3 230 00:30 01.02.2020
3367 Rain 9 998 93 0 10.8 250 23:43 31.01.2020
3368 Drizzle 9 998 93 0 6.2 240 23:20 31.01.2020
3369 Rain 9 999 93 0 11.8 250 22:59 31.01.2020
3370 Rain 9 999 93 0 11.8 250 22:41 31.01.2020
3371 Drizzle 9 999 93 6000 5.7 240 22:22 31.01.2020
3372 Rain 9 999 93 0 8.7 250 21:57 31.01.2020
3373 Drizzle 9 998 100 2500 8.2 230 21:39 31.01.2020
3374 Clouds 9 999 93 8000 6.2 240 21:19 31.01.2020
3375 Rain 9 1000 93 0 11.3 260 20:56 31.01.2020
3376 Rain 9 1000 93 0 11.3 260 20:56 31.01.2020
3377 Rain 9 1000 93 0 11.3 260 20:38 31.01.2020
3378 Rain 9 1000 93 0 11.3 260 20:38 31.01.2020
3379 Rain 9 1000 93 0 11.3 260 20:20 31.01.2020
3380 Rain 8 1000 100 0 11.8 260 19:56 31.01.2020
3381 Rain 8 1001 93 1800 11.8 250 19:37 31.01.2020
3382 Rain 8 1001 93 6000 7.2 240 19:19 31.01.2020
3383 Rain 8 1000 100 0 12.9 260 18:43 31.01.2020
3384 Rain 8 999 93 2500 8.2 240 18:25 31.01.2020
3385 Rain 8 1000 100 0 12.3 260 17:56 31.01.2020
3386 Rain 8 1001 93 2300 11.8 250 17:37 31.01.2020
3387 Drizzle 8 1000 93 5000 6.2 240 17:19 31.01.2020
3388 Rain 8 1000 93 0 9.8 250 16:56 31.01.2020
3389 Rain 8 1001 93 800 10.3 240 16:37 31.01.2020
3390 Drizzle 8 1000 93 2500 4.1 230 16:18 31.01.2020
3391 Rain 8 1001 93 0 9.3 260 15:41 31.01.2020
3392 Mist 8 1000 93 5000 4.1 240 15:21 31.01.2020
3393 Rain 8 1001 87 0 8.2 250 14:59 31.01.2020
3394 Rain 8 1001 87 0 8.2 250 14:40 31.01.2020
3395 Clouds 8 1001 81 10000 4.6 240 14:20 31.01.2020
3396 Rain 8 1001 87 0 10.3 260 13:45 31.01.2020
3397 Rain 8 1000 87 8000 7.7 250 13:27 31.01.2020
3398 Rain 8 1001 87 0 9.3 260 12:54 31.01.2020
3399 Clouds 8 1002 87 10000 9.8 250 12:36 31.01.2020
3400 Clouds 8 1000 87 10000 6.2 260 12:18 31.01.2020
3401 Rain 8 1000 87 0 10.3 270 11:41 31.01.2020
3402 Clouds 8 999 87 10000 6.2 260 11:23 31.01.2020
3403 Clouds 8 1000 87 0 10.3 280 10:58 31.01.2020
3404 Clouds 8 1001 81 10000 8.7 260 10:38 31.01.2020
3405 Drizzle 8 998 87 10000 5.1 260 10:20 31.01.2020
3406 Clouds 8 999 87 0 10.3 280 09:55 31.01.2020
3407 Clouds 8 999 87 0 10.3 280 09:55 31.01.2020
3408 Clouds 7 1001 87 10000 7.7 270 09:37 31.01.2020
3409 Clouds 8 998 87 10000 6.2 270 09:18 31.01.2020
3410 Clouds 8 999 81 10000 7.2 280 08:42 31.01.2020
3411 Clouds 8 997 93 8000 9.3 270 08:23 31.01.2020
3412 Clouds 8 997 87 0 13.4 290 07:52 31.01.2020
3413 Clouds 8 996 93 10000 9.8 270 07:20 31.01.2020
3414 Clouds 8 997 81 10000 9.8 290 06:42 31.01.2020
3415 Clouds 8 995 87 0 14.9 290 05:58 31.01.2020
3416 Clouds 8 996 87 10000 9.8 280 05:37 31.01.2020
3417 Clouds 8 993 87 0 15.9 290 04:47 31.01.2020
3418 Clouds 8 991 87 0 16.5 280 02:58 31.01.2020
3419 Rain 8 992 87 7000 12.3 260 01:32 31.01.2020
3420 Rain 8 991 93 1200 12.9 250 00:43 31.01.2020
3421 Rain 8 988 93 2500 11.8 250 00:24 31.01.2020
3422 Rain 8 990 93 0 13.4 250 23:53 30.01.2020
3423 Drizzle 8 989 100 2500 12.3 230 23:24 30.01.2020
3424 Rain 8 990 93 0 12.9 230 22:56 30.01.2020
3425 Rain 8 992 93 4100 11.3 220 22:36 30.01.2020
3426 Drizzle 8 990 93 7000 8.7 210 22:18 30.01.2020
3427 Rain 8 992 93 0 8.7 220 21:43 30.01.2020
3428 Drizzle 7 993 93 2500 5.1 190 21:20 30.01.2020
3429 Rain 7 994 93 0 6.2 210 20:59 30.01.2020
3430 Rain 7 995 87 8000 6.2 210 20:40 30.01.2020
3431 Drizzle 7 994 93 2000 4.1 200 20:21 30.01.2020
3432 Clouds 7 995 93 0 6.2 220 19:56 30.01.2020
3433 Clouds 7 996 87 8000 5.1 210 19:38 30.01.2020
3434 Clouds 7 996 87 10000 4.6 220 19:18 30.01.2020
3435 Clouds 7 997 87 0 7.7 240 18:41 30.01.2020
3436 Clouds 7 997 87 10000 3.6 220 18:21 30.01.2020
3437 Clouds 7 998 87 0 8.7 240 17:57 30.01.2020
3438 Clouds 7 999 81 10000 7.2 230 17:37 30.01.2020
3439 Drizzle 7 998 93 6000 5.7 240 17:19 30.01.2020
3440 Clouds 7 999 93 0 11.3 260 16:56 30.01.2020
3441 Clouds 7 1000 87 10000 8.7 250 16:38 30.01.2020
3442 Drizzle 7 999 87 6000 5.7 250 16:20 30.01.2020
3443 Clouds 7 999 93 0 12.9 260 15:43 30.01.2020
3444 Drizzle 7 999 93 4500 5.7 250 15:20 30.01.2020
3445 Clouds 7 1000 93 0 10.8 270 14:50 30.01.2020
3446 Clouds 7 1001 93 8000 9.8 250 14:27 30.01.2020
3447 Rain 7 1000 100 0 13.4 270 13:58 30.01.2020
3448 Clouds 7 1001 93 8000 9.3 260 13:38 30.01.2020
3449 Drizzle 7 999 100 4500 9.3 250 13:20 30.01.2020
3450 Rain 7 1000 93 0 13.4 270 12:54 30.01.2020
3451 Drizzle 7 1001 93 3800 10.8 260 12:36 30.01.2020
3452 Drizzle 7 999 93 4000 7.2 260 12:18 30.01.2020
3453 Rain 7 1000 100 0 13.9 280 11:40 30.01.2020
3454 Drizzle 7 1001 93 3300 10.3 260 11:21 30.01.2020
3455 Rain 7 999 100 0 14.4 270 10:58 30.01.2020
3456 Drizzle 7 1001 93 5000 10.3 260 10:38 30.01.2020
3457 Drizzle 7 998 93 9000 7.7 260 10:19 30.01.2020
3458 Rain 7 998 100 0 14.4 280 09:44 30.01.2020
3459 Drizzle 7 998 93 2500 7.2 260 09:24 30.01.2020
3460 Rain 7 998 100 0 14.4 270 08:42 30.01.2020
3461 Drizzle 7 998 93 3000 7.7 260 08:22 30.01.2020
3462 Rain 7 998 100 0 13.9 270 07:56 30.01.2020
3463 Drizzle 7 999 93 5000 10.3 250 07:37 30.01.2020
3464 Rain 7 998 93 0 13.4 270 06:57 30.01.2020
3465 Drizzle 7 999 93 5000 11.3 250 06:36 30.01.2020
3466 Rain 7 998 93 0 13.9 270 05:59 30.01.2020
3467 Rain 7 997 93 0 8.2 250 05:28 30.01.2020
3468 Rain 6 998 93 0 15.4 270 04:49 30.01.2020
3469 Rain 6 998 93 0 10.8 240 03:47 30.01.2020
3470 Rain 5 999 93 0 11.3 250 02:55 30.01.2020
3471 Drizzle 5 1000 81 0 5.1 220 01:23 30.01.2020
3472 Rain 5 1001 75 0 5.1 230 00:30 30.01.2020
3473 Rain 5 1002 80 0 7.7 250 23:58 29.01.2020
3474 Rain 5 1001 75 0 4.6 240 23:39 29.01.2020
3475 Clouds 5 1002 80 0 4.1 240 23:20 29.01.2020
3476 Clouds 5 1003 86 9000 7.7 250 22:55 29.01.2020
3477 Clouds 5 1003 86 9000 7.7 250 22:37 29.01.2020
3478 Clouds 5 1001 80 10000 7.7 250 22:18 29.01.2020
3479 Clouds 5 1002 80 0 8.2 250 21:54 29.01.2020
3480 Clouds 4 1003 86 10000 6.2 250 21:36 29.01.2020
3481 Clouds 5 1000 86 10000 6.2 240 21:18 29.01.2020
3482 Clouds 5 1001 86 0 9.3 270 20:41 29.01.2020
3483 Rain 5 1000 86 8000 6.7 260 20:22 29.01.2020
3484 Clouds 5 1001 86 0 9.8 270 19:58 29.01.2020
3485 Clouds 5 1002 80 10000 7.2 260 19:38 29.01.2020
3486 Rain 5 1000 81 10000 6.2 260 19:20 29.01.2020
3487 Clouds 5 1000 81 0 9.8 280 18:58 29.01.2020
3488 Clouds 5 1001 86 10000 7.2 270 18:38 29.01.2020
3489 Clouds 5 999 81 10000 4.6 260 18:19 29.01.2020
3490 Clouds 5 999 87 0 9.8 280 17:41 29.01.2020
3491 Clouds 5 998 86 10000 6.2 270 17:23 29.01.2020
3492 Clouds 6 998 87 0 10.8 290 16:57 29.01.2020
3493 Clouds 6 999 81 10000 7.2 280 16:39 29.01.2020
3494 Clouds 6 997 87 10000 6.7 270 16:19 29.01.2020
3495 Clouds 6 997 87 0 9.8 290 15:40 29.01.2020
3496 Clouds 6 996 75 10000 4.1 270 15:22 29.01.2020
3497 Clouds 6 996 87 0 8.2 290 14:57 29.01.2020
3498 Clouds 6 997 87 10000 6.7 270 14:39 29.01.2020
3499 Clouds 6 995 75 10000 4.6 270 14:18 29.01.2020
3500 Clouds 6 995 81 0 8.7 290 13:40 29.01.2020
3501 Clouds 6 994 81 10000 4.6 270 13:22 29.01.2020
3502 Clouds 6 995 87 0 8.7 280 12:57 29.01.2020
3503 Clouds 6 994 81 10000 4.6 260 12:39 29.01.2020
3504 Clouds 6 994 81 10000 5.1 260 12:21 29.01.2020
3505 Clouds 5 994 87 0 6.2 270 11:56 29.01.2020
3506 Rain 5 995 87 6000 7.2 270 11:37 29.01.2020
3507 Rain 5 993 93 10000 4.1 240 11:19 29.01.2020
3508 Clouds 5 993 93 10000 2.6 240 10:45 29.01.2020
3509 Clouds 4 994 86 8000 5.7 250 10:22 29.01.2020
3510 Rain 4 992 93 10000 4.1 230 09:40 29.01.2020
3511 Rain 4 992 93 10000 4.1 230 09:40 29.01.2020
3512 Rain 4 992 93 10000 4.1 230 09:22 29.01.2020
3513 Rain 4 992 93 0 6.7 240 08:59 29.01.2020
3514 Rain 4 992 93 0 6.7 240 08:40 29.01.2020
3515 Clouds 3 991 86 10000 4.1 240 08:22 29.01.2020
3516 Clouds 3 992 93 0 5.7 250 07:45 29.01.2020
3517 Clouds 3 991 93 10000 3.6 240 07:25 29.01.2020
3518 Clouds 3 991 93 0 7.2 270 06:55 29.01.2020
3519 Clouds 3 991 93 0 7.2 270 06:55 29.01.2020
3520 Clouds 3 992 86 8000 7.7 260 06:37 29.01.2020
3521 Clouds 3 991 86 0 3.1 200 06:18 29.01.2020
3522 Clouds 4 991 86 0 6.2 230 05:46 29.01.2020
3523 Clouds 3 991 80 0 3.6 230 05:27 29.01.2020
3524 Clouds 3 992 86 10000 7.2 230 04:38 29.01.2020
3525 Clouds 3 990 86 0 7.2 260 03:55 29.01.2020
3526 Clouds 3 991 93 10000 5.7 240 02:33 29.01.2020
3527 Rain 4 989 86 0 8.2 270 00:57 29.01.2020
3528 Rain 4 990 75 10000 5.7 260 00:36 29.01.2020
3529 Rain 4 989 80 0 5.1 260 00:18 29.01.2020
3530 Rain 4 990 80 10000 6.7 280 23:38 28.01.2020
3531 Clouds 4 988 86 10000 4.6 260 23:19 28.01.2020
3532 Rain 4 988 86 0 10.3 280 22:46 28.01.2020
3533 Clouds 4 987 93 10000 4.1 250 22:27 28.01.2020
3534 Rain 4 987 93 0 8.2 300 21:54 28.01.2020
3535 Rain 4 988 86 6000 7.7 290 21:36 28.01.2020
3536 Rain 4 987 93 10000 3.1 240 21:18 28.01.2020
3537 Rain 4 987 93 0 5.7 250 20:45 28.01.2020
3538 Drizzle 4 986 93 10000 4.1 220 20:26 28.01.2020
3539 Clouds 4 986 93 0 4.1 260 19:55 28.01.2020
3540 Clouds 4 987 93 5000 3.6 230 19:37 28.01.2020
3541 Clouds 4 986 93 10000 1.5 210 19:19 28.01.2020
3542 Clouds 4 986 93 10000 1.5 210 19:19 28.01.2020
3543 Clouds 4 986 93 0 3.1 270 18:42 28.01.2020
3544 Rain 4 985 93 10000 1.5 270 18:23 28.01.2020
3545 Clouds 4 985 100 0 4.6 270 17:59 28.01.2020
3546 Clouds 4 985 93 10000 1 250 17:40 28.01.2020
3547 Clouds 5 985 87 10000 2.1 210 17:21 28.01.2020
3548 Rain 5 985 87 0 3.1 250 16:59 28.01.2020
3549 Rain 5 985 87 0 3.1 250 16:41 28.01.2020
3550 Rain 5 985 93 9000 3.1 220 16:22 28.01.2020
3551 Rain 5 984 87 0 4.6 240 15:55 28.01.2020
3552 Rain 6 985 93 7000 4.6 220 15:37 28.01.2020
3553 Clouds 6 984 81 10000 7.2 240 15:18 28.01.2020
3554 Rain 6 984 87 0 3.6 240 14:43 28.01.2020
3555 Rain 6 984 87 10000 5.1 230 14:20 28.01.2020
3556 Rain 6 984 87 0 5.7 240 13:42 28.01.2020
3557 Clouds 6 984 81 10000 4.6 220 13:24 28.01.2020
3558 Rain 6 984 81 0 7.7 240 12:45 28.01.2020
3559 Clouds 6 984 87 10000 5.1 220 12:25 28.01.2020
3560 Rain 6 985 87 0 7.2 220 11:59 28.01.2020
3561 Rain 6 985 87 0 7.2 220 11:41 28.01.2020
3562 Clouds 6 985 87 10000 5.1 200 11:22 28.01.2020
3563 Rain 6 985 87 0 6.2 220 10:55 28.01.2020
3564 Clouds 6 986 87 10000 6.2 210 10:36 28.01.2020
3565 Clouds 6 985 93 8000 3.6 200 10:18 28.01.2020
3566 Clouds 6 986 87 10000 5.7 200 09:41 28.01.2020
3567 Rain 5 985 93 3000 5.1 210 09:20 28.01.2020
3568 Rain 5 985 93 0 7.2 230 08:46 28.01.2020
3569 Clouds 6 986 87 9000 6.2 220 08:26 28.01.2020
3570 Rain 6 986 93 0 5.7 200 07:56 28.01.2020
3571 Clouds 6 986 87 8000 5.7 210 07:35 28.01.2020
3572 Rain 5 986 100 0 5.7 150 06:48 28.01.2020
3573 Rain 5 986 100 0 5.7 150 06:48 28.01.2020
3574 Rain 6 986 87 3000 5.7 150 06:25 28.01.2020
3575 Rain 6 988 93 0 6.2 160 05:40 28.01.2020
3576 Rain 6 988 93 0 6.2 160 05:40 28.01.2020
3577 Rain 6 988 93 2500 4.6 120 05:22 28.01.2020
3578 Clouds 6 991 93 0 5.1 160 03:51 28.01.2020
3579 Clouds 6 992 100 0 3.1 170 02:55 28.01.2020
3580 Mist 6 993 93 2600 3.6 150 02:25 28.01.2020
3581 Clouds 6 994 100 0 3.6 160 01:56 28.01.2020
3582 Mist 6 994 100 0 2.6 170 01:22 28.01.2020
3583 Clouds 6 995 100 0 4.6 180 00:45 28.01.2020
3584 Clouds 7 996 93 0 3.1 180 00:24 28.01.2020
3585 Clouds 7 996 93 0 5.1 190 23:46 27.01.2020
3586 Clouds 7 997 93 6000 2.6 180 23:28 27.01.2020
3587 Clouds 7 997 93 6000 2.6 180 23:28 27.01.2020
3588 Rain 7 997 93 0 6.2 190 22:46 27.01.2020
3589 Mist 7 998 93 5000 1.5 0 22:22 27.01.2020
3590 Mist 7 998 93 5000 1.5 0 22:22 27.01.2020
3591 Rain 7 998 93 0 5.7 180 21:59 27.01.2020
3592 Clouds 7 998 93 6000 4.1 170 21:39 27.01.2020
3593 Clouds 7 999 93 6000 4.1 160 21:19 27.01.2020
3594 Rain 7 999 93 0 5.1 190 20:59 27.01.2020
3595 Clouds 7 999 93 7000 2.6 180 20:40 27.01.2020
3596 Mist 7 999 93 5000 5.1 190 20:21 27.01.2020
3597 Rain 7 1000 93 0 5.1 200 19:58 27.01.2020
3598 Clouds 7 1000 93 7000 4.6 180 19:40 27.01.2020
3599 Rain 7 1000 93 7000 3.1 180 19:21 27.01.2020
3600 Rain 7 1000 93 7000 3.1 180 19:21 27.01.2020
3601 Rain 7 1000 93 0 5.1 210 18:55 27.01.2020
3602 Clouds 7 1001 93 7000 4.1 190 18:37 27.01.2020
3603 Clouds 7 1001 93 7000 4.1 190 18:37 27.01.2020
3604 Clouds 7 1001 93 7000 4.1 190 18:37 27.01.2020
3605 Rain 7 1000 100 4000 2.1 200 18:19 27.01.2020
3606 Rain 7 1000 100 4000 2.1 190 17:39 27.01.2020
3607 Clouds 7 1001 93 0 4.6 230 17:19 27.01.2020
3608 Clouds 8 1001 93 0 4.6 230 16:58 27.01.2020
3609 Rain 8 1001 87 10000 2.6 200 16:40 27.01.2020
3610 Rain 8 1001 93 10000 2.6 200 16:22 27.01.2020
3611 -273 0 0 0 0 0 16:22 27.01.2020
3612 Clouds 8 1002 87 0 5.1 220 15:55 27.01.2020
3613 Rain 8 1002 87 6000 4.6 200 15:36 27.01.2020
3614 Rain 8 1002 93 7000 2.6 190 15:18 27.01.2020
3615 Clouds 8 1002 87 0 4.6 210 14:41 27.01.2020
3616 Clouds 8 1002 87 10000 3.6 210 14:22 27.01.2020
3617 Clouds 8 1003 87 0 5.1 230 13:57 27.01.2020
3618 Clouds 8 1003 87 8000 4.6 210 13:37 27.01.2020
3619 Clouds 7 1003 93 8000 3.6 210 13:18 27.01.2020
3620 Clouds 7 1003 93 0 6.7 240 12:44 27.01.2020
3621 Drizzle 7 1003 93 5000 4.1 210 12:23 27.01.2020
3622 Clouds 7 1003 93 0 7.2 240 11:58 27.01.2020
3623 Clouds 7 1003 93 0 7.2 240 11:40 27.01.2020
3624 Drizzle 7 1004 93 4000 4.6 210 11:20 27.01.2020
3625 Rain 6 1003 93 0 5.7 220 10:43 27.01.2020
3626 Drizzle 6 1003 93 3000 4.6 200 10:24 27.01.2020
3627 Rain 6 1003 93 0 7.2 210 09:56 27.01.2020
3628 Drizzle 6 1004 93 3500 6.2 200 09:38 27.01.2020
3629 Drizzle 6 1004 93 3500 4.6 190 09:18 27.01.2020
3630 Rain 5 1004 100 0 7.2 200 08:42 27.01.2020
3631 Rain 5 1004 93 4000 4.1 180 08:20 27.01.2020
3632 Rain 5 1004 93 0 6.7 190 07:53 27.01.2020
3633 Rain 5 1004 93 0 6.7 190 07:53 27.01.2020
3634 Rain 5 1005 93 4000 6.2 180 07:33 27.01.2020
3635 Rain 5 1005 93 0 8.2 190 06:52 27.01.2020
3636 Rain 5 1004 93 4000 6.2 180 06:24 27.01.2020
3637 Rain 4 1006 93 0 5.1 170 05:23 27.01.2020
3638 Clouds 4 1007 93 0 7.2 190 03:47 27.01.2020
3639 Clouds 4 1009 86 8000 4.6 170 02:36 27.01.2020
3640 Clouds 4 1009 93 0 3.1 150 01:29 27.01.2020
3641 Clouds 4 1009 93 0 6.7 190 00:57 27.01.2020
3642 Clouds 3 1010 93 6000 4.6 160 00:36 27.01.2020
3643 Clouds 3 1010 93 0 3.1 140 00:18 27.01.2020
3644 Clouds 3 1010 93 0 3.1 140 00:18 27.01.2020
3645 Clouds 3 1010 93 0 6.2 190 23:41 26.01.2020
3646 Clouds 3 1011 93 0 3.1 170 23:19 26.01.2020
3647 Clouds 3 1010 93 0 4.6 200 22:55 26.01.2020
3648 Clouds 3 1011 93 7000 4.1 180 22:36 26.01.2020
3649 Clouds 3 1011 93 0 2.1 180 22:18 26.01.2020
3650 Clouds 3 1011 93 0 2.1 180 22:18 26.01.2020
3651 Clouds 3 1011 93 0 4.1 220 21:55 26.01.2020
3652 Clouds 3 1012 93 6000 3.1 190 21:37 26.01.2020
3653 Clouds 3 1012 86 0 2.6 220 21:19 26.01.2020
3654 Clouds 3 1011 93 0 4.6 220 20:55 26.01.2020
3655 Clouds 3 1012 93 7000 3.6 200 20:36 26.01.2020
3656 Mist 3 1011 93 2500 4.1 200 20:18 26.01.2020
3657 Clouds 3 1011 93 0 3.6 210 19:56 26.01.2020
3658 Clouds 3 1012 86 7000 4.6 180 19:37 26.01.2020
3659 Clouds 3 1012 86 7000 4.6 180 19:37 26.01.2020
3660 Clouds 3 1011 93 5000 4.1 180 19:18 26.01.2020
3661 Clouds 3 1012 93 0 4.6 200 18:41 26.01.2020
3662 Clouds 3 1012 93 6000 3.1 180 18:22 26.01.2020
3663 Clouds 3 1012 86 0 3.1 200 17:58 26.01.2020
3664 Clouds 3 1013 86 7000 5.1 170 17:39 26.01.2020
3665 Mist 3 1013 93 4500 3.6 180 17:20 26.01.2020
3666 Clouds 3 1012 86 0 3.1 190 16:58 26.01.2020
3667 Clouds 3 1013 93 9000 4.6 170 16:40 26.01.2020
3668 Clouds 3 1012 93 7000 4.1 200 16:21 26.01.2020
3669 Clouds 4 1013 86 8000 3.1 170 15:58 26.01.2020
3670 Clouds 4 1013 86 8000 3.1 170 15:39 26.01.2020
3671 Clouds 3 1014 86 8000 4.6 160 15:19 26.01.2020
3672 Clouds 3 1014 86 8000 4.6 160 14:41 26.01.2020
3673 Mist 4 1014 86 5000 3.6 180 14:22 26.01.2020
3674 Mist 4 1014 86 5000 3.6 180 13:57 26.01.2020
3675 Clouds 4 1014 86 8000 4.6 180 13:37 26.01.2020
3676 Clouds 4 1015 86 8000 4.6 170 13:18 26.01.2020
3677 Clouds 3 1016 93 7000 4.6 190 12:42 26.01.2020
3678 Clouds 3 1016 93 7000 4.6 190 12:24 26.01.2020
3679 Clouds 3 1016 93 7000 4.6 190 11:58 26.01.2020
3680 Clouds 3 1016 93 7000 4.6 190 11:40 26.01.2020
3681 Clouds 3 1016 93 6000 4.1 170 11:19 26.01.2020
3682 Clouds 3 1016 93 6000 4.1 170 10:59 26.01.2020
3683 Clouds 2 1016 93 0 4.6 200 10:39 26.01.2020
3684 Clouds 2 1016 93 0 4.6 200 10:21 26.01.2020
3685 Clouds 2 1016 86 0 4.1 190 09:58 26.01.2020
3686 Clouds 2 1016 86 0 4.1 190 09:40 26.01.2020
3687 Mist 2 1016 93 0 5.1 210 09:21 26.01.2020
3688 Clouds 2 1016 93 0 4.1 210 08:45 26.01.2020
3689 Mist 2 1015 93 0 4.6 210 08:23 26.01.2020
3690 Clouds 2 1015 93 0 4.6 220 07:59 26.01.2020
3691 Clouds 2 1015 93 0 4.6 220 07:41 26.01.2020
3692 Mist 2 1015 93 0 5.1 210 07:22 26.01.2020
3693 Rain 3 1016 93 0 4.1 200 06:32 26.01.2020
3694 Clouds 3 1016 93 3300 3.6 200 05:37 26.01.2020
3695 Clouds 3 1016 93 0 4.6 210 04:58 26.01.2020
3696 Clouds 3 1016 100 0 4.6 220 02:59 26.01.2020
3697 Clouds 3 1016 100 0 4.6 220 02:59 26.01.2020
3698 Clouds 3 1017 93 0 5.7 230 01:59 26.01.2020
3699 Mist 3 1016 93 0 4.1 220 01:39 26.01.2020
3700 Mist 3 1017 93 0 4.1 210 01:19 26.01.2020
3701 Mist 3 1017 93 0 3.6 210 00:39 26.01.2020
3702 Mist 3 1017 100 0 4.6 210 00:20 26.01.2020
3703 Clouds 3 1018 93 2700 6.2 220 23:38 25.01.2020
3704 Clouds 3 1018 93 2700 6.2 220 23:20 25.01.2020
3705 Clouds 3 1018 93 2700 6.2 220 22:43 25.01.2020
3706 Clouds 4 1017 94 0 2.68 219 22:20 25.01.2020
3707 Clouds 4 1017 94 0 2.24 210 21:59 25.01.2020
3708 Clouds 4 1018 100 2500 4.6 230 21:41 25.01.2020
3709 Clouds 5 1017 91 0 5.23 230 21:22 25.01.2020
3710 Clouds 5 1017 91 0 5.23 230 20:54 25.01.2020
3711 Clouds 4 1018 93 3300 4.6 230 20:36 25.01.2020
3712 Clouds 4 1018 93 3300 4.6 230 20:18 25.01.2020
3713 Clouds 4 1016 93 0 4.02 225 19:41 25.01.2020
3714 Clouds 4 1016 93 0 3.13 232 19:19 25.01.2020
3715 Clouds 4 1016 93 0 3.13 228 18:56 25.01.2020
3716 Clouds 4 1018 93 3500 5.1 220 18:38 25.01.2020
3717 Clouds 4 1018 93 3500 5.1 220 18:20 25.01.2020
3718 Clouds 4 1018 93 3500 5.1 220 17:40 25.01.2020
3719 Clouds 4 1018 93 3600 5.1 230 17:19 25.01.2020
3720 Clouds 4 1018 93 3600 5.1 230 16:57 25.01.2020
3721 Clouds 4 1018 93 3600 5.1 230 16:38 25.01.2020
3722 Clouds 4 1018 93 3600 5.1 230 16:19 25.01.2020
3723 Clouds 5 1019 100 3400 6.7 240 15:47 25.01.2020
3724 Clouds 5 1019 100 3400 6.7 240 15:25 25.01.2020
3725 Clouds 5 1019 100 3400 6.7 240 14:59 25.01.2020
3726 Clouds 5 1019 100 3400 6.7 240 14:40 25.01.2020
3727 Clouds 5 1019 93 3600 5.7 230 14:18 25.01.2020
3728 Mist 5 1019 93 3300 3.6 230 13:42 25.01.2020
3729 Mist 5 1019 93 3300 3.6 230 13:42 25.01.2020
3730 Mist 5 1019 100 3500 3.6 230 13:23 25.01.2020
3731 Clouds 5 1018 93 0 6.2 260 12:46 25.01.2020
3732 Clouds 5 1018 93 0 6.2 260 12:26 25.01.2020
3733 Clouds 5 1018 93 0 6.2 260 11:46 25.01.2020
3734 Clouds 5 1018 93 10000 2.6 240 11:22 25.01.2020
3735 Clouds 5 1018 93 0 4.6 250 11:00 25.01.2020
3736 Clouds 5 1018 93 0 4.6 250 10:40 25.01.2020
3737 Clouds 5 1018 93 0 4.6 250 10:40 25.01.2020
3738 Drizzle 5 1018 100 4000 2.6 230 10:21 25.01.2020
3739 Clouds 5 1018 100 0 6.2 260 09:57 25.01.2020
3740 Clouds 5 1018 93 2600 5.7 240 09:37 25.01.2020
3741 Drizzle 5 1017 100 4000 2.6 240 09:18 25.01.2020
3742 Clouds 5 1017 93 0 6.7 260 08:42 25.01.2020
3743 Clouds 5 1017 93 0 6.7 260 08:42 25.01.2020
3744 Clouds 5 1017 93 0 6.7 260 07:53 25.01.2020
3745 Clouds 5 1017 93 10000 3.6 250 07:21 25.01.2020
3746 Clouds 5 1016 100 8000 5.1 250 06:31 25.01.2020
3747 Clouds 5 1017 100 0 7.2 270 05:51 25.01.2020
3748 Rain 5 1016 93 0 4.1 260 05:32 25.01.2020
3749 Rain 5 1017 100 0 7.2 270 03:56 25.01.2020
3750 Rain 5 1018 100 1600 6.7 250 03:37 25.01.2020
3751 Rain 5 1018 93 1600 7.2 250 02:36 25.01.2020
3752 Rain 5 1017 100 0 7.2 260 01:56 25.01.2020
3753 Rain 5 1017 100 0 3.1 250 01:21 25.01.2020
3754 Rain 5 1018 93 1200 7.7 240 00:37 25.01.2020
3755 Drizzle 5 1018 100 2200 5.1 230 00:18 25.01.2020
3756 Rain 5 1017 100 0 7.2 260 23:42 24.01.2020
3757 Mist 5 1017 100 0 4.1 250 23:23 24.01.2020
3758 Rain 5 1017 100 0 7.7 260 22:46 24.01.2020
3759 Rain 5 1017 100 0 7.7 260 22:46 24.01.2020
3760 Clouds 5 1017 100 10000 3.6 250 22:28 24.01.2020
3761 Rain 5 1018 100 0 6.7 260 21:59 24.01.2020
3762 Rain 5 1018 100 0 6.7 260 21:40 24.01.2020
3763 Mist 5 1017 93 2000 4.6 250 21:19 24.01.2020
3764 Rain 5 1018 100 0 6.7 260 20:44 24.01.2020
3765 Drizzle 5 1017 93 2000 5.1 250 20:22 24.01.2020
3766 Rain 5 1018 100 0 7.2 260 19:59 24.01.2020
3767 Rain 5 1018 100 0 7.2 260 19:40 24.01.2020
3768 Drizzle 5 1017 93 7000 3.6 240 19:22 24.01.2020
3769 Rain 5 1018 100 0 7.7 270 18:57 24.01.2020
3770 Drizzle 5 1017 93 4500 3.6 250 18:39 24.01.2020
3771 Clouds 5 1017 100 6000 5.1 250 18:21 24.01.2020
3772 Rain 5 1017 100 0 8.7 260 17:44 24.01.2020
3773 Drizzle 5 1017 93 2500 3.1 250 17:22 24.01.2020
3774 Clouds 6 1017 93 0 6.7 260 16:57 24.01.2020
3775 Clouds 5 1018 93 2200 6.7 250 16:38 24.01.2020
3776 Drizzle 6 1017 93 5000 3.6 250 16:19 24.01.2020
3777 Clouds 6 1017 93 0 8.2 270 15:41 24.01.2020
3778 Clouds 6 1017 93 10000 4.6 260 15:21 24.01.2020
3779 Clouds 6 1018 93 0 8.2 280 14:55 24.01.2020
3780 Clouds 6 1018 93 1800 7.7 250 14:36 24.01.2020
3781 Clouds 6 1017 93 10000 4.1 260 14:18 24.01.2020
3782 Clouds 6 1018 93 0 7.7 280 13:41 24.01.2020
3783 Clouds 5 1017 93 9000 4.1 260 13:21 24.01.2020
3784 Clouds 5 1018 100 0 7.2 280 12:43 24.01.2020
3785 Clouds 5 1018 93 7000 3.1 250 12:21 24.01.2020
3786 Clouds 5 1019 100 0 7.7 270 11:45 24.01.2020
3787 Mist 5 1020 93 3000 6.7 240 11:19 24.01.2020
3788 Mist 5 1020 93 3000 6.7 240 11:19 24.01.2020
3789 Mist 5 1020 93 3000 6.7 240 11:19 24.01.2020
3790 Clouds 5 1019 100 0 7.7 270 10:58 24.01.2020
3791 Clouds 5 1019 100 6000 3.6 250 10:40 24.01.2020
3792 Drizzle 5 1019 100 6000 3.1 240 10:19 24.01.2020
3793 Clouds 5 1019 93 0 7.7 260 09:41 24.01.2020
3794 Drizzle 4 1019 93 4000 3.1 240 09:23 24.01.2020
3795 Clouds 4 1019 100 0 6.2 250 08:41 24.01.2020
3796 Drizzle 4 1019 93 3000 3.1 230 08:21 24.01.2020
3797 Clouds 4 1020 100 0 6.7 250 08:00 24.01.2020
3798 Clouds 4 1020 100 0 6.7 250 07:41 24.01.2020
3799 Drizzle 4 1019 93 3500 3.6 250 07:18 24.01.2020
3800 Clouds 4 1019 100 0 7.2 250 06:42 24.01.2020
3801 Drizzle 4 1020 100 800 6.2 220 06:18 24.01.2020
3802 Drizzle 5 1020 93 0 3.1 230 05:20 24.01.2020
3803 Rain 5 1021 93 0 3.6 240 03:29 24.01.2020
3804 Rain 5 1022 93 0 3.6 230 02:39 24.01.2020
3805 Clouds 5 1022 93 0 3.1 230 02:19 24.01.2020
3806 Fog 5 1023 93 800 3.1 230 01:38 24.01.2020
3807 Clouds 5 1023 93 0 3.6 240 00:40 24.01.2020
3808 Mist 5 1023 93 0 3.6 240 00:19 24.01.2020
3809 Clouds 5 1024 93 0 6.7 240 23:41 23.01.2020
3810 Drizzle 5 1023 100 2000 6.7 240 23:21 23.01.2020
3811 Clouds 5 1024 100 0 5.1 250 22:58 23.01.2020
3812 Clouds 5 1025 93 900 5.1 230 22:37 23.01.2020
3813 Clouds 5 1025 93 900 5.1 230 22:37 23.01.2020
3814 Clouds 5 1024 93 8000 5.1 220 22:18 23.01.2020
3815 Clouds 5 1025 100 0 6.2 240 21:55 23.01.2020
3816 Clouds 5 1026 93 1400 6.2 230 21:37 23.01.2020
3817 Mist 5 1024 93 4000 5.1 220 21:19 23.01.2020
3818 Clouds 5 1025 100 0 6.2 250 20:55 23.01.2020
3819 Mist 4 1026 100 3000 3.1 230 20:37 23.01.2020
3820 Drizzle 5 1025 93 5000 4.6 230 20:18 23.01.2020
3821 Clouds 5 1026 100 0 4.6 250 19:42 23.01.2020
3822 Mist 5 1026 93 3000 4.6 230 19:23 23.01.2020
3823 Clouds 5 1026 100 0 5.7 240 18:58 23.01.2020
3824 Clouds 5 1027 100 1800 5.1 230 18:38 23.01.2020
3825 Drizzle 5 1025 93 1400 5.1 230 18:20 23.01.2020
3826 Clouds 5 1027 100 0 5.7 260 17:56 23.01.2020
3827 Drizzle 5 1027 93 1800 3.1 230 17:37 23.01.2020
3828 Mist 5 1026 93 1700 5.1 240 17:18 23.01.2020
3829 Drizzle 5 1028 93 2800 5.1 240 16:39 23.01.2020
3830 Drizzle 5 1027 93 8000 3.1 250 16:20 23.01.2020
3831 Clouds 5 1027 93 0 8.2 260 15:58 23.01.2020
3832 Clouds 5 1028 93 9000 5.1 250 15:40 23.01.2020
3833 Clouds 6 1027 93 10000 5.1 240 15:19 23.01.2020
3834 Clouds 6 1028 93 0 5.7 260 14:59 23.01.2020
3835 Clouds 6 1029 93 10000 5.7 250 14:41 23.01.2020
3836 Clouds 6 1028 93 10000 5.1 250 14:23 23.01.2020
3837 Clouds 6 1029 93 0 7.7 260 13:59 23.01.2020
3838 Clouds 6 1029 87 10000 5.7 250 13:38 23.01.2020
3839 Clouds 6 1029 93 10000 5.1 250 13:19 23.01.2020
3840 Clouds 6 1030 93 0 8.7 260 12:46 23.01.2020
3841 Drizzle 6 1029 100 1800 5.1 240 12:25 23.01.2020
3842 Clouds 6 1031 93 0 6.7 270 11:58 23.01.2020
3843 Clouds 5 1031 87 10000 3.6 240 11:38 23.01.2020
3844 Clouds 5 1031 93 10000 5.1 260 11:19 23.01.2020
3845 Clouds 5 1031 93 0 7.7 260 10:44 23.01.2020
3846 Clouds 5 1032 86 10000 3.6 230 10:22 23.01.2020
3847 Clouds 5 1031 93 0 6.2 270 09:59 23.01.2020
3848 Clouds 5 1032 93 10000 3.6 240 09:37 23.01.2020
3849 Mist 5 1031 100 2500 4.6 250 09:19 23.01.2020
3850 Clouds 4 1031 87 0 6.2 270 08:41 23.01.2020
3851 Clouds 4 1032 93 10000 3.6 270 08:22 23.01.2020
3852 Clouds 4 1031 93 0 5.1 260 07:45 23.01.2020
3853 Clouds 4 1031 93 10000 2.6 240 07:26 23.01.2020
3854 Clouds 4 1032 93 0 6.2 260 06:54 23.01.2020
3855 Clouds 3 1032 100 0 3.1 250 06:23 23.01.2020
3856 Clouds 3 1032 100 0 5.1 270 05:58 23.01.2020
3857 Clouds 3 1032 100 0 5.1 270 05:58 23.01.2020
3858 Fog 3 1033 100 0 3.1 260 04:24 23.01.2020
3859 Clouds 3 1034 93 800 2.6 230 02:35 23.01.2020
3860 Mist 2 1033 93 0 3.1 250 01:41 23.01.2020
3861 Clouds 3 1033 93 0 3.1 270 00:28 23.01.2020
3862 Clouds 3 1034 100 0 4.6 320 23:54 22.01.2020
3863 Clouds 3 1034 93 200 3.1 270 23:36 22.01.2020
3864 Clouds 3 1033 93 10000 3.1 270 23:18 22.01.2020
3865 Clouds 3 1033 100 0 6.2 310 22:41 22.01.2020
3866 Clouds 3 1033 93 10000 3.1 260 22:23 22.01.2020
3867 Clouds 3 1033 100 0 5.7 310 21:56 22.01.2020
3868 Clouds 3 1034 100 300 3.1 270 21:36 22.01.2020
3869 Clouds 3 1033 93 6000 3.6 280 21:18 22.01.2020
3870 Clouds 3 1033 100 0 6.2 310 20:41 22.01.2020
3871 Clouds 4 1033 86 10000 2.6 270 20:23 22.01.2020
3872 Clouds 4 1033 100 0 5.1 310 19:58 22.01.2020
3873 Clouds 4 1033 100 0 5.1 310 19:58 22.01.2020
3874 Clouds 4 1033 100 0 5.1 310 19:40 22.01.2020
3875 Clouds 4 1032 86 10000 3.1 260 19:20 22.01.2020
3876 Clouds 4 1033 93 0 4.6 300 18:58 22.01.2020
3877 Clouds 5 1033 93 10000 2.6 280 18:39 22.01.2020
3878 Clouds 5 1032 87 10000 2.6 270 18:20 22.01.2020
3879 Clouds 5 1032 93 0 5.7 310 17:56 22.01.2020
3880 Clouds 6 1032 87 10000 3.1 290 17:38 22.01.2020
3881 Clouds 6 1032 93 10000 3.1 300 17:19 22.01.2020
3882 Clouds 6 1031 93 0 5.1 300 16:44 22.01.2020
3883 Clouds 7 1032 81 10000 3.1 290 16:24 22.01.2020
3884 Clouds 7 1031 87 0 5.7 320 15:59 22.01.2020
3885 Clouds 7 1031 87 0 5.7 320 15:41 22.01.2020
3886 Clouds 7 1031 81 10000 4.1 300 15:23 22.01.2020
3887 Clouds 7 1031 81 0 6.7 320 14:58 22.01.2020
3888 Clouds 7 1032 81 10000 4.6 290 14:37 22.01.2020
3889 Clouds 7 1031 81 10000 4.6 300 14:19 22.01.2020
3890 Clouds 7 1031 81 0 7.7 320 13:55 22.01.2020
3891 Clouds 7 1032 81 10000 5.1 300 13:37 22.01.2020
3892 Clouds 7 1031 81 10000 5.7 300 13:19 22.01.2020
3893 Clouds 7 1031 87 0 8.2 320 12:56 22.01.2020
3894 Clouds 7 1032 81 10000 4.6 300 12:37 22.01.2020
3895 Clouds 7 1031 81 10000 6.2 300 12:18 22.01.2020
3896 Clouds 7 1031 93 0 7.2 310 11:56 22.01.2020
3897 Clouds 7 1032 81 10000 5.1 310 11:38 22.01.2020
3898 Clouds 6 1030 81 10000 5.7 300 11:19 22.01.2020
3899 Clouds 6 1031 87 0 6.7 300 10:44 22.01.2020
3900 Clouds 5 1030 87 10000 5.7 290 10:21 22.01.2020
3901 Clouds 5 1031 93 0 6.7 310 09:57 22.01.2020
3902 Clouds 5 1031 93 10000 4.1 280 09:39 22.01.2020
3903 Clouds 5 1030 87 10000 6.2 290 09:20 22.01.2020
3904 Clouds 5 1030 87 0 8.7 290 08:54 22.01.2020
3905 Clouds 5 1031 93 10000 4.6 280 08:36 22.01.2020
3906 Clouds 5 1029 87 10000 4.6 280 08:18 22.01.2020
3907 Clouds 6 1030 93 0 8.2 300 07:42 22.01.2020
3908 Clouds 6 1029 87 10000 5.7 290 07:23 22.01.2020
3909 Drizzle 6 1030 100 4500 5.7 290 06:34 22.01.2020
3910 Clouds 6 1030 93 0 7.7 310 05:54 22.01.2020
3911 Clouds 6 1030 93 0 7.7 300 04:25 22.01.2020
3912 Rain 7 1030 93 0 5.1 280 03:26 22.01.2020
3913 Clouds 6 1031 100 0 10.3 300 02:42 22.01.2020
3914 Clouds 6 1031 93 0 9.3 280 00:47 22.01.2020
3915 Clouds 6 1031 100 0 4.6 270 00:27 22.01.2020
3916 Clouds 6 1032 93 0 9.3 280 23:57 21.01.2020
3917 Clouds 6 1033 93 1400 6.7 270 23:37 21.01.2020
3918 Rain 6 1031 100 0 4.6 260 23:19 21.01.2020
3919 Clouds 6 1032 93 0 8.2 280 22:41 21.01.2020
3920 Drizzle 6 1032 93 2000 4.6 260 22:23 21.01.2020
3921 Clouds 6 1033 93 0 8.2 280 21:58 21.01.2020
3922 Drizzle 6 1032 93 2000 4.1 260 21:39 21.01.2020
3923 Drizzle 6 1033 93 1800 3.6 280 21:20 21.01.2020
3924 Clouds 6 1033 93 0 10.3 280 20:57 21.01.2020
3925 Clouds 6 1034 93 5000 5.7 260 20:39 21.01.2020
3926 Mist 6 1033 93 3000 5.1 270 20:20 21.01.2020
3927 Clouds 6 1033 93 0 10.8 280 19:58 21.01.2020
3928 Clouds 6 1033 93 0 10.8 280 19:58 21.01.2020
3929 Clouds 6 1034 93 3100 6.2 250 19:39 21.01.2020
3930 Clouds 6 1033 93 10000 6.2 260 19:21 21.01.2020
3931 Clouds 6 1034 93 0 10.3 280 18:57 21.01.2020
3932 Clouds 6 1035 93 3400 6.2 260 18:38 21.01.2020
3933 Mist 6 1033 100 3000 8.7 260 18:20 21.01.2020
3934 Clouds 6 1034 100 0 10.3 280 17:56 21.01.2020
3935 Clouds 6 1035 87 6000 7.7 270 17:37 21.01.2020
3936 Clouds 6 1034 87 7000 8.2 260 17:18 21.01.2020
3937 Clouds 6 1035 87 10000 7.7 260 16:37 21.01.2020
3938 Drizzle 6 1034 93 4500 7.2 260 16:19 21.01.2020
3939 Clouds 6 1034 87 0 10.3 270 15:58 21.01.2020
3940 Clouds 6 1035 81 10000 8.2 260 15:38 21.01.2020
3941 Clouds 6 1036 87 8000 5.7 250 15:19 21.01.2020
3942 Drizzle 6 1035 100 3000 6.7 260 14:39 21.01.2020
3943 Drizzle 6 1035 100 3000 6.7 260 14:39 21.01.2020
3944 Drizzle 6 1035 100 3500 6.7 250 14:21 21.01.2020
3945 Clouds 7 1036 87 0 10.3 280 13:43 21.01.2020
3946 Clouds 7 1035 87 10000 5.1 260 13:20 21.01.2020
3947 Clouds 6 1036 87 0 9.3 260 12:59 21.01.2020
3948 Clouds 6 1036 87 0 9.3 260 12:41 21.01.2020
3949 Clouds 6 1036 87 10000 6.2 250 12:23 21.01.2020
3950 Clouds 6 1036 93 0 8.2 270 11:56 21.01.2020
3951 Clouds 6 1038 87 10000 8.7 270 11:37 21.01.2020
3952 Clouds 6 1036 87 10000 4.6 270 11:18 21.01.2020
3953 Clouds 6 1037 81 10000 8.7 270 10:42 21.01.2020
3954 Clouds 6 1036 93 10000 7.7 270 10:22 21.01.2020
3955 Clouds 6 1036 93 10000 7.7 270 10:22 21.01.2020
3956 Clouds 6 1036 93 10000 7.7 270 10:22 21.01.2020
3957 Clouds 6 1036 87 0 10.8 270 09:56 21.01.2020
3958 Clouds 6 1037 81 10000 7.7 270 09:38 21.01.2020
3959 Clouds 6 1035 87 10000 6.7 260 09:19 21.01.2020
3960 Clouds 6 1037 81 10000 10.8 270 08:41 21.01.2020
3961 Clouds 6 1036 87 10000 6.2 260 08:22 21.01.2020
3962 Clouds 6 1036 87 0 10.3 270 07:43 21.01.2020
3963 Clouds 6 1036 87 10000 6.2 260 07:24 21.01.2020
3964 Clouds 6 1036 87 0 11.8 270 06:57 21.01.2020
3965 Clouds 6 1037 81 10000 9.3 270 06:38 21.01.2020
3966 Clouds 6 1037 81 0 13.9 280 05:55 21.01.2020
3967 Clouds 6 1038 93 9000 4.6 250 05:32 21.01.2020
3968 Clouds 6 1038 81 10000 7.7 260 04:38 21.01.2020
3969 Clouds 6 1038 87 0 6.2 250 02:27 21.01.2020
3970 Clouds 5 1040 93 10000 7.7 250 01:36 21.01.2020
3971 Clouds 5 1039 87 0 11.8 270 00:45 21.01.2020
3972 Clouds 6 1039 87 10000 7.2 250 00:25 21.01.2020
3973 Clouds 6 1039 87 0 10.3 260 23:56 20.01.2020
3974 Clouds 6 1040 93 10000 6.7 250 23:36 20.01.2020
3975 Clouds 6 1039 87 10000 6.2 250 23:18 20.01.2020
3976 Clear 6 1041 87 10000 7.2 250 22:40 20.01.2020
3977 Clouds 6 1040 87 10000 4.1 250 22:21 20.01.2020
3978 Clear 6 1040 87 0 10.3 260 21:58 20.01.2020
3979 Clear 6 1041 87 10000 7.2 250 21:38 20.01.2020
3980 Clouds 6 1040 87 10000 6.2 250 21:20 20.01.2020
3981 Clear 6 1041 93 0 9.3 270 20:59 20.01.2020
3982 Clear 6 1041 93 0 9.3 270 20:41 20.01.2020
3983 Clouds 6 1040 93 10000 5.1 250 20:20 20.01.2020
3984 Clouds 6 1041 93 0 9.8 260 19:58 20.01.2020
3985 Clouds 6 1041 93 0 9.8 260 19:40 20.01.2020
3986 Clouds 6 1041 87 10000 4.6 240 19:19 20.01.2020
3987 Clouds 6 1041 93 0 9.3 260 18:56 20.01.2020
3988 Clouds 6 1042 87 7000 7.2 250 18:38 20.01.2020
3989 Clouds 6 1041 87 10000 3.6 240 18:19 20.01.2020
3990 Clouds 6 1042 87 10000 6.7 250 17:38 20.01.2020
3991 Clouds 6 1041 81 10000 3.6 240 17:19 20.01.2020
3992 Clouds 6 1041 81 0 7.2 260 16:47 20.01.2020
3993 Clouds 6 1041 81 0 7.2 260 16:47 20.01.2020
3994 Clouds 6 1040 81 10000 4.6 250 16:26 20.01.2020
3995 Clouds 6 1041 87 0 10.3 260 15:59 20.01.2020
3996 Clouds 7 1041 87 0 10.3 260 15:59 20.01.2020
3997 Clouds 7 1041 87 0 10.3 260 15:40 20.01.2020
3998 Clouds 7 1041 87 10000 6.2 250 15:22 20.01.2020
3999 Clouds 7 1042 87 0 9.3 270 14:59 20.01.2020
4000 Clouds 7 1043 87 10000 7.2 250 14:40 20.01.2020
4001 Clouds 7 1043 87 10000 7.2 250 14:21 20.01.2020
4002 Clouds 7 1042 87 0 7.7 260 13:57 20.01.2020
4003 Clouds 7 1043 87 10000 7.2 250 13:38 20.01.2020
4004 Clouds 7 1042 93 10000 3.6 240 13:20 20.01.2020
4005 Clouds 7 1042 87 0 9.3 260 12:42 20.01.2020
4006 Clouds 7 1042 87 10000 3.6 240 12:23 20.01.2020
4007 Clouds 7 1043 87 0 8.2 260 11:56 20.01.2020
4008 Clouds 6 1044 93 8000 5.7 240 11:37 20.01.2020
4009 Clouds 6 1043 87 10000 4.6 250 11:18 20.01.2020
4010 Clouds 6 1043 93 0 7.2 260 10:46 20.01.2020
4011 Clouds 6 1042 93 10000 3.6 250 10:21 20.01.2020
4012 Clouds 6 1043 93 0 7.2 260 09:42 20.01.2020
4013 Clouds 5 1042 93 10000 3.6 240 09:24 20.01.2020
4014 Clouds 5 1043 87 0 5.1 260 08:56 20.01.2020
4015 Clouds 5 1044 93 10000 3.6 230 08:35 20.01.2020
4016 Clouds 5 1042 87 0 7.2 270 07:59 20.01.2020
4017 Clouds 5 1042 87 0 7.2 270 07:41 20.01.2020
4018 Clouds 5 1042 93 10000 2.1 230 07:21 20.01.2020
4019 Clouds 4 1042 93 0 6.2 270 06:44 20.01.2020
4020 Clouds 4 1042 93 0 3.1 250 06:24 20.01.2020
4021 Clouds 4 1042 93 0 5.1 270 05:41 20.01.2020
4022 Clouds 4 1042 100 0 3.1 260 05:20 20.01.2020
4023 Mist 4 1042 93 0 3.1 250 04:24 20.01.2020
4024 Clouds 4 1043 93 8000 2.1 230 02:33 20.01.2020
4025 Clouds 4 1042 93 0 6.7 310 01:42 20.01.2020
4026 Clouds 4 1042 100 0 3.1 280 01:23 20.01.2020
4027 Clouds 4 1042 100 0 5.7 300 00:43 20.01.2020
4028 Fog 3 1042 100 900 3.1 290 00:22 20.01.2020
4029 Clouds 3 1042 93 9000 2.1 250 23:39 19.01.2020
4030 Clear 3 1041 93 0 2.6 240 23:19 19.01.2020
4031 Clear 3 1041 100 0 4.1 290 22:56 19.01.2020
4032 Clear 3 1041 93 10000 2.6 300 22:37 19.01.2020
4033 Clouds 3 1041 93 10000 2.6 270 22:19 19.01.2020
4034 Clear 3 1040 93 0 4.1 290 21:56 19.01.2020
4035 Clear 3 1041 86 10000 1 280 21:38 19.01.2020
4036 Clear 3 1040 86 0 2.6 260 21:19 19.01.2020
4037 Clear 3 1040 93 0 4.1 310 20:57 19.01.2020
4038 Clear 3 1040 94 10000 2.1 310 20:38 19.01.2020
4039 Clouds 3 1039 80 10000 3.1 290 20:20 19.01.2020
4040 Clear 3 1040 93 0 5.1 320 19:56 19.01.2020
4041 Clear 3 1040 86 10000 3.1 280 19:38 19.01.2020
4042 Clouds 4 1039 80 10000 2.1 280 19:19 19.01.2020
4043 Clear 4 1038 86 0 5.1 320 18:56 19.01.2020
4044 Clear 4 1038 80 10000 2.1 290 18:37 19.01.2020
4045 Clear 4 1038 92 10000 2.6 280 18:19 19.01.2020
4046 Clear 4 1038 86 0 4.6 320 17:58 19.01.2020
4047 Clear 4 1037 92 10000 3.6 300 17:39 19.01.2020
4048 Clear 4 1037 79 10000 3.6 310 17:20 19.01.2020
4049 Clear 5 1037 75 0 4.1 340 16:58 19.01.2020
4050 Clear 5 1037 79 10000 4.1 330 16:38 19.01.2020
4051 Clear 6 1036 70 10000 4.1 310 16:20 19.01.2020
4052 Clear 6 1036 79 0 6.2 350 15:58 19.01.2020
4053 Clear 6 1036 79 10000 4.6 340 15:38 19.01.2020
4054 Clear 6 1035 70 0 5.1 320 15:20 19.01.2020
4055 Clear 7 1034 75 0 5.1 320 14:58 19.01.2020
4056 Clear 7 1034 75 0 5.1 320 14:39 19.01.2020
4057 Clear 7 1034 65 0 5.7 320 14:18 19.01.2020
4058 Clear 7 1034 70 0 6.7 320 13:57 19.01.2020
4059 Clear 7 1034 65 10000 5.1 340 13:38 19.01.2020
4060 Clear 7 1033 70 0 6.7 320 13:19 19.01.2020
4061 Clear 7 1034 65 0 6.2 330 12:55 19.01.2020
4062 Clear 6 1034 70 10000 5.1 320 12:37 19.01.2020
4063 Clear 6 1034 70 10000 5.1 320 12:37 19.01.2020
4064 Clear 6 1033 70 0 7.2 310 12:19 19.01.2020
4065 Clear 6 1033 70 0 6.2 330 11:42 19.01.2020
4066 Clear 5 1032 70 0 6.7 300 11:21 19.01.2020
4067 Clear 5 1032 75 0 6.7 320 10:57 19.01.2020
4068 Clear 4 1033 86 10000 4.1 300 10:39 19.01.2020
4069 Clear 4 1031 80 0 5.7 300 10:19 19.01.2020
4070 Clear 3 1031 86 0 6.2 310 09:56 19.01.2020
4071 Clear 3 1031 86 0 6.2 310 09:56 19.01.2020
4072 Clear 3 1031 86 0 6.2 310 09:56 19.01.2020
4073 Clear 3 1031 86 0 6.2 310 09:56 19.01.2020
4074 Clear 3 1031 86 0 6.2 310 09:56 19.01.2020
4075 Clear 3 1031 85 10000 3.6 290 09:37 19.01.2020
4076 Clear 3 1030 80 0 4.1 300 09:19 19.01.2020
4077 Clear 3 1029 93 0 8.2 310 08:52 19.01.2020
4078 Clear 3 1028 80 0 4.6 280 08:30 19.01.2020
4079 Clear 3 1028 93 0 7.7 310 07:46 19.01.2020
4080 Clear 3 1027 80 0 5.1 280 07:26 19.01.2020
4081 Clear 3 1027 93 0 7.7 310 06:54 19.01.2020
4082 Clear 3 1027 86 0 3.6 270 06:21 19.01.2020
4083 Clear 2 1025 93 0 6.7 290 03:51 19.01.2020
4084 Clear 3 1023 86 0 3.6 260 02:28 19.01.2020
4085 Clouds 2 1024 93 10000 3.6 250 01:38 19.01.2020
4086 Clouds 3 1023 86 0 4.1 260 01:18 19.01.2020
4087 Clouds 3 1023 86 0 4.1 260 01:18 19.01.2020
4088 Clouds 3 1023 93 0 7.7 280 00:41 19.01.2020
4089 Clouds 3 1023 93 0 7.7 280 00:41 19.01.2020
4090 Clouds 3 1022 86 0 3.6 260 00:19 19.01.2020
4091 Clouds 3 1022 86 0 3.6 260 23:42 18.01.2020
4092 Clouds 3 1021 86 0 3.6 250 23:24 18.01.2020
4093 Clouds 3 1021 86 0 6.7 280 22:58 18.01.2020
4094 Clouds 3 1021 86 0 3.6 250 22:39 18.01.2020
4095 Clouds 4 1021 80 0 3.6 260 22:21 18.01.2020
4096 Clouds 4 1021 86 0 6.7 290 21:57 18.01.2020
4097 Clouds 3 1022 93 10000 3.6 260 21:38 18.01.2020
4098 Clouds 4 1020 86 0 4.1 250 21:20 18.01.2020
4099 Clouds 4 1021 86 0 6.7 270 20:55 18.01.2020
4100 Clouds 4 1021 86 10000 3.1 240 20:36 18.01.2020
4101 Clouds 4 1020 93 0 3.6 240 20:18 18.01.2020
4102 Clouds 4 1019 86 0 3.1 250 19:42 18.01.2020
4103 Clouds 4 1019 93 10000 4.1 260 19:24 18.01.2020
4104 Clouds 5 1019 86 0 7.7 270 18:43 18.01.2020
4105 Rain 5 1020 86 10000 2.6 280 18:24 18.01.2020
4106 Clouds 5 1018 86 0 8.7 270 17:58 18.01.2020
4107 Rain 5 1018 81 0 4.1 240 17:40 18.01.2020
4108 Rain 5 1018 93 7000 3.6 300 17:20 18.01.2020
4109 Rain 5 1018 87 0 8.2 280 16:56 18.01.2020
4110 Rain 5 1016 87 0 4.6 250 16:38 18.01.2020
4111 Rain 5 1016 87 0 4.6 250 16:19 18.01.2020
4112 Rain 5 1017 87 0 9.8 260 15:44 18.01.2020
4113 Rain 5 1016 87 4500 6.7 250 15:25 18.01.2020
4114 Rain 5 1016 87 0 9.3 270 14:59 18.01.2020
4115 Rain 5 1016 87 0 5.1 250 14:40 18.01.2020
4116 Rain 6 1016 87 10000 5.1 240 14:19 18.01.2020
4117 Rain 6 1016 87 0 6.2 240 13:56 18.01.2020
4118 Rain 6 1016 87 0 6.2 240 13:56 18.01.2020
4119 Rain 5 1017 93 10000 8.7 230 13:36 18.01.2020
4120 Clouds 6 1015 87 10000 5.7 250 13:18 18.01.2020
4121 Clouds 6 1015 87 10000 5.7 250 13:18 18.01.2020
4122 Rain 5 1016 81 0 12.3 270 12:41 18.01.2020
4123 Rain 5 1014 86 10000 7.7 260 12:21 18.01.2020
4124 Rain 5 1015 87 0 9.3 260 11:56 18.01.2020
4125 Rain 5 1016 86 10000 10.8 230 11:38 18.01.2020
4126 Clouds 6 1014 87 10000 5.1 230 11:19 18.01.2020
4127 Rain 5 1014 87 0 10.3 250 10:42 18.01.2020
4128 Clouds 5 1016 86 10000 6.7 230 10:21 18.01.2020
4129 Rain 5 1014 87 0 9.8 250 09:55 18.01.2020
4130 Rain 5 1015 86 10000 8.7 220 09:37 18.01.2020
4131 Rain 5 1013 87 0 9.8 230 08:59 18.01.2020
4132 Rain 5 1013 87 0 9.8 230 08:41 18.01.2020
4133 Rain 5 1015 86 10000 9.8 230 08:41 18.01.2020
4134 Rain 5 1013 87 10000 4.6 220 08:20 18.01.2020
4135 Rain 5 1013 87 10000 4.6 220 08:20 18.01.2020
4136 Rain 5 1013 81 0 7.7 230 07:56 18.01.2020
4137 Rain 5 1015 86 10000 9.3 220 07:37 18.01.2020
4138 Rain 5 1012 81 0 9.8 250 06:50 18.01.2020
4139 Rain 5 1012 81 0 6.7 240 06:27 18.01.2020
4140 Rain 5 1012 81 0 13.4 260 05:45 18.01.2020
4141 Rain 6 1010 93 4000 9.3 230 04:24 18.01.2020
4142 Rain 6 1012 87 10000 10.8 230 02:33 18.01.2020
4143 Clouds 7 1012 81 10000 7.7 230 01:39 18.01.2020
4144 Clouds 7 1011 93 10000 8.2 230 00:39 18.01.2020
4145 Clouds 7 1011 93 10000 8.2 230 00:39 18.01.2020
4146 Clouds 7 1010 87 0 5.1 240 00:19 18.01.2020
4147 Clouds 7 1010 87 0 8.7 250 23:58 17.01.2020
4148 Clouds 8 1011 93 10000 6.2 230 23:38 17.01.2020
4149 Rain 8 1010 93 0 3.1 230 23:18 17.01.2020
4150 Rain 8 1010 93 0 6.7 250 22:41 17.01.2020
4151 Drizzle 8 1010 93 4000 3.6 210 22:20 17.01.2020
4152 Rain 8 1010 93 0 4.6 210 21:56 17.01.2020
4153 Rain 8 1010 93 3900 5.1 220 21:37 17.01.2020
4154 Rain 8 1010 93 6000 3.1 210 21:19 17.01.2020
4155 Rain 7 1011 100 4800 3.1 200 20:41 17.01.2020
4156 Rain 8 1010 93 10000 2.6 190 20:21 17.01.2020
4157 Rain 8 1010 93 0 4.6 210 19:58 17.01.2020
4158 Rain 8 1011 93 7000 3.1 200 19:39 17.01.2020
4159 Drizzle 8 1010 93 5000 5.7 210 19:20 17.01.2020
4160 Rain 8 1010 87 0 5.1 210 18:58 17.01.2020
4161 Rain 8 1010 93 6000 5.1 210 18:39 17.01.2020
4162 Clouds 8 1010 87 10000 5.1 210 18:21 17.01.2020
4163 Clouds 9 1010 76 10000 3.1 170 17:40 17.01.2020
4164 Clouds 9 1011 76 10000 3.1 170 17:22 17.01.2020
4165 Clouds 9 1010 76 0 5.1 210 16:57 17.01.2020
4166 Clouds 9 1010 76 10000 2.6 170 16:39 17.01.2020
4167 Clouds 9 1011 76 10000 2.1 170 16:19 17.01.2020
4168 Clouds 9 1011 76 0 4.6 200 15:48 17.01.2020
4169 Clouds 9 1011 76 10000 2.6 170 15:26 17.01.2020
4170 Clouds 9 1011 71 0 4.6 200 14:54 17.01.2020
4171 Clouds 9 1011 71 10000 4.1 190 14:36 17.01.2020
4172 Clouds 9 1012 76 10000 2.6 150 14:18 17.01.2020
4173 Clouds 9 1012 76 0 5.7 200 14:18 17.01.2020
4174 Clouds 9 1012 71 10000 4.6 190 13:39 17.01.2020
4175 Clouds 9 1012 76 10000 3.1 170 13:20 17.01.2020
4176 Clouds 9 1012 70 0 6.7 190 12:45 17.01.2020
4177 Clouds 8 1013 70 10000 4.1 180 12:22 17.01.2020
4178 Clouds 8 1013 75 0 6.7 190 11:41 17.01.2020
4179 Clouds 7 1013 81 10000 4.6 160 11:19 17.01.2020
4180 Clouds 7 1013 81 0 8.7 170 10:54 17.01.2020
4181 Clouds 6 1013 81 10000 6.2 150 10:36 17.01.2020
4182 Clouds 6 1014 81 10000 4.6 160 10:18 17.01.2020
4183 Clouds 6 1014 81 10000 4.6 160 09:41 17.01.2020
4184 Clouds 6 1014 87 10000 3.1 160 09:20 17.01.2020
4185 Clouds 6 1014 81 0 9.3 180 08:55 17.01.2020
4186 Clouds 6 1015 81 10000 4.6 150 08:36 17.01.2020
4187 Clouds 6 1015 81 10000 4.1 160 08:18 17.01.2020
4188 Clouds 5 1015 87 10000 3.6 160 07:42 17.01.2020
4189 Clouds 6 1015 87 10000 2.6 160 07:24 17.01.2020
4190 Clouds 6 1015 87 0 8.2 180 06:43 17.01.2020
4191 Clouds 6 1016 87 0 3.6 150 06:20 17.01.2020
4192 Clouds 5 1018 86 10000 4.6 150 04:26 17.01.2020
4193 Clouds 5 1018 87 10000 5.1 150 02:55 17.01.2020
4194 Clouds 5 1019 93 10000 4.1 150 02:31 17.01.2020
4195 Clouds 5 1019 93 10000 4.1 150 01:33 17.01.2020
4196 Clouds 5 1020 87 10000 4.1 160 00:59 17.01.2020
4197 Clouds 5 1020 87 10000 4.1 160 00:37 17.01.2020
4198 Clouds 5 1020 86 10000 4.6 160 23:59 16.01.2020
4199 Clouds 5 1020 87 0 4.1 160 23:41 16.01.2020
4200 Clouds 5 1020 87 0 4.1 160 23:22 16.01.2020
4201 Clouds 6 1020 81 0 7.7 180 22:41 16.01.2020
4202 Clouds 5 1021 87 10000 5.1 160 22:21 16.01.2020
4203 Clouds 5 1021 87 0 6.7 180 21:57 16.01.2020
4204 Clouds 5 1022 86 10000 4.6 160 21:38 16.01.2020
4205 Clouds 5 1022 87 10000 4.6 160 21:19 16.01.2020
4206 Clouds 5 1022 93 0 6.2 170 20:57 16.01.2020
4207 Clouds 5 1022 86 10000 4.6 160 20:38 16.01.2020
4208 Clouds 5 1022 87 10000 3.6 160 20:19 16.01.2020
4209 Clouds 5 1022 93 0 5.7 170 19:56 16.01.2020
4210 Clouds 5 1023 86 10000 4.6 160 19:37 16.01.2020
4211 Clouds 5 1023 93 8000 3.6 140 19:19 16.01.2020
4212 Clouds 5 1023 93 0 5.1 160 18:55 16.01.2020
4213 Clouds 5 1023 93 10000 4.1 160 18:37 16.01.2020
4214 Clouds 5 1023 93 8000 3.1 140 18:18 16.01.2020
4215 Clouds 6 1023 87 10000 3.6 160 17:42 16.01.2020
4216 Clouds 6 1023 93 7000 2.6 150 17:23 16.01.2020
4217 Clear 6 1023 87 0 4.6 190 16:57 16.01.2020
4218 Clouds 6 1024 87 10000 3.1 180 16:39 16.01.2020
4219 Clouds 7 1024 87 9000 2.6 200 16:20 16.01.2020
4220 Clear 7 1024 87 0 3.1 220 15:44 16.01.2020
4221 Clouds 7 1023 87 10000 3.1 210 15:24 16.01.2020
4222 Clear 7 1023 87 0 3.6 240 14:59 16.01.2020
4223 Clear 7 1023 87 0 3.6 240 14:41 16.01.2020
4224 Clouds 7 1024 87 10000 3.6 230 14:22 16.01.2020
4225 Clouds 7 1024 87 0 7.7 250 13:45 16.01.2020
4226 Clouds 7 1023 87 10000 4.1 230 13:26 16.01.2020
4227 Clouds 7 1024 87 0 6.7 240 12:57 16.01.2020
4228 Clouds 7 1024 87 8000 5.1 220 12:38 16.01.2020
4229 Clouds 7 1023 87 10000 4.1 220 12:20 16.01.2020
4230 Clouds 7 1023 87 0 6.7 240 11:41 16.01.2020
4231 Clouds 7 1023 87 10000 4.6 230 11:23 16.01.2020
4232 Clear 6 1022 87 0 6.2 240 10:55 16.01.2020
4233 Clear 6 1022 87 0 6.2 240 10:55 16.01.2020
4234 Clouds 6 1024 87 8000 6.2 220 10:37 16.01.2020
4235 Clouds 6 1022 87 10000 4.1 230 10:19 16.01.2020
4236 Clear 6 1022 87 0 8.2 250 09:43 16.01.2020
4237 Clouds 6 1021 93 10000 6.7 230 09:24 16.01.2020
4238 Clear 6 1021 87 0 8.7 250 08:58 16.01.2020
4239 Clouds 6 1021 87 10000 4.6 240 08:40 16.01.2020
4240 Clouds 6 1020 93 10000 4.6 230 08:20 16.01.2020
4241 Clear 6 1020 87 0 9.3 250 07:42 16.01.2020
4242 Clouds 6 1019 93 10000 5.7 230 07:24 16.01.2020
4243 Clear 6 1019 93 0 9.8 250 06:54 16.01.2020
4244 Clouds 6 1021 87 10000 8.2 230 06:34 16.01.2020
4245 Clear 6 1019 87 0 10.3 250 05:51 16.01.2020
4246 Clear 7 1018 87 0 6.2 240 05:25 16.01.2020
4247 Clear 6 1017 87 0 5.1 230 04:21 16.01.2020
4248 Clear 6 1016 87 0 6.2 240 03:27 16.01.2020
4249 Clear 6 1015 87 0 6.2 240 02:23 16.01.2020
4250 Clouds 6 1014 87 0 9.8 250 00:44 16.01.2020
4251 Clouds 6 1013 93 10000 6.7 230 00:23 16.01.2020
4252 Clouds 6 1013 93 0 9.3 240 23:46 15.01.2020
4253 Clouds 6 1013 93 0 9.3 240 23:46 15.01.2020
4254 Clouds 6 1012 87 10000 7.2 230 23:22 15.01.2020
4255 Clouds 6 1012 87 0 7.7 240 22:57 15.01.2020
4256 Clouds 6 1014 87 10000 7.2 240 22:39 15.01.2020
4257 Clouds 6 1011 87 10000 4.1 230 22:19 15.01.2020
4258 Clouds 6 1011 87 0 7.2 250 21:57 15.01.2020
4259 Clouds 6 1013 87 10000 6.7 240 21:37 15.01.2020
4260 Clouds 6 1010 81 10000 4.6 240 21:19 15.01.2020
4261 Clouds 6 1010 93 0 9.8 270 20:57 15.01.2020
4262 Clouds 7 1010 87 10000 4.6 260 20:39 15.01.2020
4263 Clouds 7 1010 87 10000 4.6 260 20:39 15.01.2020
4264 Clouds 7 1009 87 10000 4.6 270 20:20 15.01.2020
4265 Rain 7 1008 93 0 10.3 280 19:55 15.01.2020
4266 Rain 7 1009 93 10000 7.2 280 19:37 15.01.2020
4267 Rain 8 1007 87 10000 5.7 280 19:19 15.01.2020
4268 Rain 8 1007 93 0 13.4 280 18:56 15.01.2020
4269 Rain 9 1007 81 10000 13.4 240 18:38 15.01.2020
4270 Rain 9 1007 81 10000 13.4 240 18:38 15.01.2020
4271 Rain 9 1005 87 8000 6.7 230 18:19 15.01.2020
4272 Rain 9 1005 93 0 12.3 240 17:57 15.01.2020
4273 Rain 10 1006 81 8000 10.3 220 17:38 15.01.2020
4274 Rain 10 1004 87 8000 7.2 220 17:19 15.01.2020
4275 Rain 10 1004 87 0 9.3 230 16:41 15.01.2020
4276 Rain 10 1004 87 0 9.3 230 16:41 15.01.2020
4277 Rain 10 1004 87 10000 7.7 220 16:22 15.01.2020
4278 Rain 10 1004 81 0 8.7 230 15:59 15.01.2020
4279 Rain 10 1004 81 0 8.7 230 15:41 15.01.2020
4280 Drizzle 10 1003 93 8000 10.8 220 15:20 15.01.2020
4281 Rain 11 1004 76 0 11.3 230 14:44 15.01.2020
4282 Rain 11 1004 81 10000 7.7 220 14:21 15.01.2020
4283 Rain 11 1004 76 0 14.4 230 13:56 15.01.2020
4284 Drizzle 11 1005 66 10000 10.8 220 13:38 15.01.2020
4285 Rain 11 1003 71 10000 8.2 230 13:19 15.01.2020
4286 Rain 11 1004 66 0 11.3 230 12:41 15.01.2020
4287 Clouds 11 1003 71 10000 8.7 220 12:20 15.01.2020
4288 Rain 11 1003 66 0 11.8 230 11:59 15.01.2020
4289 Clouds 12 1004 66 10000 9.3 220 11:38 15.01.2020
4290 Clouds 12 1004 66 10000 9.3 220 11:38 15.01.2020
4291 Rain 12 1002 71 10000 97.7 220 11:19 15.01.2020
4292 Rain 11 1003 71 0 12.3 230 10:47 15.01.2020
4293 Clouds 11 1002 71 10000 97.7 220 10:28 15.01.2020
4294 Rain 11 1002 71 0 13.4 230 09:57 15.01.2020
4295 Rain 11 1002 71 0 13.4 230 09:57 15.01.2020
4296 Clouds 12 1003 71 10000 9.3 210 09:38 15.01.2020
4297 Clouds 11 1001 76 10000 9.8 210 09:19 15.01.2020
4298 Rain 11 1001 71 0 12.9 230 08:44 15.01.2020
4299 Clouds 11 1000 76 10000 9.3 210 08:24 15.01.2020
4300 Rain 11 1001 76 0 12.3 230 07:54 15.01.2020
4301 Clouds 11 1002 76 10000 10.3 210 07:33 15.01.2020
4302 Rain 11 1000 76 0 14.4 230 06:52 15.01.2020
4303 Rain 11 999 93 5000 13.4 220 06:28 15.01.2020
4304 Clouds 11 1000 87 0 13.9 230 04:56 15.01.2020
4305 Rain 11 998 87 3000 15.4 220 03:20 15.01.2020
4306 Rain 11 999 87 0 11.3 220 01:48 15.01.2020
4307 Rain 11 997 87 2500 14.9 210 01:21 15.01.2020
4308 Rain 11 1000 81 10000 10.8 210 00:37 15.01.2020
4309 Rain 11 997 93 4500 14.4 210 00:19 15.01.2020
4310 Rain 11 998 81 0 12.3 210 23:46 14.01.2020
4311 Rain 11 997 87 3500 12.9 210 23:27 14.01.2020
4312 Rain 11 998 87 0 11.3 210 22:57 14.01.2020
4313 Rain 10 1000 81 10000 10.3 200 22:39 14.01.2020
4314 Clouds 10 1000 81 10000 8.2 200 22:18 14.01.2020
4315 Rain 10 998 87 0 10.8 210 21:57 14.01.2020
4316 Clouds 9 1000 81 10000 8.7 200 21:39 14.01.2020
4317 Rain 9 996 93 2500 12.3 190 21:19 14.01.2020
4318 Rain 9 998 93 0 10.3 210 20:54 14.01.2020
4319 Drizzle 9 1000 87 4000 8.7 200 20:36 14.01.2020
4320 Drizzle 9 1000 87 4000 8.7 200 20:18 14.01.2020
4321 Rain 9 999 93 0 9.3 200 19:55 14.01.2020
4322 Drizzle 9 1000 87 8000 7.7 190 19:37 14.01.2020
4323 Rain 9 1001 87 10000 4.6 180 19:18 14.01.2020
4324 Rain 9 1001 87 10000 4.6 180 19:18 14.01.2020
4325 Rain 9 1000 87 0 7.7 190 18:41 14.01.2020
4326 Drizzle 9 1002 87 10000 6.7 190 18:20 14.01.2020
4327 Rain 9 1001 87 0 5.7 200 17:58 14.01.2020
4328 Clouds 9 1002 87 10000 5.1 190 17:37 14.01.2020
4329 Clouds 9 1001 87 10000 3.6 200 17:18 14.01.2020
4330 Clouds 8 1001 87 0 5.1 220 16:43 14.01.2020
4331 Clouds 8 1001 81 10000 4.6 220 16:23 14.01.2020
4332 Clouds 8 1001 81 10000 4.6 220 16:23 14.01.2020
4333 Clouds 8 1001 81 0 6.2 240 15:58 14.01.2020
4334 Clouds 8 1001 81 0 6.2 240 15:40 14.01.2020
4335 Clouds 8 1002 81 10000 7.2 230 15:19 14.01.2020
4336 Clouds 9 1001 87 0 9.3 250 14:45 14.01.2020
4337 Clouds 9 1001 87 10000 5.1 230 14:21 14.01.2020
4338 Clouds 8 1001 81 0 8.7 250 13:57 14.01.2020
4339 Clouds 8 1002 81 10000 8.7 240 13:39 14.01.2020
4340 Clouds 8 1000 81 10000 5.1 230 13:19 14.01.2020
4341 Clouds 8 1001 81 0 8.2 250 12:42 14.01.2020
4342 Clouds 8 1000 81 0 5.1 230 12:22 14.01.2020
4343 Clouds 8 1000 81 0 7.7 240 11:56 14.01.2020
4344 Drizzle 7 1001 87 10000 7.7 230 11:37 14.01.2020
4345 Drizzle 7 1001 87 10000 7.7 230 11:37 14.01.2020
4346 Rain 7 1001 93 10000 5.1 230 11:19 14.01.2020
4347 Rain 7 999 87 0 8.7 240 10:55 14.01.2020
4348 Clouds 7 1000 87 10000 8.7 240 10:36 14.01.2020
4349 Clouds 8 1000 93 10000 10.8 240 10:18 14.01.2020
4350 Clouds 8 1000 93 10000 10.8 240 10:18 14.01.2020
4351 Rain 8 998 93 0 8.7 240 09:42 14.01.2020
4352 Rain 8 997 87 10000 7.7 200 09:21 14.01.2020
4353 Rain 8 998 93 0 9.8 210 08:57 14.01.2020
4354 Rain 8 999 93 8000 8.7 200 08:39 14.01.2020
4355 Rain 8 998 93 10000 6.7 190 08:20 14.01.2020
4356 Rain 8 998 93 0 10.8 200 07:40 14.01.2020
4357 Rain 8 999 87 8000 8.7 190 07:18 14.01.2020
4358 Rain 7 998 93 0 11.3 190 06:42 14.01.2020
4359 Rain 7 999 87 0 10.8 190 05:56 14.01.2020
4360 Rain 7 999 93 7000 9.3 170 04:24 14.01.2020
4361 Rain 6 1001 81 0 8.7 190 03:45 14.01.2020
4362 Rain 6 1003 87 0 9.8 180 02:32 14.01.2020
4363 Clouds 6 1005 81 0 9.3 180 01:19 14.01.2020
4364 Clouds 6 1005 81 0 9.3 180 00:47 14.01.2020
4365 Clouds 5 1004 86 10000 7.7 170 00:21 14.01.2020
4366 Clouds 5 1004 86 10000 7.7 170 00:21 14.01.2020
4367 Clouds 5 1006 81 0 9.3 180 23:42 13.01.2020
4368 Clouds 5 1006 86 8000 7.2 170 23:19 13.01.2020
4369 Clouds 5 1007 86 0 8.2 180 22:57 13.01.2020
4370 Clouds 5 1007 93 10000 5.7 160 22:39 13.01.2020
4371 Clouds 5 1008 93 10000 5.1 170 22:19 13.01.2020
4372 Clouds 5 1008 86 0 6.2 180 21:55 13.01.2020
4373 Clouds 5 1009 86 10000 5.7 160 21:36 13.01.2020
4374 Clouds 5 1010 87 10000 5.1 170 21:18 13.01.2020
4375 Clouds 5 1009 87 0 6.7 190 20:55 13.01.2020
4376 Clouds 5 1010 86 10000 5.7 180 20:37 13.01.2020
4377 Clouds 5 1010 87 10000 4.1 170 20:19 13.01.2020
4378 Clouds 5 1010 87 0 7.2 180 19:41 13.01.2020
4379 Clouds 6 1011 87 10000 3.1 160 19:21 13.01.2020
4380 Clouds 6 1012 87 0 5.7 180 18:58 13.01.2020
4381 Clouds 6 1012 87 10000 4.6 170 18:38 13.01.2020
4382 Clouds 6 1012 87 10000 3.1 180 18:19 13.01.2020
4383 Clouds 6 1012 87 10000 3.1 180 18:19 13.01.2020
4384 Clouds 6 1012 87 10000 3.1 180 18:19 13.01.2020
4385 Clouds 6 1012 87 10000 3.1 180 18:19 13.01.2020
4386 Clouds 6 1012 87 0 4.6 200 17:58 13.01.2020
4387 Clouds 6 1012 87 10000 3.1 190 17:39 13.01.2020
4388 Clouds 6 1013 87 10000 2.6 200 17:21 13.01.2020
4389 Clouds 6 1013 87 10000 2.6 200 17:21 13.01.2020
4390 Clouds 6 1012 87 10000 4.1 190 16:55 13.01.2020
4391 Clouds 6 1013 87 10000 3.6 210 16:36 13.01.2020
4392 Clouds 6 1013 87 9000 2.6 200 16:18 13.01.2020
4393 Clouds 6 1012 90 0 3.13 202 15:42 13.01.2020
4394 Clouds 6 1012 90 0 2.68 213 15:22 13.01.2020
4395 Clouds 6 1012 91 0 2.68 210 14:56 13.01.2020
4396 Clouds 6 1015 93 10000 6.7 230 14:36 13.01.2020
4397 Clouds 6 1015 93 10000 6.7 230 14:18 13.01.2020
4398 Clouds 6 1015 93 10000 6.7 230 13:40 13.01.2020
4399 Clouds 6 1015 93 10000 6.7 230 13:40 13.01.2020
4400 Rain 6 1013 92 0 2.68 222 13:22 13.01.2020
4401 Clouds 6 1016 93 8000 4.6 200 12:58 13.01.2020
4402 Clouds 6 1015 93 0 3.6 210 12:40 13.01.2020
4403 Clouds 6 1015 93 0 3.6 210 12:21 13.01.2020
4404 Clouds 6 1015 93 0 3.6 210 11:56 13.01.2020
4405 Clouds 6 1016 93 7000 4.1 200 11:37 13.01.2020
4406 Rain 6 1015 100 8000 4.1 200 11:18 13.01.2020
4407 Clouds 5 1016 93 0 4.6 220 10:55 13.01.2020
4408 Rain 5 1016 93 6000 3.1 190 10:36 13.01.2020
4409 Clouds 5 1017 93 8000 2.6 190 10:18 13.01.2020
4410 Rain 5 1016 93 6000 4.1 200 09:40 13.01.2020
4411 Mist 5 1015 93 2500 3.6 200 09:22 13.01.2020
4412 Clouds 5 1015 93 0 4.1 230 08:44 13.01.2020
4413 Clouds 5 1016 93 10000 3.1 220 08:21 13.01.2020
4414 Clouds 5 1016 93 10000 3.6 190 07:59 13.01.2020
4415 Clouds 5 1016 93 10000 3.6 190 07:59 13.01.2020
4416 Clouds 5 1016 93 0 6.2 230 07:40 13.01.2020
4417 Clouds 5 1015 93 10000 3.1 200 07:18 13.01.2020
4418 Clouds 5 1016 93 10000 5.7 230 06:37 13.01.2020
4419 Clouds 5 1016 93 10000 5.7 230 06:37 13.01.2020
4420 Clouds 5 1016 93 8000 4.6 230 05:36 13.01.2020
4421 Clouds 5 1015 93 10000 4.1 240 04:25 13.01.2020
4422 Clear 5 1016 93 10000 5.1 250 03:35 13.01.2020
4423 Clear 6 1015 93 0 6.7 270 02:49 13.01.2020
4424 Clouds 6 1015 93 10000 4.6 250 02:29 13.01.2020
4425 Clouds 6 1016 93 10000 6.7 270 01:33 13.01.2020
4426 Clouds 7 1014 93 0 7.2 280 00:44 13.01.2020
4427 Clouds 7 1014 93 10000 5.7 260 00:25 13.01.2020
4428 Clouds 7 1014 93 0 7.7 280 23:57 12.01.2020
4429 Clouds 7 1014 93 10000 4.6 270 23:38 12.01.2020
4430 Clouds 7 1013 100 10000 5.1 260 23:20 12.01.2020
4431 Clouds 7 1013 100 0 6.2 280 22:43 12.01.2020
4432 Clouds 7 1012 100 10000 5.1 260 22:25 12.01.2020
4433 Clouds 7 1012 93 0 6.2 280 21:59 12.01.2020
4434 Clouds 7 1012 93 0 6.2 280 21:40 12.01.2020
4435 Clouds 7 1011 93 0 6.2 280 21:20 12.01.2020
4436 Clouds 7 1011 93 0 6.2 280 20:59 12.01.2020
4437 Drizzle 7 1012 100 6000 5.7 250 20:39 12.01.2020
4438 Rain 7 1010 93 7000 3.6 270 20:21 12.01.2020
4439 Rain 7 1010 100 0 7.7 290 19:57 12.01.2020
4440 Rain 7 1011 100 5000 8.2 250 19:38 12.01.2020
4441 Rain 7 1010 100 2000 3.6 270 19:19 12.01.2020
4442 Rain 7 1010 100 2000 3.6 270 19:19 12.01.2020
4443 Rain 7 1008 100 0 12.9 280 18:58 12.01.2020
4444 Rain 7 1009 100 1300 3.1 270 18:40 12.01.2020
4445 Rain 7 1008 93 5000 1.5 230 18:21 12.01.2020
4446 Rain 7 1008 93 0 7.7 230 17:59 12.01.2020
4447 Rain 7 1008 93 0 7.7 230 17:41 12.01.2020
4448 Drizzle 6 1009 93 2000 3.6 200 17:19 12.01.2020
4449 Rain 6 1009 93 0 6.2 220 16:56 12.01.2020
4450 Rain 6 1010 93 4700 10.3 220 16:37 12.01.2020
4451 Rain 6 1009 93 7000 5.1 210 16:19 12.01.2020
4452 Rain 6 1010 93 0 7.7 230 15:43 12.01.2020
4453 Rain 6 1010 93 6000 5.7 210 15:25 12.01.2020
4454 Rain 5 1010 100 0 7.2 230 14:59 12.01.2020
4455 Rain 5 1011 93 4100 7.2 220 14:41 12.01.2020
4456 Rain 5 1010 93 6000 7.2 220 14:21 12.01.2020
4457 Rain 5 1011 93 0 7.7 230 13:56 12.01.2020
4458 Rain 5 1012 93 2500 7.7 220 13:38 12.01.2020
4459 Rain 5 1010 93 6000 8.2 220 13:20 12.01.2020
4460 Rain 5 1012 93 0 7.7 240 12:43 12.01.2020
4461 Rain 5 1011 100 7000 8.2 220 12:21 12.01.2020
4462 Rain 5 1012 93 0 9.8 230 11:59 12.01.2020
4463 Rain 5 1012 93 0 9.8 230 11:59 12.01.2020
4464 Rain 5 1013 93 2000 8.2 220 11:40 12.01.2020
4465 Rain 5 1012 100 4500 8.2 230 11:22 12.01.2020
4466 Rain 5 1013 93 0 9.3 240 10:56 12.01.2020
4467 Rain 6 1014 93 2900 9.8 230 10:37 12.01.2020
4468 Rain 6 1011 100 6000 7.7 230 10:18 12.01.2020
4469 Rain 5 1012 93 0 8.7 240 09:41 12.01.2020
4470 Rain 6 1011 100 4500 8.2 230 09:22 12.01.2020
4471 Rain 6 1012 93 0 8.7 240 08:48 12.01.2020
4472 Rain 6 1013 93 0 11.3 240 08:22 12.01.2020
4473 Rain 6 1013 93 0 11.3 240 07:47 12.01.2020
4474 Rain 6 1012 100 5000 9.8 230 07:26 12.01.2020
4475 Rain 6 1012 100 5000 9.8 230 07:26 12.01.2020
4476 Rain 6 1013 93 0 10.3 240 06:59 12.01.2020
4477 Rain 6 1013 93 0 10.3 240 06:59 12.01.2020
4478 Rain 6 1015 87 2300 11.3 230 06:36 12.01.2020
4479 Rain 6 1014 93 0 11.8 240 05:52 12.01.2020
4480 Rain 6 1014 87 0 10.8 240 04:56 12.01.2020
4481 Rain 7 1014 87 0 10.8 240 03:43 12.01.2020
4482 Rain 7 1015 87 0 10.8 240 02:48 12.01.2020
4483 Drizzle 6 1013 93 6000 12.9 230 02:24 12.01.2020
4484 Clouds 6 1017 87 10000 10.3 230 01:34 12.01.2020
4485 Clouds 6 1016 81 0 11.3 240 00:46 12.01.2020
4486 Drizzle 7 1018 75 4000 7.7 220 00:22 12.01.2020
4487 Clouds 7 1017 81 0 10.3 230 23:59 11.01.2020
4488 Clouds 7 1017 81 0 10.3 230 23:41 11.01.2020
4489 Clouds 6 1016 87 10000 10.8 220 23:18 11.01.2020
4490 Clouds 6 1017 81 0 10.8 230 22:56 11.01.2020
4491 Clouds 6 1019 81 10000 10.3 220 22:38 11.01.2020
4492 Clouds 6 1016 87 10000 11.3 210 22:20 11.01.2020
4493 Clouds 6 1018 81 0 12.3 230 21:54 11.01.2020
4494 Clouds 6 1019 75 10000 9.8 220 21:36 11.01.2020
4495 Clouds 6 1017 87 8000 10.8 220 21:18 11.01.2020
4496 Clouds 6 1020 75 10000 9.8 220 20:39 11.01.2020
4497 Clouds 6 1017 81 10000 12.3 210 20:20 11.01.2020
4498 Clouds 6 1019 81 0 11.3 220 19:58 11.01.2020
4499 Clouds 6 1020 75 10000 9.3 210 19:38 11.01.2020
4500 Clouds 6 1018 81 10000 11.3 210 19:20 11.01.2020
4501 Clouds 6 1019 81 0 11.3 220 18:57 11.01.2020
4502 Clouds 6 1021 80 10000 7.7 210 18:37 11.01.2020
4503 Clouds 6 1018 81 10000 11.8 210 18:19 11.01.2020
4504 Clouds 6 1020 81 0 10.8 230 17:57 11.01.2020
4505 Clouds 5 1022 80 10000 8.2 210 17:39 11.01.2020
4506 Clouds 5 1019 87 10000 9.8 220 17:19 11.01.2020
4507 Clouds 5 1020 86 0 10.3 220 16:44 11.01.2020
4508 Clouds 5 1019 87 10000 10.3 220 16:25 11.01.2020
4509 Clouds 5 1021 81 0 11.3 230 15:57 11.01.2020
4510 Clouds 5 1023 80 10000 8.2 220 15:39 11.01.2020
4511 Clouds 6 1020 87 10000 10.8 220 15:20 11.01.2020
4512 Clouds 6 1020 87 10000 10.8 220 15:20 11.01.2020
4513 Clouds 6 1021 81 0 8.7 230 14:56 11.01.2020
4514 Clouds 6 1023 75 10000 9.3 220 14:37 11.01.2020
4515 Clouds 5 1022 81 10000 6.2 210 14:19 11.01.2020
4516 Clouds 5 1024 80 10000 9.3 220 13:39 11.01.2020
4517 Clouds 5 1022 81 10000 6.7 210 13:20 11.01.2020
4518 Clouds 5 1023 86 0 8.7 220 12:57 11.01.2020
4519 Clouds 5 1024 80 10000 6.7 210 12:38 11.01.2020
4520 Clouds 5 1023 81 10000 6.7 210 12:20 11.01.2020
4521 Clouds 5 1024 86 0 6.2 220 11:46 11.01.2020
4522 Clouds 5 1024 86 10000 5.7 210 11:25 11.01.2020
4523 Clouds 4 1024 86 0 6.2 220 10:50 11.01.2020
4524 Clouds 4 1024 93 10000 4.6 210 10:30 11.01.2020
4525 Clouds 4 1024 86 0 6.7 220 09:57 11.01.2020
4526 Clouds 4 1026 86 10000 5.1 210 09:37 11.01.2020
4527 Clouds 4 1025 86 10000 4.1 200 09:19 11.01.2020
4528 Clouds 4 1025 93 0 5.7 220 08:42 11.01.2020
4529 Clouds 4 1025 93 10000 3.1 200 08:21 11.01.2020
4530 Clouds 4 1025 93 0 5.7 220 07:44 11.01.2020
4531 Clouds 3 1025 86 10000 2.6 190 07:25 11.01.2020
4532 Clouds 3 1025 93 0 6.2 220 06:50 11.01.2020
4533 Clouds 2 1026 93 0 3.6 240 05:40 11.01.2020
4534 Clouds 1 1026 100 0 4.1 240 04:46 11.01.2020
4535 Clouds 1 1025 88 10000 2.1 190 04:27 11.01.2020
4536 Clouds 1 1025 100 0 3.1 290 02:49 11.01.2020
4537 Clouds 1 1025 100 0 3.1 290 02:49 11.01.2020
4538 Clouds 1 1025 88 10000 1.5 220 02:27 11.01.2020
4539 Clouds 2 1025 86 0 4.1 310 01:43 11.01.2020
4540 Clouds 2 1025 93 10000 2.6 290 01:19 11.01.2020
4541 Clear 3 1025 89 10000 2.6 260 00:38 11.01.2020
4542 Clear 4 1024 75 0 6.2 340 23:59 10.01.2020
4543 Clear 4 1024 80 10000 3.6 330 23:40 10.01.2020
4544 Clouds 5 1023 80 10000 3.1 320 23:21 10.01.2020
4545 Clouds 5 1023 80 0 6.7 320 22:58 10.01.2020
4546 Clouds 5 1022 80 10000 6.7 320 22:40 10.01.2020
4547 Clouds 5 1021 80 10000 6.7 320 22:20 10.01.2020
4548 Clouds 5 1022 86 0 5.7 310 21:57 10.01.2020
4549 Clouds 4 1022 86 10000 4.1 300 21:37 10.01.2020
4550 Clouds 4 1020 80 10000 6.7 330 21:19 10.01.2020
4551 Clouds 4 1020 80 0 6.7 350 20:43 10.01.2020
4552 Clouds 4 1019 86 10000 7.2 330 20:24 10.01.2020
4553 Clouds 4 1019 86 0 7.7 340 19:58 10.01.2020
4554 Clouds 4 1019 86 10000 6.7 320 19:38 10.01.2020
4555 Clouds 4 1019 86 10000 6.7 320 19:38 10.01.2020
4556 Clouds 4 1018 86 10000 8.2 310 19:19 10.01.2020
4557 Clouds 4 1019 86 10000 5.1 310 18:43 10.01.2020
4558 Clouds 4 1017 86 10000 8.7 310 18:19 10.01.2020
4559 Clouds 4 1017 86 0 8.7 340 17:58 10.01.2020
4560 Clouds 4 1017 93 8000 6.2 340 17:39 10.01.2020
4561 Clouds 5 1015 86 10000 8.7 320 17:20 10.01.2020
4562 Rain 5 1015 80 0 8.7 350 16:58 10.01.2020
4563 Rain 5 1016 86 10000 6.7 330 16:39 10.01.2020
4564 Clouds 5 1015 93 8000 7.2 320 16:20 10.01.2020
4565 Rain 5 1013 93 0 7.7 350 15:56 10.01.2020
4566 Clouds 5 1012 93 10000 7.2 330 15:37 10.01.2020
4567 Clouds 5 1012 93 10000 7.2 330 15:18 10.01.2020
4568 Rain 5 1012 100 0 8.2 360 14:56 10.01.2020
4569 Clouds 5 1012 100 10000 7.7 310 14:38 10.01.2020
4570 Rain 6 1010 93 6000 7.7 340 14:18 10.01.2020
4571 Rain 7 1010 100 0 8.2 10 13:44 10.01.2020
4572 Drizzle 7 1010 100 4000 5.1 250 13:26 10.01.2020
4573 Rain 7 1009 100 0 4.6 280 12:59 10.01.2020
4574 Drizzle 7 1009 100 3800 7.2 250 12:39 10.01.2020
4575 Drizzle 7 1009 100 4000 6.2 260 12:21 10.01.2020
4576 Rain 7 1008 100 0 4.6 280 11:57 10.01.2020
4577 Drizzle 7 1009 100 2000 6.2 260 11:39 10.01.2020
4578 Drizzle 7 1009 100 3900 6.2 260 11:19 10.01.2020
4579 Rain 7 1008 100 0 3.6 260 10:58 10.01.2020
4580 Clouds 7 1008 93 6000 5.1 250 10:38 10.01.2020
4581 Clouds 7 1008 93 6000 5.1 250 10:18 10.01.2020
4582 Rain 8 1007 100 0 3.1 280 09:45 10.01.2020
4583 Drizzle 8 1007 100 4000 1.5 240 09:26 10.01.2020
4584 Rain 8 1007 100 0 3.1 270 08:57 10.01.2020
4585 Drizzle 8 1007 100 5000 9.3 250 08:37 10.01.2020
4586 Rain 8 1006 100 8000 1.5 210 08:18 10.01.2020
4587 Rain 8 1006 100 0 3.1 240 07:41 10.01.2020
4588 Rain 8 1006 93 5000 2.1 250 07:21 10.01.2020
4589 Rain 8 1006 93 0 3.6 250 06:41 10.01.2020
4590 Drizzle 8 1005 93 3000 1 280 06:23 10.01.2020
4591 Rain 8 1005 100 3000 1 220 05:25 10.01.2020
4592 Fog 8 1005 100 900 3.6 210 03:32 10.01.2020
4593 Rain 8 1005 100 0 2.1 240 02:54 10.01.2020
4594 Rain 8 1005 100 6000 2.6 240 02:33 10.01.2020
4595 Clouds 8 1004 87 10000 4.1 220 01:33 10.01.2020
4596 Clouds 8 1004 93 0 5.1 240 00:56 10.01.2020
4597 Clouds 8 1005 93 8000 5.7 250 00:38 10.01.2020
4598 Clouds 9 1005 93 0 7.2 260 23:57 09.01.2020
4599 Clouds 9 1005 87 10000 6.2 250 23:37 09.01.2020
4600 Clouds 9 1004 93 8000 5.1 240 23:19 09.01.2020
4601 Clouds 9 1004 87 0 8.7 260 22:56 09.01.2020
4602 Clouds 9 1005 87 10000 6.2 250 22:37 09.01.2020
4603 Clouds 10 1004 87 10000 3.1 240 22:18 09.01.2020
4604 Clouds 10 1004 87 0 8.7 250 21:56 09.01.2020
4605 Clouds 10 1005 87 10000 7.2 240 21:37 09.01.2020
4606 Clouds 10 1005 87 10000 7.2 240 21:37 09.01.2020
4607 Clouds 10 1004 87 10000 5.1 240 21:37 09.01.2020
4608 Clouds 10 1004 87 10000 5.1 240 21:18 09.01.2020
4609 Clouds 10 1004 93 0 9.3 250 20:56 09.01.2020
4610 Clouds 10 1004 93 0 9.3 250 20:38 09.01.2020
4611 Clouds 10 1004 87 10000 5.1 240 20:19 09.01.2020
4612 Clouds 10 1004 87 0 9.8 250 19:55 09.01.2020
4613 Clouds 10 1004 87 0 9.8 250 19:36 09.01.2020
4614 Clouds 10 1004 87 10000 4.6 230 19:18 09.01.2020
4615 Clouds 11 1004 87 0 8.7 250 18:54 09.01.2020
4616 Clouds 11 1004 87 0 8.7 250 18:36 09.01.2020
4617 Rain 11 1004 87 10000 5.1 240 18:18 09.01.2020
4618 Rain 11 1004 87 10000 5.1 240 18:18 09.01.2020
4619 Clouds 11 1004 87 0 8.7 250 17:40 09.01.2020
4620 Rain 11 1004 87 10000 5.7 240 17:18 09.01.2020
4621 Rain 11 1005 93 0 9.8 250 16:47 09.01.2020
4622 Rain 10 1004 100 2500 5.7 210 16:22 09.01.2020
4623 Rain 10 1004 93 0 8.7 230 15:56 09.01.2020
4624 Rain 10 1004 93 0 8.7 230 15:38 09.01.2020
4625 Drizzle 10 1004 93 2000 5.7 200 15:18 09.01.2020
4626 Rain 10 1005 100 0 7.7 220 14:41 09.01.2020
4627 Drizzle 10 1005 100 4500 4.1 190 14:21 09.01.2020
4628 Rain 10 1005 100 0 7.7 210 13:57 09.01.2020
4629 Drizzle 9 1006 93 4500 3.6 170 13:39 09.01.2020
4630 Drizzle 9 1006 93 4000 4.6 150 13:20 09.01.2020
4631 Drizzle 9 1006 93 4000 4.6 150 12:58 09.01.2020
4632 Rain 9 1007 93 0 6.7 180 12:38 09.01.2020
4633 Rain 9 1008 100 2000 6.2 180 12:19 09.01.2020
4634 Rain 8 1008 100 0 5.7 150 11:56 09.01.2020
4635 Rain 8 1008 100 0 5.7 150 11:37 09.01.2020
4636 Rain 8 1009 100 2800 6.2 160 11:19 09.01.2020
4637 Rain 7 1010 100 0 5.1 150 10:43 09.01.2020
4638 Drizzle 7 1011 100 2500 4.6 120 10:22 09.01.2020
4639 Rain 6 1011 93 0 5.1 130 09:56 09.01.2020
4640 Rain 6 1011 93 0 5.1 130 09:38 09.01.2020
4641 Drizzle 6 1013 100 2200 3.6 130 09:18 09.01.2020
4642 Rain 6 1013 100 0 3.6 130 08:55 09.01.2020
4643 Rain 6 1013 100 0 3.6 130 08:37 09.01.2020
4644 Rain 6 1014 93 3500 3.1 150 08:19 09.01.2020
4645 Rain 5 1014 100 0 3.1 160 07:42 09.01.2020
4646 Rain 5 1015 93 8000 3.1 150 07:23 09.01.2020
4647 Rain 5 1015 100 0 3.6 170 06:38 09.01.2020
4648 Drizzle 4 1016 100 1600 2.1 120 06:19 09.01.2020
4649 Rain 4 1016 93 0 3.1 180 05:44 09.01.2020
4650 Clouds 4 1017 93 0 1.5 0 04:43 09.01.2020
4651 Clouds 4 1018 100 0 1.5 230 03:31 09.01.2020
4652 Clouds 4 1019 100 0 5.1 220 02:53 09.01.2020
4653 Mist 4 1019 100 4500 3.1 210 02:24 09.01.2020
4654 Clouds 4 1019 86 0 6.2 230 01:39 09.01.2020
4655 Clouds 4 1019 86 0 5.1 220 00:43 09.01.2020
4656 Clouds 5 1019 100 5000 3.6 220 00:21 09.01.2020
4657 Clouds 5 1019 100 5000 3.6 220 00:21 09.01.2020
4658 Clouds 5 1019 87 0 4.6 250 23:44 08.01.2020
4659 Clouds 5 1019 86 10000 3.6 220 23:25 08.01.2020
4660 Clouds 5 1019 86 10000 3.6 220 22:59 08.01.2020
4661 Clouds 5 1019 87 0 5.7 250 22:39 08.01.2020
4662 Clouds 5 1019 87 10000 2.6 230 22:21 08.01.2020
4663 Clouds 5 1019 87 10000 2.6 230 21:57 08.01.2020
4664 Clouds 5 1019 87 0 5.1 240 21:38 08.01.2020
4665 Clouds 6 1019 87 10000 4.1 250 21:20 08.01.2020
4666 Clouds 6 1019 87 10000 4.1 250 20:58 08.01.2020
4667 Clouds 6 1019 87 0 4.6 260 20:39 08.01.2020
4668 Clouds 6 1019 87 10000 3.1 260 20:20 08.01.2020
4669 Clouds 6 1019 87 0 4.6 260 19:56 08.01.2020
4670 Clouds 6 1019 87 0 4.6 260 19:56 08.01.2020
4671 Clouds 6 1019 87 0 4.6 260 19:37 08.01.2020
4672 Clouds 6 1018 87 10000 4.1 260 19:19 08.01.2020
4673 Clouds 6 1018 87 10000 4.1 260 19:19 08.01.2020
4674 Clouds 7 1018 87 0 7.2 280 18:56 08.01.2020
4675 Clouds 7 1018 87 0 7.2 280 18:37 08.01.2020
4676 Clouds 7 1018 87 0 7.2 280 18:37 08.01.2020
4677 Clouds 7 1018 81 10000 4.1 260 18:18 08.01.2020
4678 Clouds 7 1018 81 0 7.7 280 17:55 08.01.2020
4679 Clouds 7 1018 81 0 7.7 280 17:36 08.01.2020
4680 Clouds 8 1017 81 10000 3.6 270 17:18 08.01.2020
4681 Clouds 8 1017 87 0 8.7 280 16:54 08.01.2020
4682 Clouds 8 1017 87 0 8.7 280 16:36 08.01.2020
4683 Clouds 8 1016 87 10000 5.7 270 16:18 08.01.2020
4684 Clouds 9 1017 81 0 9.3 300 15:40 08.01.2020
4685 Clouds 9 1016 87 10000 8.2 270 15:20 08.01.2020
4686 Clouds 9 1016 87 10000 8.2 270 14:57 08.01.2020
4687 Clouds 9 1016 87 0 10.3 280 14:39 08.01.2020
4688 Clouds 9 1015 87 10000 5.1 260 14:20 08.01.2020
4689 Clouds 9 1015 93 0 9.3 270 13:40 08.01.2020
4690 Clouds 9 1015 93 0 9.3 270 13:40 08.01.2020
4691 Clouds 9 1015 87 10000 5.1 260 13:19 08.01.2020
4692 Clouds 9 1015 93 0 9.8 270 12:42 08.01.2020
4693 Clouds 9 1014 87 10000 7.2 260 12:20 08.01.2020
4694 Clouds 9 1014 87 10000 7.2 260 11:59 08.01.2020
4695 Clouds 9 1014 93 0 10.3 270 11:40 08.01.2020
4696 Clouds 9 1015 93 6000 8.7 250 11:19 08.01.2020
4697 Clouds 9 1014 93 0 11.3 270 10:56 08.01.2020
4698 Clouds 9 1014 93 0 11.3 270 10:37 08.01.2020
4699 Mist 9 1015 93 2800 11.3 250 10:19 08.01.2020
4700 Clouds 9 1014 93 0 11.3 260 09:42 08.01.2020
4701 Mist 9 1014 93 3500 10.3 240 09:20 08.01.2020
4702 Clouds 9 1013 100 0 9.3 250 08:57 08.01.2020
4703 Clouds 9 1013 100 0 9.3 250 08:38 08.01.2020
4704 Mist 9 1012 93 4500 5.7 240 08:20 08.01.2020
4705 Rain 8 1013 100 0 10.8 260 07:50 08.01.2020
4706 Rain 8 1013 100 0 10.8 260 07:32 08.01.2020
4707 Rain 8 1013 93 0 10.8 250 06:50 08.01.2020
4708 Mist 8 1012 100 2000 10.3 230 06:32 08.01.2020
4709 Rain 8 1013 93 0 11.3 240 05:54 08.01.2020
4710 Rain 7 1012 93 3000 11.3 230 05:25 08.01.2020
4711 Rain 7 1013 93 0 11.8 240 04:35 08.01.2020
4712 Rain 7 1014 81 0 10.8 240 02:46 08.01.2020
4713 Drizzle 7 1013 87 5000 10.3 220 02:28 08.01.2020
4714 Rain 7 1013 81 0 10.8 220 01:55 08.01.2020
4715 Clouds 7 1013 87 6000 10.3 220 01:29 08.01.2020
4716 Rain 7 1015 87 0 9.3 230 00:51 08.01.2020
4717 Drizzle 7 1014 93 4000 10.3 210 00:22 08.01.2020
4718 Rain 7 1016 87 0 10.3 220 23:46 07.01.2020
4719 Drizzle 6 1015 93 4000 10.3 210 23:21 07.01.2020
4720 Drizzle 6 1015 93 4000 10.3 210 23:21 07.01.2020
4721 Rain 6 1017 87 0 9.8 220 22:41 07.01.2020
4722 Clouds 6 1017 87 10000 7.2 210 22:21 07.01.2020
4723 Clouds 6 1017 87 10000 7.2 210 21:59 07.01.2020
4724 Rain 6 1018 87 0 9.8 220 21:41 07.01.2020
4725 Clouds 6 1018 87 10000 6.7 210 21:21 07.01.2020
4726 Clouds 6 1018 87 10000 6.7 210 21:21 07.01.2020
4727 Rain 6 1018 81 0 7.7 220 20:58 07.01.2020
4728 Rain 6 1018 81 0 7.7 220 20:39 07.01.2020
4729 Clouds 6 1019 87 10000 6.2 200 20:21 07.01.2020
4730 Clouds 6 1019 87 0 8.2 220 19:57 07.01.2020
4731 Clouds 6 1019 87 0 8.2 220 19:37 07.01.2020
4732 Clouds 6 1018 93 7000 9.3 210 19:19 07.01.2020
4733 Clouds 6 1019 87 0 7.2 220 18:56 07.01.2020
4734 Clouds 6 1019 87 0 7.2 220 18:38 07.01.2020
4735 Clouds 6 1018 93 8000 8.7 210 18:18 07.01.2020
4736 Clouds 6 1020 93 0 8.2 230 17:55 07.01.2020
4737 Clouds 6 1020 93 0 8.2 230 17:36 07.01.2020
4738 Clouds 6 1020 87 10000 5.1 210 17:18 07.01.2020
4739 Clear 6 1021 87 0 7.2 230 16:55 07.01.2020
4740 Clear 6 1021 87 0 7.2 230 16:36 07.01.2020
4741 Clouds 7 1022 93 8000 7.7 230 16:18 07.01.2020
4742 Clear 7 1020 87 0 6.2 230 15:42 07.01.2020
4743 Clouds 7 1022 87 10000 5.7 250 15:24 07.01.2020
4744 Clear 7 1021 81 0 6.2 260 14:58 07.01.2020
4745 Clouds 7 1021 87 10000 7.2 230 14:40 07.01.2020
4746 Clouds 7 1020 81 10000 3.6 240 14:20 07.01.2020
4747 Clouds 7 1020 81 0 8.7 260 13:46 07.01.2020
4748 Clouds 8 1020 81 10000 5.1 250 13:21 07.01.2020
4749 Clouds 8 1020 87 0 6.7 270 12:56 07.01.2020
4750 Clouds 8 1020 87 0 6.7 270 12:37 07.01.2020
4751 Clouds 8 1020 87 10000 4.1 250 12:19 07.01.2020
4752 Clouds 8 1020 87 0 9.3 270 11:41 07.01.2020
4753 Clouds 7 1021 87 10000 3.1 250 11:23 07.01.2020
4754 Clouds 7 1019 81 0 8.7 270 10:57 07.01.2020
4755 Clouds 7 1019 81 0 8.7 270 10:57 07.01.2020
4756 Clouds 7 1019 81 0 8.7 270 10:39 07.01.2020
4757 Clouds 7 1019 81 0 8.7 270 10:39 07.01.2020
4758 Clouds 7 1019 81 0 8.7 270 10:39 07.01.2020
4759 Clouds 7 1019 81 0 8.7 270 10:39 07.01.2020
4760 Clouds 7 1019 81 0 8.7 270 10:39 07.01.2020
4761 Clouds 7 1019 87 10000 4.6 260 10:21 07.01.2020
4762 Clouds 7 1019 93 0 8.7 270 09:55 07.01.2020
4763 Clouds 7 1019 93 0 8.7 270 09:37 07.01.2020
4764 Mist 7 1019 93 5000 6.7 260 09:19 07.01.2020
4765 Clouds 7 1018 93 0 10.3 270 08:41 07.01.2020
4766 Clouds 7 1017 93 8000 3.6 240 08:18 07.01.2020
4767 Clouds 7 1017 93 0 8.2 260 07:49 07.01.2020
4768 Clouds 7 1017 93 0 8.2 260 07:49 07.01.2020
4769 Mist 6 1016 100 2300 3.6 210 07:25 07.01.2020
4770 Clouds 6 1016 93 0 6.7 230 06:52 07.01.2020
4771 Clouds 5 1016 93 0 6.7 230 06:32 07.01.2020
4772 Clouds 4 1016 100 0 5.7 200 05:42 07.01.2020
4773 Clouds 3 1015 100 0 4.6 200 03:52 07.01.2020
4774 Mist 3 1015 93 3000 4.6 200 03:25 07.01.2020
4775 Clouds 3 1017 86 10000 4.1 200 02:21 07.01.2020
4776 Clouds 3 1016 86 0 5.1 220 01:45 07.01.2020
4777 Clouds 3 1015 86 8000 4.6 200 01:21 07.01.2020
4778 Clouds 3 1015 86 8000 5.1 200 00:22 07.01.2020
4779 Clouds 3 1016 80 0 5.1 200 23:58 06.01.2020
4780 Clouds 3 1016 80 0 5.1 200 23:39 06.01.2020
4781 Clouds 4 1016 86 8000 4.6 210 23:21 06.01.2020
4782 Clouds 4 1016 80 0 4.6 210 22:56 06.01.2020
4783 Clouds 4 1016 80 0 4.6 210 22:37 06.01.2020
4784 Clouds 4 1016 80 8000 5.7 220 22:19 06.01.2020
4785 Clouds 5 1017 86 0 4.1 230 21:55 06.01.2020
4786 Clouds 5 1017 86 0 4.1 230 21:37 06.01.2020
4787 Drizzle 5 1017 86 7000 5.7 210 21:18 06.01.2020
4788 Clouds 5 1018 80 10000 4.6 200 20:55 06.01.2020
4789 Clouds 5 1018 80 10000 4.6 200 20:37 06.01.2020
4790 Clouds 5 1018 87 9000 4.6 210 20:19 06.01.2020
4791 Clouds 5 1018 87 9000 4.6 210 20:19 06.01.2020
4792 Clouds 6 1018 87 0 4.1 210 19:55 06.01.2020
4793 Clouds 5 1018 87 0 4.1 210 19:37 06.01.2020
4794 Drizzle 6 1018 93 4000 6.2 210 19:18 06.01.2020
4795 Clouds 6 1019 87 0 4.6 220 18:44 06.01.2020
4796 Clouds 6 1019 93 7000 4.56 204 18:21 06.01.2020
4797 Clouds 6 1019 93 0 4.6 210 17:40 06.01.2020
4798 Clouds 6 1020 87 6000 4.1 200 17:20 06.01.2020
4799 Clouds 6 1020 93 5000 3.6 200 16:59 06.01.2020
4800 Clouds 6 1020 93 0 4.6 210 16:41 06.01.2020
4801 Mist 6 1020 93 5000 5.1 210 16:23 06.01.2020
4802 Mist 6 1020 93 5000 5.1 210 15:59 06.01.2020
4803 Clouds 6 1020 93 0 4.6 230 15:37 06.01.2020
4804 Mist 6 1022 93 4500 4.1 220 15:18 06.01.2020
4805 Clouds 6 1021 93 0 5.7 230 14:42 06.01.2020
4806 Clouds 6 1022 93 6000 4.1 220 14:23 06.01.2020
4807 Clouds 6 1022 93 0 6.7 250 14:00 06.01.2020
4808 Clouds 6 1022 93 0 6.7 250 13:40 06.01.2020
4809 Mist 6 1023 93 3500 4.1 220 13:22 06.01.2020
4810 Mist 6 1022 93 4000 4.1 230 12:59 06.01.2020
4811 Clouds 6 1022 93 0 6.7 250 12:41 06.01.2020
4812 Drizzle 6 1022 93 2000 3.6 230 12:20 06.01.2020
4813 Clouds 6 1023 93 0 7.2 250 11:55 06.01.2020
4814 Clouds 6 1023 93 0 7.2 250 11:37 06.01.2020
4815 Drizzle 6 1022 93 1800 3.1 230 11:19 06.01.2020
4816 Clouds 6 1023 93 0 6.2 250 10:42 06.01.2020
4817 Drizzle 6 1022 100 1800 6.2 240 10:21 06.01.2020
4818 Clouds 6 1023 93 0 7.2 260 09:42 06.01.2020
4819 Drizzle 6 1024 93 4400 4.6 240 09:24 06.01.2020
4820 Clouds 6 1023 100 6000 3.6 240 08:58 06.01.2020
4821 Clouds 6 1023 100 6000 3.6 240 08:58 06.01.2020
4822 Clouds 6 1023 100 6000 3.6 240 08:58 06.01.2020
4823 Clouds 6 1023 93 0 7.2 260 08:39 06.01.2020
4824 Drizzle 6 1024 93 2200 5.1 240 08:21 06.01.2020
4825 Clouds 6 1023 93 0 7.2 260 07:46 06.01.2020
4826 Drizzle 6 1025 93 4000 5.1 240 07:21 06.01.2020
4827 Clouds 6 1023 93 0 6.2 260 06:38 06.01.2020
4828 Clouds 6 1024 100 0 6.7 250 05:49 06.01.2020
4829 Drizzle 6 1023 100 1500 5.7 230 05:29 06.01.2020
4830 Drizzle 6 1023 100 3500 6.7 240 04:25 06.01.2020
4831 Rain 6 1024 93 0 6.7 250 03:52 06.01.2020
4832 Rain 5 1024 93 0 7.7 250 02:32 06.01.2020
4833 Clouds 5 1025 93 0 8.2 250 01:55 06.01.2020
4834 Clouds 6 1025 93 0 8.2 250 01:32 06.01.2020
4835 Clouds 6 1025 93 0 8.7 250 00:57 06.01.2020
4836 Clouds 6 1025 93 0 8.7 250 00:39 06.01.2020
4837 Clouds 6 1024 93 10000 7.2 230 00:18 06.01.2020
4838 Clouds 6 1025 93 0 7.2 250 23:40 05.01.2020
4839 Clouds 6 1024 87 10000 5.1 230 23:21 05.01.2020
4840 Clouds 6 1026 93 0 7.2 250 22:55 05.01.2020
4841 Clouds 6 1026 93 0 7.2 250 22:37 05.01.2020
4842 Clouds 6 1025 87 10000 6.2 230 22:18 05.01.2020
4843 Clouds 6 1026 93 0 6.7 250 21:41 05.01.2020
4844 Clouds 6 1025 87 10000 5.7 230 21:21 05.01.2020
4845 Clouds 6 1025 87 10000 5.7 230 20:58 05.01.2020
4846 Clouds 6 1026 93 0 7.7 250 20:39 05.01.2020
4847 Clouds 6 1026 87 10000 4.1 230 20:20 05.01.2020
4848 Clouds 6 1026 87 10000 4.1 230 20:20 05.01.2020
4849 Clouds 6 1026 87 10000 4.1 230 19:59 05.01.2020
4850 Clouds 6 1027 93 0 6.7 250 19:41 05.01.2020
4851 Clouds 6 1027 93 10000 3.6 220 19:21 05.01.2020
4852 Clouds 6 1027 93 0 7.2 250 18:56 05.01.2020
4853 Clouds 6 1027 93 0 7.2 250 18:38 05.01.2020
4854 Clouds 6 1027 87 10000 3.1 220 18:20 05.01.2020
4855 Clouds 6 1027 87 10000 3.1 220 17:59 05.01.2020
4856 Clouds 6 1027 93 0 6.7 240 17:39 05.01.2020
4857 Clouds 6 1027 93 10000 1.5 230 17:20 05.01.2020
4858 Clouds 6 1027 93 0 7.7 260 16:57 05.01.2020
4859 Clouds 6 1027 93 0 7.7 260 16:39 05.01.2020
4860 Mist 6 1027 93 3500 3.1 230 16:20 05.01.2020
4861 Clouds 6 1028 93 0 6.2 250 15:41 05.01.2020
4862 Clouds 6 1029 86 10000 3.6 210 15:22 05.01.2020
4863 Clouds 6 1029 86 10000 3.6 210 15:22 05.01.2020
4864 Clouds 6 1027 93 10000 5.7 240 14:58 05.01.2020
4865 Clouds 6 1028 100 0 6.2 250 14:40 05.01.2020
4866 Clouds 6 1027 100 7000 5.7 230 14:22 05.01.2020
4867 Clouds 6 1027 100 7000 5.7 230 13:59 05.01.2020
4868 Clouds 5 1028 93 0 7.2 240 13:39 05.01.2020
4869 Drizzle 5 1028 100 3000 5.1 220 13:20 05.01.2020
4870 Rain 5 1029 87 0 4.6 240 12:57 05.01.2020
4871 Rain 5 1029 87 0 4.6 240 12:38 05.01.2020
4872 Drizzle 5 1028 93 5000 4.6 210 12:20 05.01.2020
4873 Rain 4 1030 86 0 4.6 220 11:55 05.01.2020
4874 Rain 4 1030 86 0 4.6 220 11:37 05.01.2020
4875 Rain 4 1030 86 0 4.6 220 11:37 05.01.2020
4876 Rain 4 1030 86 0 4.6 220 11:37 05.01.2020
4877 Rain 4 1030 86 0 4.6 220 11:37 05.01.2020
4878 Clouds 4 1029 86 10000 3.6 210 11:18 05.01.2020
4879 Clouds 4 1030 86 0 5.7 240 10:41 05.01.2020
4880 Clouds 3 1030 88 0 2.1 190 10:20 05.01.2020
4881 Clouds 2 1030 88 0 6.2 240 09:57 05.01.2020
4882 Clouds 2 1030 88 0 6.2 240 09:39 05.01.2020
4883 Clouds 2 1030 88 0 2.6 210 09:21 05.01.2020
4884 Clouds 2 1030 88 0 3.1 210 08:45 05.01.2020
4885 Clouds 2 1031 80 10000 2.6 220 08:25 05.01.2020
4886 Clear 2 1030 74 0 4.1 240 07:50 05.01.2020
4887 Clear 2 1030 92 0 2.6 220 07:29 05.01.2020
4888 Clear 2 1030 92 0 4.6 260 06:56 05.01.2020
4889 Clear 3 1030 92 0 5.1 270 05:53 05.01.2020
4890 Clear 3 1030 92 0 2.1 240 05:28 05.01.2020
4891 Clear 3 1029 74 0 3.1 250 04:24 05.01.2020
4892 Clear 3 1030 90 0 4.1 270 03:45 05.01.2020
4893 Clear 2 1029 80 0 4.6 290 02:43 05.01.2020
4894 Clear 2 1029 74 0 3.1 270 02:20 05.01.2020
4895 Clear 2 1029 89 0 5.7 300 01:40 05.01.2020
4896 Clear 1 1028 74 0 2.6 270 01:18 05.01.2020
4897 Clear 2 1028 80 0 5.1 310 00:41 05.01.2020
4898 Clear 2 1027 74 0 4.1 290 00:22 05.01.2020
4899 Clear 2 1027 74 0 4.1 290 23:59 04.01.2020
4900 Clear 1 1027 88 0 5.7 310 23:39 04.01.2020
4901 Clear 2 1027 80 0 3.1 270 23:19 04.01.2020
4902 Clear 2 1027 83 0 4.6 310 22:39 04.01.2020
4903 Clear 2 1026 69 0 4.6 300 22:21 04.01.2020
4904 Clear 2 1026 86 0 3.1 320 21:57 04.01.2020
4905 Clear 2 1026 86 0 3.1 320 21:38 04.01.2020
4906 Clear 3 1025 83 0 7.2 320 21:19 04.01.2020
4907 Clear 3 1025 83 0 5.7 340 20:57 04.01.2020
4908 Clear 3 1025 83 0 5.7 340 20:38 04.01.2020
4909 Clear 3 1024 75 0 6.2 310 20:20 04.01.2020
4910 Clear 3 1023 75 0 9.8 330 19:56 04.01.2020
4911 Clear 3 1023 75 0 9.8 330 19:37 04.01.2020
4912 Clear 4 1023 75 0 7.7 310 19:18 04.01.2020
4913 Clear 4 1022 75 0 10.8 320 18:54 04.01.2020
4914 Clear 4 1022 75 0 10.8 320 18:36 04.01.2020
4915 Clear 4 1021 75 0 8.7 310 18:18 04.01.2020
4916 Clear 4 1021 80 0 10.8 320 17:40 04.01.2020
4917 Clear 4 1019 75 0 9.8 300 17:22 04.01.2020
4918 Clear 5 1020 75 0 10.3 330 16:57 04.01.2020
4919 Clear 5 1020 75 0 10.3 330 16:39 04.01.2020
4920 Clear 5 1018 75 0 8.7 300 16:21 04.01.2020
4921 Clear 5 1018 71 0 10.8 330 15:43 04.01.2020
4922 Clouds 5 1017 71 10000 9.8 310 15:20 04.01.2020
4923 Clouds 6 1017 71 10000 9.8 310 14:59 04.01.2020
4924 Clear 6 1017 71 0 10.3 320 14:41 04.01.2020
4925 Clouds 6 1016 62 10000 8.7 300 14:20 04.01.2020
4926 Clouds 6 1016 62 10000 8.7 300 14:20 04.01.2020
4927 Clouds 6 1016 62 10000 8.7 300 13:59 04.01.2020
4928 Snow 6 1016 70 0 11.3 330 13:38 04.01.2020
4929 Clouds 6 1015 62 10000 9.8 310 13:19 04.01.2020
4930 Snow 6 1016 75 0 12.3 330 12:57 04.01.2020
4931 Snow 6 1016 75 0 12.3 330 12:39 04.01.2020
4932 Clouds 5 1015 80 10000 8.2 300 12:18 04.01.2020
4933 Snow 5 1015 93 0 8.7 330 11:56 04.01.2020
4934 Snow 5 1015 93 0 8.7 330 11:37 04.01.2020
4935 Rain 5 1014 86 10000 8.7 300 11:18 04.01.2020
4936 Rain 6 1014 93 0 11.3 310 10:40 04.01.2020
4937 Rain 6 1013 86 5000 11.3 290 10:21 04.01.2020
4938 Rain 6 1012 87 0 18 280 09:47 04.01.2020
4939 Rain 7 1014 93 6000 9.8 280 09:26 04.01.2020
4940 Rain 7 1013 87 0 17.5 290 08:49 04.01.2020
4941 Rain 7 1012 81 10000 8.7 270 08:29 04.01.2020
4942 Rain 7 1012 81 10000 9.3 270 07:59 04.01.2020
4943 Rain 7 1014 87 0 16.5 280 07:40 04.01.2020
4944 Rain 6 1014 81 0 13.9 280 06:46 04.01.2020
4945 Rain 6 1015 87 0 14.9 280 05:59 04.01.2020
4946 Clear 6 1014 75 0 7.7 260 05:18 04.01.2020
4947 Clear 6 1015 87 0 13.4 270 04:32 04.01.2020
4948 Clear 5 1015 81 0 13.4 280 03:39 04.01.2020
4949 Clear 5 1015 81 0 6.7 260 03:18 04.01.2020
4950 Clouds 5 1015 75 0 7.2 260 02:21 04.01.2020
4951 Clouds 5 1016 81 0 12.3 280 01:53 04.01.2020
4952 Clouds 5 1015 75 0 6.7 270 01:30 04.01.2020
4953 Clouds 5 1016 81 0 12.3 290 00:41 04.01.2020
4954 Clouds 5 1016 80 0 5.7 260 00:22 04.01.2020
4955 Clouds 5 1018 75 0 6.7 280 23:42 03.01.2020
4956 Clouds 5 1015 80 0 6.2 270 23:23 03.01.2020
4957 Clouds 5 1016 81 0 10.8 290 22:41 03.01.2020
4958 Clouds 5 1015 86 0 4.1 260 22:20 03.01.2020
4959 Clouds 4 1014 86 0 3.6 270 21:59 03.01.2020
4960 Clouds 5 1015 81 0 10.3 300 21:38 03.01.2020
4961 Clouds 5 1014 86 0 3.6 270 21:19 03.01.2020
4962 Clouds 5 1014 86 0 3.6 270 20:58 03.01.2020
4963 Clouds 4 1014 86 0 3.6 260 20:40 03.01.2020
4964 Clouds 4 1014 86 0 3.6 260 20:18 03.01.2020
4965 Clouds 5 1014 93 0 7.7 300 19:57 03.01.2020
4966 Clouds 5 1014 93 0 7.7 300 19:38 03.01.2020
4967 Clouds 5 1013 86 10000 3.6 270 19:19 03.01.2020
4968 Clouds 5 1013 93 0 7.2 310 18:44 03.01.2020
4969 Clouds 5 1012 87 10000 4.6 300 18:25 03.01.2020
4970 Clouds 5 1012 100 0 6.2 320 17:56 03.01.2020
4971 Clouds 5 1012 100 0 6.2 320 17:38 03.01.2020
4972 Clouds 5 1012 100 0 6.2 320 17:37 03.01.2020
4973 Rain 5 1012 86 10000 3.6 290 17:19 03.01.2020
4974 Rain 5 1011 100 0 3.1 300 16:42 03.01.2020
4975 Clouds 6 1010 87 10000 3.1 310 16:24 03.01.2020
4976 Rain 6 1010 87 0 3.1 360 15:58 03.01.2020
4977 Rain 6 1010 87 0 3.1 360 15:40 03.01.2020
4978 Rain 6 1010 100 4500 6.2 260 15:18 03.01.2020
4979 Rain 7 1009 100 0 7.7 350 14:39 03.01.2020
4980 Drizzle 7 1009 100 2300 6.2 250 14:20 03.01.2020
4981 Rain 7 1008 100 0 7.7 270 13:56 03.01.2020
4982 Rain 7 1008 100 0 7.7 270 13:37 03.01.2020
4983 Drizzle 7 1009 93 3500 7.2 240 13:19 03.01.2020
4984 Rain 7 1008 93 0 7.2 260 12:40 03.01.2020
4985 Drizzle 7 1008 93 2000 4.1 240 12:21 03.01.2020
4986 Rain 7 1009 100 0 7.7 250 11:49 03.01.2020
4987 Drizzle 7 1010 93 3300 5.1 230 11:30 03.01.2020
4988 Rain 7 1009 100 0 9.3 250 10:48 03.01.2020
4989 Drizzle 7 1011 93 2500 6.2 230 10:28 03.01.2020
4990 Rain 7 1009 100 0 9.3 250 09:59 03.01.2020
4991 Rain 7 1009 100 0 9.3 250 09:41 03.01.2020
4992 Drizzle 7 1010 93 3700 6.2 220 09:23 03.01.2020
4993 Rain 7 1009 93 0 9.8 240 08:57 03.01.2020
4994 Rain 6 1009 93 0 9.8 240 08:39 03.01.2020
4995 Drizzle 6 1009 93 2300 5.7 230 08:21 03.01.2020
4996 Rain 6 1009 100 0 9.8 230 07:42 03.01.2020
4997 Drizzle 6 1009 93 3000 6.2 220 07:19 03.01.2020
4998 Rain 6 1009 93 0 9.8 230 06:57 03.01.2020
4999 Rain 6 1009 93 0 9.8 230 06:39 03.01.2020
5000 Rain 6 1009 93 0 6.2 220 06:20 03.01.2020
5001 Clouds 5 1010 87 0 10.3 230 04:45 03.01.2020
5002 Clouds 5 1011 87 0 10.3 230 03:38 03.01.2020
5003 Clouds 5 1012 93 0 9.8 230 02:53 03.01.2020
5004 Clouds 4 1013 93 0 8.2 220 01:51 03.01.2020
5005 Clouds 4 1013 93 0 5.7 210 01:31 03.01.2020
5006 Clouds 4 1014 93 0 8.2 220 00:40 03.01.2020
5007 Mist 3 1014 93 0 6.2 210 00:20 03.01.2020
5008 Clouds 3 1015 93 0 7.2 230 23:39 02.01.2020
5009 Mist 3 1015 93 0 6.2 210 23:20 02.01.2020
5010 Clouds 3 1016 93 0 9.3 230 22:59 02.01.2020
5011 Clouds 2 1016 93 0 9.3 230 22:41 02.01.2020
5012 Mist 2 1016 93 0 5.7 210 22:20 02.01.2020
5013 Clouds 2 1016 100 0 6.2 220 21:57 02.01.2020
5014 Clouds 2 1016 100 0 6.2 220 21:38 02.01.2020
5015 Mist 2 1017 100 0 4.6 200 21:19 02.01.2020
5016 Clouds 2 1017 100 0 6.7 210 20:56 02.01.2020
5017 Clouds 2 1017 100 0 6.7 210 20:37 02.01.2020
5018 Rain 2 1018 93 0 4.1 200 20:19 02.01.2020
5019 Clouds 2 1018 100 0 6.2 230 19:54 02.01.2020
5020 Clouds 2 1018 100 0 6.2 230 19:36 02.01.2020
5021 Drizzle 2 1018 93 0 5.7 200 19:18 02.01.2020
5022 Clouds 1 1018 93 0 7.7 230 18:54 02.01.2020
5023 Clouds 1 1018 93 0 7.7 230 18:36 02.01.2020
5024 Drizzle 1 1018 100 3000 5.1 220 18:18 02.01.2020
5025 Clouds 1 1019 100 0 7.2 230 17:55 02.01.2020
5026 Clouds 1 1019 100 0 7.2 230 17:36 02.01.2020
5027 Drizzle 1 1019 100 2500 5.7 220 17:18 02.01.2020
5028 Clouds 1 1019 90 0 7.7 230 16:41 02.01.2020
5029 Drizzle 1 1019 93 2200 6.2 210 16:21 02.01.2020
5030 Drizzle 1 1019 93 2200 6.2 210 15:59 02.01.2020
5031 Drizzle 1 1019 93 2000 5.7 210 15:40 02.01.2020
5032 Drizzle 1 1019 93 2000 5.7 210 15:40 02.01.2020
5033 Drizzle 1 1020 93 2000 5.1 220 15:22 02.01.2020
5034 Clouds 1 1020 93 0 6.2 230 14:57 02.01.2020
5035 Mist 1 1020 93 2000 4.6 210 14:37 02.01.2020
5036 Mist 1 1020 93 2500 4.1 220 14:18 02.01.2020
5037 Clouds 1 1021 100 0 4.6 220 13:55 02.01.2020
5038 Clouds 1 1021 100 0 4.6 220 13:36 02.01.2020
5039 Clouds 1 1022 93 0 6.7 240 12:58 02.01.2020
5040 Clouds 1 1022 93 0 6.7 240 12:39 02.01.2020
5041 Clouds 1 1023 93 0 5.1 250 12:20 02.01.2020
5042 Mist 1 1023 93 4500 3.6 240 11:41 02.01.2020
5043 Mist 1 1023 93 4000 4.6 230 11:21 02.01.2020
5044 Clouds 1 1024 93 0 5.1 250 10:45 02.01.2020
5045 Mist 1 1023 93 4000 3.6 230 10:27 02.01.2020
5046 Clouds 1 1024 93 0 7.2 250 09:56 02.01.2020
5047 Clouds 1 1024 93 0 7.2 250 09:35 02.01.2020
5048 Clouds 1 1024 93 0 5.7 240 08:58 02.01.2020
5049 Clouds 1 1024 93 0 5.7 240 08:39 02.01.2020
5050 Mist 1 1025 100 1800 3.6 220 08:19 02.01.2020
5051 Clouds 1 1024 100 0 6.2 240 07:47 02.01.2020
5052 Mist 1 1024 93 2500 3.6 230 07:26 02.01.2020
5053 Clouds 1 1024 100 0 5.7 240 06:41 02.01.2020
5054 Clouds 1 1024 100 0 5.7 240 06:41 02.01.2020
5055 Clouds 1 1024 93 0 6.2 250 05:40 02.01.2020
5056 Clouds 1 1025 93 0 5.7 250 04:34 02.01.2020
5057 Mist 2 1025 93 0 3.1 240 03:29 02.01.2020
5058 Mist 2 1025 93 0 3.1 240 03:29 02.01.2020
5059 Mist 2 1026 93 0 3.1 260 02:21 02.01.2020
5060 Clouds 1 1026 93 0 5.1 250 01:53 02.01.2020
5061 Clouds 1 1025 94 0 4.1 230 01:25 02.01.2020
5062 Clouds 1 1026 92 0 6.7 250 00:45 02.01.2020
5063 Clouds 1 1026 92 0 4.1 230 00:26 02.01.2020
5064 Clouds 1 1027 93 0 7.2 260 23:43 01.01.2020
5065 Clouds 1 1027 92 0 4.1 250 23:23 01.01.2020
5066 Clouds 1 1027 93 0 8.2 270 22:39 01.01.2020
5067 Clouds 1 1027 93 0 8.2 270 22:39 01.01.2020
5068 Clouds 1 1028 92 0 3.1 270 22:20 01.01.2020
5069 Clouds 1 1028 92 0 3.1 270 21:58 01.01.2020
5070 Clouds 1 1028 92 0 3.1 270 21:58 01.01.2020
5071 Clouds 0 1027 92 0 7.2 260 21:39 01.01.2020
5072 Clouds 1 1027 93 0 3.6 250 21:20 01.01.2020
5073 Clouds 1 1027 93 0 3.6 250 21:20 01.01.2020
5074 Clouds 1 1027 93 0 3.6 250 20:58 01.01.2020
5075 Clouds 1 1027 93 0 7.2 260 20:38 01.01.2020
5076 Clear 1 1027 93 0 3.6 250 20:20 01.01.2020
5077 Clear 1 1027 93 0 3.6 250 20:20 01.01.2020
5078 Clear 1 1027 93 0 6.7 250 19:57 01.01.2020
5079 Clear 1 1027 93 0 6.7 250 19:38 01.01.2020
5080 Clear 2 1028 86 0 3.1 230 19:20 01.01.2020
5081 Clear 2 1028 86 0 6.2 250 18:57 01.01.2020
5082 Clear 2 1028 86 0 6.2 250 18:38 01.01.2020
5083 Clear 2 1028 86 0 3.1 240 18:20 01.01.2020
5084 Clear 2 1028 86 0 3.1 240 17:58 01.01.2020
5085 Clear 2 1028 86 0 7.7 250 17:40 01.01.2020
5086 Clouds 2 1028 86 8000 5.7 240 17:19 01.01.2020
5087 Clear 2 1029 93 0 7.2 260 16:57 01.01.2020
5088 Clear 2 1029 93 0 7.2 260 16:38 01.01.2020
5089 Clear 2 1029 93 0 7.2 260 16:38 01.01.2020
5090 Clouds 3 1029 80 9000 5.1 250 16:19 01.01.2020
5091 Clear 3 1029 86 0 8.2 260 15:57 01.01.2020
5092 Clear 3 1029 86 0 8.2 260 15:57 01.01.2020
5093 Clear 3 1029 86 0 8.2 260 15:37 01.01.2020
5094 Clouds 3 1029 86 10000 3.6 260 15:19 01.01.2020
5095 Clear 4 1030 86 0 8.2 260 14:56 01.01.2020
5096 Clear 4 1030 86 0 8.2 260 14:37 01.01.2020
5097 Clouds 4 1029 80 10000 7.2 260 14:19 01.01.2020
5098 Clouds 4 1030 80 0 8.2 270 13:55 01.01.2020
5099 Clouds 4 1030 80 0 8.2 270 13:55 01.01.2020
5100 Clouds 4 1030 80 0 8.2 270 13:36 01.01.2020
5101 Clouds 5 1030 81 10000 7.2 240 13:18 01.01.2020
5102 Clouds 5 1030 86 0 9.3 270 12:40 01.01.2020
5103 Clouds 5 1030 81 0 4.6 260 12:19 01.01.2020
5104 Clouds 5 1031 81 0 9.8 270 11:57 01.01.2020
5105 Clouds 5 1031 81 0 9.8 270 11:39 01.01.2020
5106 Clear 5 1031 75 0 5.7 260 11:20 01.01.2020
5107 Clear 5 1031 86 0 8.7 280 10:55 01.01.2020
5108 Clear 5 1031 86 0 8.7 280 10:37 01.01.2020
5109 Clear 5 1031 75 0 5.1 260 10:18 01.01.2020
5110 Clear 5 1031 86 0 8.2 270 09:40 01.01.2020
5111 Clear 5 1031 75 0 4.6 270 09:22 01.01.2020
5112 Clear 5 1031 86 0 6.7 280 08:57 01.01.2020
5113 Clear 5 1031 86 0 6.7 280 08:38 01.01.2020
5114 Clear 5 1031 75 0 4.1 270 08:20 01.01.2020
5115 Clear 5 1031 75 0 4.1 270 07:58 01.01.2020
5116 Clear 5 1031 75 0 8.7 280 07:39 01.01.2020
5117 Clear 5 1031 75 0 4.1 260 07:19 01.01.2020
5118 Clear 5 1031 75 0 9.8 280 06:36 01.01.2020
5119 Clear 5 1031 80 0 7.7 280 05:51 01.01.2020
5120 Clear 4 1032 86 0 8.7 280 04:36 01.01.2020
5121 Clear 4 1032 86 0 8.7 280 03:40 01.01.2020
5122 Clear 4 1032 80 0 2.6 260 03:21 01.01.2020
5123 Clear 3 1032 86 0 6.7 280 02:43 01.01.2020
5124 Clear 3 1032 80 0 2.6 270 02:24 01.01.2020
5125 Clouds 3 1032 86 0 5.7 280 01:45 01.01.2020
5126 Clouds 3 1032 86 0 4.1 270 01:23 01.01.2020
5127 Clouds 2 1033 93 0 4.6 280 00:54 01.01.2020
5128 Clouds 2 1033 93 0 4.6 280 00:36 01.01.2020
5129 Clouds 2 1033 93 0 3.6 260 00:18 01.01.2020
5130 Clouds 2 1033 93 0 4.1 270 23:38 31.12.2019
5131 Clouds 2 1033 93 0 3.6 250 23:19 31.12.2019
5132 Clouds 2 1033 86 0 4.1 280 22:56 31.12.2019
5133 Clouds 2 1033 86 0 4.1 280 22:37 31.12.2019
5134 Clouds 2 1032 86 0 3.1 250 22:18 31.12.2019
5135 Clouds 2 1032 93 0 3.6 290 21:54 31.12.2019
5136 Clouds 2 1032 93 0 3.6 290 21:36 31.12.2019
5137 Clouds 2 1032 86 0 3.1 300 21:18 31.12.2019
5138 Clouds 2 1032 93 0 6.2 300 20:40 31.12.2019
5139 Clouds 2 1032 85 10000 3.1 290 20:21 31.12.2019
5140 Clouds 3 1032 93 0 6.2 300 19:59 31.12.2019
5141 Clouds 3 1032 93 0 6.2 300 19:40 31.12.2019
5142 Clouds 3 1031 80 0 6.2 300 19:22 31.12.2019
5143 Clouds 4 1031 86 10000 6.7 300 18:57 31.12.2019
5144 Clouds 4 1031 86 10000 6.7 300 18:39 31.12.2019
5145 Clouds 4 1031 80 0 5.7 290 18:19 31.12.2019
5146 Clouds 4 1031 86 10000 5.7 310 17:56 31.12.2019
5147 Clouds 4 1031 86 10000 5.7 310 17:37 31.12.2019
5148 Clouds 5 1031 86 10000 4.1 290 17:19 31.12.2019
5149 Clouds 5 1031 86 10000 4.1 290 17:19 31.12.2019
5150 Clouds 5 1031 86 10000 5.1 310 16:56 31.12.2019
5151 Clouds 5 1031 86 10000 5.1 310 16:38 31.12.2019
5152 Clouds 6 1030 75 0 5.1 300 16:19 31.12.2019
5153 Clouds 6 1030 81 10000 5.7 310 15:56 31.12.2019
5154 Clouds 6 1030 81 10000 5.7 310 15:38 31.12.2019
5155 Clouds 6 1030 81 10000 5.7 310 15:38 31.12.2019
5156 Clouds 7 1029 75 0 6.7 300 15:20 31.12.2019
5157 Clouds 7 1029 75 0 6.7 300 14:57 31.12.2019
5158 Clouds 7 1029 75 10000 7.7 320 14:38 31.12.2019
5159 Clear 7 1029 75 0 7.7 310 14:19 31.12.2019
5160 Clouds 7 1029 75 10000 9.3 330 13:57 31.12.2019
5161 Clouds 7 1029 75 10000 9.3 330 13:39 31.12.2019
5162 Clouds 7 1028 75 0 8.2 310 13:21 31.12.2019
5163 Clouds 7 1028 75 0 8.2 310 13:21 31.12.2019
5164 Clouds 7 1029 75 10000 9.3 330 12:58 31.12.2019
5165 Clouds 7 1029 75 10000 9.3 330 12:39 31.12.2019
5166 Clouds 7 1028 81 0 6.7 300 12:20 31.12.2019
5167 Clouds 7 1028 81 10000 10.3 320 11:56 31.12.2019
5168 Clouds 7 1028 81 10000 10.3 320 11:38 31.12.2019
5169 Clouds 7 1027 75 0 6.7 300 11:20 31.12.2019
5170 Clouds 7 1026 81 10000 10.3 320 10:57 31.12.2019
5171 Clouds 7 1026 81 10000 10.3 320 10:57 31.12.2019
5172 Clouds 6 1026 81 10000 10.3 320 10:38 31.12.2019
5173 Clouds 6 1026 81 0 6.7 290 10:20 31.12.2019
5174 Clouds 6 1026 87 10000 10.8 320 09:59 31.12.2019
5175 Clouds 6 1026 87 10000 10.8 320 09:39 31.12.2019
5176 Clouds 6 1024 81 0 6.7 290 09:20 31.12.2019
5177 Clouds 6 1024 81 10000 13.4 310 08:57 31.12.2019
5178 Clouds 6 1024 81 10000 13.4 310 08:39 31.12.2019
5179 Clouds 6 1023 81 0 7.7 280 08:19 31.12.2019
5180 Clouds 6 1024 81 10000 11.3 300 07:43 31.12.2019
5181 Clouds 6 1023 81 10000 6.2 280 07:20 31.12.2019
5182 Clouds 6 1023 87 10000 9.8 310 06:50 31.12.2019
5183 Clouds 6 1023 81 10000 9.8 310 05:57 31.12.2019
5184 Clouds 6 1021 81 0 7.2 290 04:29 31.12.2019
5185 Clouds 6 1021 93 10000 10.3 310 03:38 31.12.2019
5186 Clouds 7 1020 87 10000 9.8 310 02:55 31.12.2019
5187 Clouds 7 1019 81 0 6.7 290 02:19 31.12.2019
5188 Clouds 7 1019 93 10000 10.8 310 01:48 31.12.2019
5189 Clouds 7 1019 87 0 6.2 290 01:27 31.12.2019
5190 Clouds 7 1019 93 10000 10.8 310 00:46 31.12.2019
5191 Clouds 7 1019 93 8000 11.8 290 00:22 31.12.2019
5192 Drizzle 7 1019 93 3000 12.3 290 23:57 30.12.2019
5193 Drizzle 7 1019 93 3000 12.3 290 23:38 30.12.2019
5194 Drizzle 7 1019 93 4500 9.8 280 23:20 30.12.2019
5195 Drizzle 7 1019 87 8000 10.3 280 22:58 30.12.2019
5196 Drizzle 7 1019 87 8000 10.3 280 22:39 30.12.2019
5197 Clouds 7 1018 93 0 5.7 250 22:20 30.12.2019
5198 Clouds 7 1019 93 8000 8.7 260 21:57 30.12.2019
5199 Clouds 7 1019 93 8000 8.7 260 21:38 30.12.2019
5200 Clouds 7 1018 87 0 6.7 260 21:19 30.12.2019
5201 Clouds 6 1019 93 8000 12.9 270 20:57 30.12.2019
5202 Clouds 6 1019 93 8000 12.9 270 20:39 30.12.2019
5203 Clouds 6 1018 87 0 7.7 260 20:20 30.12.2019
5204 Clouds 6 1018 93 8000 7.7 250 19:58 30.12.2019
5205 Clouds 6 1019 93 8000 11.3 260 19:38 30.12.2019
5206 Clouds 6 1018 87 0 7.2 260 19:19 30.12.2019
5207 Clouds 6 1018 87 0 7.2 260 18:58 30.12.2019
5208 Clouds 6 1019 93 0 10.3 260 18:40 30.12.2019
5209 Clouds 6 1018 87 0 6.2 240 18:20 30.12.2019
5210 Clouds 6 1019 87 0 8.7 250 17:56 30.12.2019
5211 Clouds 6 1019 87 0 8.7 250 17:38 30.12.2019
5212 Clouds 6 1019 87 10000 5.1 250 17:19 30.12.2019
5213 Clouds 6 1020 81 0 8.2 250 16:58 30.12.2019
5214 Clouds 6 1020 81 0 8.2 250 16:37 30.12.2019
5215 Clouds 6 1019 87 10000 7.2 240 16:19 30.12.2019
5216 Clouds 6 1020 81 0 8.7 240 15:56 30.12.2019
5217 Clouds 6 1020 81 0 8.7 240 15:37 30.12.2019
5218 Clouds 7 1019 81 10000 4.6 240 15:18 30.12.2019
5219 Clouds 7 1020 81 0 8.7 250 14:43 30.12.2019
5220 Clouds 7 1020 81 10000 3.6 240 14:20 30.12.2019
5221 Clouds 7 1020 81 10000 3.6 240 13:58 30.12.2019
5222 Clouds 7 1021 81 0 8.7 250 13:40 30.12.2019
5223 Clouds 7 1021 81 10000 5.7 250 13:21 30.12.2019
5224 Clouds 7 1022 75 0 10.8 260 12:56 30.12.2019
5225 Clouds 7 1022 75 0 10.8 260 12:37 30.12.2019
5226 Clouds 7 1022 81 0 5.1 250 12:18 30.12.2019
5227 Clouds 6 1022 81 0 8.2 260 11:45 30.12.2019
5228 Clouds 6 1021 81 0 4.6 230 11:20 30.12.2019
5229 Clouds 6 1022 81 0 10.8 250 10:59 30.12.2019
5230 Clouds 6 1022 81 0 10.8 250 10:40 30.12.2019
5231 Clouds 6 1021 93 10000 8.2 230 10:19 30.12.2019
5232 Clouds 6 1022 75 0 8.2 250 09:42 30.12.2019
5233 Clouds 6 1022 75 0 4.1 230 09:21 30.12.2019
5234 Clouds 6 1023 70 0 10.3 250 08:57 30.12.2019
5235 Clouds 6 1023 70 0 10.3 250 08:38 30.12.2019
5236 Clouds 6 1022 70 0 4.1 240 08:19 30.12.2019
5237 Clouds 6 1023 70 0 8.7 260 07:46 30.12.2019
5238 Clouds 6 1023 65 0 5.7 230 07:23 30.12.2019
5239 Clouds 6 1023 70 0 5.7 240 06:30 30.12.2019
5240 Clouds 5 1024 78 0 5.1 230 04:31 30.12.2019
5241 Clouds 5 1025 60 0 9.8 250 03:47 30.12.2019
5242 Clouds 5 1026 60 0 9.8 260 02:47 30.12.2019
5243 Clouds 5 1026 60 0 4.6 240 02:26 30.12.2019
5244 Clouds 4 1026 60 0 4.6 220 01:27 30.12.2019
5245 Clouds 4 1026 60 0 4.6 220 00:59 30.12.2019
5246 Clouds 4 1026 60 0 8.2 240 00:39 30.12.2019
5247 Clouds 4 1027 64 0 8.2 230 23:55 29.12.2019
5248 Clouds 4 1027 64 0 8.2 230 23:36 29.12.2019
5249 Clouds 4 1027 64 0 4.1 210 23:18 29.12.2019
5250 Clouds 3 1028 64 0 7.7 230 22:40 29.12.2019
5251 Clouds 3 1028 64 0 5.1 210 22:21 29.12.2019
5252 Clouds 3 1029 64 0 6.7 230 21:56 29.12.2019
5253 Clouds 3 1029 64 0 6.7 230 21:38 29.12.2019
5254 Clouds 3 1029 69 0 5.7 210 21:19 29.12.2019
5255 Clouds 3 1029 69 0 7.2 240 20:55 29.12.2019
5256 Clouds 3 1029 69 0 7.2 240 20:37 29.12.2019
5257 Clouds 3 1029 69 0 6.2 210 20:18 29.12.2019
5258 Clouds 3 1030 69 0 7.2 240 19:56 29.12.2019
5259 Clouds 3 1030 69 0 7.2 240 19:37 29.12.2019
5260 Clouds 3 1029 69 0 4.1 220 19:19 29.12.2019
5261 Clouds 3 1029 79 10000 7.7 230 18:55 29.12.2019
5262 Clouds 3 1029 79 10000 7.7 230 18:37 29.12.2019
5263 Clouds 3 1029 80 0 6.2 200 18:18 29.12.2019
5264 Clouds 3 1031 86 10000 7.7 240 17:56 29.12.2019
5265 Clouds 3 1031 86 10000 7.7 240 17:38 29.12.2019
5266 Clouds 3 1030 93 6000 6.7 220 17:19 29.12.2019
5267 Clouds 3 1031 86 8000 6.2 240 16:56 29.12.2019
5268 Clouds 3 1031 86 8000 6.2 240 16:36 29.12.2019
5269 Clouds 2 1031 86 8000 4.6 220 16:18 29.12.2019
5270 Clouds 2 1031 86 8000 6.7 230 15:56 29.12.2019
5271 Clouds 2 1031 86 8000 6.7 230 15:38 29.12.2019
5272 Clouds 2 1032 86 10000 4.1 200 15:19 29.12.2019
5273 Clouds 2 1032 86 8000 6.7 250 14:55 29.12.2019
5274 Clouds 2 1032 86 8000 6.7 250 14:37 29.12.2019
5275 Clouds 2 1032 86 8000 6.7 250 14:37 29.12.2019
5276 Clouds 2 1032 86 10000 3.6 220 14:18 29.12.2019
5277 Clouds 2 1033 73 8000 5.7 250 13:55 29.12.2019
5278 Clouds 2 1033 73 8000 5.7 250 13:37 29.12.2019
5279 Clouds 2 1033 75 10000 5.1 210 13:18 29.12.2019
5280 Clouds 2 1033 75 8000 4.6 240 12:42 29.12.2019
5281 Clouds 1 1033 75 0 5.7 210 12:24 29.12.2019
5282 Clouds 1 1034 80 8000 4.6 220 11:56 29.12.2019
5283 Clouds 1 1034 80 8000 4.6 220 11:37 29.12.2019
5284 Clouds 1 1034 80 8000 4.6 220 11:37 29.12.2019
5285 Clouds 1 1034 80 8000 4.6 220 11:37 29.12.2019
5286 Clouds 1 1034 85 0 4.6 210 11:19 29.12.2019
5287 Clouds 1 1034 86 8000 4.1 210 10:42 29.12.2019
5288 Clouds 1 1034 80 0 4.1 210 10:23 29.12.2019
5289 Clouds 1 1034 86 8000 4.6 220 09:57 29.12.2019
5290 Clouds 1 1034 86 8000 4.6 220 09:38 29.12.2019
5291 Clouds 1 1035 85 0 3.6 210 09:20 29.12.2019
5292 Clouds 1 1035 86 10000 4.1 240 08:47 29.12.2019
5293 Clouds 0 1036 85 10000 4.1 210 08:24 29.12.2019
5294 Clouds 0 1035 86 10000 4.6 220 07:55 29.12.2019
5295 Clouds 0 1035 86 0 5.1 200 07:28 29.12.2019
5296 Clouds 0 1035 90 0 4.6 210 06:55 29.12.2019
5297 Clouds 0 1035 86 0 3.6 200 06:25 29.12.2019
5298 Clouds 0 1036 90 0 5.1 220 05:51 29.12.2019
5299 Clouds 0 1036 91 0 4.6 210 04:36 29.12.2019
5300 Clouds 0 1037 91 0 4.6 190 03:51 29.12.2019
5301 Clouds -1 1037 86 0 3.6 190 03:20 29.12.2019
5302 Clouds -1 1038 90 0 3.1 200 02:20 29.12.2019
5303 Clouds -1 1037 90 0 4.6 210 01:31 29.12.2019
5304 Clouds -1 1037 90 0 4.6 210 01:31 29.12.2019
5305 Clouds -1 1037 90 0 4.6 210 01:31 29.12.2019
5306 Clouds -1 1038 88 0 3.6 210 00:58 29.12.2019
5307 Clouds -1 1038 88 0 3.6 210 00:40 29.12.2019
5308 Clouds 0 1038 80 0 3.1 190 00:21 29.12.2019
5309 Clouds 0 1038 88 0 5.1 210 23:43 28.12.2019
5310 Clouds 0 1038 80 0 3.6 180 23:18 28.12.2019
5311 Clouds 0 1039 84 0 4.1 190 22:39 28.12.2019
5312 Clouds 0 1040 80 0 3.1 180 22:21 28.12.2019
5313 Clouds 0 1040 80 0 3.1 180 21:58 28.12.2019
5314 Clouds 0 1040 84 0 4.1 210 21:39 28.12.2019
5315 Clouds 0 1040 80 0 4.1 190 21:21 28.12.2019
5316 Clouds 0 1039 84 0 3.6 180 20:58 28.12.2019
5317 Clouds 0 1039 84 0 3.6 180 20:38 28.12.2019
5318 Clouds 0 1040 80 0 3.6 180 20:20 28.12.2019
5319 Clouds 0 1040 80 0 3.6 180 19:58 28.12.2019
5320 Clouds 0 1040 84 0 5.1 180 19:39 28.12.2019
5321 Clouds 0 1040 80 0 2.6 190 19:21 28.12.2019
5322 Clouds 0 1040 80 0 4.1 190 18:58 28.12.2019
5323 Clouds 0 1040 80 0 4.1 190 18:40 28.12.2019
5324 Clouds 0 1040 80 0 2.6 190 18:19 28.12.2019
5325 Clouds 0 1040 80 0 4.1 190 17:55 28.12.2019
5326 Clouds 0 1040 80 0 4.1 190 17:37 28.12.2019
5327 Clouds 0 1041 80 10000 2.6 200 17:18 28.12.2019
5328 Clouds 0 1040 80 0 2.6 200 16:46 28.12.2019
5329 Clouds 0 1041 87 10000 3.1 180 16:26 28.12.2019
5330 Clouds 0 1040 80 0 4.1 180 15:47 28.12.2019
5331 Clouds 1 1041 74 10000 2.6 190 15:25 28.12.2019
5332 Clouds 1 1040 87 10000 3.6 160 14:59 28.12.2019
5333 Clouds 1 1041 80 0 4.1 180 14:40 28.12.2019
5334 Clouds 1 1041 80 0 4.1 180 14:40 28.12.2019
5335 Clouds 1 1041 80 10000 4.1 160 14:21 28.12.2019
5336 Clouds 1 1041 80 0 3.1 170 13:57 28.12.2019
5337 Clouds 1 1041 80 0 3.1 170 13:38 28.12.2019
5338 Clouds 1 1042 80 10000 2.1 170 13:19 28.12.2019
5339 Clouds 1 1042 81 10000 2.1 170 13:19 28.12.2019
5340 Clouds 1 1042 80 0 3.6 170 12:43 28.12.2019
5341 Clouds 1 1042 74 10000 3.1 170 12:24 28.12.2019
5342 Clouds 1 1042 74 10000 3.1 170 12:24 28.12.2019
5343 Clouds 0 1042 80 0 3.6 170 11:57 28.12.2019
5344 Clouds 0 1042 80 0 3.6 170 11:39 28.12.2019
5345 Clouds 0 1042 80 0 2.1 150 11:20 28.12.2019
5346 Clouds -1 1041 92 0 4.1 160 10:46 28.12.2019
5347 Clouds -1 1041 92 0 4.1 160 10:46 28.12.2019
5348 Clouds -1 1042 69 10000 1.5 140 10:22 28.12.2019
5349 Clouds -1 1042 69 10000 1.5 140 10:22 28.12.2019
5350 Clouds -1 1042 69 10000 1.5 140 10:22 28.12.2019
5351 Clouds -1 1042 69 10000 1.5 140 10:22 28.12.2019
5352 Clouds -2 1042 80 0 1 190 09:58 28.12.2019
5353 Clouds -2 1041 100 0 3.6 170 09:40 28.12.2019
5354 Clouds -2 1041 80 0 1 210 09:20 28.12.2019
5355 Clouds -2 1041 80 0 1 210 09:20 28.12.2019
5356 Clouds -2 1041 100 0 2.1 180 08:45 28.12.2019
5357 Clouds -2 1041 90 10000 1.5 120 08:27 28.12.2019
5358 Clouds -2 1041 92 0 2.1 170 07:57 28.12.2019
5359 Clouds -1 1041 92 0 2.1 170 07:39 28.12.2019
5360 Clouds -2 1041 100 10000 2.6 160 06:50 28.12.2019
5361 Clouds -1 1041 74 0 2.6 110 05:31 28.12.2019
5362 Clouds 0 1040 86 10000 2.1 150 03:47 28.12.2019
5363 Clouds 0 1040 88 10000 1.5 110 02:49 28.12.2019
5364 Clouds 0 1040 86 0 1 80 02:19 28.12.2019
5365 Clouds 0 1040 80 10000 1 350 01:50 28.12.2019
5366 Clouds 0 1039 86 0 1.01 100 01:21 28.12.2019
5367 Clouds -1 1039 86 10000 1.01 100 00:42 28.12.2019
5368 Clouds 0 1039 86 0 2.6 70 00:23 28.12.2019
5369 Clouds 0 1039 86 0 2.6 70 00:23 28.12.2019
5370 Clouds 0 1038 80 10000 1 100 23:56 27.12.2019
5371 Clouds 0 1038 80 10000 1 100 23:36 27.12.2019
5372 Clouds 0 1038 80 0 3.6 90 23:18 27.12.2019
5373 Clouds 0 1038 74 10000 3.1 110 22:55 27.12.2019
5374 Clouds 0 1038 74 10000 3.1 110 22:37 27.12.2019
5375 Clouds 1 1038 82 0 2.6 50 22:19 27.12.2019
5376 Clouds 1 1038 74 10000 2.6 90 21:41 27.12.2019
5377 Clouds 1 1038 82 0 2.6 60 21:23 27.12.2019
5378 Clouds 2 1037 80 10000 1.5 0 20:44 27.12.2019
5379 Clouds 2 1038 82 0 3.1 50 20:26 27.12.2019
5380 Clouds 2 1037 76 10000 2.1 90 19:57 27.12.2019
5381 Clouds 2 1037 76 10000 2.1 90 19:38 27.12.2019
5382 Clouds 2 1037 74 0 0.5 60 19:19 27.12.2019
5383 Clouds 2 1037 74 0 2.6 60 18:55 27.12.2019
5384 Clouds 2 1037 74 0 2.6 60 18:36 27.12.2019
5385 Clouds 3 1036 76 0 1.5 50 18:18 27.12.2019
5386 Clouds 3 1036 74 0 3.1 30 17:55 27.12.2019
5387 Clouds 3 1036 74 0 3.1 30 17:36 27.12.2019
5388 Clouds 3 1035 77 10000 2.1 360 17:18 27.12.2019
5389 Clouds 3 1035 74 0 2.1 60 16:41 27.12.2019
5390 Clouds 3 1034 74 10000 3.6 50 16:23 27.12.2019
5391 Clouds 3 1033 74 0 2.1 80 15:57 27.12.2019
5392 Clouds 3 1033 74 0 2.1 80 15:37 27.12.2019
5393 Clouds 3 1033 74 0 2.1 80 15:37 27.12.2019
5394 Clouds 3 1034 69 10000 4.1 40 15:19 27.12.2019
5395 Clouds 3 1033 69 0 4.1 60 14:56 27.12.2019
5396 Clouds 3 1033 69 0 4.1 60 14:38 27.12.2019
5397 Clouds 3 1033 74 10000 3.6 40 14:19 27.12.2019
5398 Clouds 3 1033 74 0 3.6 60 13:47 27.12.2019
5399 Clouds 3 1032 74 10000 4.1 40 13:24 27.12.2019
5400 Clouds 3 1032 69 0 2.6 70 12:56 27.12.2019
5401 Clouds 3 1032 69 0 2.6 70 12:37 27.12.2019
5402 Clouds 3 1032 77 10000 4.1 40 12:18 27.12.2019
5403 Clouds 3 1032 77 10000 4.1 40 12:18 27.12.2019
5404 Clouds 3 1032 74 0 3.6 70 11:42 27.12.2019
5405 Clouds 2 1032 80 10000 4.1 20 11:20 27.12.2019
5406 Clouds 2 1031 82 0 3.1 60 10:54 27.12.2019
5407 Clouds 2 1031 82 0 3.1 60 10:36 27.12.2019
5408 Clouds 2 1031 82 10000 5.1 50 10:18 27.12.2019
5409 Clouds 2 1030 82 0 2.6 80 09:40 27.12.2019
5410 Clouds 2 1030 86 0 3.1 20 09:21 27.12.2019
5411 Clouds 2 1029 80 0 2.6 70 08:54 27.12.2019
5412 Clouds 2 1029 80 0 2.6 70 08:34 27.12.2019
5413 Clouds 2 1028 80 0 3.1 70 07:50 27.12.2019
5414 Clouds 2 1028 90 0 3.1 50 07:31 27.12.2019
5415 Clouds 2 1027 90 0 3.1 50 06:36 27.12.2019
5416 Clouds 1 1026 89 0 4.1 70 04:59 27.12.2019
5417 Clouds 1 1026 89 10000 1 50 03:26 27.12.2019
5418 Clouds 1 1025 93 0 1.5 60 01:59 27.12.2019
5419 Clouds 1 1024 91 0 3.1 70 01:37 27.12.2019
5420 Clouds 2 1024 91 0 2.1 40 01:18 27.12.2019
5421 Clouds 2 1024 92 0 3.1 80 00:41 27.12.2019
5422 Clouds 2 1024 92 0 1.5 40 00:23 27.12.2019
5423 Clouds 3 1024 93 0 2.6 100 23:41 26.12.2019
5424 Clouds 3 1024 92 0 1.5 40 23:22 26.12.2019
5425 Clouds 3 1023 86 0 2.6 90 22:47 26.12.2019
5426 Clouds 3 1023 86 0 2.1 50 22:23 26.12.2019
5427 Clouds 4 1023 86 0 2.1 50 21:59 26.12.2019
5428 Clouds 4 1023 93 0 3.1 90 21:39 26.12.2019
5429 Clouds 4 1023 86 0 1.5 50 21:20 26.12.2019
5430 Clouds 4 1023 93 0 2.1 90 20:46 26.12.2019
5431 Clouds 4 1023 80 0 2.6 70 20:23 26.12.2019
5432 Clouds 4 1022 93 0 1.5 0 19:59 26.12.2019
5433 Clouds 4 1022 93 0 1.5 0 19:40 26.12.2019
5434 Clouds 5 1022 86 0 1.5 80 19:22 26.12.2019
5435 Clouds 5 1022 86 0 1.5 80 18:58 26.12.2019
5436 Clouds 5 1022 93 10000 1.5 300 18:40 26.12.2019
5437 Drizzle 5 1022 93 0 3.1 40 18:19 26.12.2019
5438 Clouds 5 1022 87 10000 2.6 280 17:57 26.12.2019
5439 Clouds 5 1022 87 10000 2.6 280 17:38 26.12.2019
5440 Clouds 5 1022 87 10000 2.6 280 17:38 26.12.2019
5441 Clouds 5 1022 87 10000 2.6 280 17:38 26.12.2019
5442 Clouds 5 1022 87 10000 1 340 17:19 26.12.2019
5443 Clouds 5 1022 87 10000 2.6 260 16:45 26.12.2019
5444 Rain 5 1022 93 10000 2.6 290 16:24 26.12.2019
5445 Clouds 6 1021 93 10000 2.1 300 15:56 26.12.2019
5446 Clouds 6 1021 93 10000 2.1 300 15:38 26.12.2019
5447 Clouds 6 1021 81 10000 3.1 320 15:18 26.12.2019
5448 Clouds 6 1021 93 10000 4.1 290 14:41 26.12.2019
5449 Clouds 6 1021 93 10000 1.5 280 14:22 26.12.2019
5450 Clouds 6 1021 93 10000 4.1 290 13:45 26.12.2019
5451 Clouds 6 1022 93 10000 3.1 270 13:24 26.12.2019
5452 Clouds 6 1022 93 10000 4.1 290 12:58 26.12.2019
5453 Clouds 6 1022 93 10000 4.1 290 12:40 26.12.2019
5454 Clouds 6 1022 93 10000 2.1 270 12:21 26.12.2019
5455 Rain 5 1022 93 7000 5.7 320 11:58 26.12.2019
5456 Rain 5 1022 93 7000 5.7 320 11:40 26.12.2019
5457 Clouds 5 1021 87 10000 2.6 250 11:21 26.12.2019
5458 Rain 5 1022 100 7000 4.6 290 10:49 26.12.2019
5459 Rain 4 1022 87 4000 4.1 280 10:24 26.12.2019
5460 Clouds 4 1021 93 10000 4.1 290 09:54 26.12.2019
5461 Clouds 4 1021 93 10000 4.1 290 09:33 26.12.2019
5462 Clouds 3 1021 93 0 2.6 270 08:59 26.12.2019
5463 Clouds 4 1021 93 10000 4.1 300 08:39 26.12.2019
5464 Clear 3 1020 93 0 3.1 270 08:20 26.12.2019
5465 Clouds 3 1021 93 10000 5.7 310 07:38 26.12.2019
5466 Clear 4 1020 86 0 2.6 270 07:19 26.12.2019
5467 Clear 4 1020 93 0 6.2 300 06:37 26.12.2019
5468 Clear 4 1020 87 0 3.6 280 06:19 26.12.2019
5469 Clear 4 1020 93 0 6.7 300 05:41 26.12.2019
5470 Clear 5 1021 87 0 6.7 310 04:33 26.12.2019
5471 Clear 5 1020 87 0 2.6 260 03:31 26.12.2019
5472 Clear 5 1021 87 0 5.1 280 02:46 26.12.2019
5473 Clear 5 1020 87 0 4.1 270 02:27 26.12.2019
5474 Clear 5 1020 87 0 6.2 290 01:44 26.12.2019
5475 Clear 5 1020 87 0 4.1 270 01:25 26.12.2019
5476 Clear 5 1020 93 0 6.7 280 00:44 26.12.2019
5477 Clear 5 1019 87 0 3.6 270 00:23 26.12.2019
5478 Clear 5 1020 87 0 8.2 290 23:57 25.12.2019
5479 Clear 5 1020 87 0 8.2 290 23:37 25.12.2019
5480 Clear 5 1019 87 0 3.6 260 23:19 25.12.2019
5481 Clear 5 1019 87 0 6.2 280 22:56 25.12.2019
5482 Clear 5 1019 87 0 6.2 280 22:37 25.12.2019
5483 Clear 5 1019 87 0 2.6 260 22:18 25.12.2019
5484 Clear 5 1019 87 0 5.7 290 21:55 25.12.2019
5485 Clear 5 1019 87 0 5.7 290 21:37 25.12.2019
5486 Clear 5 1019 87 0 3.1 260 21:19 25.12.2019
5487 Clear 5 1019 87 0 6.2 280 20:40 25.12.2019
5488 Clouds 5 1019 87 0 3.1 270 20:21 25.12.2019
5489 Clear 5 1019 93 0 5.1 290 19:59 25.12.2019
5490 Clear 5 1019 93 0 5.1 290 19:41 25.12.2019
5491 Clear 5 1018 87 0 3.6 270 19:21 25.12.2019
5492 Clear 5 1018 93 0 4.6 290 18:40 25.12.2019
5493 Clear 5 1018 87 0 3.1 270 18:21 25.12.2019
5494 Clear 5 1018 87 0 3.1 270 17:59 25.12.2019
5495 Clear 6 1018 87 0 5.1 300 17:39 25.12.2019
5496 Clear 6 1018 87 0 3.6 270 17:18 25.12.2019
5497 Clear 6 1018 87 0 4.1 280 16:55 25.12.2019
5498 Clear 6 1018 87 0 4.1 280 16:36 25.12.2019
5499 Clear 6 1017 75 0 3.6 280 16:18 25.12.2019
5500 Clear 6 1017 87 0 3.6 310 15:56 25.12.2019
5501 Clear 6 1017 87 0 3.6 310 15:37 25.12.2019
5502 Clear 6 1016 75 0 4.1 300 15:18 25.12.2019
5503 Clear 6 1016 87 0 6.2 340 14:55 25.12.2019
5504 Clear 6 1016 87 0 6.2 340 14:37 25.12.2019
5505 Clouds 6 1015 87 0 4.1 310 14:18 25.12.2019
5506 Clouds 6 1015 87 0 5.7 320 13:42 25.12.2019
5507 Clouds 6 1015 87 0 4.1 310 13:21 25.12.2019
5508 Clouds 6 1014 93 0 4.1 320 12:44 25.12.2019
5509 Clouds 6 1014 93 0 4.6 300 12:22 25.12.2019
5510 Clouds 6 1014 93 0 4.6 320 11:58 25.12.2019
5511 Clouds 6 1014 93 0 4.6 320 11:40 25.12.2019
5512 Clouds 6 1013 93 0 3.1 290 11:21 25.12.2019
5513 Clouds 5 1013 93 0 4.1 290 10:41 25.12.2019
5514 Clouds 5 1012 93 0 2.1 260 10:21 25.12.2019
5515 Clouds 5 1012 93 0 2.1 260 09:59 25.12.2019
5516 Clouds 5 1012 93 0 3.1 280 09:41 25.12.2019
5517 Clouds 5 1011 93 10000 1.5 290 09:23 25.12.2019
5518 Clouds 5 1011 100 0 3.1 270 08:44 25.12.2019
5519 Clouds 5 1011 100 10000 2.1 280 08:24 25.12.2019
5520 Clouds 5 1011 100 10000 2.1 280 08:24 25.12.2019
5521 Clouds 5 1010 100 0 4.1 270 07:44 25.12.2019
5522 Clouds 5 1010 100 0 2.6 250 07:23 25.12.2019
5523 Drizzle 5 1009 100 900 2.6 250 06:24 25.12.2019
5524 Clouds 4 1009 100 0 3.6 260 05:51 25.12.2019
5525 Rain 4 1009 100 0 3.6 260 04:47 25.12.2019
5526 Rain 4 1008 100 0 1 240 04:25 25.12.2019
5527 Rain 4 1008 100 0 3.6 270 03:52 25.12.2019
5528 Rain 4 1008 100 0 3.6 270 03:32 25.12.2019
5529 Rain 4 1008 100 0 2.6 270 02:32 25.12.2019
5530 Rain 4 1007 100 0 2.6 270 01:54 25.12.2019
5531 Rain 4 1007 93 0 1.5 280 01:24 25.12.2019
5532 Rain 4 1007 93 0 2.6 270 00:46 25.12.2019
5533 Rain 4 1007 100 0 1.5 300 00:27 25.12.2019
5534 Rain 4 1006 100 0 2.6 280 23:55 24.12.2019
5535 Rain 4 1006 100 0 2.6 280 23:36 24.12.2019
5536 Rain 4 1006 93 0 1 290 23:18 24.12.2019
5537 Rain 4 1006 100 0 2.1 290 22:38 24.12.2019
5538 Rain 4 1005 93 0 1.5 260 22:20 24.12.2019
5539 Rain 4 1005 93 0 1.5 260 22:20 24.12.2019
5540 Rain 5 1005 100 0 2.6 280 21:42 24.12.2019
5541 Mist 5 1005 93 0 1.5 240 21:22 24.12.2019
5542 Mist 5 1005 93 0 1.5 240 21:22 24.12.2019
5543 Rain 5 1005 93 0 2.1 260 20:45 24.12.2019
5544 Mist 5 1005 93 0 1 160 20:24 24.12.2019
5545 Rain 5 1004 100 0 1.5 210 19:57 24.12.2019
5546 Rain 5 1004 100 0 1.5 210 19:39 24.12.2019
5547 Rain 5 1004 93 0 1.5 160 19:19 24.12.2019
5548 Rain 5 1004 93 0 1 0 18:42 24.12.2019
5549 Rain 6 1004 93 0 1 160 18:23 24.12.2019
5550 Rain 6 1004 93 0 1 160 17:58 24.12.2019
5551 Rain 6 1004 93 0 2.1 180 17:37 24.12.2019
5552 Drizzle 6 1004 93 0 2.1 170 17:19 24.12.2019
5553 Clouds 6 1004 93 0 2.6 170 16:55 24.12.2019
5554 Clouds 6 1004 93 0 2.6 170 16:36 24.12.2019
5555 Clouds 6 1004 93 0 2.1 160 16:18 24.12.2019
5556 Clouds 6 1003 93 0 2.6 180 15:54 24.12.2019
5557 Clouds 6 1003 93 0 2.6 180 15:36 24.12.2019
5558 Clouds 6 1004 93 0 3.1 200 15:18 24.12.2019
5559 Clouds 6 1004 93 0 3.1 200 14:54 24.12.2019
5560 Clouds 6 1004 93 0 3.1 200 14:36 24.12.2019
5561 Clouds 6 1004 93 10000 3.1 200 14:18 24.12.2019
5562 Clouds 6 1004 87 0 4.1 200 13:54 24.12.2019
5563 Clouds 6 1004 87 0 4.1 200 13:36 24.12.2019
5564 Clouds 6 1005 81 0 3.6 200 13:18 24.12.2019
5565 Clouds 6 1005 81 0 6.2 230 12:54 24.12.2019
5566 Clouds 6 1005 81 0 6.2 230 12:36 24.12.2019
5567 Clouds 6 1005 93 10000 4.6 210 12:18 24.12.2019
5568 Clouds 6 1005 93 0 6.2 210 11:54 24.12.2019
5569 Clouds 6 1005 93 0 6.2 210 11:36 24.12.2019
5570 Rain 6 1006 87 0 4.6 210 11:18 24.12.2019
5571 Rain 6 1006 87 0 5.7 220 10:54 24.12.2019
5572 Rain 6 1006 87 0 5.7 220 10:36 24.12.2019
5573 Rain 6 1006 87 0 4.1 210 10:18 24.12.2019
5574 Rain 6 1006 87 0 7.2 240 09:54 24.12.2019
5575 Rain 6 1006 87 0 7.2 240 09:36 24.12.2019
5576 Rain 6 1006 87 0 3.1 220 09:18 24.12.2019
5577 Rain 6 1006 87 0 6.2 240 08:42 24.12.2019
5578 Rain 6 1006 93 0 3.6 220 08:19 24.12.2019
5579 Rain 7 1006 93 0 7.2 230 07:44 24.12.2019
5580 Rain 7 1006 93 0 3.1 220 07:22 24.12.2019
5581 Rain 7 1007 93 10000 5.7 240 06:41 24.12.2019
5582 Rain 7 1006 93 0 3.1 230 06:22 24.12.2019
5583 Clouds 7 1006 93 10000 6.7 230 05:57 24.12.2019
5584 Rain 7 1006 93 0 3.1 230 05:20 24.12.2019
5585 Clouds 7 1007 93 10000 6.7 250 04:36 24.12.2019
5586 Clouds 7 1007 93 10000 5.1 230 03:50 24.12.2019
5587 Clouds 7 1007 87 10000 8.2 260 02:59 24.12.2019
5588 Clouds 7 1006 87 0 3.1 220 02:19 24.12.2019
5589 Clouds 7 1006 87 10000 5.7 250 01:42 24.12.2019
5590 Clouds 7 1006 93 0 3.1 220 01:20 24.12.2019
5591 Clouds 7 1006 87 10000 5.7 240 00:43 24.12.2019
5592 Rain 7 1006 87 0 3.1 250 00:23 24.12.2019
5593 Clouds 7 1006 87 10000 5.1 250 23:56 23.12.2019
5594 Clouds 7 1006 87 10000 5.1 250 23:37 23.12.2019
5595 Clear 7 1005 93 0 3.1 240 23:19 23.12.2019
5596 Clouds 7 1005 87 10000 6.7 260 22:55 23.12.2019
5597 Clouds 7 1005 87 10000 6.7 260 22:36 23.12.2019
5598 Clear 7 1004 87 0 3.6 230 22:18 23.12.2019
5599 Clouds 7 1004 87 10000 5.7 250 21:55 23.12.2019
5600 Clouds 7 1004 87 10000 5.7 250 21:36 23.12.2019
5601 Clouds 7 1004 87 10000 5.7 250 21:36 23.12.2019
5602 Clear 7 1004 93 0 2.6 230 21:18 23.12.2019
5603 Clouds 7 1004 87 10000 5.1 250 20:56 23.12.2019
5604 Clouds 7 1004 87 10000 5.1 250 20:38 23.12.2019
5605 Clouds 6 1003 87 10000 2.6 220 20:18 23.12.2019
5606 Clouds 6 1003 87 10000 7.2 260 19:55 23.12.2019
5607 Clouds 6 1003 87 10000 7.2 260 19:37 23.12.2019
5608 Rain 7 1003 81 10000 5.1 250 19:19 23.12.2019
5609 Clouds 7 1003 87 10000 7.2 270 18:57 23.12.2019
5610 Clouds 7 1003 87 10000 7.2 270 18:38 23.12.2019
5611 Clouds 7 1002 93 10000 2.6 230 18:20 23.12.2019
5612 Clouds 7 1002 93 10000 7.7 260 17:55 23.12.2019
5613 Clouds 7 1002 93 10000 7.7 260 17:55 23.12.2019
5614 Clouds 7 1002 93 10000 7.7 260 17:37 23.12.2019
5615 Clouds 7 1001 87 10000 3.1 250 17:19 23.12.2019
5616 Clouds 7 1001 87 10000 8.2 270 16:54 23.12.2019
5617 Clouds 7 1001 87 10000 8.2 270 16:36 23.12.2019
5618 Clouds 7 1000 93 10000 5.1 250 16:18 23.12.2019
5619 Clouds 7 1000 87 10000 9.8 270 15:55 23.12.2019
5620 Clouds 7 1001 93 4400 6.7 250 15:36 23.12.2019
5621 Clouds 8 999 87 10000 5.1 250 15:18 23.12.2019
5622 Clouds 8 999 87 10000 8.2 270 14:42 23.12.2019
5623 Rain 8 1000 81 10000 6.2 250 14:24 23.12.2019
5624 Clouds 8 998 87 10000 5.7 250 13:59 23.12.2019
5625 Clouds 8 998 87 10000 5.7 250 13:59 23.12.2019
5626 Clouds 8 998 87 10000 8.2 280 13:40 23.12.2019
5627 Rain 8 998 87 4500 9.8 270 13:22 23.12.2019
5628 Drizzle 8 997 87 9000 6.2 250 12:58 23.12.2019
5629 Clouds 8 997 87 10000 10.3 270 12:58 23.12.2019
5630 Clouds 8 997 87 10000 10.3 270 12:39 23.12.2019
5631 Clouds 8 996 87 10000 5.1 240 12:21 23.12.2019
5632 Clouds 7 996 87 10000 9.3 260 11:55 23.12.2019
5633 Clouds 7 996 87 10000 9.3 260 11:37 23.12.2019
5634 Clouds 7 996 93 10000 7.7 260 11:18 23.12.2019
5635 Rain 7 996 93 4500 7.2 260 10:54 23.12.2019
5636 Rain 7 996 93 4500 7.2 260 10:36 23.12.2019
5637 Clouds 7 995 93 0 3.6 230 10:18 23.12.2019
5638 Clouds 7 995 93 10000 8.7 260 09:54 23.12.2019
5639 Clouds 7 995 93 10000 8.7 260 09:36 23.12.2019
5640 Rain 7 994 93 0 3.1 230 09:18 23.12.2019
5641 Clouds 7 994 93 8000 8.2 260 08:41 23.12.2019
5642 Rain 7 993 100 0 2.6 210 08:22 23.12.2019
5643 Drizzle 7 993 93 4500 6.7 260 07:49 23.12.2019
5644 Clouds 7 992 93 7000 5.1 240 07:22 23.12.2019
5645 Rain 6 992 100 5000 4.1 220 06:57 23.12.2019
5646 Rain 6 992 100 5000 4.1 220 06:32 23.12.2019
5647 Drizzle 6 991 100 2000 2.1 200 05:56 23.12.2019
5648 Drizzle 6 991 100 2000 2.1 200 05:33 23.12.2019
5649 Drizzle 5 990 100 2000 1.5 170 04:40 23.12.2019
5650 Drizzle 5 990 93 2000 3.1 150 03:58 23.12.2019
5651 Drizzle 5 989 93 3000 2.1 140 02:46 23.12.2019
5652 Mist 5 989 93 3000 3.1 110 02:19 23.12.2019
5653 Drizzle 5 989 93 4500 3.1 140 01:46 23.12.2019
5654 Drizzle 5 989 93 2000 3.1 110 01:27 23.12.2019
5655 Clouds 5 988 93 7000 3.6 140 00:46 23.12.2019
5656 Mist 5 988 93 4500 3.6 110 00:25 23.12.2019
5657 Drizzle 5 988 93 7000 4.1 130 23:56 22.12.2019
5658 Drizzle 5 988 93 7000 4.1 130 23:37 22.12.2019
5659 Rain 5 988 93 0 6.2 130 23:19 22.12.2019
5660 Rain 5 987 93 7000 5.1 130 22:55 22.12.2019
5661 Rain 5 987 93 7000 5.1 130 22:37 22.12.2019
5662 Rain 5 988 100 0 6.2 130 22:18 22.12.2019
5663 Clouds 5 987 93 8000 4.6 130 21:54 22.12.2019
5664 Clouds 5 987 93 8000 4.6 130 21:36 22.12.2019
5665 Clouds 5 987 93 6000 4.6 110 21:18 22.12.2019
5666 Clouds 5 987 93 9000 4.6 130 20:40 22.12.2019
5667 Clouds 5 987 87 8000 7.2 120 20:19 22.12.2019
5668 Clouds 5 987 87 8000 7.2 120 19:58 22.12.2019
5669 Clouds 5 986 86 9000 4.1 130 19:39 22.12.2019
5670 Clouds 5 987 87 8000 6.7 130 19:20 22.12.2019
5671 Clouds 5 986 93 9000 4.1 130 18:58 22.12.2019
5672 Clouds 5 986 93 9000 4.1 130 18:38 22.12.2019
5673 Clouds 5 986 93 8000 6.2 130 18:19 22.12.2019
5674 Clouds 5 986 93 8000 4.6 130 17:55 22.12.2019
5675 Clouds 5 986 93 8000 4.6 130 17:36 22.12.2019
5676 Mist 5 986 93 5000 4.6 110 17:18 22.12.2019
5677 Clouds 5 985 93 8000 4.6 120 16:42 22.12.2019
5678 Clouds 5 986 93 10000 3.6 150 16:23 22.12.2019
5679 Clouds 5 986 93 10000 3.6 150 16:23 22.12.2019
5680 Clouds 5 986 93 6000 4.6 120 15:58 22.12.2019
5681 Clouds 5 985 86 10000 4.6 130 15:39 22.12.2019
5682 Clouds 5 985 93 10000 4.6 110 15:21 22.12.2019
5683 Clouds 5 985 93 10000 4.6 110 14:59 22.12.2019
5684 Clouds 5 985 86 10000 3.6 140 14:38 22.12.2019
5685 Clouds 5 985 93 10000 4.6 120 14:19 22.12.2019
5686 Clouds 5 985 93 10000 3.6 140 13:56 22.12.2019
5687 Clouds 5 985 93 10000 3.6 140 13:38 22.12.2019
5688 Clouds 5 985 87 10000 5.7 130 13:19 22.12.2019
5689 Drizzle 5 985 86 10000 4.1 140 12:57 22.12.2019
5690 Drizzle 5 985 86 10000 4.1 140 12:39 22.12.2019
5691 Clouds 4 985 93 10000 3.6 110 12:20 22.12.2019
5692 Clouds 4 985 93 10000 3.6 110 11:59 22.12.2019
5693 Drizzle 4 985 86 10000 4.1 150 11:39 22.12.2019
5694 Clouds 4 986 93 10000 4.6 110 11:20 22.12.2019
5695 Clouds 4 985 86 10000 4.6 140 10:58 22.12.2019
5696 Clouds 4 985 86 10000 4.6 140 10:40 22.12.2019
5697 Clouds 4 986 93 10000 4.6 110 10:19 22.12.2019
5698 Clouds 3 986 93 10000 4.6 110 09:58 22.12.2019
5699 Clouds 3 985 93 10000 5.1 130 09:39 22.12.2019
5700 Clouds 4 985 100 0 5.1 120 09:21 22.12.2019
5701 Clouds 4 985 93 10000 5.1 130 08:45 22.12.2019
5702 Clouds 4 986 93 10000 3.6 120 08:23 22.12.2019
5703 Clouds 4 985 93 10000 4.6 130 07:52 22.12.2019
5704 Clouds 4 985 93 0 4.1 100 07:22 22.12.2019
5705 Clouds 4 985 93 10000 4.1 130 06:57 22.12.2019
5706 Clouds 4 985 93 0 3.1 120 06:30 22.12.2019
5707 Clouds 4 985 93 10000 4.1 140 05:49 22.12.2019
5708 Clouds 4 986 100 0 3.1 130 05:21 22.12.2019
5709 Clouds 4 986 93 0 3.6 150 04:28 22.12.2019
5710 Clouds 4 986 93 10000 5.1 170 03:45 22.12.2019
5711 Clouds 4 985 93 10000 5.7 160 02:38 22.12.2019
5712 Clouds 4 985 93 10000 5.7 160 02:38 22.12.2019
5713 Clouds 4 986 93 10000 5.7 160 01:37 22.12.2019
5714 Clouds 4 986 93 0 3.1 140 01:18 22.12.2019
5715 Clouds 5 986 93 10000 5.7 160 00:45 22.12.2019
5716 Clouds 5 986 93 10000 2.6 140 00:21 22.12.2019
5717 Clouds 5 986 93 10000 5.7 160 23:55 21.12.2019
5718 Clouds 5 986 93 10000 5.7 160 23:37 21.12.2019
5719 Clouds 6 987 93 0 2.6 140 23:18 21.12.2019
5720 Rain 6 987 93 10000 5.1 160 22:40 21.12.2019
5721 Rain 6 987 93 10000 5.1 160 22:40 21.12.2019
5722 Rain 6 987 93 10000 3.6 140 22:19 21.12.2019
5723 Rain 6 987 93 10000 3.6 140 22:19 21.12.2019
5724 Rain 6 987 93 10000 5.1 170 21:57 21.12.2019
5725 Rain 6 987 93 10000 5.1 170 21:38 21.12.2019
5726 Rain 6 987 93 8000 3.6 160 21:19 21.12.2019
5727 Rain 6 987 93 8000 3.6 160 20:58 21.12.2019
5728 Rain 6 988 93 10000 6.2 170 20:39 21.12.2019
5729 Clouds 6 988 93 0 3.6 150 20:21 21.12.2019
5730 Clouds 6 988 93 0 3.6 150 19:58 21.12.2019
5731 Clouds 6 988 93 10000 5.7 160 19:40 21.12.2019
5732 Clouds 6 988 93 0 5.1 140 19:19 21.12.2019
5733 Clouds 6 988 87 10000 5.1 160 18:45 21.12.2019
5734 Clouds 6 988 93 0 3.6 140 18:24 21.12.2019
5735 Clouds 6 988 93 10000 5.1 150 17:58 21.12.2019
5736 Clouds 6 988 93 10000 5.1 150 17:39 21.12.2019
5737 Clouds 6 989 87 0 3.1 130 17:21 21.12.2019
5738 Clouds 6 989 87 0 3.1 130 16:59 21.12.2019
5739 Clouds 6 989 87 10000 4.6 170 16:41 21.12.2019
5740 Clouds 6 989 87 10000 4.6 170 16:41 21.12.2019
5741 Clouds 7 989 93 10000 5.1 180 16:19 21.12.2019
5742 Clouds 6 989 93 10000 5.1 180 16:19 21.12.2019
5743 Clouds 7 989 81 10000 3.1 200 15:57 21.12.2019
5744 Clouds 7 989 81 10000 3.1 200 15:38 21.12.2019
5745 Clouds 7 989 81 10000 3.1 200 15:38 21.12.2019
5746 Clouds 7 989 81 10000 3.1 200 15:38 21.12.2019
5747 Clouds 7 989 81 10000 3.1 190 15:19 21.12.2019
5748 Clouds 7 989 81 10000 4.1 210 14:57 21.12.2019
5749 Clouds 8 989 81 10000 4.1 210 14:38 21.12.2019
5750 Clouds 8 989 87 10000 3.1 210 14:19 21.12.2019
5751 Clouds 8 989 87 10000 3.6 230 13:56 21.12.2019
5752 Clouds 7 989 87 10000 3.6 230 13:38 21.12.2019
5753 Clouds 7 990 87 10000 2.6 200 13:18 21.12.2019
5754 Clouds 7 990 87 10000 4.6 230 12:55 21.12.2019
5755 Clouds 7 990 87 10000 4.6 230 12:37 21.12.2019
5756 Clouds 7 990 87 10000 3.6 200 12:18 21.12.2019
5757 Clouds 7 990 87 10000 5.1 230 11:43 21.12.2019
5758 Clouds 7 991 81 10000 3.6 210 11:25 21.12.2019
5759 Clouds 6 990 81 10000 5.7 220 10:57 21.12.2019
5760 Clouds 6 990 81 10000 5.7 220 10:57 21.12.2019
5761 Clouds 6 990 81 10000 5.7 220 10:38 21.12.2019
5762 Clouds 6 989 87 10000 4.6 210 10:20 21.12.2019
5763 Clouds 6 989 87 10000 6.7 220 09:56 21.12.2019
5764 Clouds 6 989 87 10000 6.7 220 09:37 21.12.2019
5765 Clouds 6 989 81 10000 2.6 230 09:18 21.12.2019
5766 Clouds 6 989 81 10000 6.2 230 08:44 21.12.2019
5767 Clouds 6 989 81 10000 3.6 210 08:25 21.12.2019
5768 Clouds 6 989 81 10000 7.7 240 07:46 21.12.2019
5769 Clouds 7 988 81 10000 3.1 200 07:22 21.12.2019
5770 Clouds 7 988 81 0 7.7 230 06:46 21.12.2019
5771 Clouds 7 988 87 0 3.6 210 06:26 21.12.2019
5772 Clouds 7 988 87 0 5.1 220 05:55 21.12.2019
5773 Clouds 7 988 87 0 6.2 220 04:58 21.12.2019
5774 Clouds 7 988 87 0 3.6 200 03:59 21.12.2019
5775 Clouds 7 988 87 0 5.7 200 03:37 21.12.2019
5776 Rain 8 987 100 0 2.6 200 02:19 21.12.2019
5777 Rain 8 986 100 0 4.6 220 01:41 21.12.2019
5778 Rain 8 986 100 0 2.6 210 01:23 21.12.2019
5779 Rain 8 986 100 0 4.6 210 00:39 21.12.2019
5780 Rain 8 986 100 0 2.6 210 00:19 21.12.2019
5781 Rain 8 986 100 0 5.7 210 23:38 20.12.2019
5782 Rain 8 986 93 0 2.6 180 23:19 20.12.2019
5783 Rain 8 985 93 0 7.2 190 22:57 20.12.2019
5784 Rain 8 985 93 0 7.2 190 22:36 20.12.2019
5785 Rain 8 986 93 4000 4.1 180 22:18 20.12.2019
5786 Rain 8 985 93 0 8.2 180 21:41 20.12.2019
5787 Rain 8 985 87 0 4.6 150 21:21 20.12.2019
5788 Rain 8 985 87 0 4.6 150 21:21 20.12.2019
5789 Rain 8 986 87 0 4.6 140 20:57 20.12.2019
5790 Rain 8 986 87 0 4.6 140 20:38 20.12.2019
5791 Clouds 8 986 87 0 5.1 130 20:18 20.12.2019
5792 Clouds 8 985 81 0 5.7 160 19:42 20.12.2019
5793 Clouds 8 986 87 0 6.2 130 19:21 20.12.2019
5794 Clouds 8 986 87 0 6.2 130 18:58 20.12.2019
5795 Clouds 8 985 81 0 6.2 150 18:40 20.12.2019
5796 Clouds 8 986 93 10000 6.2 120 18:21 20.12.2019
5797 Clouds 8 986 93 10000 6.2 120 18:21 20.12.2019
5798 Clouds 8 986 75 5000 5.7 140 17:57 20.12.2019
5799 Clouds 8 986 75 5000 5.7 140 17:39 20.12.2019
5800 Clouds 8 986 75 5000 5.7 140 17:39 20.12.2019
5801 Clouds 8 987 93 9000 7.2 120 17:20 20.12.2019
5802 Clouds 8 987 87 0 6.2 130 16:56 20.12.2019
5803 Clouds 8 987 75 5000 4.6 130 16:38 20.12.2019
5804 Clouds 8 988 87 8000 7.7 120 16:19 20.12.2019
5805 Clouds 8 988 87 0 4.6 130 15:54 20.12.2019
5806 Clouds 8 988 93 8000 8.2 120 15:36 20.12.2019
5807 Clouds 8 988 93 8000 8.2 120 15:18 20.12.2019
5808 Clouds 8 988 87 0 5.7 120 14:42 20.12.2019
5809 Clouds 8 989 87 10000 7.7 120 14:24 20.12.2019
5810 Clouds 8 989 87 0 6.2 120 13:57 20.12.2019
5811 Clouds 8 989 70 5000 3.6 130 13:37 20.12.2019
5812 Clouds 8 990 93 8000 6.7 110 13:19 20.12.2019
5813 Clouds 7 990 93 0 5.1 110 12:56 20.12.2019
5814 Clouds 7 989 75 5000 5.1 110 12:36 20.12.2019
5815 Mist 6 991 93 2500 6.7 120 12:18 20.12.2019
5816 Clouds 6 992 93 0 4.1 110 11:57 20.12.2019
5817 Clouds 6 991 87 10000 4.1 110 11:38 20.12.2019
5818 Clouds 6 991 87 10000 4.1 110 11:38 20.12.2019
5819 Mist 6 993 100 1600 7.7 120 11:18 20.12.2019
5820 Mist 6 993 100 1600 7.7 120 11:18 20.12.2019
5821 Clouds 6 993 100 0 5.1 130 10:56 20.12.2019
5822 Clouds 5 993 87 10000 4.1 140 10:38 20.12.2019
5823 Clouds 5 993 93 9000 4.1 130 10:19 20.12.2019
5824 Clouds 5 994 100 0 4.1 120 09:43 20.12.2019
5825 Fog 4 994 100 600 6.2 120 09:21 20.12.2019
5826 Clouds 4 995 100 0 4.1 120 08:58 20.12.2019
5827 Mist 4 994 93 5000 3.1 120 08:40 20.12.2019
5828 Fog 4 995 100 400 6.2 120 08:21 20.12.2019
5829 Clouds 4 995 100 0 5.7 130 07:57 20.12.2019
5830 Mist 4 995 93 5000 4.1 110 07:38 20.12.2019
5831 Fog 4 995 100 300 6.2 110 07:18 20.12.2019
5832 Fog 5 996 100 500 4.1 120 06:48 20.12.2019
5833 Fog 5 997 100 600 4.6 120 06:29 20.12.2019
5834 Clouds 5 997 100 9000 5.7 120 05:49 20.12.2019
5835 Mist 5 997 100 3000 5.7 110 05:21 20.12.2019
5836 Clouds 5 1000 100 0 5.1 130 03:50 20.12.2019
5837 Clouds 5 1000 100 0 5.1 130 03:28 20.12.2019
5838 Clouds 6 1000 87 5000 4.6 140 02:33 20.12.2019
5839 Clouds 6 1001 81 5000 4.6 150 01:36 20.12.2019
5840 Clouds 6 1001 81 5000 4.6 150 01:36 20.12.2019
5841 Clouds 6 1002 93 0 3.6 140 00:59 20.12.2019
5842 Clouds 6 1002 81 5000 5.1 150 00:40 20.12.2019
5843 Clouds 7 1003 87 0 3.6 130 23:59 19.12.2019
5844 Clouds 7 1003 87 0 3.6 130 23:40 19.12.2019
5845 Clouds 7 1004 87 0 4.6 140 23:22 19.12.2019
5846 Clouds 7 1004 87 0 5.7 140 22:56 19.12.2019
5847 Clouds 7 1004 81 5000 3.1 150 22:36 19.12.2019
5848 Clouds 7 1004 87 0 6.7 130 22:18 19.12.2019
5849 Clouds 7 1004 81 5000 5.7 150 21:42 19.12.2019
5850 Clouds 7 1005 93 0 5.1 130 21:20 19.12.2019
5851 Clouds 7 1006 93 0 4.1 120 20:58 19.12.2019
5852 Clouds 7 1005 81 5000 6.2 140 20:38 19.12.2019
5853 Clouds 7 1006 93 0 4.6 130 20:20 19.12.2019
5854 Clouds 7 1006 93 0 4.6 130 20:20 19.12.2019
5855 Clouds 7 1006 81 10000 4.6 140 19:59 19.12.2019
5856 Clouds 7 1007 87 0 4.1 120 19:40 19.12.2019
5857 Clouds 7 1007 93 0 4.6 130 19:20 19.12.2019
5858 Clouds 7 1007 81 10000 6.2 150 18:59 19.12.2019
5859 Clouds 7 1007 87 10000 5.7 130 18:40 19.12.2019
5860 Clouds 7 1007 87 10000 5.7 130 18:40 19.12.2019
5861 Clouds 7 1008 87 10000 4.6 140 18:20 19.12.2019
5862 Clouds 7 1008 87 10000 7.7 160 17:57 19.12.2019
5863 Clouds 7 1008 87 5000 2.6 130 17:38 19.12.2019
5864 Clouds 7 1008 87 5000 2.6 130 17:38 19.12.2019
5865 Clouds 8 1009 87 10000 3.6 130 17:19 19.12.2019
5866 Clouds 8 1008 87 10000 5.7 160 16:57 19.12.2019
5867 Clouds 8 1009 81 10000 4.1 140 16:38 19.12.2019
5868 Clouds 8 1009 93 10000 3.6 120 16:20 19.12.2019
5869 Clouds 9 1009 81 10000 6.2 160 15:58 19.12.2019
5870 Clouds 9 1009 81 10000 4.6 150 15:39 19.12.2019
5871 Clouds 9 1009 87 10000 3.1 120 15:19 19.12.2019
5872 Clouds 9 1009 81 10000 6.7 160 14:59 19.12.2019
5873 Clouds 9 1009 76 10000 5.7 150 14:40 19.12.2019
5874 Clouds 9 1010 87 10000 3.6 140 14:19 19.12.2019
5875 Clouds 9 1010 81 10000 5.7 170 13:57 19.12.2019
5876 Clouds 9 1010 76 10000 4.1 140 13:37 19.12.2019
5877 Clouds 8 1011 87 10000 3.6 140 13:18 19.12.2019
5878 Clouds 8 1010 81 10000 6.2 170 12:55 19.12.2019
5879 Clouds 8 1011 81 10000 5.1 150 12:36 19.12.2019
5880 Clouds 8 1011 87 10000 4.6 130 12:18 19.12.2019
5881 Clouds 8 1011 87 10000 6.2 170 11:56 19.12.2019
5882 Clouds 7 1012 87 10000 6.2 150 11:38 19.12.2019
5883 Clouds 7 1012 87 10000 5.1 140 11:18 19.12.2019
5884 Clouds 6 1012 87 10000 5.1 150 10:39 19.12.2019
5885 Clouds 5 1012 93 10000 6.2 140 10:20 19.12.2019
5886 Clouds 5 1012 86 8000 4.1 150 09:59 19.12.2019
5887 Clouds 5 1012 86 9000 5.7 150 09:38 19.12.2019
5888 Clouds 5 1013 93 10000 5.7 140 09:20 19.12.2019
5889 Clouds 5 1012 86 10000 5.1 150 08:58 19.12.2019
5890 Clouds 5 1012 86 9000 5.7 150 08:39 19.12.2019
5891 Clouds 5 1013 93 10000 5.7 140 08:19 19.12.2019
5892 Clouds 5 1013 86 10000 4.6 150 07:56 19.12.2019
5893 Clouds 5 1013 86 9000 6.2 150 07:38 19.12.2019
5894 Clouds 5 1013 93 10000 7.2 140 07:19 19.12.2019
5895 Clouds 5 1013 86 8000 4.1 140 06:49 19.12.2019
5896 Clouds 5 1013 93 6000 4.6 120 06:28 19.12.2019
5897 Clouds 5 1014 86 8000 4.6 140 05:55 19.12.2019
5898 Clouds 4 1015 87 0 5.7 130 05:33 19.12.2019
5899 Clouds 4 1015 93 8000 4.6 140 04:48 19.12.2019
5900 Clouds 4 1015 93 6000 5.1 160 02:49 19.12.2019
5901 Clouds 4 1016 93 6000 5.7 160 01:47 19.12.2019
5902 Mist 4 1017 93 0 3.1 150 01:22 19.12.2019
5903 Clouds 4 1017 93 3800 2.6 130 00:40 19.12.2019
5904 Mist 4 1018 93 0 2.6 150 00:21 19.12.2019
5905 Clouds 4 1018 93 6000 3.6 180 23:56 18.12.2019
5906 Clouds 4 1018 93 4100 2.1 130 23:38 18.12.2019
5907 Mist 4 1017 93 1500 1.5 130 23:18 18.12.2019
5908 Clouds 4 1017 93 6000 3.6 190 22:55 18.12.2019
5909 Clouds 5 1018 93 0 2.6 190 22:36 18.12.2019
5910 Clouds 5 1018 93 0 2.6 190 22:18 18.12.2019
5911 Clouds 5 1017 93 6000 4.6 200 21:55 18.12.2019
5912 Clouds 5 1018 87 4000 3.1 180 21:37 18.12.2019
5913 Clouds 5 1017 87 0 2.1 200 21:18 18.12.2019
5914 Clouds 5 1017 93 6000 4.1 200 20:54 18.12.2019
5915 Clouds 5 1017 87 3600 3.6 180 20:36 18.12.2019
5916 Clouds 5 1017 93 0 2.1 210 20:18 18.12.2019
5917 Clouds 5 1016 93 7000 4.1 210 19:54 18.12.2019
5918 Clouds 5 1017 93 3600 3.6 190 19:36 18.12.2019
5919 Clouds 5 1016 87 0 2.6 210 19:18 18.12.2019
5920 Clouds 5 1016 93 10000 3.6 220 18:44 18.12.2019
5921 Clouds 6 1016 93 10000 4.1 220 18:25 18.12.2019
5922 Clouds 6 1016 87 10000 6.2 240 17:57 18.12.2019
5923 Clouds 6 1017 93 8000 2.6 230 17:38 18.12.2019
5924 Clouds 6 1015 87 10000 5.7 240 17:19 18.12.2019
5925 Clouds 6 1015 87 10000 5.7 240 16:55 18.12.2019
5926 Clouds 6 1015 87 10000 5.7 240 16:37 18.12.2019
5927 Clouds 6 1015 81 10000 3.1 230 16:18 18.12.2019
5928 Clouds 6 1014 87 10000 7.2 250 15:55 18.12.2019
5929 Clouds 7 1014 87 10000 7.2 250 15:37 18.12.2019
5930 Clouds 7 1014 81 10000 3.6 240 15:18 18.12.2019
5931 Clouds 7 1014 81 10000 7.2 260 14:40 18.12.2019
5932 Clouds 7 1013 75 10000 8.7 260 14:21 18.12.2019
5933 Clouds 7 1013 75 10000 8.7 260 13:57 18.12.2019
5934 Clouds 7 1013 75 10000 8.7 260 13:38 18.12.2019
5935 Clouds 7 1012 75 10000 5.7 250 13:20 18.12.2019
5936 Clouds 7 1012 75 10000 9.8 260 12:58 18.12.2019
5937 Clouds 7 1012 75 10000 9.8 260 12:38 18.12.2019
5938 Clouds 7 1012 81 10000 3.6 240 12:20 18.12.2019
5939 Clouds 7 1012 75 10000 7.7 240 11:56 18.12.2019
5940 Clouds 7 1012 75 10000 7.7 240 11:38 18.12.2019
5941 Clouds 6 1011 81 0 4.1 230 11:19 18.12.2019
5942 Clouds 6 1011 75 10000 7.7 250 10:56 18.12.2019
5943 Clouds 6 1011 75 10000 7.7 250 10:38 18.12.2019
5944 Clouds 6 1012 93 10000 6.2 230 10:20 18.12.2019
5945 Clouds 6 1010 75 10000 7.2 250 09:50 18.12.2019
5946 Clouds 6 1010 75 10000 7.2 250 09:50 18.12.2019
5947 Clouds 6 1009 81 10000 4.1 240 09:19 18.12.2019
5948 Clouds 6 1009 81 10000 8.2 260 08:41 18.12.2019
5949 Clouds 6 1008 87 10000 4.1 240 08:23 18.12.2019
5950 Clouds 6 1007 87 10000 8.2 270 07:55 18.12.2019
5951 Clouds 6 1007 87 10000 8.2 270 07:37 18.12.2019
5952 Clouds 6 1007 93 10000 4.1 240 07:19 18.12.2019
5953 Clouds 6 1007 87 10000 6.7 250 06:50 18.12.2019
5954 Rain 6 1006 93 0 3.1 240 06:22 18.12.2019
5955 Clouds 6 1005 93 0 4.6 260 05:27 18.12.2019
5956 Clouds 6 1003 93 10000 12.9 300 03:45 18.12.2019
5957 Clouds 7 1000 93 10000 10.3 280 02:43 18.12.2019
5958 Clouds 8 999 93 10000 9.3 300 02:25 18.12.2019
5959 Clouds 8 998 100 10000 10.8 270 01:43 18.12.2019
5960 Rain 9 998 93 0 4.6 230 01:24 18.12.2019
5961 Rain 9 998 93 10000 8.2 240 00:42 18.12.2019
5962 Rain 10 998 81 0 5.7 230 00:24 18.12.2019
5963 Rain 10 998 81 10000 6.7 220 23:58 17.12.2019
5964 Rain 10 998 81 10000 6.7 220 23:58 17.12.2019
5965 Rain 11 998 81 10000 6.7 220 23:39 17.12.2019
5966 Clouds 11 997 76 0 4.6 190 23:21 17.12.2019
5967 Clouds 11 997 81 10000 7.7 200 22:57 17.12.2019
5968 Clouds 11 997 81 10000 7.7 200 22:57 17.12.2019
5969 Clouds 11 997 81 10000 7.7 200 22:39 17.12.2019
5970 Clouds 11 997 76 0 4.6 200 22:19 17.12.2019
5971 Clouds 11 998 76 10000 6.7 210 21:57 17.12.2019
5972 Clouds 11 998 76 10000 6.7 210 21:38 17.12.2019
5973 Clouds 11 998 76 10000 6.7 210 21:38 17.12.2019
5974 Clouds 11 998 81 0 5.1 200 21:20 17.12.2019
5975 Clouds 11 998 81 10000 6.7 210 20:59 17.12.2019
5976 Clouds 11 998 81 10000 6.7 210 20:39 17.12.2019
5977 Rain 11 998 81 0 3.6 190 20:19 17.12.2019
5978 Clouds 11 998 81 10000 5.7 210 19:57 17.12.2019
5979 Clouds 11 998 81 10000 5.7 210 19:39 17.12.2019
5980 Clouds 11 998 81 10000 3.6 190 19:19 17.12.2019
5981 Clouds 11 998 81 10000 6.7 210 18:57 17.12.2019
5982 Clouds 11 998 81 10000 6.7 210 18:57 17.12.2019
5983 Clouds 11 998 81 10000 6.7 210 18:57 17.12.2019
5984 Clouds 11 998 81 10000 6.7 210 18:38 17.12.2019
5985 Clouds 10 998 87 10000 3.1 180 18:20 17.12.2019
5986 Clouds 10 998 87 10000 6.7 200 17:55 17.12.2019
5987 Clouds 10 998 87 10000 6.7 200 17:37 17.12.2019
5988 Clouds 10 998 81 10000 2.6 170 17:18 17.12.2019
5989 Clouds 10 998 81 9000 6.7 200 16:55 17.12.2019
5990 Clouds 10 998 81 9000 6.7 200 16:36 17.12.2019
5991 Clouds 10 998 87 10000 3.1 170 16:18 17.12.2019
5992 Clouds 10 998 87 10000 3.1 170 16:18 17.12.2019
5993 Clouds 10 998 87 10000 3.1 170 16:18 17.12.2019
5994 Rain 9 998 87 9000 6.7 190 15:38 17.12.2019
5995 Rain 9 998 93 10000 3.1 170 15:20 17.12.2019
5996 Clouds 9 998 87 9000 6.2 190 14:57 17.12.2019
5997 Clouds 9 998 87 9000 6.2 190 14:38 17.12.2019
5998 Clouds 8 998 93 10000 3.1 160 14:19 17.12.2019
5999 Clouds 8 998 93 10000 3.1 160 13:59 17.12.2019
6000 Clouds 8 998 93 8000 4.1 190 13:40 17.12.2019
6001 Clouds 8 998 93 8000 4.1 190 13:19 17.12.2019
6002 Mist 8 999 93 3500 5.1 180 12:59 17.12.2019
6003 Mist 8 999 93 3500 5.1 180 12:38 17.12.2019
6004 Clouds 7 999 100 6000 3.6 150 12:18 17.12.2019
6005 Clouds 7 999 100 6000 3.6 150 12:18 17.12.2019
6006 Mist 7 999 100 3500 3.1 160 11:57 17.12.2019
6007 Mist 7 999 100 3500 3.1 160 11:37 17.12.2019
6008 Mist 7 1000 100 4000 3.1 150 11:18 17.12.2019
6009 Mist 7 1000 93 1800 3.6 170 10:58 17.12.2019
6010 Mist 6 1000 93 1800 3.6 170 10:39 17.12.2019
6011 Mist 6 1000 93 4000 4.6 130 10:20 17.12.2019
6012 Mist 6 999 93 1800 4.6 130 09:58 17.12.2019
6013 Mist 6 999 93 1800 4.6 130 09:40 17.12.2019
6014 Clouds 6 1000 93 5000 3.6 120 09:19 17.12.2019
6015 Drizzle 6 1000 93 2000 4.1 130 08:55 17.12.2019
6016 Drizzle 6 1000 93 2000 4.1 130 08:37 17.12.2019
6017 Drizzle 6 1001 93 3500 2.6 100 08:19 17.12.2019
6018 Drizzle 6 1000 93 2000 3.6 110 07:45 17.12.2019
6019 Mist 6 1000 100 3000 2.6 100 07:24 17.12.2019
6020 Drizzle 6 1001 100 2000 3.1 110 06:56 17.12.2019
6021 Rain 6 1001 100 0 1.5 100 06:34 17.12.2019
6022 Rain 6 1001 100 1500 3.1 120 05:52 17.12.2019
6023 Rain 6 1002 93 0 1.5 140 05:34 17.12.2019
6024 Rain 6 1002 93 0 2.6 140 04:30 17.12.2019
6025 Rain 6 1003 100 6000 2.6 160 02:34 17.12.2019
6026 Rain 6 1003 93 7000 2.1 160 01:54 17.12.2019
6027 Clouds 6 1003 93 10000 3.1 190 00:58 17.12.2019
6028 Clouds 6 1003 93 10000 3.1 190 00:37 17.12.2019
6029 Clouds 6 1003 87 0 2.1 200 00:19 17.12.2019
6030 Clouds 6 1003 93 10000 4.1 200 23:41 16.12.2019
6031 Clouds 6 1003 87 0 2.6 200 23:19 16.12.2019
6032 Clouds 6 1003 87 10000 2.6 210 22:56 16.12.2019
6033 Clouds 6 1003 87 10000 2.6 210 22:37 16.12.2019
6034 Clouds 6 1003 87 10000 4.1 200 22:19 16.12.2019
6035 Clouds 6 1003 87 10000 3.1 220 21:55 16.12.2019
6036 Clouds 6 1003 87 10000 3.1 220 21:37 16.12.2019
6037 Clouds 7 1003 87 0 2.6 200 21:19 16.12.2019
6038 Clouds 6 1003 87 10000 4.6 210 20:57 16.12.2019
6039 Clouds 6 1003 87 10000 4.6 210 20:37 16.12.2019
6040 Clouds 7 1003 87 0 3.1 200 20:19 16.12.2019
6041 Clouds 7 1003 87 10000 5.1 210 19:56 16.12.2019
6042 Clouds 7 1003 87 10000 5.1 210 19:56 16.12.2019
6043 Clouds 7 1003 87 10000 5.1 210 19:37 16.12.2019
6044 Clouds 7 1003 87 0 3.1 200 19:18 16.12.2019
6045 Clouds 7 1002 87 10000 6.2 220 18:56 16.12.2019
6046 Clouds 7 1002 87 10000 6.2 220 18:38 16.12.2019
6047 Clouds 7 1003 87 10000 3.6 200 18:19 16.12.2019
6048 Clouds 7 1003 87 10000 6.2 220 17:57 16.12.2019
6049 Clouds 7 1003 87 10000 6.2 220 17:38 16.12.2019
6050 Clouds 7 1003 93 10000 3.6 190 17:20 16.12.2019
6051 Clouds 7 1002 87 10000 5.7 220 16:57 16.12.2019
6052 Clouds 7 1002 87 10000 5.7 220 16:38 16.12.2019
6053 Clouds 7 1002 87 10000 4.1 210 16:19 16.12.2019
6054 Clouds 7 1002 87 10000 6.2 230 15:57 16.12.2019
6055 Clouds 7 1002 87 10000 6.2 230 15:38 16.12.2019
6056 Clouds 7 1002 87 10000 4.6 220 15:20 16.12.2019
6057 Rain 7 1002 87 10000 7.2 220 14:55 16.12.2019
6058 Rain 7 1002 87 10000 7.2 220 14:37 16.12.2019
6059 Clouds 7 1002 87 10000 5.7 220 14:19 16.12.2019
6060 Clouds 7 1002 81 10000 7.7 220 13:56 16.12.2019
6061 Clouds 7 1002 81 10000 7.7 220 13:56 16.12.2019
6062 Clouds 7 1002 81 10000 7.7 220 13:37 16.12.2019
6063 Clouds 6 1002 81 10000 5.7 220 13:19 16.12.2019
6064 Clouds 6 1002 81 10000 7.7 220 12:57 16.12.2019
6065 Clouds 6 1002 81 10000 7.7 220 12:39 16.12.2019
6066 Clouds 6 1002 87 10000 6.2 210 12:18 16.12.2019
6067 Clouds 6 1002 81 10000 7.2 220 11:58 16.12.2019
6068 Clouds 6 1002 81 10000 7.2 220 11:40 16.12.2019
6069 Clouds 6 1003 81 10000 7.2 210 11:20 16.12.2019
6070 Clouds 6 1003 86 10000 7.7 210 10:56 16.12.2019
6071 Clouds 5 1003 86 10000 7.7 210 10:38 16.12.2019
6072 Clouds 5 1002 81 10000 5.1 190 10:19 16.12.2019
6073 Clouds 5 1002 80 10000 8.7 200 09:45 16.12.2019
6074 Clouds 5 1004 80 10000 4.6 200 09:27 16.12.2019
6075 Clouds 4 1002 80 10000 8.2 210 08:55 16.12.2019
6076 Clouds 4 1002 80 10000 8.2 210 08:37 16.12.2019
6077 Clouds 4 1001 93 9000 7.2 200 08:18 16.12.2019
6078 Clouds 4 1002 86 10000 7.7 210 07:42 16.12.2019
6079 Clouds 4 1002 86 10000 5.1 200 07:21 16.12.2019
6080 Clouds 4 1002 86 0 8.2 200 06:45 16.12.2019
6081 Clouds 4 1002 86 0 4.1 200 06:22 16.12.2019
6082 Clouds 4 1003 93 0 7.2 210 05:50 16.12.2019
6083 Clouds 4 1002 87 0 4.6 210 05:31 16.12.2019
6084 Clouds 5 1002 87 0 5.1 220 04:22 16.12.2019
6085 Clouds 6 1002 87 0 4.6 220 02:31 16.12.2019
6086 Clouds 6 1002 93 0 7.7 230 01:45 16.12.2019
6087 Clouds 6 1001 87 0 7.2 230 00:43 16.12.2019
6088 Clouds 6 1002 87 10000 6.2 230 00:25 16.12.2019
6089 Clouds 6 1000 87 0 7.7 240 23:59 15.12.2019
6090 Clouds 6 1000 87 0 7.7 240 23:59 15.12.2019
6091 Clouds 5 1000 87 0 7.7 240 23:39 15.12.2019
6092 Rain 5 1000 86 0 3.6 220 23:20 15.12.2019
6093 Rain 6 1000 75 0 6.2 230 22:56 15.12.2019
6094 Rain 6 1000 75 0 6.2 230 22:56 15.12.2019
6095 Rain 6 1000 75 0 6.2 230 22:56 15.12.2019
6096 Rain 6 1000 75 0 6.2 230 22:37 15.12.2019
6097 Rain 6 999 81 0 3.6 230 22:18 15.12.2019
6098 Rain 6 999 81 0 6.2 250 21:56 15.12.2019
6099 Rain 6 999 81 0 6.2 250 21:38 15.12.2019
6100 Rain 6 998 75 0 5.1 240 21:19 15.12.2019
6101 Rain 6 997 75 0 12.3 270 20:56 15.12.2019
6102 Rain 6 997 75 0 12.3 270 20:38 15.12.2019
6103 Clouds 6 996 81 10000 6.7 240 20:19 15.12.2019
6104 Rain 6 996 75 0 12.3 260 19:57 15.12.2019
6105 Rain 6 996 75 0 12.3 260 19:39 15.12.2019
6106 Clouds 6 995 81 10000 6.2 240 19:18 15.12.2019
6107 Clouds 6 995 75 10000 13.4 260 18:56 15.12.2019
6108 Clouds 6 995 75 10000 13.4 260 18:38 15.12.2019
6109 Rain 6 993 75 10000 8.2 250 18:18 15.12.2019
6110 Rain 6 993 81 10000 15.4 270 17:56 15.12.2019
6111 Clouds 6 992 75 10000 8.7 250 17:37 15.12.2019
6112 Clouds 6 993 81 10000 16.5 260 17:19 15.12.2019
6113 Clouds 6 992 75 10000 17.5 270 16:57 15.12.2019
6114 Clouds 6 992 75 10000 17.5 270 16:39 15.12.2019
6115 Rain 6 990 81 6000 16.5 260 16:20 15.12.2019
6116 Clouds 6 989 75 10000 18.5 260 15:55 15.12.2019
6117 Clouds 6 989 75 10000 18.5 260 15:37 15.12.2019
6118 Rain 6 987 87 6000 11.3 250 15:18 15.12.2019
6119 Rain 6 987 81 10000 15.9 250 14:55 15.12.2019
6120 Rain 6 987 81 10000 15.9 250 14:55 15.12.2019
6121 Rain 6 987 81 10000 15.9 250 14:36 15.12.2019
6122 Rain 6 987 86 8000 18.5 250 14:18 15.12.2019
6123 Rain 6 987 65 7000 15.4 250 13:55 15.12.2019
6124 Rain 6 987 65 7000 15.4 250 13:37 15.12.2019
6125 Rain 6 986 70 0 9.8 230 13:18 15.12.2019
6126 Rain 6 986 70 0 9.8 230 13:18 15.12.2019
6127 Clouds 6 986 81 10000 12.3 250 12:56 15.12.2019
6128 Clouds 6 986 81 10000 12.3 250 12:38 15.12.2019
6129 Rain 6 986 86 0 8.2 240 12:20 15.12.2019
6130 Clouds 6 986 93 8000 11.3 250 11:39 15.12.2019
6131 Rain 6 986 81 4000 14.4 260 11:20 15.12.2019
6132 Rain 6 986 81 4000 14.4 260 11:20 15.12.2019
6133 Clouds 6 985 86 10000 9.8 240 10:58 15.12.2019
6134 Clouds 6 985 86 10000 9.8 240 10:40 15.12.2019
6135 Rain 6 985 93 3500 13.9 240 10:20 15.12.2019
6136 Clouds 6 984 93 8000 9.3 190 09:59 15.12.2019
6137 Clouds 5 984 93 8000 9.3 190 09:39 15.12.2019
6138 Rain 4 984 93 5000 9.8 170 09:20 15.12.2019
6139 Rain 4 984 86 4500 10.8 170 08:56 15.12.2019
6140 Rain 4 984 86 4500 10.8 170 08:38 15.12.2019
6141 Rain 3 986 93 8000 7.7 160 08:20 15.12.2019
6142 Rain 3 987 86 10000 5.1 180 07:55 15.12.2019
6143 Clouds 3 987 86 0 5.7 150 07:33 15.12.2019
6144 Clouds 3 988 80 10000 7.2 180 06:39 15.12.2019
6145 Clouds 3 989 80 0 4.6 190 06:19 15.12.2019
6146 Clouds 3 989 86 0 3.6 190 05:25 15.12.2019
6147 Clouds 3 989 86 0 3.6 190 05:25 15.12.2019
6148 Clouds 4 991 80 0 4.1 220 04:24 15.12.2019
6149 Clouds 4 991 80 0 4.1 220 03:22 15.12.2019
6150 Clouds 5 991 80 10000 8.2 240 02:33 15.12.2019
6151 Clouds 4 990 86 10000 10.8 270 01:46 15.12.2019
6152 Clouds 5 989 75 0 5.7 240 01:28 15.12.2019
6153 Clouds 4 989 80 0 5.1 240 00:54 15.12.2019
6154 Clouds 4 990 75 10000 10.8 260 00:35 15.12.2019
6155 Clouds 4 989 80 10000 10.8 260 23:58 14.12.2019
6156 Clouds 4 989 80 10000 10.8 260 23:58 14.12.2019
6157 Clouds 4 989 80 10000 10.8 260 23:39 14.12.2019
6158 Rain 4 988 80 0 6.7 240 23:19 14.12.2019
6159 Clouds 4 987 86 10000 9.3 240 22:57 14.12.2019
6160 Clouds 4 987 86 10000 9.3 240 22:39 14.12.2019
6161 Clouds 5 986 86 0 4.1 220 22:20 14.12.2019
6162 Clouds 5 986 75 10000 11.3 260 21:56 14.12.2019
6163 Clouds 5 986 75 10000 11.3 260 21:37 14.12.2019
6164 Clouds 4 985 86 0 4.6 240 21:18 14.12.2019
6165 Clouds 5 985 80 10000 8.2 260 20:56 14.12.2019
6166 Clouds 5 985 80 10000 8.2 260 20:37 14.12.2019
6167 Rain 5 984 80 10000 7.7 250 20:19 14.12.2019
6168 Clouds 5 984 81 10000 11.3 260 19:54 14.12.2019
6169 Clouds 5 984 81 10000 11.3 260 19:36 14.12.2019
6170 Clouds 5 986 86 10000 6.2 230 19:18 14.12.2019
6171 Clouds 5 983 86 10000 9.8 250 18:55 14.12.2019
6172 Clouds 5 983 86 10000 9.8 250 18:36 14.12.2019
6173 Rain 5 982 93 0 3.6 230 18:18 14.12.2019
6174 Clouds 5 982 93 10000 7.2 240 17:42 14.12.2019
6175 Rain 5 982 86 0 6.2 230 17:22 14.12.2019
6176 Rain 5 982 93 8000 7.2 240 16:55 14.12.2019
6177 Rain 5 982 93 8000 7.2 240 16:37 14.12.2019
6178 Rain 5 981 86 0 7.2 240 16:18 14.12.2019
6179 Rain 5 981 93 8000 9.3 260 15:41 14.12.2019
6180 Rain 5 983 86 2300 6.2 240 15:20 14.12.2019
6181 Rain 5 982 86 10000 7.7 240 14:58 14.12.2019
6182 Rain 5 982 86 5000 10.3 250 14:38 14.12.2019
6183 Clouds 5 978 93 10000 6.2 210 14:19 14.12.2019
6184 Clouds 5 979 93 10000 7.2 220 13:45 14.12.2019
6185 Clouds 5 981 86 10000 6.7 220 13:20 14.12.2019
6186 Clouds 4 979 93 10000 7.7 220 12:59 14.12.2019
6187 Clouds 4 979 93 10000 7.7 220 12:40 14.12.2019
6188 Rain 4 978 100 10000 5.7 200 12:21 14.12.2019
6189 Rain 4 978 100 10000 5.7 200 12:21 14.12.2019
6190 Rain 4 978 100 10000 5.7 200 12:21 14.12.2019
6191 Rain 4 979 86 7000 7.7 230 11:59 14.12.2019
6192 Rain 4 979 86 7000 7.7 230 11:39 14.12.2019
6193 Drizzle 4 978 93 5000 4.6 190 11:20 14.12.2019
6194 Rain 4 978 93 4000 6.2 210 10:59 14.12.2019
6195 Rain 4 978 93 4000 6.2 210 10:40 14.12.2019
6196 Rain 4 978 93 8000 4.1 190 10:22 14.12.2019
6197 Mist 4 978 100 4500 5.7 200 09:59 14.12.2019
6198 Mist 4 978 100 4500 5.7 200 09:40 14.12.2019
6199 Drizzle 4 978 93 5000 4.1 190 09:20 14.12.2019
6200 Rain 4 978 100 3000 5.7 200 08:43 14.12.2019
6201 Mist 4 978 100 4500 3.1 180 08:20 14.12.2019
6202 Mist 4 977 100 5000 6.2 190 07:55 14.12.2019
6203 Mist 4 977 100 5000 6.2 190 07:36 14.12.2019
6204 Drizzle 3 978 100 2000 2.6 170 07:18 14.12.2019
6205 Drizzle 3 978 100 3000 6.7 180 06:39 14.12.2019
6206 Mist 3 978 93 0 3.6 170 06:18 14.12.2019
6207 Drizzle 2 979 100 0 3.6 160 05:20 14.12.2019
6208 Snow 1 980 97 2500 3.6 160 02:44 14.12.2019
6209 Mist 1 980 97 3200 1.5 150 02:22 14.12.2019
6210 Snow 1 980 97 2800 4.1 150 01:43 14.12.2019
6211 Snow 1 981 97 2800 4.1 150 00:50 14.12.2019
6212 Snow 1 981 97 3000 1.5 150 00:29 14.12.2019
6213 Snow 1 981 97 6000 3.6 160 23:58 13.12.2019
6214 Snow 1 981 97 6000 3.6 160 23:39 13.12.2019
6215 Snow 1 981 90 6000 4.6 160 23:19 13.12.2019
6216 Clouds 1 981 90 10000 3.6 160 22:55 13.12.2019
6217 Clouds 1 981 90 10000 3.6 160 22:36 13.12.2019
6218 Drizzle 1 981 90 10000 5.7 150 22:18 13.12.2019
6219 Drizzle 2 981 90 10000 5.7 150 21:40 13.12.2019
6220 Clouds 2 982 90 10000 6.7 130 21:21 13.12.2019
6221 Clouds 2 981 90 10000 3.6 150 20:57 13.12.2019
6222 Clouds 2 981 90 10000 3.6 150 20:38 13.12.2019
6223 Clouds 2 981 87 10000 4.1 140 20:19 13.12.2019
6224 Clouds 2 981 87 10000 4.1 140 19:56 13.12.2019
6225 Clouds 2 981 87 10000 4.1 140 19:56 13.12.2019
6226 Clouds 2 981 87 6000 3.6 130 19:37 13.12.2019
6227 Clouds 2 981 87 10000 3.1 120 19:18 13.12.2019
6228 Clouds 2 981 86 6000 3.6 120 18:42 13.12.2019
6229 Clouds 2 982 80 10000 6.2 130 18:20 13.12.2019
6230 Clouds 2 982 80 10000 6.2 130 18:20 13.12.2019
6231 Clouds 1 981 87 10000 3.1 140 17:59 13.12.2019
6232 Clouds 2 981 86 6000 3.6 110 17:39 13.12.2019
6233 Clouds 2 981 85 10000 8.2 130 17:18 13.12.2019
6234 Clouds 2 981 85 10000 5.7 130 16:56 13.12.2019
6235 Clear 2 981 80 6000 3.1 100 16:38 13.12.2019
6236 Clouds 2 981 85 10000 7.2 120 16:20 13.12.2019
6237 Clouds 2 980 85 10000 6.2 130 15:42 13.12.2019
6238 Clouds 2 980 85 10000 6.2 130 15:42 13.12.2019
6239 Clouds 2 980 85 10000 7.7 120 15:21 13.12.2019
6240 Clouds 2 980 85 10000 7.2 130 14:57 13.12.2019
6241 Clear 3 980 80 7000 5.7 110 14:38 13.12.2019
6242 Clouds 3 981 86 10000 9.3 120 14:19 13.12.2019
6243 Clouds 3 980 80 10000 7.2 140 13:44 13.12.2019
6244 Clouds 3 980 80 10000 7.2 140 13:44 13.12.2019
6245 Clouds 3 981 86 10000 9.3 120 13:26 13.12.2019
6246 Clouds 3 980 80 10000 7.7 140 12:59 13.12.2019
6247 Clear 2 980 80 7000 6.7 120 12:40 13.12.2019
6248 Clouds 2 981 80 10000 9.8 120 12:19 13.12.2019
6249 Clouds 2 981 80 10000 9.8 120 12:19 13.12.2019
6250 Clouds 2 980 80 10000 6.7 130 11:45 13.12.2019
6251 Clouds 2 980 80 10000 6.7 130 11:45 13.12.2019
6252 Clouds 2 981 80 10000 7.7 120 11:26 13.12.2019
6253 Clouds 2 981 83 10000 7.2 140 10:58 13.12.2019
6254 Clouds 1 981 86 10000 7.2 110 10:40 13.12.2019
6255 Clouds 1 981 86 10000 7.7 140 10:21 13.12.2019
6256 Clouds 1 981 86 10000 6.2 120 09:43 13.12.2019
6257 Clouds 1 982 83 10000 7.7 130 09:22 13.12.2019
6258 Clouds 1 981 86 10000 7.2 140 08:59 13.12.2019
6259 Clouds 1 981 86 10000 6.2 120 08:40 13.12.2019
6260 Clouds 1 982 84 10000 7.7 120 08:22 13.12.2019
6261 Clouds 1 982 86 10000 7.2 150 07:43 13.12.2019
6262 Clouds 1 982 86 10000 5.1 120 07:20 13.12.2019
6263 Clouds 1 982 84 10000 6.2 140 06:50 13.12.2019
6264 Clouds 1 983 84 10000 8.2 130 06:28 13.12.2019
6265 Clouds 1 983 84 10000 7.2 140 05:44 13.12.2019
6266 Clouds 2 984 84 10000 7.7 130 05:24 13.12.2019
6267 Clear 2 984 80 6000 5.1 130 04:35 13.12.2019
6268 Clouds 2 986 85 10000 6.7 130 03:30 13.12.2019
6269 Clouds 2 987 85 7000 6.7 140 02:32 13.12.2019
6270 Clear 2 988 88 5000 5.1 140 01:42 13.12.2019
6271 Clouds 2 989 93 10000 5.7 160 00:53 13.12.2019
6272 Clouds 2 989 85 5000 4.6 140 00:34 13.12.2019
6273 Clouds 2 990 93 10000 6.7 160 23:57 12.12.2019
6274 Clouds 2 990 93 4800 3.6 140 23:37 12.12.2019
6275 Mist 2 990 100 3500 4.6 140 23:19 12.12.2019
6276 Clouds 2 991 93 10000 5.1 160 22:54 12.12.2019
6277 Clouds 2 991 93 4500 4.6 150 22:36 12.12.2019
6278 Clouds 2 992 93 8000 2.1 150 22:18 12.12.2019
6279 Clouds 2 992 93 10000 4.6 170 21:54 12.12.2019
6280 Clouds 2 992 93 4400 4.1 150 21:36 12.12.2019
6281 Mist 2 992 93 5000 4.1 160 21:18 12.12.2019
6282 Clouds 2 993 86 10000 4.6 180 20:55 12.12.2019
6283 Clouds 2 993 86 5000 3.1 160 20:37 12.12.2019
6284 Clouds 2 993 93 7000 4.1 170 20:19 12.12.2019
6285 Clouds 3 994 86 10000 3.1 180 19:42 12.12.2019
6286 Clouds 3 993 93 10000 4.1 170 19:22 12.12.2019
6287 Clouds 3 994 86 9000 5.1 190 18:58 12.12.2019
6288 Clouds 3 995 86 5000 3.1 190 18:39 12.12.2019
6289 Clouds 4 995 80 10000 3.1 190 18:20 12.12.2019
6290 Clouds 4 995 93 8000 4.6 190 17:57 12.12.2019
6291 Clouds 4 995 93 10000 3.1 190 17:39 12.12.2019
6292 Clouds 4 995 93 10000 3.1 190 17:20 12.12.2019
6293 Clouds 4 995 86 8000 5.1 210 16:58 12.12.2019
6294 Clouds 4 996 86 10000 4.1 190 16:39 12.12.2019
6295 Rain 5 995 86 10000 3.1 210 16:20 12.12.2019
6296 Clouds 5 995 86 8000 4.6 240 15:57 12.12.2019
6297 Clouds 5 996 86 10000 4.1 200 15:39 12.12.2019
6298 Clouds 5 995 87 8000 4.1 210 15:18 12.12.2019
6299 Rain 5 995 93 6000 5.1 240 14:56 12.12.2019
6300 Rain 5 995 87 6000 4.1 210 14:36 12.12.2019
6301 Rain 5 995 87 6000 4.1 210 14:18 12.12.2019
6302 Drizzle 5 996 87 4000 5.1 220 13:54 12.12.2019
6303 Clouds 5 997 93 7000 5.7 220 13:36 12.12.2019
6304 Rain 5 995 93 8000 5.1 200 13:18 12.12.2019
6305 Clouds 5 997 93 7000 4.6 210 12:40 12.12.2019
6306 Clouds 5 997 93 7000 4.6 210 12:22 12.12.2019
6307 Mist 5 997 93 4000 5.1 200 11:59 12.12.2019
6308 Drizzle 5 997 93 4100 4.6 200 11:39 12.12.2019
6309 Drizzle 5 997 93 4100 4.6 200 11:39 12.12.2019
6310 Drizzle 5 997 93 3500 6.2 200 11:21 12.12.2019
6311 Drizzle 5 997 86 4000 4.6 190 10:58 12.12.2019
6312 Drizzle 5 997 86 4500 5.1 190 10:40 12.12.2019
6313 Drizzle 5 997 86 4500 5.1 190 10:21 12.12.2019
6314 Clouds 4 998 93 7000 5.7 190 09:56 12.12.2019
6315 Mist 4 998 93 4000 4.6 180 09:38 12.12.2019
6316 Clouds 4 998 86 10000 2.6 170 09:19 12.12.2019
6317 Clouds 4 998 86 7000 4.6 180 08:46 12.12.2019
6318 Clouds 4 998 86 10000 3.1 210 08:28 12.12.2019
6319 Clouds 4 998 80 10000 3.6 210 07:54 12.12.2019
6320 Clouds 4 999 93 8000 3.1 170 07:36 12.12.2019
6321 Clouds 4 998 86 10000 4.1 210 07:18 12.12.2019
6322 Clouds 4 999 93 7000 4.1 210 06:41 12.12.2019
6323 Clouds 4 998 93 0 3.1 200 06:21 12.12.2019
6324 Clouds 4 999 93 0 2.6 200 05:26 12.12.2019
6325 Mist 4 999 93 4500 4.1 200 04:46 12.12.2019
6326 Clouds 4 1000 93 0 2.1 190 02:42 12.12.2019
6327 Clouds 4 1000 93 0 2.1 190 02:24 12.12.2019
6328 Clouds 4 1000 93 7000 2.6 200 01:59 12.12.2019
6329 Clouds 5 1000 93 2700 2.1 190 01:36 12.12.2019
6330 Clouds 5 1001 93 7000 3.1 190 00:49 12.12.2019
6331 Mist 5 1001 100 2000 2.6 180 00:22 12.12.2019
6332 Clouds 5 1001 93 7000 2.6 220 23:58 11.12.2019
6333 Clouds 5 1002 100 2600 2.6 190 23:37 11.12.2019
6334 Mist 5 1001 93 0 2.6 190 23:18 11.12.2019
6335 Clouds 5 1002 93 7000 2.6 200 22:56 11.12.2019
6336 Clouds 5 1002 93 7000 2.6 200 22:56 11.12.2019
6337 Clouds 5 1002 100 1200 2.1 190 22:38 11.12.2019
6338 Mist 5 1002 93 4000 2.6 180 22:19 11.12.2019
6339 Clouds 5 1002 93 10000 4.1 180 21:55 11.12.2019
6340 Clouds 5 1002 100 1100 2.6 170 21:36 11.12.2019
6341 Clouds 5 1002 93 7000 1.5 190 21:18 11.12.2019
6342 Clouds 5 1002 93 10000 4.6 190 20:55 11.12.2019
6343 Mist 5 1002 100 3000 2.6 170 20:36 11.12.2019
6344 Clouds 5 1002 87 10000 2.1 180 20:18 11.12.2019
6345 Mist 5 1003 93 3200 1.5 190 19:42 11.12.2019
6346 Clouds 5 1003 93 10000 1.5 200 19:23 11.12.2019
6347 Clouds 5 1003 93 9000 3.6 200 18:59 11.12.2019
6348 Mist 5 1003 93 4000 2.6 180 18:40 11.12.2019
6349 Clouds 6 1003 100 5000 3.1 190 18:20 11.12.2019
6350 Clouds 6 1003 93 9000 3.6 190 17:57 11.12.2019
6351 Clouds 6 1004 87 6000 3.1 180 17:38 11.12.2019
6352 Clouds 6 1003 93 10000 2.6 180 17:18 11.12.2019
6353 Clouds 6 1003 93 8000 4.1 200 16:56 11.12.2019
6354 Clouds 6 1004 87 8000 2.1 190 16:37 11.12.2019
6355 Clouds 6 1003 93 10000 2.6 190 16:19 11.12.2019
6356 Clouds 6 1004 93 8000 3.6 210 15:57 11.12.2019
6357 Clouds 6 1004 93 8000 2.6 210 15:37 11.12.2019
6358 Clouds 6 1004 87 10000 2.6 190 15:19 11.12.2019
6359 Clouds 6 1004 87 8000 4.1 210 14:55 11.12.2019
6360 Clouds 6 1004 93 8000 3.6 230 14:37 11.12.2019
6361 Clouds 6 1005 93 8000 4.6 230 14:19 11.12.2019
6362 Clouds 6 1004 87 7000 4.1 220 13:54 11.12.2019
6363 Clouds 6 1005 93 7000 4.1 220 13:36 11.12.2019
6364 Clouds 6 1004 87 10000 4.1 200 13:18 11.12.2019
6365 Clouds 6 1004 93 7000 5.1 220 12:54 11.12.2019
6366 Clouds 6 1005 93 6000 4.6 210 12:36 11.12.2019
6367 Clouds 6 1005 87 10000 4.6 210 12:18 11.12.2019
6368 Mist 6 1005 93 5000 6.2 230 11:54 11.12.2019
6369 Clouds 6 1006 87 8000 4.6 210 11:36 11.12.2019
6370 Clouds 6 1005 93 10000 5.1 210 11:18 11.12.2019
6371 Clouds 6 1006 93 8000 5.1 210 10:41 11.12.2019
6372 Clouds 6 1005 93 10000 4.1 220 10:23 11.12.2019
6373 Clouds 6 1005 93 7000 6.7 220 09:58 11.12.2019
6374 Clouds 5 1006 93 8000 5.1 220 09:38 11.12.2019
6375 Clouds 5 1005 93 10000 5.1 210 09:20 11.12.2019
6376 Clouds 5 1005 93 8000 6.2 220 08:56 11.12.2019
6377 Clouds 5 1006 93 8000 5.7 210 08:37 11.12.2019
6378 Rain 5 1004 93 10000 6.2 200 08:18 11.12.2019
6379 Rain 5 1004 93 8000 7.2 220 07:45 11.12.2019
6380 Rain 5 1004 87 10000 5.7 210 07:25 11.12.2019
6381 Rain 5 1004 93 8000 9.8 220 06:47 11.12.2019
6382 Rain 5 1004 93 8000 9.8 220 06:25 11.12.2019
6383 Rain 5 1004 93 8000 9.8 210 05:58 11.12.2019
6384 Clouds 5 1005 75 10000 8.2 210 05:37 11.12.2019
6385 Drizzle 5 1004 86 5000 9.8 210 04:57 11.12.2019
6386 Rain 5 1004 80 8000 10.3 210 03:49 11.12.2019
6387 Rain 5 1005 80 0 7.2 200 02:40 11.12.2019
6388 Rain 4 1006 72 0 7.2 190 01:23 11.12.2019
6389 Rain 5 1006 72 10000 11.8 200 00:46 11.12.2019
6390 Rain 4 1007 75 0 7.7 180 00:21 11.12.2019
6391 Rain 4 1007 80 10000 11.3 200 23:47 10.12.2019
6392 Rain 4 1007 75 0 8.2 180 23:28 10.12.2019
6393 Rain 4 1008 80 10000 12.9 190 22:58 10.12.2019
6394 Clouds 4 1010 75 5000 9.3 190 22:40 10.12.2019
6395 Rain 4 1009 75 10000 7.2 180 22:22 10.12.2019
6396 Rain 4 1009 80 10000 11.3 190 21:56 10.12.2019
6397 Clouds 4 1011 75 10000 10.3 180 21:38 10.12.2019
6398 Clouds 4 1011 75 10000 7.7 180 21:19 10.12.2019
6399 Clouds 4 1011 80 10000 11.3 200 20:57 10.12.2019
6400 Clouds 4 1012 80 10000 9.3 190 20:37 10.12.2019
6401 Clouds 4 1012 75 10000 7.2 180 20:19 10.12.2019
6402 Clouds 4 1012 80 10000 11.3 190 19:55 10.12.2019
6403 Clouds 4 1011 86 10000 7.7 180 19:37 10.12.2019
6404 Clouds 4 1011 86 10000 7.7 180 19:18 10.12.2019
6405 Clouds 4 1014 80 10000 8.2 180 18:40 10.12.2019
6406 Clouds 4 1014 75 10000 5.1 180 18:20 10.12.2019
6407 Clouds 4 1014 80 10000 8.2 190 17:58 10.12.2019
6408 Clouds 4 1016 82 10000 6.7 180 17:39 10.12.2019
6409 Clouds 4 1015 75 10000 4.6 180 17:20 10.12.2019
6410 Clouds 4 1015 81 10000 6.2 200 16:54 10.12.2019
6411 Clouds 4 1017 81 10000 5.1 180 16:36 10.12.2019
6412 Clouds 5 1016 70 10000 4.1 190 16:18 10.12.2019
6413 Clouds 5 1016 70 10000 4.1 190 16:18 10.12.2019
6414 Clouds 5 1018 81 10000 5.1 200 15:38 10.12.2019
6415 Clouds 6 1017 75 10000 3.6 190 15:18 10.12.2019
6416 Clouds 6 1017 70 10000 5.1 220 14:56 10.12.2019
6417 Clouds 6 1018 75 10000 4.6 220 14:37 10.12.2019
6418 Clouds 6 1018 75 10000 3.6 200 14:19 10.12.2019
6419 Clouds 6 1018 75 10000 5.1 200 13:57 10.12.2019
6420 Clouds 6 1019 81 10000 5.1 200 13:38 10.12.2019
6421 Clouds 5 1019 75 10000 3.1 190 13:19 10.12.2019
6422 Clouds 5 1019 80 10000 4.6 200 12:47 10.12.2019
6423 Clouds 5 1019 80 10000 3.1 200 12:27 10.12.2019
6424 Clouds 4 1019 75 10000 4.1 210 11:55 10.12.2019
6425 Clouds 5 1020 80 10000 2.6 200 11:37 10.12.2019
6426 Clouds 4 1019 80 10000 2.6 210 11:18 10.12.2019
6427 Clouds 3 1020 86 10000 3.6 220 10:42 10.12.2019
6428 Clouds 3 1019 86 10000 2.6 220 10:24 10.12.2019
6429 Clouds 2 1019 86 10000 5.1 230 09:57 10.12.2019
6430 Clouds 2 1020 84 10000 2.6 220 09:38 10.12.2019
6431 Clouds 2 1020 84 10000 2.6 220 09:38 10.12.2019
6432 Clouds 2 1019 84 10000 3.1 230 09:20 10.12.2019
6433 Clouds 2 1018 84 10000 3.6 260 08:58 10.12.2019
6434 Clouds 2 1019 84 10000 1.5 260 08:39 10.12.2019
6435 Clouds 2 1019 84 10000 1.5 260 08:39 10.12.2019
6436 Clear 2 1018 84 10000 3.6 250 08:19 10.12.2019
6437 Clouds 2 1019 84 10000 3.1 270 07:44 10.12.2019
6438 Clear 2 1017 84 10000 3.1 260 07:26 10.12.2019
6439 Clouds 3 1017 86 10000 5.1 290 06:50 10.12.2019
6440 Clear 3 1016 84 0 3.6 260 06:25 10.12.2019
6441 Clouds 3 1017 80 10000 6.2 300 05:57 10.12.2019
6442 Clouds 3 1017 84 10000 3.1 300 05:38 10.12.2019
6443 Clear 3 1014 80 10000 6.7 320 03:55 10.12.2019
6444 Clear 3 1014 80 10000 6.7 320 03:55 10.12.2019
6445 Clear 3 1013 79 0 5.1 300 03:24 10.12.2019
6446 Clear 3 1012 80 10000 7.7 320 01:56 10.12.2019
6447 Clear 3 1010 75 0 6.7 300 01:28 10.12.2019
6448 Clear 3 1010 75 0 6.7 300 01:28 10.12.2019
6449 Clear 3 1010 86 10000 8.2 310 00:58 10.12.2019
6450 Clear 3 1009 72 0 4.1 280 00:26 10.12.2019
6451 Clear 3 1008 86 10000 6.7 300 23:58 09.12.2019
6452 Clear 3 1009 72 6000 4.6 290 23:39 09.12.2019
6453 Clear 3 1007 77 0 4.1 280 23:20 09.12.2019
6454 Clear 3 1007 77 0 4.1 280 23:20 09.12.2019
6455 Clouds 3 1007 86 10000 6.7 310 22:56 09.12.2019
6456 Clear 4 1007 86 6000 4.6 300 22:38 09.12.2019
6457 Clouds 4 1005 75 10000 6.7 300 22:18 09.12.2019
6458 Clouds 4 1005 80 10000 7.7 320 21:55 09.12.2019
6459 Clear 5 1006 80 7000 9.8 320 21:37 09.12.2019
6460 Clouds 5 1003 75 10000 8.2 310 21:18 09.12.2019
6461 Rain 5 1003 75 10000 10.3 330 20:55 09.12.2019
6462 Rain 5 1002 75 10000 8.7 300 20:37 09.12.2019
6463 Rain 5 1002 75 10000 8.7 300 20:19 09.12.2019
6464 Clouds 5 1001 75 10000 11.3 310 19:55 09.12.2019
6465 Clouds 5 1001 75 10000 11.3 310 19:55 09.12.2019
6466 Clouds 5 1002 75 10000 7.2 310 19:37 09.12.2019
6467 Rain 5 1000 75 8000 9.3 300 19:18 09.12.2019
6468 Clouds 5 1000 75 10000 11.3 310 18:55 09.12.2019
6469 Clouds 6 1001 75 10000 6.2 290 18:36 09.12.2019
6470 Clouds 6 998 70 10000 7.7 300 18:18 09.12.2019
6471 Clouds 6 998 81 10000 9.8 310 17:56 09.12.2019
6472 Clouds 6 999 75 10000 7.7 310 17:37 09.12.2019
6473 Rain 6 997 70 10000 6.2 290 17:19 09.12.2019
6474 Clouds 6 997 87 10000 9.8 310 16:56 09.12.2019
6475 Clouds 6 997 86 10000 4.6 270 16:37 09.12.2019
6476 Clouds 6 996 75 10000 5.7 280 16:18 09.12.2019
6477 Clouds 6 995 87 10000 7.2 290 15:55 09.12.2019
6478 Clouds 6 996 87 10000 5.1 290 15:37 09.12.2019
6479 Clouds 6 994 93 10000 4.1 260 15:18 09.12.2019
6480 Rain 7 994 93 10000 7.7 290 14:42 09.12.2019
6481 Rain 7 994 93 10000 7.2 300 14:19 09.12.2019
6482 Rain 7 993 87 5000 8.7 270 13:58 09.12.2019
6483 Rain 7 993 87 10000 8.2 240 13:38 09.12.2019
6484 Clouds 7 992 87 10000 5.1 240 13:19 09.12.2019
6485 Rain 7 992 93 10000 8.7 250 12:57 09.12.2019
6486 Rain 7 993 87 5000 9.8 250 12:38 09.12.2019
6487 Rain 7 991 87 10000 8.7 250 12:19 09.12.2019
6488 Rain 7 991 93 6000 9.8 250 11:58 09.12.2019
6489 Clouds 7 992 81 10000 8.7 230 11:39 09.12.2019
6490 Rain 7 991 87 8000 6.7 240 11:21 09.12.2019
6491 Rain 7 991 87 4500 11.3 250 10:54 09.12.2019
6492 Clouds 6 992 81 10000 9.3 230 10:36 09.12.2019
6493 Clouds 6 990 87 10000 6.2 220 10:18 09.12.2019
6494 Rain 6 989 87 7000 6.2 220 09:41 09.12.2019
6495 Drizzle 6 990 93 7000 9.3 240 09:21 09.12.2019
6496 Rain 6 989 93 4500 10.8 230 08:55 09.12.2019
6497 Clouds 6 990 87 10000 10.8 230 08:37 09.12.2019
6498 Rain 6 988 93 10000 6.7 220 08:19 09.12.2019
6499 Drizzle 6 988 87 10000 8.7 230 07:42 09.12.2019
6500 Rain 6 987 93 8000 8.7 210 07:24 09.12.2019
6501 Rain 6 988 93 8000 9.3 230 06:55 09.12.2019
6502 Rain 6 987 93 6000 5.7 210 06:27 09.12.2019
6503 Rain 6 988 87 0 6.7 220 05:30 09.12.2019
6504 Clouds 6 988 87 10000 10.8 230 04:54 09.12.2019
6505 Clouds 6 987 81 10000 7.2 220 04:23 09.12.2019
6506 Thunderstorm 6 988 87 10000 9.8 240 02:28 09.12.2019
6507 Thunderstorm 6 988 87 10000 9.8 240 01:46 09.12.2019
6508 Clouds 6 988 81 10000 9.3 240 00:57 09.12.2019
6509 Rain 6 988 87 0 5.1 220 00:33 09.12.2019
6510 Clouds 6 988 87 10000 8.7 240 23:55 08.12.2019
6511 Clouds 6 988 87 10000 8.7 240 23:55 08.12.2019
6512 Rain 7 989 81 6000 9.3 230 23:37 08.12.2019
6513 Rain 7 987 87 8000 6.2 220 23:19 08.12.2019
6514 Clouds 6 988 87 10000 10.3 250 22:56 08.12.2019
6515 Clouds 7 989 87 10000 10.3 250 22:38 08.12.2019
6516 Clouds 7 989 87 10000 10.3 250 22:18 08.12.2019
6517 Rain 7 989 81 6000 10.3 270 21:56 08.12.2019
6518 Rain 7 990 81 4100 10.8 240 21:37 08.12.2019
6519 Rain 7 988 75 0 5.1 230 21:19 08.12.2019
6520 Clouds 7 989 81 10000 7.2 240 20:56 08.12.2019
6521 Rain 7 990 87 5000 9.8 230 20:37 08.12.2019
6522 Rain 7 988 81 10000 4.6 240 20:19 08.12.2019
6523 Rain 7 989 87 10000 9.3 260 19:55 08.12.2019
6524 Rain 7 990 87 4100 9.8 260 19:37 08.12.2019
6525 Rain 7 989 87 6000 9.8 250 19:18 08.12.2019
6526 Rain 7 989 81 4000 7.2 240 18:54 08.12.2019
6527 Clouds 8 988 81 10000 6.2 240 18:36 08.12.2019
6528 Clouds 8 988 81 10000 6.2 240 18:36 08.12.2019
6529 Clouds 8 988 81 10000 6.2 240 18:18 08.12.2019
6530 Rain 8 989 81 0 11.3 260 17:55 08.12.2019
6531 Rain 8 990 81 5000 9.8 250 17:36 08.12.2019
6532 Clouds 8 988 76 10000 5.7 240 17:18 08.12.2019
6533 Rain 8 989 87 0 12.3 260 16:55 08.12.2019
6534 Rain 8 990 87 4600 9.8 250 16:37 08.12.2019
6535 Clouds 9 988 76 10000 8.7 250 16:18 08.12.2019
6536 Rain 9 990 87 4400 12.9 250 15:38 08.12.2019
6537 Clouds 9 987 87 10000 10.3 250 15:19 08.12.2019
6538 Clouds 9 987 87 10000 10.3 250 15:19 08.12.2019
6539 Rain 9 988 93 0 10.8 250 14:58 08.12.2019
6540 Rain 9 990 87 5000 10.8 240 14:39 08.12.2019
6541 Rain 9 990 87 5000 10.8 240 14:39 08.12.2019
6542 Clouds 9 987 93 8000 9.8 240 14:20 08.12.2019
6543 Rain 9 988 93 0 12.3 260 13:54 08.12.2019
6544 Rain 9 990 93 2100 11.8 240 13:36 08.12.2019
6545 Rain 9 987 93 0 8.7 240 13:18 08.12.2019
6546 Rain 9 988 93 0 12.9 240 12:54 08.12.2019
6547 Rain 9 990 93 450 14.4 230 12:36 08.12.2019
6548 Rain 9 988 93 0 8.7 220 12:18 08.12.2019
6549 Drizzle 8 991 93 3000 9.3 220 11:38 08.12.2019
6550 Drizzle 8 991 93 3000 9.3 220 11:38 08.12.2019
6551 Drizzle 8 989 87 0 9.8 220 11:20 08.12.2019
6552 Rain 8 990 93 0 12.9 230 10:59 08.12.2019
6553 Rain 8 992 93 700 12.3 220 10:38 08.12.2019
6554 Drizzle 8 990 93 0 9.8 220 10:20 08.12.2019
6555 Rain 8 991 93 0 11.8 230 09:57 08.12.2019
6556 Rain 8 993 87 6000 7.7 220 09:38 08.12.2019
6557 Rain 8 993 87 10000 7.7 210 09:19 08.12.2019
6558 Rain 8 992 87 0 12.3 230 08:58 08.12.2019
6559 Rain 8 994 87 8000 8.7 210 08:38 08.12.2019
6560 Rain 8 992 87 0 9.3 210 08:19 08.12.2019
6561 Clouds 8 993 87 0 12.3 230 07:44 08.12.2019
6562 Clouds 8 993 81 0 9.8 220 07:20 08.12.2019
6563 Clouds 9 994 81 10000 11.8 230 06:51 08.12.2019
6564 Clouds 9 994 81 0 9.8 220 06:22 08.12.2019
6565 Clouds 8 995 87 10000 11.3 230 05:49 08.12.2019
6566 Clouds 8 996 87 0 8.7 220 05:18 08.12.2019
6567 Clouds 8 998 81 10000 10.8 230 03:51 08.12.2019
6568 Clouds 8 998 87 10000 10.3 210 03:26 08.12.2019
6569 Clouds 8 1000 87 0 6.2 220 02:40 08.12.2019
6570 Clouds 8 1002 81 10000 9.3 240 01:56 08.12.2019
6571 Clouds 8 1001 93 10000 7.7 230 01:27 08.12.2019
6572 Clouds 8 1003 87 10000 10.3 250 00:42 08.12.2019
6573 Clouds 8 1003 93 0 4.6 240 00:21 08.12.2019
6574 Clouds 8 1004 93 10000 7.7 250 23:55 07.12.2019
6575 Clouds 8 1005 93 4900 9.8 250 23:36 07.12.2019
6576 Rain 8 1004 93 0 3.6 230 23:18 07.12.2019
6577 Clouds 8 1005 93 10000 6.7 260 22:54 07.12.2019
6578 Rain 8 1006 93 4600 9.3 250 22:36 07.12.2019
6579 Rain 8 1004 93 0 3.6 230 22:18 07.12.2019
6580 Rain 8 1005 87 10000 6.7 250 21:54 07.12.2019
6581 Rain 8 1006 93 4600 8.2 250 21:36 07.12.2019
6582 Rain 7 1005 87 0 2.1 230 21:18 07.12.2019
6583 Rain 7 1006 93 5000 4.6 240 20:37 07.12.2019
6584 Rain 7 1005 87 0 2.6 240 20:19 07.12.2019
6585 Clouds 7 1005 87 10000 6.2 260 19:57 07.12.2019
6586 Rain 7 1006 93 5000 4.6 250 19:39 07.12.2019
6587 Rain 7 1005 87 0 4.1 240 19:21 07.12.2019
6588 Clouds 7 1005 87 10000 7.7 270 18:57 07.12.2019
6589 Rain 7 1006 93 4600 5.7 280 18:38 07.12.2019
6590 Rain 7 1005 87 0 4.6 260 18:18 07.12.2019
6591 Clouds 7 1005 87 10000 8.7 280 17:55 07.12.2019
6592 Rain 7 1006 93 5000 5.1 260 17:37 07.12.2019
6593 Clouds 7 1004 87 0 5.1 260 17:18 07.12.2019
6594 Clouds 7 1005 93 10000 8.7 280 16:55 07.12.2019
6595 Clouds 7 1006 87 5000 5.7 260 16:36 07.12.2019
6596 Clouds 7 1004 81 0 4.6 260 16:18 07.12.2019
6597 Clouds 8 1005 87 6000 6.7 270 15:40 07.12.2019
6598 Clouds 8 1003 81 0 4.1 260 15:22 07.12.2019
6599 Clouds 8 1004 87 6000 7.2 280 14:43 07.12.2019
6600 Clouds 8 1003 81 10000 5.1 270 14:20 07.12.2019
6601 Clouds 8 1003 87 10000 10.3 290 13:59 07.12.2019
6602 Clouds 8 1004 87 6000 8.2 270 13:39 07.12.2019
6603 Clouds 8 1002 81 10000 7.2 280 13:20 07.12.2019
6604 Clouds 9 1002 81 10000 10.3 290 12:55 07.12.2019
6605 Clouds 9 1003 81 5000 7.7 270 12:36 07.12.2019
6606 Clouds 8 1002 76 10000 6.2 280 12:18 07.12.2019
6607 Clouds 8 1002 81 10000 9.3 290 11:41 07.12.2019
6608 Clouds 8 1001 81 10000 5.1 270 11:23 07.12.2019
6609 Clouds 8 1002 87 10000 8.7 280 10:58 07.12.2019
6610 Clouds 8 1003 87 5000 6.2 270 10:36 07.12.2019
6611 Clouds 8 1001 81 10000 5.7 280 10:18 07.12.2019
6612 Clouds 7 1002 93 5000 5.7 270 09:40 07.12.2019
6613 Clouds 7 1000 81 10000 5.1 270 09:21 07.12.2019
6614 Clouds 7 1000 81 10000 5.1 270 09:21 07.12.2019
6615 Clouds 8 999 93 10000 9.8 290 08:47 07.12.2019
6616 Clouds 8 998 87 10000 6.7 290 08:25 07.12.2019
6617 Clouds 8 998 93 10000 13.4 320 07:57 07.12.2019
6618 Rain 8 999 93 1600 9.3 280 07:38 07.12.2019
6619 Clouds 8 996 93 10000 5.1 280 07:19 07.12.2019
6620 Drizzle 8 997 93 10000 12.3 290 06:45 07.12.2019
6621 Drizzle 8 996 93 2000 8.2 280 06:24 07.12.2019
6622 Drizzle 9 995 93 9000 11.3 280 04:49 07.12.2019
6623 Drizzle 8 994 93 8000 8.2 260 03:54 07.12.2019
6624 Clouds 8 994 93 10000 9.3 260 02:50 07.12.2019
6625 Rain 8 993 93 0 4.6 230 02:19 07.12.2019
6626 Rain 8 994 93 0 4.1 220 01:31 07.12.2019
6627 Drizzle 8 994 100 3000 8.7 240 00:52 07.12.2019
6628 Rain 8 994 100 0 5.7 220 00:19 07.12.2019
6629 Drizzle 8 994 93 3500 9.8 230 23:48 06.12.2019
6630 Drizzle 8 994 93 4500 6.2 220 23:24 06.12.2019
6631 Drizzle 8 995 93 3500 8.7 230 22:59 06.12.2019
6632 Rain 8 996 93 900 10.3 220 22:37 06.12.2019
6633 Drizzle 8 995 93 2500 6.2 220 22:19 06.12.2019
6634 Drizzle 8 995 93 2500 11.3 230 21:57 06.12.2019
6635 Rain 7 996 100 2400 10.3 220 21:38 06.12.2019
6636 Drizzle 7 995 100 3500 6.7 210 21:19 06.12.2019
6637 Drizzle 7 995 100 3500 6.7 210 20:42 06.12.2019
6638 Drizzle 7 995 93 3500 6.7 210 20:23 06.12.2019
6639 Drizzle 7 996 93 2300 8.2 220 19:58 06.12.2019
6640 Rain 7 997 93 1100 9.3 220 19:40 06.12.2019
6641 Drizzle 7 996 100 2500 6.7 210 19:21 06.12.2019
6642 Rain 7 996 93 0 9.8 230 18:55 06.12.2019
6643 Rain 7 998 93 1200 8.7 220 18:37 06.12.2019
6644 Drizzle 7 996 93 3000 6.2 210 18:19 06.12.2019
6645 Rain 7 997 93 0 9.3 230 17:55 06.12.2019
6646 Drizzle 7 997 93 5000 6.7 210 17:37 06.12.2019
6647 Drizzle 6 997 93 5000 6.7 210 17:19 06.12.2019
6648 Rain 6 997 100 0 9.8 230 16:42 06.12.2019
6649 Drizzle 6 998 93 6000 6.7 210 16:24 06.12.2019
6650 Rain 6 998 100 0 9.8 220 15:59 06.12.2019
6651 Drizzle 6 998 100 2000 7.2 210 15:40 06.12.2019
6652 Drizzle 6 998 93 2000 7.2 210 15:18 06.12.2019
6653 Rain 6 998 100 0 9.3 220 14:56 06.12.2019
6654 Rain 6 1000 93 3400 8.7 220 14:38 06.12.2019
6655 Drizzle 6 999 93 2500 6.7 210 14:18 06.12.2019
6656 Rain 6 1000 93 0 9.8 230 13:43 06.12.2019
6657 Rain 7 1000 93 2500 6.7 220 13:25 06.12.2019
6658 Rain 7 1000 93 0 9.3 230 12:43 06.12.2019
6659 Drizzle 7 1000 93 1800 5.7 220 12:23 06.12.2019
6660 Drizzle 7 1001 93 2500 10.3 240 11:58 06.12.2019
6661 Drizzle 7 1002 100 2200 10.3 220 11:39 06.12.2019
6662 Drizzle 7 1001 93 2000 9.3 240 11:21 06.12.2019
6663 Rain 7 1001 93 3000 9.8 240 10:44 06.12.2019
6664 Drizzle 7 1000 100 3000 6.2 230 10:22 06.12.2019
6665 Rain 7 1001 93 3000 9.3 240 09:58 06.12.2019
6666 Drizzle 7 1002 93 2500 11.3 230 09:38 06.12.2019
6667 Drizzle 7 1000 100 3000 6.7 230 09:20 06.12.2019
6668 Rain 7 1001 93 2500 13.4 250 08:57 06.12.2019
6669 Drizzle 7 1002 93 3000 11.3 230 08:38 06.12.2019
6670 Drizzle 7 1000 100 3000 7.7 230 08:20 06.12.2019
6671 Drizzle 7 1002 100 3000 12.3 230 07:37 06.12.2019
6672 Rain 6 1000 93 3000 11.8 250 07:19 06.12.2019
6673 Drizzle 7 1000 93 0 7.7 230 06:30 06.12.2019
6674 Rain 7 1001 93 3000 13.4 250 05:54 06.12.2019
6675 Drizzle 7 1003 93 3000 12.3 230 05:35 06.12.2019
6676 Rain 5 1001 93 0 8.7 220 02:19 06.12.2019
6677 Rain 5 1002 93 10000 13.9 240 01:43 06.12.2019
6678 Rain 5 1003 93 10000 13.9 230 00:49 06.12.2019
6679 Drizzle 5 1003 87 0 8.7 220 00:22 06.12.2019
6680 Clouds 5 1005 87 10000 12.9 230 23:50 05.12.2019
6681 Clouds 5 1005 87 0 8.2 220 23:20 05.12.2019
6682 Clouds 5 1006 93 6000 12.3 240 22:58 05.12.2019
6683 Clouds 5 1006 93 6000 11.3 240 22:38 05.12.2019
6684 Clouds 5 1006 93 6000 11.3 240 22:19 05.12.2019
6685 Clouds 5 1007 93 6000 9.8 220 21:55 05.12.2019
6686 Clouds 5 1009 93 4100 9.3 220 21:37 05.12.2019
6687 Mist 5 1006 87 5000 10.3 220 21:19 05.12.2019
6688 Clouds 5 1008 87 6000 9.8 240 20:55 05.12.2019
6689 Clouds 5 1008 87 6000 9.8 240 20:36 05.12.2019
6690 Clouds 5 1008 93 8000 5.7 220 20:18 05.12.2019
6691 Clouds 5 1009 93 9000 9.8 240 19:40 05.12.2019
6692 Clouds 6 1009 87 8000 5.7 220 19:22 05.12.2019
6693 Clouds 5 1010 93 7000 9.3 240 18:58 05.12.2019
6694 Clouds 6 1010 93 7000 9.3 240 18:38 05.12.2019
6695 Clouds 6 1010 87 8000 5.7 220 18:20 05.12.2019
6696 Clouds 6 1010 87 7000 8.7 250 17:55 05.12.2019
6697 Clouds 6 1010 87 7000 8.7 250 17:36 05.12.2019
6698 Mist 6 1012 93 3800 7.7 220 17:18 05.12.2019
6699 Clouds 6 1011 93 7000 9.3 250 16:40 05.12.2019
6700 Clouds 6 1011 93 7000 5.1 220 16:22 05.12.2019
6701 Clouds 7 1012 93 7000 8.2 230 15:58 05.12.2019
6702 Clouds 7 1012 93 7000 8.2 230 15:40 05.12.2019
6703 Clouds 7 1012 87 7000 5.1 210 15:21 05.12.2019
6704 Mist 7 1012 87 5000 7.2 230 14:57 05.12.2019
6705 Mist 7 1012 87 5000 7.2 230 14:38 05.12.2019
6706 Mist 7 1013 93 5000 6.7 230 14:20 05.12.2019
6707 Clouds 7 1012 93 7000 5.1 210 13:58 05.12.2019
6708 Mist 7 1013 93 4000 6.2 230 13:40 05.12.2019
6709 Clouds 7 1013 93 7000 5.1 220 13:21 05.12.2019
6710 Clouds 7 1013 93 7000 5.1 220 12:59 05.12.2019
6711 Mist 7 1014 87 2500 6.2 240 12:40 05.12.2019
6712 Clouds 6 1014 87 6000 4.6 210 12:22 05.12.2019
6713 Mist 6 1015 93 2500 6.7 230 11:56 05.12.2019
6714 Mist 6 1015 93 2500 6.7 230 11:37 05.12.2019
6715 Clouds 5 1015 93 5000 4.1 210 11:18 05.12.2019
6716 Mist 5 1015 93 2500 5.7 230 10:54 05.12.2019
6717 Mist 5 1015 93 2500 5.7 230 10:36 05.12.2019
6718 Clouds 5 1014 87 5000 4.1 220 10:18 05.12.2019
6719 Mist 5 1015 93 2800 5.7 240 09:42 05.12.2019
6720 Mist 5 1015 93 4000 3.6 220 09:20 05.12.2019
6721 Mist 5 1015 93 2800 6.7 230 08:58 05.12.2019
6722 Mist 5 1015 93 2800 6.7 230 08:37 05.12.2019
6723 Mist 5 1015 93 4000 4.6 220 08:19 05.12.2019
6724 Mist 6 1016 93 2800 6.7 230 07:49 05.12.2019
6725 Mist 5 1015 93 3000 4.6 210 07:31 05.12.2019
6726 Mist 6 1015 93 2800 5.1 230 06:57 05.12.2019
6727 Mist 5 1015 93 2800 5.1 230 06:38 05.12.2019
6728 Mist 5 1015 93 2800 5.7 210 06:18 05.12.2019
6729 Mist 5 1015 93 4500 5.1 210 05:47 05.12.2019
6730 Mist 6 1016 93 0 4.1 200 05:21 05.12.2019
6731 Clouds 5 1016 87 10000 4.6 250 03:52 05.12.2019
6732 Clouds 6 1017 87 9000 6.7 260 02:43 05.12.2019
6733 Clouds 5 1016 93 0 3.1 220 02:23 05.12.2019
6734 Clouds 6 1017 93 8000 5.7 230 01:52 05.12.2019
6735 Clear 6 1017 87 0 4.1 240 01:24 05.12.2019
6736 Clouds 6 1017 87 8000 6.2 240 00:50 05.12.2019
6737 Clear 6 1017 87 0 3.6 220 00:29 05.12.2019
6738 Clouds 6 1017 87 8000 6.2 230 23:57 04.12.2019
6739 Clouds 6 1017 87 8000 6.2 230 23:39 04.12.2019
6740 Mist 6 1017 93 0 3.1 220 23:20 04.12.2019
6741 Mist 6 1018 93 5000 3.6 210 22:55 04.12.2019
6742 Mist 6 1018 93 5000 3.6 210 22:36 04.12.2019
6743 Mist 6 1018 93 5000 4.1 210 22:18 04.12.2019
6744 Clouds 6 1018 93 7000 6.7 230 21:54 04.12.2019
6745 Clouds 6 1018 93 7000 6.7 230 21:36 04.12.2019
6746 Clouds 6 1017 100 5000 4.1 220 21:18 04.12.2019
6747 Clouds 6 1018 93 9000 6.2 230 20:55 04.12.2019
6748 Clouds 6 1018 93 9000 6.2 230 20:37 04.12.2019
6749 Clouds 6 1018 93 7000 2.6 220 20:19 04.12.2019
6750 Clouds 6 1018 93 10000 6.7 230 19:40 04.12.2019
6751 Clouds 6 1018 93 8000 3.1 220 19:21 04.12.2019
6752 Clouds 6 1018 93 9000 5.7 240 18:58 04.12.2019
6753 Clouds 6 1018 93 9000 5.7 240 18:58 04.12.2019
6754 Clouds 6 1018 93 9000 5.7 240 18:40 04.12.2019
6755 Mist 6 1019 93 5000 4.6 220 18:22 04.12.2019
6756 Clouds 6 1018 87 7000 6.2 230 17:56 04.12.2019
6757 Clouds 6 1018 87 7000 6.2 230 17:37 04.12.2019
6758 Clouds 6 1018 93 6000 3.1 220 17:18 04.12.2019
6759 Clouds 6 1018 87 7000 6.2 240 16:40 04.12.2019
6760 Clouds 6 1018 87 7000 6.2 240 16:40 04.12.2019
6761 Clouds 6 1018 87 8000 3.6 220 16:20 04.12.2019
6762 Clouds 6 1018 87 7000 6.7 250 15:57 04.12.2019
6763 Clouds 6 1018 87 7000 6.7 250 15:39 04.12.2019
6764 Clouds 7 1018 87 10000 4.1 240 15:20 04.12.2019
6765 Clouds 7 1018 87 10000 4.1 240 14:59 04.12.2019
6766 Clouds 7 1018 87 7000 7.2 260 14:40 04.12.2019
6767 Clouds 7 1018 87 10000 3.1 240 14:21 04.12.2019
6768 Clouds 7 1018 87 7000 7.2 250 13:56 04.12.2019
6769 Clouds 7 1018 87 7000 7.2 250 13:36 04.12.2019
6770 Mist 7 1019 87 4600 6.2 230 13:18 04.12.2019
6771 Clouds 7 1019 87 8000 6.2 250 12:41 04.12.2019
6772 Clouds 7 1020 87 6000 4.6 230 12:23 04.12.2019
6773 Clouds 7 1019 87 10000 5.7 260 11:44 04.12.2019
6774 Mist 7 1020 87 5000 3.1 230 11:26 04.12.2019
6775 Clouds 7 1019 81 10000 4.6 250 10:58 04.12.2019
6776 Clouds 7 1019 81 10000 4.6 250 10:40 04.12.2019
6777 Clouds 6 1018 87 10000 3.6 240 10:22 04.12.2019
6778 Clouds 6 1019 87 10000 6.2 260 09:44 04.12.2019
6779 Mist 6 1020 87 4300 4.1 230 09:24 04.12.2019
6780 Clouds 6 1018 87 10000 6.2 260 08:56 04.12.2019
6781 Clouds 6 1018 87 10000 6.2 260 08:38 04.12.2019
6782 Clouds 7 1018 81 10000 3.1 240 08:19 04.12.2019
6783 Clouds 7 1019 81 10000 7.2 260 07:42 04.12.2019
6784 Clouds 7 1018 81 10000 2.6 230 07:22 04.12.2019
6785 Clouds 7 1018 81 0 7.7 260 06:33 04.12.2019
6786 Clouds 7 1018 81 0 6.7 260 05:48 04.12.2019
6787 Clouds 7 1018 81 0 8.2 270 04:58 04.12.2019
6788 Clouds 7 1019 81 0 7.7 270 03:54 04.12.2019
6789 Clouds 7 1018 87 0 4.1 260 02:21 04.12.2019
6790 Clouds 7 1019 93 0 7.7 270 00:50 04.12.2019
6791 Clouds 7 1019 93 0 4.1 260 00:23 04.12.2019
6792 Clouds 7 1019 93 0 8.7 270 23:56 03.12.2019
6793 Clouds 7 1019 93 0 8.7 270 23:38 03.12.2019
6794 Mist 7 1019 93 5000 4.6 260 23:19 03.12.2019
6795 Clouds 7 1019 93 0 9.8 270 22:40 03.12.2019
6796 Clouds 7 1019 93 8000 4.6 260 22:19 03.12.2019
6797 Clouds 7 1019 93 8000 4.6 260 21:58 03.12.2019
6798 Clouds 7 1019 93 0 10.8 270 21:38 03.12.2019
6799 Clouds 7 1019 93 0 10.8 270 21:38 03.12.2019
6800 Mist 7 1019 93 4500 5.7 260 21:19 03.12.2019
6801 Clouds 7 1020 93 0 9.3 270 20:58 03.12.2019
6802 Clouds 7 1020 93 0 9.3 270 20:39 03.12.2019
6803 Clouds 7 1019 93 8000 5.7 260 20:18 03.12.2019
6804 Clouds 7 1020 93 0 9.8 270 19:55 03.12.2019
6805 Clouds 7 1020 93 0 9.8 270 19:37 03.12.2019
6806 Clouds 7 1019 93 8000 5.1 240 19:18 03.12.2019
6807 Drizzle 7 1020 100 5000 9.3 260 18:56 03.12.2019
6808 Drizzle 7 1020 100 5000 9.3 260 18:37 03.12.2019
6809